<?xml version="1.0" encoding="UTF-8" standalone="no" ?><gpx xmlns="http://www.topografix.com/GPX/1/1" xmlns:gpxx="http://www.garmin.com/xmlschemas/GpxExtensions/v3" xmlns:wptx1="http://www.garmin.com/xmlschemas/WaypointExtension/v1" xmlns:gpxtpx="http://www.garmin.com/xmlschemas/TrackPointExtension/v1" creator="Astro 320" version="1.1" xmlns:xsi="http://www.w3.org/2001/XMLSchema-instance" xsi:schemaLocation="http://www.topografix.com/GPX/1/1 http://www.topografix.com/GPX/1/1/gpx.xsd http://www.garmin.com/xmlschemas/GpxExtensions/v3 http://www8.garmin.com/xmlschemas/GpxExtensionsv3.xsd http://www.garmin.com/xmlschemas/WaypointExtension/v1 http://www8.garmin.com/xmlschemas/WaypointExtensionv1.xsd http://www.garmin.com/xmlschemas/TrackPointExtension/v1 http://www.garmin.com/xmlschemas/TrackPointExtensionv1.xsd"><metadata><link href="http://www.garmin.com"><text>Garmin International</text></link><time>2026-08-31T14:13:16Z</time></metadata><trk><name>2026-08-31 17:13:14</name><extensions><gpxx:TrackExtension><gpxx:DisplayColor>Cyan</gpxx:DisplayColor></gpxx:TrackExtension></extensions><trkseg><trkpt lat="60.1253163535" lon="30.5165283848"><ele>75.12</ele><time>2026-08-20T13:30:04Z</time></trkpt><trkpt lat="60.1253073849" lon="30.5164884031"><ele>75.12</ele><time>2026-08-20T13:30:24Z</time></trkpt><trkpt lat="60.1253063791" lon="30.5164861400"><ele>75.12</ele><time>2026-08-20T13:30:28Z</time></trkpt></trkseg><trkseg><trkpt lat="59.6478673909" lon="30.7426693663"><ele>19999.88</ele><time>2026-08-31T12:13:45Z</time></trkpt><trkpt lat="59.6478559915" lon="30.7426216733"><ele>19999.88</ele><time>2026-08-31T12:14:01Z</time></trkpt><trkpt lat="59.6478530578" lon="30.7426110283"><ele>19328.89</ele><time>2026-08-31T12:14:09Z</time></trkpt><trkpt lat="59.6478523873" lon="30.7426134590"><ele>18685.28</ele><time>2026-08-31T12:14:10Z</time></trkpt><trkpt lat="59.6478518005" lon="30.7426173147"><ele>18063.79</ele><time>2026-08-31T12:14:11Z</time></trkpt><trkpt lat="59.6478525549" lon="30.7426186558"><ele>17462.49</ele><time>2026-08-31T12:14:12Z</time></trkpt><trkpt lat="59.6478523035" lon="30.7426192425"><ele>16881.37</ele><time>2026-08-31T12:14:13Z</time></trkpt><trkpt lat="59.6478528064" lon="30.7426184881"><ele>16319.96</ele><time>2026-08-31T12:14:14Z</time></trkpt><trkpt lat="59.6478523035" lon="30.7426164765"><ele>15776.81</ele><time>2026-08-31T12:14:15Z</time></trkpt><trkpt lat="59.6478497889" lon="30.7426185720"><ele>15251.93</ele><time>2026-08-31T12:14:16Z</time></trkpt><trkpt lat="59.6478491183" lon="30.7426164765"><ele>14744.36</ele><time>2026-08-31T12:14:17Z</time></trkpt><trkpt lat="59.6478479449" lon="30.7426130399"><ele>14253.60</ele><time>2026-08-31T12:14:18Z</time></trkpt><trkpt lat="59.6478463523" lon="30.7426123694"><ele>13779.67</ele><time>2026-08-31T12:14:19Z</time></trkpt><trkpt lat="59.6478455141" lon="30.7426142134"><ele>13321.13</ele><time>2026-08-31T12:14:20Z</time></trkpt><trkpt lat="59.6478508785" lon="30.7426198293"><ele>12877.96</ele><time>2026-08-31T12:14:21Z</time></trkpt><trkpt lat="59.6478543989" lon="30.7426202483"><ele>12449.69</ele><time>2026-08-31T12:14:22Z</time></trkpt><trkpt lat="59.6478551533" lon="30.7426215056"><ele>12035.84</ele><time>2026-08-31T12:14:23Z</time></trkpt><trkpt lat="59.6478540637" lon="30.7426233497"><ele>11635.45</ele><time>2026-08-31T12:14:24Z</time></trkpt><trkpt lat="59.6478528902" lon="30.7426225115"><ele>11248.52</ele><time>2026-08-31T12:14:25Z</time></trkpt><trkpt lat="59.6478500403" lon="30.7426204160"><ele>10874.57</ele><time>2026-08-31T12:14:26Z</time></trkpt><trkpt lat="59.6478481125" lon="30.7426215895"><ele>10512.63</ele><time>2026-08-31T12:14:27Z</time></trkpt><trkpt lat="59.6478464361" lon="30.7426247746"><ele>10163.20</ele><time>2026-08-31T12:14:28Z</time></trkpt><trkpt lat="59.6478442568" lon="30.7426236011"><ele>9825.29</ele><time>2026-08-31T12:14:29Z</time></trkpt><trkpt lat="59.6478461009" lon="30.7426212542"><ele>9498.44</ele><time>2026-08-31T12:14:30Z</time></trkpt><trkpt lat="59.6478459332" lon="30.7426125370"><ele>9182.65</ele><time>2026-08-31T12:14:31Z</time></trkpt><trkpt lat="59.6478511300" lon="30.7426148839"><ele>8877.43</ele><time>2026-08-31T12:14:32Z</time></trkpt><trkpt lat="59.6478545666" lon="30.7426191587"><ele>8582.79</ele><time>2026-08-31T12:14:33Z</time></trkpt><trkpt lat="59.6478554886" lon="30.7426208351"><ele>8297.28</ele><time>2026-08-31T12:14:34Z</time></trkpt><trkpt lat="59.6478576679" lon="30.7426210865"><ele>8021.86</ele><time>2026-08-31T12:14:35Z</time></trkpt><trkpt lat="59.6478679776" lon="30.7426293008"><ele>7755.57</ele><time>2026-08-31T12:14:36Z</time></trkpt><trkpt lat="59.6478709113" lon="30.7426325697"><ele>7497.94</ele><time>2026-08-31T12:14:37Z</time></trkpt><trkpt lat="59.6478707436" lon="30.7426339947"><ele>7248.96</ele><time>2026-08-31T12:14:38Z</time></trkpt><trkpt lat="59.6478709951" lon="30.7426330727"><ele>7008.63</ele><time>2026-08-31T12:14:39Z</time></trkpt><trkpt lat="59.6478720009" lon="30.7426339947"><ele>6775.99</ele><time>2026-08-31T12:14:40Z</time></trkpt><trkpt lat="59.6478718333" lon="30.7426350005"><ele>6551.04</ele><time>2026-08-31T12:14:41Z</time></trkpt><trkpt lat="59.6478729229" lon="30.7426364254"><ele>6333.78</ele><time>2026-08-31T12:14:42Z</time></trkpt><trkpt lat="59.6478733420" lon="30.7426366769"><ele>6123.74</ele><time>2026-08-31T12:14:43Z</time></trkpt><trkpt lat="59.6478756052" lon="30.7426380180"><ele>5920.90</ele><time>2026-08-31T12:14:44Z</time></trkpt><trkpt lat="59.6478806343" lon="30.7426406164"><ele>5724.31</ele><time>2026-08-31T12:14:45Z</time></trkpt><trkpt lat="59.6478845738" lon="30.7426443044"><ele>5534.45</ele><time>2026-08-31T12:14:46Z</time></trkpt><trkpt lat="59.6478866693" lon="30.7426487468"><ele>5351.32</ele><time>2026-08-31T12:14:47Z</time></trkpt><trkpt lat="59.6478880942" lon="30.7426520996"><ele>5173.95</ele><time>2026-08-31T12:14:48Z</time></trkpt><trkpt lat="59.6478878427" lon="30.7426573802"><ele>5002.84</ele><time>2026-08-31T12:14:49Z</time></trkpt><trkpt lat="59.6478867531" lon="30.7426617388"><ele>4837.01</ele><time>2026-08-31T12:14:50Z</time></trkpt><trkpt lat="59.6478850767" lon="30.7426659297"><ele>4676.95</ele><time>2026-08-31T12:14:51Z</time></trkpt><trkpt lat="59.6478832327" lon="30.7426670194"><ele>4522.18</ele><time>2026-08-31T12:14:52Z</time></trkpt><trkpt lat="59.6478815563" lon="30.7426637504"><ele>4372.21</ele><time>2026-08-31T12:14:53Z</time></trkpt><trkpt lat="59.6478795446" lon="30.7426635828"><ele>4228.02</ele><time>2026-08-31T12:14:54Z</time></trkpt><trkpt lat="59.6478774492" lon="30.7426640019"><ele>4088.14</ele><time>2026-08-31T12:14:55Z</time></trkpt><trkpt lat="59.6478757728" lon="30.7426618226"><ele>3952.60</ele><time>2026-08-31T12:14:56Z</time></trkpt><trkpt lat="59.6478751022" lon="30.7426619902"><ele>3821.86</ele><time>2026-08-31T12:14:57Z</time></trkpt><trkpt lat="59.6478772815" lon="30.7426536083"><ele>3695.93</ele><time>2026-08-31T12:14:58Z</time></trkpt><trkpt lat="59.6478762757" lon="30.7426426280"><ele>3573.84</ele><time>2026-08-31T12:14:59Z</time></trkpt><trkpt lat="59.6478758566" lon="30.7426352520"><ele>3455.60</ele><time>2026-08-31T12:15:00Z</time></trkpt><trkpt lat="59.6478758566" lon="30.7426313125"><ele>3341.68</ele><time>2026-08-31T12:15:01Z</time></trkpt><trkpt lat="59.6478744317" lon="30.7426273730"><ele>3231.13</ele><time>2026-08-31T12:15:02Z</time></trkpt><trkpt lat="59.6478735097" lon="30.7426246069"><ele>3124.42</ele><time>2026-08-31T12:15:03Z</time></trkpt><trkpt lat="59.6478723362" lon="30.7426214218"><ele>3021.56</ele><time>2026-08-31T12:15:04Z</time></trkpt><trkpt lat="59.6478690673" lon="30.7426190749"><ele>2921.58</ele><time>2026-08-31T12:15:05Z</time></trkpt><trkpt lat="59.6478666365" lon="30.7426187396"><ele>2825.45</ele><time>2026-08-31T12:15:06Z</time></trkpt><trkpt lat="59.6478663012" lon="30.7426189072"><ele>2732.20</ele><time>2026-08-31T12:15:07Z</time></trkpt><trkpt lat="59.6478646249" lon="30.7426186558"><ele>2642.32</ele><time>2026-08-31T12:15:08Z</time></trkpt><trkpt lat="59.6478640381" lon="30.7426185720"><ele>2555.32</ele><time>2026-08-31T12:15:09Z</time></trkpt><trkpt lat="59.6478642058" lon="30.7426199969"><ele>2471.21</ele><time>2026-08-31T12:15:10Z</time></trkpt><trkpt lat="59.6478647925" lon="30.7426215056"><ele>2389.97</ele><time>2026-08-31T12:15:11Z</time></trkpt><trkpt lat="59.6478671394" lon="30.7426244393"><ele>2311.15</ele><time>2026-08-31T12:15:12Z</time></trkpt><trkpt lat="59.6478348691" lon="30.7428228389"><ele>2235.20</ele><time>2026-08-31T12:15:31Z</time></trkpt><trkpt lat="59.6478352044" lon="30.7428261079"><ele>2161.66</ele><time>2026-08-31T12:15:32Z</time></trkpt><trkpt lat="59.6478353720" lon="30.7428255212"><ele>2090.52</ele><time>2026-08-31T12:15:33Z</time></trkpt><trkpt lat="59.6478377189" lon="30.7428111881"><ele>2022.27</ele><time>2026-08-31T12:15:34Z</time></trkpt><trkpt lat="59.6478398144" lon="30.7427955978"><ele>1955.94</ele><time>2026-08-31T12:15:35Z</time></trkpt><trkpt lat="59.6478412393" lon="30.7427867968"><ele>1891.53</ele><time>2026-08-31T12:15:36Z</time></trkpt><trkpt lat="59.6478419099" lon="30.7427768223"><ele>1829.53</ele><time>2026-08-31T12:15:37Z</time></trkpt><trkpt lat="59.6478433348" lon="30.7427623216"><ele>1769.44</ele><time>2026-08-31T12:15:38Z</time></trkpt><trkpt lat="59.6478445921" lon="30.7427437976"><ele>1711.76</ele><time>2026-08-31T12:15:39Z</time></trkpt><trkpt lat="59.6478455141" lon="30.7427224237"><ele>1655.53</ele><time>2026-08-31T12:15:40Z</time></trkpt><trkpt lat="59.6478495374" lon="30.7426961884"><ele>1601.69</ele><time>2026-08-31T12:15:41Z</time></trkpt><trkpt lat="59.6478524711" lon="30.7426784188"><ele>1549.30</ele><time>2026-08-31T12:15:42Z</time></trkpt><trkpt lat="59.6478529740" lon="30.7426632475"><ele>1498.83</ele><time>2026-08-31T12:15:43Z</time></trkpt><trkpt lat="59.6478553209" lon="30.7426426280"><ele>1449.81</ele><time>2026-08-31T12:15:44Z</time></trkpt><trkpt lat="59.6478577517" lon="30.7426302228"><ele>1402.22</ele><time>2026-08-31T12:15:45Z</time></trkpt><trkpt lat="59.6478591766" lon="30.7426220924"><ele>1356.56</ele><time>2026-08-31T12:15:46Z</time></trkpt><trkpt lat="59.6478613559" lon="30.7426163089"><ele>1312.34</ele><time>2026-08-31T12:15:47Z</time></trkpt><trkpt lat="59.6478638705" lon="30.7426101901"><ele>1270.04</ele><time>2026-08-31T12:15:48Z</time></trkpt><trkpt lat="59.6478658821" lon="30.7426021434"><ele>1228.70</ele><time>2026-08-31T12:15:49Z</time></trkpt><trkpt lat="59.6478678100" lon="30.7425966952"><ele>1188.81</ele><time>2026-08-31T12:15:50Z</time></trkpt><trkpt lat="59.6478687320" lon="30.7425889838"><ele>1149.87</ele><time>2026-08-31T12:15:51Z</time></trkpt><trkpt lat="59.6478700731" lon="30.7425807696"><ele>1112.86</ele><time>2026-08-31T12:15:52Z</time></trkpt><trkpt lat="59.6478729229" lon="30.7425680291"><ele>1076.81</ele><time>2026-08-31T12:15:53Z</time></trkpt><trkpt lat="59.6478753537" lon="30.7425552886"><ele>1041.73</ele><time>2026-08-31T12:15:54Z</time></trkpt><trkpt lat="59.6478778683" lon="30.7425463200"><ele>1008.08</ele><time>2026-08-31T12:15:55Z</time></trkpt><trkpt lat="59.6478807181" lon="30.7425360940"><ele>975.39</ele><time>2026-08-31T12:15:56Z</time></trkpt><trkpt lat="59.6478835680" lon="30.7425227668"><ele>944.15</ele><time>2026-08-31T12:15:57Z</time></trkpt><trkpt lat="59.6478851605" lon="30.7425143011"><ele>913.39</ele><time>2026-08-31T12:15:58Z</time></trkpt><trkpt lat="59.6478870045" lon="30.7425079308"><ele>884.07</ele><time>2026-08-31T12:15:59Z</time></trkpt><trkpt lat="59.6478853282" lon="30.7424989622"><ele>855.71</ele><time>2026-08-31T12:16:05Z</time></trkpt><trkpt lat="59.6478844900" lon="30.7424981240"><ele>828.31</ele><time>2026-08-31T12:16:06Z</time></trkpt><trkpt lat="59.6478831489" lon="30.7424982078"><ele>801.40</ele><time>2026-08-31T12:16:07Z</time></trkpt><trkpt lat="59.6478811372" lon="30.7424987108"><ele>775.92</ele><time>2026-08-31T12:16:08Z</time></trkpt><trkpt lat="59.6478809696" lon="30.7424988784"><ele>750.93</ele><time>2026-08-31T12:16:09Z</time></trkpt><trkpt lat="59.6478808858" lon="30.7424987946"><ele>726.89</ele><time>2026-08-31T12:16:10Z</time></trkpt><trkpt lat="59.6478805505" lon="30.7424987108"><ele>703.82</ele><time>2026-08-31T12:16:11Z</time></trkpt><trkpt lat="59.6478808019" lon="30.7424986269"><ele>681.23</ele><time>2026-08-31T12:16:12Z</time></trkpt><trkpt lat="59.6478808858" lon="30.7424981240"><ele>659.60</ele><time>2026-08-31T12:16:13Z</time></trkpt><trkpt lat="59.6478810534" lon="30.7424977049"><ele>638.93</ele><time>2026-08-31T12:16:14Z</time></trkpt><trkpt lat="59.6478819754" lon="30.7424963638"><ele>618.26</ele><time>2026-08-31T12:16:15Z</time></trkpt><trkpt lat="59.6478828974" lon="30.7424950227"><ele>599.04</ele><time>2026-08-31T12:16:16Z</time></trkpt><trkpt lat="59.6478837356" lon="30.7424925081"><ele>579.81</ele><time>2026-08-31T12:16:17Z</time></trkpt><trkpt lat="59.6478839032" lon="30.7424913347"><ele>561.55</ele><time>2026-08-31T12:16:18Z</time></trkpt><trkpt lat="59.6478839871" lon="30.7424912509"><ele>543.76</ele><time>2026-08-31T12:16:19Z</time></trkpt><trkpt lat="59.6478839032" lon="30.7424912509"><ele>526.94</ele><time>2026-08-31T12:16:20Z</time></trkpt><trkpt lat="59.6478839871" lon="30.7424915023"><ele>510.12</ele><time>2026-08-31T12:16:21Z</time></trkpt><trkpt lat="59.6478841547" lon="30.7424920052"><ele>494.26</ele><time>2026-08-31T12:16:22Z</time></trkpt><trkpt lat="59.6478837356" lon="30.7424927596"><ele>478.87</ele><time>2026-08-31T12:16:23Z</time></trkpt><trkpt lat="59.6478834841" lon="30.7424933463"><ele>463.97</ele><time>2026-08-31T12:16:24Z</time></trkpt><trkpt lat="59.6478833165" lon="30.7424936816"><ele>449.55</ele><time>2026-08-31T12:16:25Z</time></trkpt><trkpt lat="59.6478834003" lon="30.7424946036"><ele>435.61</ele><time>2026-08-31T12:16:26Z</time></trkpt><trkpt lat="59.6478837356" lon="30.7424951065"><ele>422.16</ele><time>2026-08-31T12:16:27Z</time></trkpt><trkpt lat="59.6478937939" lon="30.7424987108"><ele>408.70</ele><time>2026-08-31T12:16:28Z</time></trkpt><trkpt lat="59.6478903573" lon="30.7425011415"><ele>396.20</ele><time>2026-08-31T12:16:29Z</time></trkpt><trkpt lat="59.6478900220" lon="30.7425019797"><ele>384.18</ele><time>2026-08-31T12:16:30Z</time></trkpt><trkpt lat="59.6478885971" lon="30.7425039914"><ele>19999.88</ele><time>2026-08-31T12:16:31Z</time></trkpt><trkpt lat="59.6478875913" lon="30.7425106131"><ele>19999.88</ele><time>2026-08-31T12:16:32Z</time></trkpt><trkpt lat="59.6478866693" lon="30.7425166480"><ele>19988.83</ele><time>2026-08-31T12:16:33Z</time></trkpt><trkpt lat="59.6478855796" lon="30.7425187435"><ele>19977.78</ele><time>2026-08-31T12:16:34Z</time></trkpt><trkpt lat="59.6478834841" lon="30.7425259519"><ele>19966.72</ele><time>2026-08-31T12:16:35Z</time></trkpt><trkpt lat="59.6478822269" lon="30.7425322384"><ele>19955.67</ele><time>2026-08-31T12:16:36Z</time></trkpt><trkpt lat="59.6478918660" lon="30.7425384410"><ele>19944.61</ele><time>2026-08-31T12:16:37Z</time></trkpt><trkpt lat="59.6478905249" lon="30.7425428834"><ele>19933.55</ele><time>2026-08-31T12:16:38Z</time></trkpt><trkpt lat="59.6478899382" lon="30.7425450627"><ele>19922.50</ele><time>2026-08-31T12:16:39Z</time></trkpt><trkpt lat="59.6478895191" lon="30.7425459847"><ele>19911.44</ele><time>2026-08-31T12:16:40Z</time></trkpt><trkpt lat="59.6478889324" lon="30.7425472420"><ele>19900.39</ele><time>2026-08-31T12:16:41Z</time></trkpt><trkpt lat="59.6478888486" lon="30.7425494213"><ele>19889.33</ele><time>2026-08-31T12:16:42Z</time></trkpt><trkpt lat="59.6478889324" lon="30.7425495051"><ele>19878.28</ele><time>2026-08-31T12:16:43Z</time></trkpt><trkpt lat="59.6478885133" lon="30.7425479963"><ele>19867.22</ele><time>2026-08-31T12:16:44Z</time></trkpt><trkpt lat="59.6478873398" lon="30.7425412070"><ele>19856.17</ele><time>2026-08-31T12:16:45Z</time></trkpt><trkpt lat="59.6478870884" lon="30.7425411232"><ele>19845.11</ele><time>2026-08-31T12:16:46Z</time></trkpt><trkpt lat="59.6478860825" lon="30.7425410394"><ele>19834.06</ele><time>2026-08-31T12:16:47Z</time></trkpt><trkpt lat="59.6478856634" lon="30.7425402012"><ele>19823.00</ele><time>2026-08-31T12:16:48Z</time></trkpt><trkpt lat="59.6478853282" lon="30.7425399497"><ele>19812.43</ele><time>2026-08-31T12:16:49Z</time></trkpt><trkpt lat="59.6478849091" lon="30.7425396144"><ele>19801.37</ele><time>2026-08-31T12:16:50Z</time></trkpt><trkpt lat="59.6478836518" lon="30.7425403688"><ele>19790.32</ele><time>2026-08-31T12:16:51Z</time></trkpt><trkpt lat="59.6478819754" lon="30.7425416261"><ele>19779.26</ele><time>2026-08-31T12:16:52Z</time></trkpt><trkpt lat="59.6478808019" lon="30.7425412908"><ele>19768.21</ele><time>2026-08-31T12:16:53Z</time></trkpt><trkpt lat="59.6478797961" lon="30.7425402850"><ele>19757.15</ele><time>2026-08-31T12:16:54Z</time></trkpt><trkpt lat="59.6478792094" lon="30.7425386924"><ele>19746.58</ele><time>2026-08-31T12:16:55Z</time></trkpt><trkpt lat="59.6478786226" lon="30.7425366808"><ele>19735.52</ele><time>2026-08-31T12:16:56Z</time></trkpt><trkpt lat="59.6478789579" lon="30.7425346691"><ele>19724.47</ele><time>2026-08-31T12:16:57Z</time></trkpt><trkpt lat="59.6478790417" lon="30.7425323222"><ele>19713.41</ele><time>2026-08-31T12:16:58Z</time></trkpt><trkpt lat="59.6478792094" lon="30.7425304782"><ele>19702.84</ele><time>2026-08-31T12:16:59Z</time></trkpt><trkpt lat="59.6478781197" lon="30.7425260358"><ele>19691.78</ele><time>2026-08-31T12:17:00Z</time></trkpt><trkpt lat="59.6478764433" lon="30.7425216772"><ele>19680.73</ele><time>2026-08-31T12:17:01Z</time></trkpt><trkpt lat="59.6478688996" lon="30.7425167318"><ele>19669.67</ele><time>2026-08-31T12:17:02Z</time></trkpt><trkpt lat="59.6478631999" lon="30.7425061706"><ele>19659.10</ele><time>2026-08-31T12:17:03Z</time></trkpt><trkpt lat="59.6478668042" lon="30.7424943522"><ele>19648.04</ele><time>2026-08-31T12:17:04Z</time></trkpt><trkpt lat="59.6478751861" lon="30.7424854673"><ele>19636.99</ele><time>2026-08-31T12:17:05Z</time></trkpt><trkpt lat="59.6478689834" lon="30.7424842939"><ele>19626.41</ele><time>2026-08-31T12:17:06Z</time></trkpt><trkpt lat="59.6478706598" lon="30.7424754929"><ele>19615.36</ele><time>2026-08-31T12:17:07Z</time></trkpt><trkpt lat="59.6478745155" lon="30.7424656861"><ele>19604.30</ele><time>2026-08-31T12:17:08Z</time></trkpt><trkpt lat="59.6478823945" lon="30.7424583100"><ele>19593.73</ele><time>2026-08-31T12:17:09Z</time></trkpt><trkpt lat="59.6478768624" lon="30.7424575556"><ele>19582.67</ele><time>2026-08-31T12:17:10Z</time></trkpt><trkpt lat="59.6478672232" lon="30.7424660213"><ele>19572.10</ele><time>2026-08-31T12:17:11Z</time></trkpt><trkpt lat="59.6478763595" lon="30.7424372714"><ele>19561.04</ele><time>2026-08-31T12:17:12Z</time></trkpt><trkpt lat="59.6478803828" lon="30.7424241118"><ele>19549.99</ele><time>2026-08-31T12:17:13Z</time></trkpt><trkpt lat="59.6478833165" lon="30.7424166519"><ele>19539.41</ele><time>2026-08-31T12:17:14Z</time></trkpt><trkpt lat="59.6478851605" lon="30.7424131315"><ele>19528.36</ele><time>2026-08-31T12:17:15Z</time></trkpt><trkpt lat="59.6478841547" lon="30.7424142212"><ele>19517.78</ele><time>2026-08-31T12:17:16Z</time></trkpt><trkpt lat="59.6478827298" lon="30.7424147241"><ele>19506.73</ele><time>2026-08-31T12:17:17Z</time></trkpt><trkpt lat="59.6478819754" lon="30.7424143888"><ele>19496.15</ele><time>2026-08-31T12:17:18Z</time></trkpt><trkpt lat="59.6478801314" lon="30.7424216811"><ele>19485.10</ele><time>2026-08-31T12:17:19Z</time></trkpt><trkpt lat="59.6478781197" lon="30.7424310688"><ele>19474.53</ele><time>2026-08-31T12:17:20Z</time></trkpt><trkpt lat="59.6478770301" lon="30.7424405403"><ele>19463.47</ele><time>2026-08-31T12:17:21Z</time></trkpt><trkpt lat="59.6478758566" lon="30.7424508501"><ele>19452.90</ele><time>2026-08-31T12:17:22Z</time></trkpt><trkpt lat="59.6478748508" lon="30.7424602378"><ele>19441.84</ele><time>2026-08-31T12:17:23Z</time></trkpt><trkpt lat="59.6478733420" lon="30.7424666081"><ele>19431.27</ele><time>2026-08-31T12:17:24Z</time></trkpt><trkpt lat="59.6478720009" lon="30.7424687874"><ele>19420.21</ele><time>2026-08-31T12:17:25Z</time></trkpt><trkpt lat="59.6478722524" lon="30.7424709667"><ele>19409.63</ele><time>2026-08-31T12:17:26Z</time></trkpt><trkpt lat="59.6478712466" lon="30.7424728945"><ele>19399.06</ele><time>2026-08-31T12:17:27Z</time></trkpt><trkpt lat="59.6478707436" lon="30.7424749900"><ele>19388.01</ele><time>2026-08-31T12:17:28Z</time></trkpt><trkpt lat="59.6478696540" lon="30.7424772531"><ele>19377.43</ele><time>2026-08-31T12:17:29Z</time></trkpt><trkpt lat="59.6478684805" lon="30.7424792647"><ele>19366.86</ele><time>2026-08-31T12:17:30Z</time></trkpt><trkpt lat="59.6478668042" lon="30.7424887363"><ele>19355.80</ele><time>2026-08-31T12:17:31Z</time></trkpt><trkpt lat="59.6478649601" lon="30.7425003871"><ele>19345.23</ele><time>2026-08-31T12:17:32Z</time></trkpt><trkpt lat="59.6478617750" lon="30.7425125409"><ele>19334.65</ele><time>2026-08-31T12:17:33Z</time></trkpt><trkpt lat="59.6478585899" lon="30.7425267901"><ele>19323.60</ele><time>2026-08-31T12:17:34Z</time></trkpt><trkpt lat="59.6478562430" lon="30.7425430510"><ele>19313.02</ele><time>2026-08-31T12:17:35Z</time></trkpt><trkpt lat="59.6478541475" lon="30.7425624970"><ele>19302.45</ele><time>2026-08-31T12:17:36Z</time></trkpt><trkpt lat="59.6478519682" lon="30.7425826974"><ele>19291.39</ele><time>2026-08-31T12:17:37Z</time></trkpt><trkpt lat="59.6478494536" lon="30.7426052447"><ele>19280.82</ele><time>2026-08-31T12:17:38Z</time></trkpt><trkpt lat="59.6478475258" lon="30.7426298875"><ele>19270.24</ele><time>2026-08-31T12:17:39Z</time></trkpt><trkpt lat="59.6478454303" lon="30.7426538598"><ele>19259.67</ele><time>2026-08-31T12:17:40Z</time></trkpt><trkpt lat="59.6478438377" lon="30.7426785864"><ele>19248.62</ele><time>2026-08-31T12:17:41Z</time></trkpt><trkpt lat="59.6478411555" lon="30.7426990382"><ele>19238.04</ele><time>2026-08-31T12:17:42Z</time></trkpt><trkpt lat="59.6478502918" lon="30.7426158898"><ele>19227.47</ele><time>2026-08-31T12:17:51Z</time></trkpt><trkpt lat="59.6478512138" lon="30.7425955217"><ele>19216.89</ele><time>2026-08-31T12:17:52Z</time></trkpt><trkpt lat="59.6478526387" lon="30.7425803505"><ele>19206.32</ele><time>2026-08-31T12:17:53Z</time></trkpt><trkpt lat="59.6478543151" lon="30.7425660174"><ele>19195.26</ele><time>2026-08-31T12:17:54Z</time></trkpt><trkpt lat="59.6478555724" lon="30.7425467391"><ele>19184.69</ele><time>2026-08-31T12:17:55Z</time></trkpt><trkpt lat="59.6478566620" lon="30.7425291371"><ele>19174.11</ele><time>2026-08-31T12:17:56Z</time></trkpt><trkpt lat="59.6478589252" lon="30.7425043266"><ele>19163.54</ele><time>2026-08-31T12:17:57Z</time></trkpt><trkpt lat="59.6478604339" lon="30.7424925920"><ele>19152.96</ele><time>2026-08-31T12:17:58Z</time></trkpt><trkpt lat="59.6478621941" lon="30.7424832042"><ele>19142.39</ele><time>2026-08-31T12:17:59Z</time></trkpt><trkpt lat="59.6478639543" lon="30.7424739841"><ele>19131.81</ele><time>2026-08-31T12:18:00Z</time></trkpt><trkpt lat="59.6478663012" lon="30.7424640935"><ele>19121.24</ele><time>2026-08-31T12:18:01Z</time></trkpt><trkpt lat="59.6478681453" lon="30.7424588129"><ele>19110.67</ele><time>2026-08-31T12:18:02Z</time></trkpt><trkpt lat="59.6478688158" lon="30.7424602378"><ele>19100.09</ele><time>2026-08-31T12:18:03Z</time></trkpt><trkpt lat="59.6478704922" lon="30.7424578071"><ele>19089.52</ele><time>2026-08-31T12:18:04Z</time></trkpt><trkpt lat="59.6478720009" lon="30.7424567174"><ele>19078.94</ele><time>2026-08-31T12:18:05Z</time></trkpt><trkpt lat="59.6478733420" lon="30.7424556278"><ele>19068.37</ele><time>2026-08-31T12:18:06Z</time></trkpt><trkpt lat="59.6478739288" lon="30.7424553763"><ele>19057.79</ele><time>2026-08-31T12:18:07Z</time></trkpt><trkpt lat="59.6478740126" lon="30.7424554601"><ele>19047.22</ele><time>2026-08-31T12:18:08Z</time></trkpt><trkpt lat="59.6478704922" lon="30.7424536999"><ele>19036.64</ele><time>2026-08-31T12:18:09Z</time></trkpt><trkpt lat="59.6478704084" lon="30.7424500119"><ele>19026.07</ele><time>2026-08-31T12:18:10Z</time></trkpt><trkpt lat="59.6478709951" lon="30.7424419653"><ele>19015.49</ele><time>2026-08-31T12:18:11Z</time></trkpt><trkpt lat="59.6478711627" lon="30.7424351759"><ele>19004.92</ele><time>2026-08-31T12:18:12Z</time></trkpt><trkpt lat="59.6478713304" lon="30.7424314041"><ele>18994.35</ele><time>2026-08-31T12:18:13Z</time></trkpt><trkpt lat="59.6478713304" lon="30.7424293924"><ele>18983.77</ele><time>2026-08-31T12:18:14Z</time></trkpt><trkpt lat="59.6478710789" lon="30.7424277160"><ele>18973.20</ele><time>2026-08-31T12:18:15Z</time></trkpt><trkpt lat="59.6478706598" lon="30.7424274646"><ele>18962.62</ele><time>2026-08-31T12:18:16Z</time></trkpt><trkpt lat="59.6478707436" lon="30.7424273808"><ele>18952.05</ele><time>2026-08-31T12:18:17Z</time></trkpt><trkpt lat="59.6478710789" lon="30.7424288057"><ele>18941.47</ele><time>2026-08-31T12:18:18Z</time></trkpt><trkpt lat="59.6478711627" lon="30.7424292248"><ele>18931.38</ele><time>2026-08-31T12:18:19Z</time></trkpt><trkpt lat="59.6478712466" lon="30.7424278837"><ele>18920.81</ele><time>2026-08-31T12:18:20Z</time></trkpt><trkpt lat="59.6478713304" lon="30.7424250338"><ele>18910.23</ele><time>2026-08-31T12:18:21Z</time></trkpt><trkpt lat="59.6478721686" lon="30.7424202561"><ele>18899.66</ele><time>2026-08-31T12:18:22Z</time></trkpt><trkpt lat="59.6478712466" lon="30.7424190827"><ele>18889.08</ele><time>2026-08-31T12:18:23Z</time></trkpt><trkpt lat="59.6478709951" lon="30.7424184121"><ele>18878.51</ele><time>2026-08-31T12:18:24Z</time></trkpt><trkpt lat="59.6478707436" lon="30.7424179092"><ele>18868.41</ele><time>2026-08-31T12:18:25Z</time></trkpt><trkpt lat="59.6478704922" lon="30.7424171548"><ele>18857.84</ele><time>2026-08-31T12:18:26Z</time></trkpt><trkpt lat="59.6478705760" lon="30.7424168196"><ele>18847.27</ele><time>2026-08-31T12:18:27Z</time></trkpt><trkpt lat="59.6478714980" lon="30.7424158975"><ele>18836.69</ele><time>2026-08-31T12:18:28Z</time></trkpt><trkpt lat="59.6478717495" lon="30.7424148917"><ele>18826.60</ele><time>2026-08-31T12:18:29Z</time></trkpt><trkpt lat="59.6478716657" lon="30.7424139697"><ele>18816.02</ele><time>2026-08-31T12:18:30Z</time></trkpt><trkpt lat="59.6478716657" lon="30.7424132992"><ele>18805.45</ele><time>2026-08-31T12:18:31Z</time></trkpt><trkpt lat="59.6478714980" lon="30.7424128801"><ele>18795.35</ele><time>2026-08-31T12:18:32Z</time></trkpt><trkpt lat="59.6478714980" lon="30.7424127124"><ele>18784.78</ele><time>2026-08-31T12:18:33Z</time></trkpt><trkpt lat="59.6478713304" lon="30.7424125448"><ele>18774.20</ele><time>2026-08-31T12:18:34Z</time></trkpt><trkpt lat="59.6478732582" lon="30.7424086053"><ele>18764.11</ele><time>2026-08-31T12:18:35Z</time></trkpt><trkpt lat="59.6478736773" lon="30.7424075995"><ele>18753.54</ele><time>2026-08-31T12:18:36Z</time></trkpt><trkpt lat="59.6478769463" lon="30.7424113713"><ele>18742.96</ele><time>2026-08-31T12:18:37Z</time></trkpt><trkpt lat="59.6478773654" lon="30.7424113713"><ele>18732.87</ele><time>2026-08-31T12:18:38Z</time></trkpt><trkpt lat="59.6478734259" lon="30.7424039952"><ele>18722.29</ele><time>2026-08-31T12:18:39Z</time></trkpt><trkpt lat="59.6478756890" lon="30.7424059231"><ele>18711.72</ele><time>2026-08-31T12:18:40Z</time></trkpt><trkpt lat="59.6478712466" lon="30.7424072642"><ele>18701.62</ele><time>2026-08-31T12:18:41Z</time></trkpt><trkpt lat="59.6478767786" lon="30.7424034085"><ele>18691.05</ele><time>2026-08-31T12:18:42Z</time></trkpt><trkpt lat="59.6478763595" lon="30.7424028218"><ele>18680.96</ele><time>2026-08-31T12:18:43Z</time></trkpt><trkpt lat="59.6478761081" lon="30.7424018998"><ele>18670.38</ele><time>2026-08-31T12:18:44Z</time></trkpt><trkpt lat="59.6478727553" lon="30.7424038276"><ele>18660.29</ele><time>2026-08-31T12:18:45Z</time></trkpt><trkpt lat="59.6478759404" lon="30.7424003072"><ele>18649.71</ele><time>2026-08-31T12:18:46Z</time></trkpt><trkpt lat="59.6478756890" lon="30.7423995528"><ele>18639.62</ele><time>2026-08-31T12:18:47Z</time></trkpt><trkpt lat="59.6478753537" lon="30.7423996367"><ele>18629.04</ele><time>2026-08-31T12:18:48Z</time></trkpt><trkpt lat="59.6478754375" lon="30.7424004748"><ele>18618.95</ele><time>2026-08-31T12:18:49Z</time></trkpt><trkpt lat="59.6478735097" lon="30.7424001396"><ele>18608.38</ele><time>2026-08-31T12:18:50Z</time></trkpt><trkpt lat="59.6478754375" lon="30.7423991337"><ele>18598.28</ele><time>2026-08-31T12:18:51Z</time></trkpt><trkpt lat="59.6478756890" lon="30.7423989661"><ele>18587.71</ele><time>2026-08-31T12:18:52Z</time></trkpt><trkpt lat="59.6478751022" lon="30.7423994690"><ele>18577.62</ele><time>2026-08-31T12:18:53Z</time></trkpt><trkpt lat="59.6478733420" lon="30.7424006425"><ele>18567.04</ele><time>2026-08-31T12:18:54Z</time></trkpt><trkpt lat="59.6478746831" lon="30.7423993852"><ele>18556.95</ele><time>2026-08-31T12:18:55Z</time></trkpt><trkpt lat="59.6478748508" lon="30.7423994690"><ele>18546.85</ele><time>2026-08-31T12:18:56Z</time></trkpt><trkpt lat="59.6478746831" lon="30.7423994690"><ele>18536.28</ele><time>2026-08-31T12:18:57Z</time></trkpt><trkpt lat="59.6478747670" lon="30.7423994690"><ele>18526.18</ele><time>2026-08-31T12:18:58Z</time></trkpt><trkpt lat="59.6478749346" lon="30.7423996367"><ele>18515.61</ele><time>2026-08-31T12:18:59Z</time></trkpt><trkpt lat="59.6478761081" lon="30.7424004748"><ele>18505.52</ele><time>2026-08-31T12:19:00Z</time></trkpt><trkpt lat="59.6478764433" lon="30.7423993014"><ele>18495.42</ele><time>2026-08-31T12:19:01Z</time></trkpt><trkpt lat="59.6478761919" lon="30.7423995528"><ele>18484.85</ele><time>2026-08-31T12:19:02Z</time></trkpt><trkpt lat="59.6478606015" lon="30.7423645165"><ele>18464.66</ele><time>2026-08-31T12:19:04Z</time></trkpt><trkpt lat="59.6478463523" lon="30.7423533686"><ele>18454.09</ele><time>2026-08-31T12:19:05Z</time></trkpt><trkpt lat="59.6478379704" lon="30.7423485909"><ele>18443.99</ele><time>2026-08-31T12:19:06Z</time></trkpt><trkpt lat="59.6478362940" lon="30.7423443161"><ele>18433.90</ele><time>2026-08-31T12:19:07Z</time></trkpt><trkpt lat="59.6478405688" lon="30.7423372753"><ele>18423.80</ele><time>2026-08-31T12:19:08Z</time></trkpt><trkpt lat="59.6478461009" lon="30.7423415501"><ele>18413.23</ele><time>2026-08-31T12:19:09Z</time></trkpt><trkpt lat="59.6478507109" lon="30.7423473336"><ele>18403.13</ele><time>2026-08-31T12:19:10Z</time></trkpt><trkpt lat="59.6478545666" lon="30.7423551288"><ele>18393.04</ele><time>2026-08-31T12:19:11Z</time></trkpt><trkpt lat="59.6478604339" lon="30.7423637621"><ele>18382.95</ele><time>2026-08-31T12:19:12Z</time></trkpt><trkpt lat="59.6478662174" lon="30.7423714735"><ele>18372.37</ele><time>2026-08-31T12:19:13Z</time></trkpt><trkpt lat="59.6478674747" lon="30.7423776761"><ele>18362.28</ele><time>2026-08-31T12:19:14Z</time></trkpt><trkpt lat="59.6478670556" lon="30.7423852198"><ele>18352.19</ele><time>2026-08-31T12:19:15Z</time></trkpt><trkpt lat="59.6478665527" lon="30.7423919253"><ele>18342.09</ele><time>2026-08-31T12:19:16Z</time></trkpt><trkpt lat="59.6478644572" lon="30.7423988823"><ele>18332.00</ele><time>2026-08-31T12:19:17Z</time></trkpt><trkpt lat="59.6478647925" lon="30.7424051687"><ele>18321.90</ele><time>2026-08-31T12:19:18Z</time></trkpt><trkpt lat="59.6478661336" lon="30.7424081024"><ele>18311.33</ele><time>2026-08-31T12:19:19Z</time></trkpt><trkpt lat="59.6478663012" lon="30.7424031571"><ele>18301.24</ele><time>2026-08-31T12:19:20Z</time></trkpt><trkpt lat="59.6478673071" lon="30.7424019836"><ele>18291.14</ele><time>2026-08-31T12:19:21Z</time></trkpt><trkpt lat="59.6478683967" lon="30.7424022350"><ele>18281.05</ele><time>2026-08-31T12:19:22Z</time></trkpt><trkpt lat="59.6478646249" lon="30.7424064260"><ele>18260.86</ele><time>2026-08-31T12:19:23Z</time></trkpt><trkpt lat="59.6478688158" lon="30.7424024027"><ele>18260.86</ele><time>2026-08-31T12:19:24Z</time></trkpt><trkpt lat="59.6478693187" lon="30.7423964515"><ele>18250.77</ele><time>2026-08-31T12:19:25Z</time></trkpt><trkpt lat="59.6478709951" lon="30.7423977088"><ele>18240.67</ele><time>2026-08-31T12:19:26Z</time></trkpt><trkpt lat="59.6478715818" lon="30.7423954457"><ele>18230.58</ele><time>2026-08-31T12:19:27Z</time></trkpt><trkpt lat="59.6478726715" lon="30.7423950266"><ele>18220.48</ele><time>2026-08-31T12:19:28Z</time></trkpt><trkpt lat="59.6478729229" lon="30.7423982117"><ele>18210.39</ele><time>2026-08-31T12:19:29Z</time></trkpt><trkpt lat="59.6478694025" lon="30.7423949428"><ele>18200.30</ele><time>2026-08-31T12:19:30Z</time></trkpt><trkpt lat="59.6478599310" lon="30.7423905004"><ele>18190.20</ele><time>2026-08-31T12:19:31Z</time></trkpt><trkpt lat="59.6478519682" lon="30.7423803583"><ele>18180.11</ele><time>2026-08-31T12:19:32Z</time></trkpt><trkpt lat="59.6478440054" lon="30.7423679531"><ele>18170.02</ele><time>2026-08-31T12:19:33Z</time></trkpt><trkpt lat="59.6478404850" lon="30.7423547935"><ele>18159.92</ele><time>2026-08-31T12:19:34Z</time></trkpt><trkpt lat="59.6478416584" lon="30.7423417177"><ele>18149.83</ele><time>2026-08-31T12:19:35Z</time></trkpt><trkpt lat="59.6478461847" lon="30.7423271332"><ele>18139.73</ele><time>2026-08-31T12:19:36Z</time></trkpt><trkpt lat="59.6478507947" lon="30.7423122134"><ele>18129.64</ele><time>2026-08-31T12:19:37Z</time></trkpt><trkpt lat="59.6478508785" lon="30.7422957849"><ele>18119.55</ele><time>2026-08-31T12:19:38Z</time></trkpt><trkpt lat="59.6478494536" lon="30.7422845531"><ele>18109.45</ele><time>2026-08-31T12:19:39Z</time></trkpt><trkpt lat="59.6478463523" lon="30.7422796078"><ele>18099.36</ele><time>2026-08-31T12:19:40Z</time></trkpt><trkpt lat="59.6478481963" lon="30.7422785182"><ele>18089.27</ele><time>2026-08-31T12:19:41Z</time></trkpt><trkpt lat="59.6478453465" lon="30.7422749139"><ele>18079.65</ele><time>2026-08-31T12:19:42Z</time></trkpt><trkpt lat="59.6478476096" lon="30.7422744110"><ele>18069.56</ele><time>2026-08-31T12:19:43Z</time></trkpt><trkpt lat="59.6478476096" lon="30.7422733214"><ele>18059.46</ele><time>2026-08-31T12:19:44Z</time></trkpt><trkpt lat="59.6478458494" lon="30.7422723155"><ele>18049.37</ele><time>2026-08-31T12:19:45Z</time></trkpt><trkpt lat="59.6478419099" lon="30.7422577310"><ele>18039.28</ele><time>2026-08-31T12:19:46Z</time></trkpt><trkpt lat="59.6478391439" lon="30.7422496006"><ele>18029.18</ele><time>2026-08-31T12:19:47Z</time></trkpt><trkpt lat="59.6478364617" lon="30.7422496844"><ele>18019.57</ele><time>2026-08-31T12:19:48Z</time></trkpt><trkpt lat="59.6478359587" lon="30.7422493491"><ele>18009.47</ele><time>2026-08-31T12:19:49Z</time></trkpt><trkpt lat="59.6478363778" lon="30.7422413863"><ele>17999.38</ele><time>2026-08-31T12:19:50Z</time></trkpt><trkpt lat="59.6478404850" lon="30.7422332559"><ele>17989.29</ele><time>2026-08-31T12:19:51Z</time></trkpt><trkpt lat="59.6478380542" lon="30.7422347646"><ele>17979.67</ele><time>2026-08-31T12:19:52Z</time></trkpt><trkpt lat="59.6478205360" lon="30.7422031648"><ele>17959.49</ele><time>2026-08-31T12:19:54Z</time></trkpt><trkpt lat="59.6478127409" lon="30.7421913464"><ele>17949.39</ele><time>2026-08-31T12:19:55Z</time></trkpt><trkpt lat="59.6478057001" lon="30.7421755046"><ele>17939.78</ele><time>2026-08-31T12:19:56Z</time></trkpt><trkpt lat="59.6477966476" lon="30.7421580702"><ele>17929.69</ele><time>2026-08-31T12:19:57Z</time></trkpt><trkpt lat="59.6477891877" lon="30.7421468385"><ele>17919.59</ele><time>2026-08-31T12:19:58Z</time></trkpt><trkpt lat="59.6477829851" lon="30.7421455812"><ele>17909.98</ele><time>2026-08-31T12:19:59Z</time></trkpt><trkpt lat="59.6477790456" lon="30.7421415579"><ele>17899.89</ele><time>2026-08-31T12:20:00Z</time></trkpt><trkpt lat="59.6477731783" lon="30.7421289850"><ele>17889.79</ele><time>2026-08-31T12:20:01Z</time></trkpt><trkpt lat="59.6477659699" lon="30.7421164960"><ele>17880.18</ele><time>2026-08-31T12:20:02Z</time></trkpt><trkpt lat="59.6477627009" lon="30.7420979720"><ele>17870.08</ele><time>2026-08-31T12:20:03Z</time></trkpt><trkpt lat="59.6477567498" lon="30.7420892548"><ele>17859.99</ele><time>2026-08-31T12:20:04Z</time></trkpt><trkpt lat="59.6477500442" lon="30.7420794480"><ele>17850.38</ele><time>2026-08-31T12:20:05Z</time></trkpt><trkpt lat="59.6477428358" lon="30.7420638576"><ele>17840.28</ele><time>2026-08-31T12:20:06Z</time></trkpt><trkpt lat="59.6477382258" lon="30.7420487702"><ele>17830.67</ele><time>2026-08-31T12:20:07Z</time></trkpt><trkpt lat="59.6477350406" lon="30.7420346048"><ele>17820.58</ele><time>2026-08-31T12:20:08Z</time></trkpt><trkpt lat="59.6477360465" lon="30.7420238759"><ele>17810.48</ele><time>2026-08-31T12:20:09Z</time></trkpt><trkpt lat="59.6477361303" lon="30.7419900130"><ele>17800.87</ele><time>2026-08-31T12:20:10Z</time></trkpt><trkpt lat="59.6477351245" lon="30.7419832237"><ele>17790.78</ele><time>2026-08-31T12:20:11Z</time></trkpt><trkpt lat="59.6477125771" lon="30.7419481035"><ele>17771.07</ele><time>2026-08-31T12:20:13Z</time></trkpt><trkpt lat="59.6477025189" lon="30.7419320103"><ele>17761.46</ele><time>2026-08-31T12:20:14Z</time></trkpt><trkpt lat="59.6476935502" lon="30.7419100497"><ele>17751.36</ele><time>2026-08-31T12:20:15Z</time></trkpt><trkpt lat="59.6476764511" lon="30.7418466825"><ele>17731.65</ele><time>2026-08-31T12:20:17Z</time></trkpt><trkpt lat="59.6476673987" lon="30.7418357022"><ele>17722.04</ele><time>2026-08-31T12:20:18Z</time></trkpt><trkpt lat="59.6476596873" lon="30.7418289967"><ele>17712.43</ele><time>2026-08-31T12:20:19Z</time></trkpt><trkpt lat="59.6476554126" lon="30.7418187708"><ele>17702.33</ele><time>2026-08-31T12:20:20Z</time></trkpt><trkpt lat="59.6476534847" lon="30.7418047730"><ele>17692.72</ele><time>2026-08-31T12:20:21Z</time></trkpt><trkpt lat="59.6476477012" lon="30.7417976484"><ele>17682.63</ele><time>2026-08-31T12:20:22Z</time></trkpt><trkpt lat="59.6476399899" lon="30.7417910267"><ele>17673.02</ele><time>2026-08-31T12:20:23Z</time></trkpt><trkpt lat="59.6476349607" lon="30.7417818904"><ele>17662.92</ele><time>2026-08-31T12:20:24Z</time></trkpt><trkpt lat="59.6476317756" lon="30.7417731732"><ele>17653.31</ele><time>2026-08-31T12:20:25Z</time></trkpt><trkpt lat="59.6476166882" lon="30.7417422440"><ele>17633.60</ele><time>2026-08-31T12:20:27Z</time></trkpt><trkpt lat="59.6476123296" lon="30.7417313475"><ele>17623.99</ele><time>2026-08-31T12:20:28Z</time></trkpt><trkpt lat="59.6476122458" lon="30.7417291682"><ele>17614.37</ele><time>2026-08-31T12:20:29Z</time></trkpt><trkpt lat="59.6476124972" lon="30.7417274080"><ele>17604.28</ele><time>2026-08-31T12:20:30Z</time></trkpt><trkpt lat="59.6476088092" lon="30.7417110633"><ele>17594.67</ele><time>2026-08-31T12:20:31Z</time></trkpt><trkpt lat="59.6476095635" lon="30.7416937966"><ele>17585.05</ele><time>2026-08-31T12:20:32Z</time></trkpt><trkpt lat="59.6476116590" lon="30.7416837383"><ele>17574.96</ele><time>2026-08-31T12:20:33Z</time></trkpt><trkpt lat="59.6476155985" lon="30.7416732609"><ele>17565.35</ele><time>2026-08-31T12:20:34Z</time></trkpt><trkpt lat="59.6476176940" lon="30.7416595984"><ele>17555.73</ele><time>2026-08-31T12:20:35Z</time></trkpt><trkpt lat="59.6476155985" lon="30.7416606043"><ele>17546.12</ele><time>2026-08-31T12:20:36Z</time></trkpt><trkpt lat="59.6476187836" lon="30.7416559942"><ele>17536.03</ele><time>2026-08-31T12:20:37Z</time></trkpt><trkpt lat="59.6476196218" lon="30.7416547369"><ele>17526.41</ele><time>2026-08-31T12:20:38Z</time></trkpt><trkpt lat="59.6476200409" lon="30.7416539825"><ele>17516.80</ele><time>2026-08-31T12:20:39Z</time></trkpt><trkpt lat="59.6476203762" lon="30.7416518871"><ele>17507.19</ele><time>2026-08-31T12:20:40Z</time></trkpt><trkpt lat="59.6476205438" lon="30.7416486181"><ele>17497.57</ele><time>2026-08-31T12:20:41Z</time></trkpt><trkpt lat="59.6476211306" lon="30.7416471932"><ele>17487.48</ele><time>2026-08-31T12:20:42Z</time></trkpt><trkpt lat="59.6476208791" lon="30.7416471094"><ele>17477.87</ele><time>2026-08-31T12:20:43Z</time></trkpt><trkpt lat="59.6476198733" lon="30.7416461874"><ele>17468.25</ele><time>2026-08-31T12:20:44Z</time></trkpt><trkpt lat="59.6476049535" lon="30.7416044455"><ele>17449.03</ele><time>2026-08-31T12:20:46Z</time></trkpt><trkpt lat="59.6476064622" lon="30.7415759470"><ele>17439.41</ele><time>2026-08-31T12:20:47Z</time></trkpt><trkpt lat="59.6476055402" lon="30.7415565010"><ele>17429.32</ele><time>2026-08-31T12:20:48Z</time></trkpt><trkpt lat="59.6476162691" lon="30.7415204588"><ele>17410.09</ele><time>2026-08-31T12:20:50Z</time></trkpt><trkpt lat="59.6476205438" lon="30.7414942235"><ele>17400.48</ele><time>2026-08-31T12:20:51Z</time></trkpt><trkpt lat="59.6476228070" lon="30.7414736878"><ele>17390.87</ele><time>2026-08-31T12:20:52Z</time></trkpt><trkpt lat="59.6476267464" lon="30.7414630428"><ele>17381.26</ele><time>2026-08-31T12:20:53Z</time></trkpt><trkpt lat="59.6476213820" lon="30.7414210495"><ele>17362.03</ele><time>2026-08-31T12:20:55Z</time></trkpt><trkpt lat="59.6476211306" lon="30.7414062973"><ele>17352.41</ele><time>2026-08-31T12:20:56Z</time></trkpt><trkpt lat="59.6476190351" lon="30.7413869351"><ele>17342.80</ele><time>2026-08-31T12:20:57Z</time></trkpt><trkpt lat="59.6476183645" lon="30.7413636334"><ele>17333.19</ele><time>2026-08-31T12:20:58Z</time></trkpt><trkpt lat="59.6476173587" lon="30.7413387392"><ele>17323.57</ele><time>2026-08-31T12:20:59Z</time></trkpt><trkpt lat="59.6476151794" lon="30.7413194608"><ele>17313.96</ele><time>2026-08-31T12:21:00Z</time></trkpt><trkpt lat="59.6476336196" lon="30.7412796468"><ele>17294.74</ele><time>2026-08-31T12:21:02Z</time></trkpt><trkpt lat="59.6476367209" lon="30.7412650622"><ele>17285.12</ele><time>2026-08-31T12:21:03Z</time></trkpt><trkpt lat="59.6476377267" lon="30.7412545010"><ele>17275.51</ele><time>2026-08-31T12:21:04Z</time></trkpt><trkpt lat="59.6476360504" lon="30.7412420958"><ele>17265.90</ele><time>2026-08-31T12:21:05Z</time></trkpt><trkpt lat="59.6476363018" lon="30.7412371505"><ele>17256.28</ele><time>2026-08-31T12:21:06Z</time></trkpt><trkpt lat="59.6476391517" lon="30.7412357256"><ele>17246.67</ele><time>2026-08-31T12:21:07Z</time></trkpt><trkpt lat="59.6476388164" lon="30.7412348874"><ele>17237.06</ele><time>2026-08-31T12:21:08Z</time></trkpt><trkpt lat="59.6476400737" lon="30.7412218116"><ele>17227.92</ele><time>2026-08-31T12:21:09Z</time></trkpt><trkpt lat="59.6476419177" lon="30.7412177883"><ele>17218.31</ele><time>2026-08-31T12:21:10Z</time></trkpt><trkpt lat="59.6476397384" lon="30.7412201352"><ele>17208.70</ele><time>2026-08-31T12:21:11Z</time></trkpt><trkpt lat="59.6476377267" lon="30.7412093226"><ele>17199.08</ele><time>2026-08-31T12:21:12Z</time></trkpt><trkpt lat="59.6476357989" lon="30.7412027009"><ele>17189.47</ele><time>2026-08-31T12:21:13Z</time></trkpt><trkpt lat="59.6476389002" lon="30.7411995996"><ele>17179.86</ele><time>2026-08-31T12:21:14Z</time></trkpt><trkpt lat="59.6476398222" lon="30.7411983423"><ele>17170.73</ele><time>2026-08-31T12:21:15Z</time></trkpt><trkpt lat="59.6476414986" lon="30.7411892060"><ele>17161.11</ele><time>2026-08-31T12:21:16Z</time></trkpt><trkpt lat="59.6476416662" lon="30.7411878649"><ele>17151.50</ele><time>2026-08-31T12:21:17Z</time></trkpt><trkpt lat="59.6476410795" lon="30.7411934808"><ele>17141.89</ele><time>2026-08-31T12:21:18Z</time></trkpt><trkpt lat="59.6476420853" lon="30.7411885355"><ele>17132.27</ele><time>2026-08-31T12:21:19Z</time></trkpt><trkpt lat="59.6476380620" lon="30.7411858533"><ele>17123.14</ele><time>2026-08-31T12:21:20Z</time></trkpt><trkpt lat="59.6476368885" lon="30.7411476318"><ele>17103.91</ele><time>2026-08-31T12:21:22Z</time></trkpt><trkpt lat="59.6476399060" lon="30.7411322091"><ele>17094.30</ele><time>2026-08-31T12:21:23Z</time></trkpt><trkpt lat="59.6476437617" lon="30.7411261741"><ele>17085.17</ele><time>2026-08-31T12:21:24Z</time></trkpt><trkpt lat="59.6476472821" lon="30.7411244139"><ele>17075.55</ele><time>2026-08-31T12:21:25Z</time></trkpt><trkpt lat="59.6476445999" lon="30.7411255036"><ele>17065.94</ele><time>2026-08-31T12:21:26Z</time></trkpt><trkpt lat="59.6476458572" lon="30.7411232404"><ele>17056.81</ele><time>2026-08-31T12:21:27Z</time></trkpt><trkpt lat="59.6476461086" lon="30.7411224861"><ele>17047.20</ele><time>2026-08-31T12:21:28Z</time></trkpt><trkpt lat="59.6476462763" lon="30.7411218993"><ele>17037.58</ele><time>2026-08-31T12:21:29Z</time></trkpt><trkpt lat="59.6476473659" lon="30.7411179598"><ele>17028.45</ele><time>2026-08-31T12:21:30Z</time></trkpt><trkpt lat="59.6476470307" lon="30.7411182113"><ele>17018.84</ele><time>2026-08-31T12:21:31Z</time></trkpt><trkpt lat="59.6476472821" lon="30.7411076501"><ele>17009.22</ele><time>2026-08-31T12:21:32Z</time></trkpt><trkpt lat="59.6476473659" lon="30.7411068957"><ele>17000.09</ele><time>2026-08-31T12:21:33Z</time></trkpt><trkpt lat="59.6476484556" lon="30.7411110029"><ele>16990.48</ele><time>2026-08-31T12:21:34Z</time></trkpt><trkpt lat="59.6476474497" lon="30.7411049679"><ele>16981.35</ele><time>2026-08-31T12:21:35Z</time></trkpt><trkpt lat="59.6476477012" lon="30.7411026210"><ele>16971.73</ele><time>2026-08-31T12:21:36Z</time></trkpt><trkpt lat="59.6476482041" lon="30.7410968374"><ele>16962.12</ele><time>2026-08-31T12:21:37Z</time></trkpt><trkpt lat="59.6476483718" lon="30.7410908863"><ele>16952.99</ele><time>2026-08-31T12:21:38Z</time></trkpt><trkpt lat="59.6476483718" lon="30.7410897128"><ele>16943.37</ele><time>2026-08-31T12:21:39Z</time></trkpt><trkpt lat="59.6476482879" lon="30.7410888746"><ele>16934.24</ele><time>2026-08-31T12:21:40Z</time></trkpt><trkpt lat="59.6476482879" lon="30.7410880364"><ele>16924.63</ele><time>2026-08-31T12:21:41Z</time></trkpt><trkpt lat="59.6476460248" lon="30.7410777267"><ele>16915.50</ele><time>2026-08-31T12:21:42Z</time></trkpt><trkpt lat="59.6476445999" lon="30.7410747092"><ele>16905.88</ele><time>2026-08-31T12:21:43Z</time></trkpt><trkpt lat="59.6476466116" lon="30.7410695963"><ele>16896.75</ele><time>2026-08-31T12:21:44Z</time></trkpt><trkpt lat="59.6476430912" lon="30.7410628069"><ele>16887.14</ele><time>2026-08-31T12:21:45Z</time></trkpt><trkpt lat="59.6476425044" lon="30.7410599571"><ele>16878.01</ele><time>2026-08-31T12:21:46Z</time></trkpt><trkpt lat="59.6476426721" lon="30.7410581969"><ele>16868.39</ele><time>2026-08-31T12:21:47Z</time></trkpt><trkpt lat="59.6476430912" lon="30.7410566881"><ele>16859.26</ele><time>2026-08-31T12:21:48Z</time></trkpt><trkpt lat="59.6476466954" lon="30.7410503179"><ele>16849.64</ele><time>2026-08-31T12:21:49Z</time></trkpt><trkpt lat="59.6476487909" lon="30.7410505693"><ele>16840.51</ele><time>2026-08-31T12:21:50Z</time></trkpt><trkpt lat="59.6476461925" lon="30.7410472166"><ele>16831.38</ele><time>2026-08-31T12:21:51Z</time></trkpt><trkpt lat="59.6476460248" lon="30.7410467137"><ele>16821.77</ele><time>2026-08-31T12:21:52Z</time></trkpt><trkpt lat="59.6476459410" lon="30.7410516590"><ele>16812.63</ele><time>2026-08-31T12:21:53Z</time></trkpt><trkpt lat="59.6476456895" lon="30.7410447858"><ele>16803.02</ele><time>2026-08-31T12:21:54Z</time></trkpt><trkpt lat="59.6476457734" lon="30.7410440315"><ele>16793.89</ele><time>2026-08-31T12:21:55Z</time></trkpt><trkpt lat="59.6476458572" lon="30.7410431094"><ele>16784.76</ele><time>2026-08-31T12:21:56Z</time></trkpt><trkpt lat="59.6476429235" lon="30.7410423551"><ele>16775.14</ele><time>2026-08-31T12:21:57Z</time></trkpt><trkpt lat="59.6476435103" lon="30.7410399243"><ele>16766.01</ele><time>2026-08-31T12:21:58Z</time></trkpt><trkpt lat="59.6476414148" lon="30.7410439476"><ele>16756.88</ele><time>2026-08-31T12:21:59Z</time></trkpt><trkpt lat="59.6476450190" lon="30.7410532515"><ele>16747.27</ele><time>2026-08-31T12:22:00Z</time></trkpt><trkpt lat="59.6476499643" lon="30.7410555985"><ele>16738.13</ele><time>2026-08-31T12:22:01Z</time></trkpt><trkpt lat="59.6476472821" lon="30.7410606276"><ele>16729.00</ele><time>2026-08-31T12:22:02Z</time></trkpt><trkpt lat="59.6476497129" lon="30.7410748769"><ele>16719.39</ele><time>2026-08-31T12:22:03Z</time></trkpt><trkpt lat="59.6476539038" lon="30.7410846837"><ele>16710.25</ele><time>2026-08-31T12:22:04Z</time></trkpt><trkpt lat="59.6476549935" lon="30.7410923950"><ele>16701.12</ele><time>2026-08-31T12:22:05Z</time></trkpt><trkpt lat="59.6476516407" lon="30.7411022857"><ele>16691.51</ele><time>2026-08-31T12:22:06Z</time></trkpt><trkpt lat="59.6476466954" lon="30.7411117572"><ele>16682.38</ele><time>2026-08-31T12:22:07Z</time></trkpt><trkpt lat="59.6476431750" lon="30.7411252521"><ele>16673.24</ele><time>2026-08-31T12:22:08Z</time></trkpt><trkpt lat="59.6476404928" lon="30.7411352266"><ele>16664.11</ele><time>2026-08-31T12:22:09Z</time></trkpt><trkpt lat="59.6476414148" lon="30.7411364838"><ele>16654.98</ele><time>2026-08-31T12:22:10Z</time></trkpt><trkpt lat="59.6476508863" lon="30.7411374059"><ele>16645.37</ele><time>2026-08-31T12:22:11Z</time></trkpt><trkpt lat="59.6476579271" lon="30.7411376573"><ele>16636.23</ele><time>2026-08-31T12:22:12Z</time></trkpt><trkpt lat="59.6476645488" lon="30.7411298621"><ele>16627.10</ele><time>2026-08-31T12:22:13Z</time></trkpt><trkpt lat="59.6476715058" lon="30.7411219832"><ele>16617.97</ele><time>2026-08-31T12:22:14Z</time></trkpt><trkpt lat="59.6476790495" lon="30.7411182113"><ele>16608.83</ele><time>2026-08-31T12:22:15Z</time></trkpt><trkpt lat="59.6476806421" lon="30.7411168702"><ele>16599.22</ele><time>2026-08-31T12:22:16Z</time></trkpt><trkpt lat="59.6476808935" lon="30.7411150262"><ele>16590.09</ele><time>2026-08-31T12:22:17Z</time></trkpt><trkpt lat="59.6476898622" lon="30.7411132660"><ele>16580.96</ele><time>2026-08-31T12:22:18Z</time></trkpt><trkpt lat="59.6476953104" lon="30.7411086559"><ele>16571.82</ele><time>2026-08-31T12:22:19Z</time></trkpt><trkpt lat="59.6476976573" lon="30.7411025371"><ele>16562.69</ele><time>2026-08-31T12:22:20Z</time></trkpt><trkpt lat="59.6477027703" lon="30.7410964184"><ele>16553.56</ele><time>2026-08-31T12:22:21Z</time></trkpt><trkpt lat="59.6477068774" lon="30.7410928980"><ele>16544.43</ele><time>2026-08-31T12:22:22Z</time></trkpt><trkpt lat="59.6477076318" lon="30.7410925627"><ele>16535.29</ele><time>2026-08-31T12:22:23Z</time></trkpt><trkpt lat="59.6477083024" lon="30.7410914730"><ele>16526.16</ele><time>2026-08-31T12:22:24Z</time></trkpt><trkpt lat="59.6477131639" lon="30.7410810795"><ele>16517.03</ele><time>2026-08-31T12:22:25Z</time></trkpt><trkpt lat="59.6477171872" lon="30.7410703506"><ele>16507.90</ele><time>2026-08-31T12:22:26Z</time></trkpt><trkpt lat="59.6477191150" lon="30.7410661597"><ele>16498.77</ele><time>2026-08-31T12:22:27Z</time></trkpt><trkpt lat="59.6477184445" lon="30.7410686743"><ele>16489.63</ele><time>2026-08-31T12:22:28Z</time></trkpt><trkpt lat="59.6477188636" lon="30.7410675008"><ele>16480.02</ele><time>2026-08-31T12:22:29Z</time></trkpt><trkpt lat="59.6477214620" lon="30.7410616335"><ele>16470.88</ele><time>2026-08-31T12:22:30Z</time></trkpt><trkpt lat="59.6477233898" lon="30.7410514075"><ele>16462.23</ele><time>2026-08-31T12:22:31Z</time></trkpt><trkpt lat="59.6477228869" lon="30.7410476357"><ele>16453.10</ele><time>2026-08-31T12:22:32Z</time></trkpt><trkpt lat="59.6477244794" lon="30.7410493121"><ele>16443.97</ele><time>2026-08-31T12:22:33Z</time></trkpt><trkpt lat="59.6477233060" lon="30.7410408463"><ele>16434.84</ele><time>2026-08-31T12:22:34Z</time></trkpt><trkpt lat="59.6477264073" lon="30.7410382479"><ele>16425.70</ele><time>2026-08-31T12:22:35Z</time></trkpt><trkpt lat="59.6477267426" lon="30.7410376612"><ele>16416.57</ele><time>2026-08-31T12:22:36Z</time></trkpt><trkpt lat="59.6477255691" lon="30.7410405111"><ele>16407.44</ele><time>2026-08-31T12:22:37Z</time></trkpt><trkpt lat="59.6477270778" lon="30.7410372421"><ele>16398.31</ele><time>2026-08-31T12:22:38Z</time></trkpt><trkpt lat="59.6477272455" lon="30.7410369068"><ele>16389.17</ele><time>2026-08-31T12:22:39Z</time></trkpt><trkpt lat="59.6477264911" lon="30.7410310395"><ele>16380.04</ele><time>2026-08-31T12:22:40Z</time></trkpt><trkpt lat="59.6477259882" lon="30.7410250045"><ele>16370.91</ele><time>2026-08-31T12:22:41Z</time></trkpt><trkpt lat="59.6477302630" lon="30.7410127670"><ele>16361.78</ele><time>2026-08-31T12:22:42Z</time></trkpt><trkpt lat="59.6477328613" lon="30.7410114259"><ele>16352.64</ele><time>2026-08-31T12:22:43Z</time></trkpt><trkpt lat="59.6477347054" lon="30.7410096657"><ele>16343.99</ele><time>2026-08-31T12:22:44Z</time></trkpt><trkpt lat="59.6477351245" lon="30.7410086598"><ele>16334.86</ele><time>2026-08-31T12:22:45Z</time></trkpt><trkpt lat="59.6477356274" lon="30.7410053071"><ele>16325.73</ele><time>2026-08-31T12:22:46Z</time></trkpt><trkpt lat="59.6477357112" lon="30.7410047203"><ele>16316.59</ele><time>2026-08-31T12:22:47Z</time></trkpt><trkpt lat="59.6477359626" lon="30.7410042174"><ele>16307.46</ele><time>2026-08-31T12:22:48Z</time></trkpt><trkpt lat="59.6477360465" lon="30.7410037145"><ele>16298.33</ele><time>2026-08-31T12:22:49Z</time></trkpt><trkpt lat="59.6477369685" lon="30.7410017867"><ele>16289.68</ele><time>2026-08-31T12:22:50Z</time></trkpt><trkpt lat="59.6477368847" lon="30.7410001103"><ele>16280.54</ele><time>2026-08-31T12:22:51Z</time></trkpt><trkpt lat="59.6477363817" lon="30.7409983501"><ele>16271.41</ele><time>2026-08-31T12:22:52Z</time></trkpt><trkpt lat="59.6477363817" lon="30.7409968413"><ele>16262.28</ele><time>2026-08-31T12:22:53Z</time></trkpt><trkpt lat="59.6477366332" lon="30.7409957517"><ele>16253.63</ele><time>2026-08-31T12:22:54Z</time></trkpt><trkpt lat="59.6477383096" lon="30.7409809995"><ele>16244.50</ele><time>2026-08-31T12:22:55Z</time></trkpt><trkpt lat="59.6477376390" lon="30.7409763057"><ele>16235.36</ele><time>2026-08-31T12:22:56Z</time></trkpt><trkpt lat="59.6477394830" lon="30.7409792393"><ele>16226.23</ele><time>2026-08-31T12:22:57Z</time></trkpt><trkpt lat="59.6477399860" lon="30.7409774791"><ele>16217.58</ele><time>2026-08-31T12:22:58Z</time></trkpt><trkpt lat="59.6477409918" lon="30.7409752160"><ele>16208.45</ele><time>2026-08-31T12:22:59Z</time></trkpt><trkpt lat="59.6477419138" lon="30.7409725338"><ele>16199.31</ele><time>2026-08-31T12:23:00Z</time></trkpt><trkpt lat="59.6477433387" lon="30.7409676723"><ele>16190.66</ele><time>2026-08-31T12:23:01Z</time></trkpt><trkpt lat="59.6477467753" lon="30.7409556862"><ele>16181.53</ele><time>2026-08-31T12:23:02Z</time></trkpt><trkpt lat="59.6477500442" lon="30.7409268524"><ele>16172.40</ele><time>2026-08-31T12:23:03Z</time></trkpt><trkpt lat="59.6477478649" lon="30.7409096695"><ele>16163.74</ele><time>2026-08-31T12:23:04Z</time></trkpt><trkpt lat="59.6477464400" lon="30.7408992760"><ele>16154.61</ele><time>2026-08-31T12:23:05Z</time></trkpt><trkpt lat="59.6477460209" lon="30.7408858649"><ele>16145.48</ele><time>2026-08-31T12:23:06Z</time></trkpt><trkpt lat="59.6477438416" lon="30.7408827636"><ele>16136.83</ele><time>2026-08-31T12:23:07Z</time></trkpt><trkpt lat="59.6477467753" lon="30.7408832666"><ele>16127.70</ele><time>2026-08-31T12:23:08Z</time></trkpt><trkpt lat="59.6477471106" lon="30.7408810873"><ele>16119.04</ele><time>2026-08-31T12:23:09Z</time></trkpt><trkpt lat="59.6477459371" lon="30.7408611383"><ele>16109.91</ele><time>2026-08-31T12:23:10Z</time></trkpt><trkpt lat="59.6477476135" lon="30.7408593781"><ele>16100.78</ele><time>2026-08-31T12:23:11Z</time></trkpt><trkpt lat="59.6477476973" lon="30.7408509962"><ele>16092.12</ele><time>2026-08-31T12:23:12Z</time></trkpt><trkpt lat="59.6477502957" lon="30.7408498228"><ele>16082.99</ele><time>2026-08-31T12:23:13Z</time></trkpt><trkpt lat="59.6477516368" lon="30.7408473082"><ele>16074.34</ele><time>2026-08-31T12:23:14Z</time></trkpt><trkpt lat="59.6477502957" lon="30.7408451289"><ele>16065.21</ele><time>2026-08-31T12:23:15Z</time></trkpt><trkpt lat="59.6477502119" lon="30.7408437040"><ele>16056.56</ele><time>2026-08-31T12:23:16Z</time></trkpt><trkpt lat="59.6477494575" lon="30.7408411056"><ele>16047.43</ele><time>2026-08-31T12:23:17Z</time></trkpt><trkpt lat="59.6477478649" lon="30.7408376690"><ele>16038.77</ele><time>2026-08-31T12:23:18Z</time></trkpt><trkpt lat="59.6477484517" lon="30.7408361603"><ele>16029.64</ele><time>2026-08-31T12:23:19Z</time></trkpt><trkpt lat="59.6477486193" lon="30.7408369146"><ele>16020.99</ele><time>2026-08-31T12:23:20Z</time></trkpt><trkpt lat="59.6477487031" lon="30.7408370823"><ele>16011.86</ele><time>2026-08-31T12:23:21Z</time></trkpt><trkpt lat="59.6477491222" lon="30.7408363279"><ele>16003.21</ele><time>2026-08-31T12:23:22Z</time></trkpt><trkpt lat="59.6477495413" lon="30.7408357412"><ele>15994.07</ele><time>2026-08-31T12:23:23Z</time></trkpt><trkpt lat="59.6477500442" lon="30.7408344839"><ele>15985.42</ele><time>2026-08-31T12:23:24Z</time></trkpt><trkpt lat="59.6477499604" lon="30.7408339810"><ele>15976.29</ele><time>2026-08-31T12:23:25Z</time></trkpt><trkpt lat="59.6477500442" lon="30.7408336457"><ele>15967.63</ele><time>2026-08-31T12:23:26Z</time></trkpt><trkpt lat="59.6477501281" lon="30.7408333942"><ele>15958.98</ele><time>2026-08-31T12:23:27Z</time></trkpt><trkpt lat="59.6477468591" lon="30.7408331428"><ele>15949.85</ele><time>2026-08-31T12:23:28Z</time></trkpt><trkpt lat="59.6477442607" lon="30.7408331428"><ele>15941.20</ele><time>2026-08-31T12:23:29Z</time></trkpt><trkpt lat="59.6477468591" lon="30.7408327237"><ele>15932.07</ele><time>2026-08-31T12:23:30Z</time></trkpt><trkpt lat="59.6477467753" lon="30.7408328075"><ele>15923.41</ele><time>2026-08-31T12:23:31Z</time></trkpt><trkpt lat="59.6477466915" lon="30.7408328913"><ele>15914.76</ele><time>2026-08-31T12:23:32Z</time></trkpt><trkpt lat="59.6477467753" lon="30.7408328913"><ele>15905.63</ele><time>2026-08-31T12:23:33Z</time></trkpt><trkpt lat="59.6477468591" lon="30.7408327237"><ele>15896.98</ele><time>2026-08-31T12:23:34Z</time></trkpt><trkpt lat="59.6477471106" lon="30.7408323046"><ele>15888.33</ele><time>2026-08-31T12:23:35Z</time></trkpt><trkpt lat="59.6477472782" lon="30.7408323046"><ele>15879.20</ele><time>2026-08-31T12:23:36Z</time></trkpt><trkpt lat="59.6477454342" lon="30.7408305444"><ele>15870.54</ele><time>2026-08-31T12:23:37Z</time></trkpt><trkpt lat="59.6477471944" lon="30.7408313826"><ele>15861.89</ele><time>2026-08-31T12:23:38Z</time></trkpt><trkpt lat="59.6477470268" lon="30.7408308797"><ele>15852.76</ele><time>2026-08-31T12:23:39Z</time></trkpt><trkpt lat="59.6477469429" lon="30.7408307958"><ele>15844.11</ele><time>2026-08-31T12:23:40Z</time></trkpt><trkpt lat="59.6477466915" lon="30.7408305444"><ele>15835.45</ele><time>2026-08-31T12:23:41Z</time></trkpt><trkpt lat="59.6477466915" lon="30.7408305444"><ele>15826.80</ele><time>2026-08-31T12:23:42Z</time></trkpt><trkpt lat="59.6477446798" lon="30.7408319693"><ele>15817.67</ele><time>2026-08-31T12:23:43Z</time></trkpt><trkpt lat="59.6477425843" lon="30.7408339810"><ele>15809.02</ele><time>2026-08-31T12:23:44Z</time></trkpt><trkpt lat="59.6477450989" lon="30.7408319693"><ele>15800.37</ele><time>2026-08-31T12:23:45Z</time></trkpt><trkpt lat="59.6477455180" lon="30.7408317178"><ele>15791.71</ele><time>2026-08-31T12:23:46Z</time></trkpt><trkpt lat="59.6477459371" lon="30.7408316340"><ele>15782.58</ele><time>2026-08-31T12:23:47Z</time></trkpt><trkpt lat="59.6477471106" lon="30.7408359088"><ele>15773.93</ele><time>2026-08-31T12:23:48Z</time></trkpt><trkpt lat="59.6477467753" lon="30.7408312988"><ele>15765.28</ele><time>2026-08-31T12:23:49Z</time></trkpt><trkpt lat="59.6477474459" lon="30.7408306282"><ele>15756.63</ele><time>2026-08-31T12:23:50Z</time></trkpt><trkpt lat="59.6477562468" lon="30.7408293709"><ele>15747.97</ele><time>2026-08-31T12:23:51Z</time></trkpt><trkpt lat="59.6477609407" lon="30.7408217434"><ele>15739.32</ele><time>2026-08-31T12:23:52Z</time></trkpt><trkpt lat="59.6477620304" lon="30.7408173848"><ele>15730.19</ele><time>2026-08-31T12:23:53Z</time></trkpt><trkpt lat="59.6477618627" lon="30.7408200670"><ele>15721.54</ele><time>2026-08-31T12:23:54Z</time></trkpt><trkpt lat="59.6477625333" lon="30.7408195641"><ele>15712.88</ele><time>2026-08-31T12:23:55Z</time></trkpt><trkpt lat="59.6477632876" lon="30.7408184744"><ele>15704.23</ele><time>2026-08-31T12:23:56Z</time></trkpt><trkpt lat="59.6477638744" lon="30.7408175524"><ele>15695.58</ele><time>2026-08-31T12:23:57Z</time></trkpt><trkpt lat="59.6477718372" lon="30.7408136968"><ele>15686.93</ele><time>2026-08-31T12:23:58Z</time></trkpt><trkpt lat="59.6477764472" lon="30.7408037223"><ele>15678.28</ele><time>2026-08-31T12:23:59Z</time></trkpt><trkpt lat="59.6477728430" lon="30.7407936640"><ele>15669.63</ele><time>2026-08-31T12:24:00Z</time></trkpt><trkpt lat="59.6477802191" lon="30.7407923229"><ele>15660.97</ele><time>2026-08-31T12:24:01Z</time></trkpt><trkpt lat="59.6477811411" lon="30.7407914009"><ele>15652.32</ele><time>2026-08-31T12:24:02Z</time></trkpt><trkpt lat="59.6477829851" lon="30.7407914847"><ele>15643.67</ele><time>2026-08-31T12:24:03Z</time></trkpt><trkpt lat="59.6477839071" lon="30.7407916524"><ele>15635.02</ele><time>2026-08-31T12:24:04Z</time></trkpt><trkpt lat="59.6477851644" lon="30.7407912333"><ele>15626.37</ele><time>2026-08-31T12:24:05Z</time></trkpt><trkpt lat="59.6477859188" lon="30.7407906465"><ele>15617.24</ele><time>2026-08-31T12:24:06Z</time></trkpt><trkpt lat="59.6477870084" lon="30.7407898922"><ele>15608.58</ele><time>2026-08-31T12:24:07Z</time></trkpt><trkpt lat="59.6477875952" lon="30.7407904789"><ele>15599.93</ele><time>2026-08-31T12:24:08Z</time></trkpt><trkpt lat="59.6477879304" lon="30.7407902274"><ele>15591.28</ele><time>2026-08-31T12:24:09Z</time></trkpt><trkpt lat="59.6477906127" lon="30.7407990284"><ele>15583.11</ele><time>2026-08-31T12:24:10Z</time></trkpt><trkpt lat="59.6477930434" lon="30.7407850306"><ele>15574.46</ele><time>2026-08-31T12:24:11Z</time></trkpt><trkpt lat="59.6477939654" lon="30.7407839410"><ele>15565.80</ele><time>2026-08-31T12:24:12Z</time></trkpt><trkpt lat="59.6477947198" lon="30.7407831028"><ele>15557.15</ele><time>2026-08-31T12:24:13Z</time></trkpt><trkpt lat="59.6477956418" lon="30.7407823484"><ele>15548.50</ele><time>2026-08-31T12:24:14Z</time></trkpt><trkpt lat="59.6477966476" lon="30.7407809235"><ele>15539.85</ele><time>2026-08-31T12:24:15Z</time></trkpt><trkpt lat="59.6478056163" lon="30.7407755591"><ele>15531.20</ele><time>2026-08-31T12:24:16Z</time></trkpt><trkpt lat="59.6478129923" lon="30.7407681830"><ele>15522.54</ele><time>2026-08-31T12:24:17Z</time></trkpt><trkpt lat="59.6478122380" lon="30.7407638244"><ele>15513.89</ele><time>2026-08-31T12:24:18Z</time></trkpt><trkpt lat="59.6478168480" lon="30.7407642435"><ele>15505.24</ele><time>2026-08-31T12:24:19Z</time></trkpt><trkpt lat="59.6478181891" lon="30.7407569513"><ele>15496.59</ele><time>2026-08-31T12:24:20Z</time></trkpt><trkpt lat="59.6478188597" lon="30.7407565322"><ele>15487.94</ele><time>2026-08-31T12:24:21Z</time></trkpt><trkpt lat="59.6478243079" lon="30.7407485694"><ele>15479.77</ele><time>2026-08-31T12:24:22Z</time></trkpt><trkpt lat="59.6478253976" lon="30.7407450490"><ele>15471.12</ele><time>2026-08-31T12:24:23Z</time></trkpt><trkpt lat="59.6478262357" lon="30.7407472283"><ele>15462.46</ele><time>2026-08-31T12:24:24Z</time></trkpt><trkpt lat="59.6478275768" lon="30.7407466415"><ele>15453.81</ele><time>2026-08-31T12:24:25Z</time></trkpt><trkpt lat="59.6478290018" lon="30.7407465577"><ele>15445.16</ele><time>2026-08-31T12:24:26Z</time></trkpt><trkpt lat="59.6478310134" lon="30.7407463901"><ele>15436.51</ele><time>2026-08-31T12:24:27Z</time></trkpt><trkpt lat="59.6478316840" lon="30.7407459710"><ele>15428.34</ele><time>2026-08-31T12:24:28Z</time></trkpt><trkpt lat="59.6478330251" lon="30.7407445461"><ele>15419.68</ele><time>2026-08-31T12:24:29Z</time></trkpt><trkpt lat="59.6478363778" lon="30.7407347392"><ele>15411.03</ele><time>2026-08-31T12:24:30Z</time></trkpt><trkpt lat="59.6478347015" lon="30.7407281175"><ele>15402.38</ele><time>2026-08-31T12:24:31Z</time></trkpt><trkpt lat="59.6478385571" lon="30.7407252677"><ele>15394.21</ele><time>2026-08-31T12:24:32Z</time></trkpt><trkpt lat="59.6478389762" lon="30.7407142036"><ele>15385.56</ele><time>2026-08-31T12:24:33Z</time></trkpt><trkpt lat="59.6478387248" lon="30.7407033071"><ele>15376.91</ele><time>2026-08-31T12:24:34Z</time></trkpt><trkpt lat="59.6478395630" lon="30.7407020498"><ele>15368.25</ele><time>2026-08-31T12:24:35Z</time></trkpt><trkpt lat="59.6478376351" lon="30.7407027204"><ele>15360.08</ele><time>2026-08-31T12:24:36Z</time></trkpt><trkpt lat="59.6478417423" lon="30.7407018822"><ele>15351.43</ele><time>2026-08-31T12:24:37Z</time></trkpt><trkpt lat="59.6478422452" lon="30.7407014631"><ele>15342.78</ele><time>2026-08-31T12:24:38Z</time></trkpt><trkpt lat="59.6478428319" lon="30.7406997867"><ele>15334.61</ele><time>2026-08-31T12:24:39Z</time></trkpt><trkpt lat="59.6478434186" lon="30.7406977750"><ele>15325.96</ele><time>2026-08-31T12:24:40Z</time></trkpt><trkpt lat="59.6478441730" lon="30.7406955957"><ele>15317.30</ele><time>2026-08-31T12:24:41Z</time></trkpt><trkpt lat="59.6478528902" lon="30.7406835258"><ele>15309.13</ele><time>2026-08-31T12:24:42Z</time></trkpt><trkpt lat="59.6478617750" lon="30.7406691927"><ele>15300.48</ele><time>2026-08-31T12:24:43Z</time></trkpt><trkpt lat="59.6478728391" lon="30.7406613138"><ele>15291.83</ele><time>2026-08-31T12:24:44Z</time></trkpt><trkpt lat="59.6478818916" lon="30.7406496629"><ele>15283.66</ele><time>2026-08-31T12:24:45Z</time></trkpt><trkpt lat="59.6478843223" lon="30.7406450529"><ele>15275.01</ele><time>2026-08-31T12:24:46Z</time></trkpt><trkpt lat="59.6478901897" lon="30.7406408619"><ele>15266.35</ele><time>2026-08-31T12:24:47Z</time></trkpt><trkpt lat="59.6478912793" lon="30.7406391017"><ele>15258.18</ele><time>2026-08-31T12:24:48Z</time></trkpt><trkpt lat="59.6478918660" lon="30.7406375092"><ele>15249.53</ele><time>2026-08-31T12:24:49Z</time></trkpt><trkpt lat="59.6479024272" lon="30.7406352460"><ele>15241.36</ele><time>2026-08-31T12:24:50Z</time></trkpt><trkpt lat="59.6479146648" lon="30.7406354137"><ele>15232.71</ele><time>2026-08-31T12:24:51Z</time></trkpt><trkpt lat="59.6479235496" lon="30.7406297140"><ele>15224.06</ele><time>2026-08-31T12:24:52Z</time></trkpt><trkpt lat="59.6479279920" lon="30.7406233437"><ele>15215.88</ele><time>2026-08-31T12:24:53Z</time></trkpt><trkpt lat="59.6479280759" lon="30.7406222541"><ele>15207.23</ele><time>2026-08-31T12:24:54Z</time></trkpt><trkpt lat="59.6479336917" lon="30.7406110223"><ele>15199.06</ele><time>2026-08-31T12:24:55Z</time></trkpt><trkpt lat="59.6479346976" lon="30.7406076696"><ele>15190.41</ele><time>2026-08-31T12:24:56Z</time></trkpt><trkpt lat="59.6479357034" lon="30.7406028081"><ele>15182.24</ele><time>2026-08-31T12:24:57Z</time></trkpt><trkpt lat="59.6479369607" lon="30.7406008802"><ele>15173.59</ele><time>2026-08-31T12:24:58Z</time></trkpt><trkpt lat="59.6479440015" lon="30.7405659277"><ele>15165.41</ele><time>2026-08-31T12:24:59Z</time></trkpt><trkpt lat="59.6479471866" lon="30.7405394409"><ele>15156.76</ele><time>2026-08-31T12:25:00Z</time></trkpt><trkpt lat="59.6479506232" lon="30.7405155525"><ele>15148.59</ele><time>2026-08-31T12:25:01Z</time></trkpt><trkpt lat="59.6479548141" lon="30.7405106071"><ele>15139.94</ele><time>2026-08-31T12:25:02Z</time></trkpt><trkpt lat="59.6479582507" lon="30.7405078411"><ele>15131.77</ele><time>2026-08-31T12:25:03Z</time></trkpt><trkpt lat="59.6479691472" lon="30.7405046560"><ele>15114.95</ele><time>2026-08-31T12:25:05Z</time></trkpt><trkpt lat="59.6479774453" lon="30.7404970285"><ele>15106.78</ele><time>2026-08-31T12:25:06Z</time></trkpt><trkpt lat="59.6479851566" lon="30.7404925860"><ele>15098.12</ele><time>2026-08-31T12:25:07Z</time></trkpt><trkpt lat="59.6479868330" lon="30.7404988725"><ele>15089.95</ele><time>2026-08-31T12:25:08Z</time></trkpt><trkpt lat="59.6479906049" lon="30.7404903229"><ele>15081.30</ele><time>2026-08-31T12:25:09Z</time></trkpt><trkpt lat="59.6479927003" lon="30.7404851262"><ele>15073.13</ele><time>2026-08-31T12:25:10Z</time></trkpt><trkpt lat="59.6479880903" lon="30.7404849585"><ele>15064.96</ele><time>2026-08-31T12:25:11Z</time></trkpt><trkpt lat="59.6479882579" lon="30.7404824439"><ele>15056.30</ele><time>2026-08-31T12:25:12Z</time></trkpt><trkpt lat="59.6479838993" lon="30.7404752355"><ele>15048.13</ele><time>2026-08-31T12:25:13Z</time></trkpt><trkpt lat="59.6479843184" lon="30.7404696196"><ele>15039.96</ele><time>2026-08-31T12:25:14Z</time></trkpt><trkpt lat="59.6479803789" lon="30.7404658478"><ele>15031.31</ele><time>2026-08-31T12:25:15Z</time></trkpt><trkpt lat="59.6479796246" lon="30.7404663507"><ele>15023.14</ele><time>2026-08-31T12:25:16Z</time></trkpt><trkpt lat="59.6479786187" lon="30.7404681947"><ele>15014.97</ele><time>2026-08-31T12:25:17Z</time></trkpt><trkpt lat="59.6479781158" lon="30.7404690329"><ele>15006.32</ele><time>2026-08-31T12:25:18Z</time></trkpt><trkpt lat="59.6479701530" lon="30.7404754870"><ele>14998.15</ele><time>2026-08-31T12:25:19Z</time></trkpt><trkpt lat="59.6479620226" lon="30.7405071706"><ele>14981.32</ele><time>2026-08-31T12:25:21Z</time></trkpt><trkpt lat="59.6479620226" lon="30.7405112777"><ele>14973.15</ele><time>2026-08-31T12:25:22Z</time></trkpt><trkpt lat="59.6479611844" lon="30.7405100204"><ele>14964.98</ele><time>2026-08-31T12:25:23Z</time></trkpt><trkpt lat="59.6479579993" lon="30.7405129541"><ele>14956.81</ele><time>2026-08-31T12:25:24Z</time></trkpt><trkpt lat="59.6479564905" lon="30.7405131217"><ele>14948.16</ele><time>2026-08-31T12:25:25Z</time></trkpt><trkpt lat="59.6479558200" lon="30.7405145466"><ele>14939.99</ele><time>2026-08-31T12:25:26Z</time></trkpt><trkpt lat="59.6479563229" lon="30.7405178994"><ele>14931.81</ele><time>2026-08-31T12:25:27Z</time></trkpt><trkpt lat="59.6479557361" lon="30.7405155525"><ele>14923.64</ele><time>2026-08-31T12:25:28Z</time></trkpt><trkpt lat="59.6479547303" lon="30.7405147981"><ele>14915.47</ele><time>2026-08-31T12:25:29Z</time></trkpt><trkpt lat="59.6479544789" lon="30.7405143790"><ele>14906.82</ele><time>2026-08-31T12:25:30Z</time></trkpt><trkpt lat="59.6479569096" lon="30.7405105233"><ele>14898.65</ele><time>2026-08-31T12:25:31Z</time></trkpt><trkpt lat="59.6479549818" lon="30.7405100204"><ele>14890.48</ele><time>2026-08-31T12:25:32Z</time></trkpt><trkpt lat="59.6479546465" lon="30.7405088469"><ele>14882.31</ele><time>2026-08-31T12:25:33Z</time></trkpt><trkpt lat="59.6479550656" lon="30.7405069191"><ele>14874.14</ele><time>2026-08-31T12:25:34Z</time></trkpt><trkpt lat="59.6479554847" lon="30.7405075897"><ele>14865.96</ele><time>2026-08-31T12:25:35Z</time></trkpt><trkpt lat="59.6479543112" lon="30.7405118644"><ele>14857.31</ele><time>2026-08-31T12:25:36Z</time></trkpt><trkpt lat="59.6479565743" lon="30.7405065000"><ele>14849.14</ele><time>2026-08-31T12:25:37Z</time></trkpt><trkpt lat="59.6479568258" lon="30.7405058295"><ele>14840.97</ele><time>2026-08-31T12:25:38Z</time></trkpt><trkpt lat="59.6479581669" lon="30.7404976990"><ele>14832.80</ele><time>2026-08-31T12:25:39Z</time></trkpt><trkpt lat="59.6479583345" lon="30.7404967770"><ele>14824.63</ele><time>2026-08-31T12:25:40Z</time></trkpt><trkpt lat="59.6479549818" lon="30.7404864673"><ele>14816.46</ele><time>2026-08-31T12:25:41Z</time></trkpt><trkpt lat="59.6479522157" lon="30.7404818572"><ele>14808.29</ele><time>2026-08-31T12:25:42Z</time></trkpt><trkpt lat="59.6479557361" lon="30.7404794265"><ele>14800.11</ele><time>2026-08-31T12:25:43Z</time></trkpt><trkpt lat="59.6479563229" lon="30.7404786721"><ele>14791.94</ele><time>2026-08-31T12:25:44Z</time></trkpt><trkpt lat="59.6479565743" lon="30.7404787559"><ele>14783.77</ele><time>2026-08-31T12:25:45Z</time></trkpt><trkpt lat="59.6479569934" lon="30.7404779177"><ele>14775.60</ele><time>2026-08-31T12:25:46Z</time></trkpt><trkpt lat="59.6479573287" lon="30.7404771633"><ele>14767.43</ele><time>2026-08-31T12:25:47Z</time></trkpt><trkpt lat="59.6479578316" lon="30.7404773310"><ele>14759.26</ele><time>2026-08-31T12:25:48Z</time></trkpt><trkpt lat="59.6479546465" lon="30.7404866349"><ele>14750.61</ele><time>2026-08-31T12:25:49Z</time></trkpt><trkpt lat="59.6479530539" lon="30.7404888980"><ele>14742.44</ele><time>2026-08-31T12:25:50Z</time></trkpt><trkpt lat="59.6479502041" lon="30.7404983696"><ele>14734.26</ele><time>2026-08-31T12:25:51Z</time></trkpt><trkpt lat="59.6479492821" lon="30.7405009679"><ele>14726.57</ele><time>2026-08-31T12:25:52Z</time></trkpt><trkpt lat="59.6479499526" lon="30.7404997107"><ele>14718.40</ele><time>2026-08-31T12:25:53Z</time></trkpt><trkpt lat="59.6479511261" lon="30.7404839527"><ele>14710.23</ele><time>2026-08-31T12:25:54Z</time></trkpt><trkpt lat="59.6479495335" lon="30.7404863834"><ele>14702.06</ele><time>2026-08-31T12:25:55Z</time></trkpt><trkpt lat="59.6479517128" lon="30.7404816058"><ele>14693.89</ele><time>2026-08-31T12:25:56Z</time></trkpt><trkpt lat="59.6479494497" lon="30.7404785044"><ele>14685.72</ele><time>2026-08-31T12:25:57Z</time></trkpt><trkpt lat="59.6479522996" lon="30.7404800970"><ele>14677.55</ele><time>2026-08-31T12:25:58Z</time></trkpt><trkpt lat="59.6479527187" lon="30.7404806837"><ele>14669.38</ele><time>2026-08-31T12:25:59Z</time></trkpt><trkpt lat="59.6479525510" lon="30.7404809352"><ele>14661.20</ele><time>2026-08-31T12:26:00Z</time></trkpt><trkpt lat="59.6479524672" lon="30.7404810190"><ele>14653.03</ele><time>2026-08-31T12:26:01Z</time></trkpt><trkpt lat="59.6479524672" lon="30.7404807676"><ele>14644.86</ele><time>2026-08-31T12:26:02Z</time></trkpt><trkpt lat="59.6479524672" lon="30.7404803485"><ele>14636.69</ele><time>2026-08-31T12:26:03Z</time></trkpt><trkpt lat="59.6479525510" lon="30.7404796779"><ele>14628.52</ele><time>2026-08-31T12:26:04Z</time></trkpt><trkpt lat="59.6479526348" lon="30.7404790912"><ele>14620.83</ele><time>2026-08-31T12:26:05Z</time></trkpt><trkpt lat="59.6479525510" lon="30.7404785883"><ele>14612.66</ele><time>2026-08-31T12:26:06Z</time></trkpt><trkpt lat="59.6479528025" lon="30.7404774986"><ele>14604.49</ele><time>2026-08-31T12:26:07Z</time></trkpt><trkpt lat="59.6479531378" lon="30.7404768281"><ele>14596.32</ele><time>2026-08-31T12:26:08Z</time></trkpt><trkpt lat="59.6479533892" lon="30.7404767442"><ele>14588.14</ele><time>2026-08-31T12:26:09Z</time></trkpt><trkpt lat="59.6479535569" lon="30.7404765766"><ele>14579.97</ele><time>2026-08-31T12:26:10Z</time></trkpt><trkpt lat="59.6479535569" lon="30.7404764928"><ele>14572.28</ele><time>2026-08-31T12:26:11Z</time></trkpt><trkpt lat="59.6479539759" lon="30.7404754870"><ele>14564.11</ele><time>2026-08-31T12:26:12Z</time></trkpt><trkpt lat="59.6479547303" lon="30.7404739782"><ele>14555.94</ele><time>2026-08-31T12:26:13Z</time></trkpt><trkpt lat="59.6479553171" lon="30.7404729724"><ele>14547.77</ele><time>2026-08-31T12:26:14Z</time></trkpt><trkpt lat="59.6479557361" lon="30.7404718827"><ele>14539.60</ele><time>2026-08-31T12:26:15Z</time></trkpt><trkpt lat="59.6479564905" lon="30.7404696196"><ele>14531.91</ele><time>2026-08-31T12:26:16Z</time></trkpt><trkpt lat="59.6479574125" lon="30.7404671889"><ele>14523.74</ele><time>2026-08-31T12:26:17Z</time></trkpt><trkpt lat="59.6479583345" lon="30.7404656801"><ele>14515.56</ele><time>2026-08-31T12:26:18Z</time></trkpt><trkpt lat="59.6479592565" lon="30.7404645905"><ele>14507.39</ele><time>2026-08-31T12:26:19Z</time></trkpt><trkpt lat="59.6479604300" lon="30.7404628303"><ele>14499.70</ele><time>2026-08-31T12:26:20Z</time></trkpt><trkpt lat="59.6479614358" lon="30.7404615730"><ele>14491.53</ele><time>2026-08-31T12:26:21Z</time></trkpt><trkpt lat="59.6479623578" lon="30.7404607348"><ele>14483.36</ele><time>2026-08-31T12:26:22Z</time></trkpt><trkpt lat="59.6479632799" lon="30.7404594775"><ele>14475.67</ele><time>2026-08-31T12:26:23Z</time></trkpt><trkpt lat="59.6479640342" lon="30.7404582202"><ele>14467.50</ele><time>2026-08-31T12:26:24Z</time></trkpt><trkpt lat="59.6479600109" lon="30.7404506765"><ele>14459.33</ele><time>2026-08-31T12:26:25Z</time></trkpt><trkpt lat="59.6479590051" lon="30.7404497545"><ele>14451.16</ele><time>2026-08-31T12:26:26Z</time></trkpt><trkpt lat="59.6479591727" lon="30.7404491678"><ele>14443.46</ele><time>2026-08-31T12:26:27Z</time></trkpt><trkpt lat="59.6479592565" lon="30.7404486649"><ele>14435.29</ele><time>2026-08-31T12:26:28Z</time></trkpt><trkpt lat="59.6479571611" lon="30.7404489163"><ele>14427.60</ele><time>2026-08-31T12:26:29Z</time></trkpt><trkpt lat="59.6479605138" lon="30.7404465694"><ele>14419.43</ele><time>2026-08-31T12:26:30Z</time></trkpt><trkpt lat="59.6479611844" lon="30.7404450607"><ele>14411.26</ele><time>2026-08-31T12:26:31Z</time></trkpt><trkpt lat="59.6479614358" lon="30.7404448930"><ele>14403.57</ele><time>2026-08-31T12:26:32Z</time></trkpt><trkpt lat="59.6479609329" lon="30.7404490840"><ele>14395.40</ele><time>2026-08-31T12:26:33Z</time></trkpt><trkpt lat="59.6479606815" lon="30.7404474076"><ele>14387.23</ele><time>2026-08-31T12:26:34Z</time></trkpt><trkpt lat="59.6479602624" lon="30.7404484134"><ele>14379.54</ele><time>2026-08-31T12:26:35Z</time></trkpt><trkpt lat="59.6479598433" lon="30.7404492516"><ele>14371.37</ele><time>2026-08-31T12:26:36Z</time></trkpt><trkpt lat="59.6479595918" lon="30.7404496707"><ele>14363.68</ele><time>2026-08-31T12:26:37Z</time></trkpt><trkpt lat="59.6479595080" lon="30.7404502574"><ele>14355.50</ele><time>2026-08-31T12:26:38Z</time></trkpt><trkpt lat="59.6479595080" lon="30.7404513471"><ele>14347.81</ele><time>2026-08-31T12:26:39Z</time></trkpt><trkpt lat="59.6479595918" lon="30.7404515147"><ele>14339.64</ele><time>2026-08-31T12:26:40Z</time></trkpt><trkpt lat="59.6479595918" lon="30.7404506765"><ele>14331.95</ele><time>2026-08-31T12:26:41Z</time></trkpt><trkpt lat="59.6479609329" lon="30.7404433005"><ele>14323.78</ele><time>2026-08-31T12:26:42Z</time></trkpt><trkpt lat="59.6479592565" lon="30.7404443901"><ele>14316.09</ele><time>2026-08-31T12:26:43Z</time></trkpt><trkpt lat="59.6479595080" lon="30.7404437196"><ele>14307.92</ele><time>2026-08-31T12:26:44Z</time></trkpt><trkpt lat="59.6479570772" lon="30.7404370978"><ele>14300.23</ele><time>2026-08-31T12:26:45Z</time></trkpt><trkpt lat="59.6479565743" lon="30.7404347509"><ele>14292.06</ele><time>2026-08-31T12:26:46Z</time></trkpt><trkpt lat="59.6479545627" lon="30.7404359244"><ele>14284.37</ele><time>2026-08-31T12:26:47Z</time></trkpt><trkpt lat="59.6479589213" lon="30.7404374331"><ele>14276.20</ele><time>2026-08-31T12:26:48Z</time></trkpt><trkpt lat="59.6479599271" lon="30.7404392771"><ele>14268.50</ele><time>2026-08-31T12:26:49Z</time></trkpt><trkpt lat="59.6479614358" lon="30.7404417917"><ele>14260.33</ele><time>2026-08-31T12:26:50Z</time></trkpt><trkpt lat="59.6479617711" lon="30.7404416241"><ele>14252.64</ele><time>2026-08-31T12:26:51Z</time></trkpt><trkpt lat="59.6479619388" lon="30.7404417917"><ele>14244.47</ele><time>2026-08-31T12:26:52Z</time></trkpt><trkpt lat="59.6479621064" lon="30.7404420432"><ele>14236.78</ele><time>2026-08-31T12:26:53Z</time></trkpt><trkpt lat="59.6479625255" lon="30.7404423784"><ele>14228.61</ele><time>2026-08-31T12:26:54Z</time></trkpt><trkpt lat="59.6479626093" lon="30.7404431328"><ele>14220.92</ele><time>2026-08-31T12:26:55Z</time></trkpt><trkpt lat="59.6479626093" lon="30.7404437196"><ele>14213.23</ele><time>2026-08-31T12:26:56Z</time></trkpt><trkpt lat="59.6479627769" lon="30.7404433005"><ele>14205.06</ele><time>2026-08-31T12:26:57Z</time></trkpt><trkpt lat="59.6479628608" lon="30.7404434681"><ele>14197.37</ele><time>2026-08-31T12:26:58Z</time></trkpt><trkpt lat="59.6479631122" lon="30.7404429652"><ele>14189.68</ele><time>2026-08-31T12:26:59Z</time></trkpt><trkpt lat="59.6479589213" lon="30.7404466532"><ele>14181.51</ele><time>2026-08-31T12:27:00Z</time></trkpt><trkpt lat="59.6479647048" lon="30.7404405344"><ele>14173.82</ele><time>2026-08-31T12:27:01Z</time></trkpt><trkpt lat="59.6479663812" lon="30.7404349186"><ele>14165.64</ele><time>2026-08-31T12:27:02Z</time></trkpt><trkpt lat="59.6479649562" lon="30.7404386066"><ele>14157.95</ele><time>2026-08-31T12:27:03Z</time></trkpt><trkpt lat="59.6479641180" lon="30.7404418755"><ele>14150.26</ele><time>2026-08-31T12:27:04Z</time></trkpt><trkpt lat="59.6479651239" lon="30.7404369302"><ele>14142.57</ele><time>2026-08-31T12:27:05Z</time></trkpt><trkpt lat="59.6479640342" lon="30.7404380199"><ele>14134.40</ele><time>2026-08-31T12:27:06Z</time></trkpt><trkpt lat="59.6479627769" lon="30.7404397801"><ele>14126.71</ele><time>2026-08-31T12:27:07Z</time></trkpt><trkpt lat="59.6479632799" lon="30.7404445577"><ele>14119.02</ele><time>2026-08-31T12:27:08Z</time></trkpt><trkpt lat="59.6479611006" lon="30.7404419594"><ele>14110.85</ele><time>2026-08-31T12:27:09Z</time></trkpt><trkpt lat="59.6479602624" lon="30.7404433005"><ele>14103.16</ele><time>2026-08-31T12:27:10Z</time></trkpt><trkpt lat="59.6479572449" lon="30.7404443901"><ele>14095.47</ele><time>2026-08-31T12:27:11Z</time></trkpt><trkpt lat="59.6479569096" lon="30.7404455636"><ele>14087.78</ele><time>2026-08-31T12:27:12Z</time></trkpt><trkpt lat="59.6479543112" lon="30.7404506765"><ele>14079.61</ele><time>2026-08-31T12:27:13Z</time></trkpt><trkpt lat="59.6479539759" lon="30.7404514309"><ele>14071.92</ele><time>2026-08-31T12:27:14Z</time></trkpt><trkpt lat="59.6479538921" lon="30.7404510118"><ele>14064.22</ele><time>2026-08-31T12:27:15Z</time></trkpt><trkpt lat="59.6479527187" lon="30.7404538617"><ele>14056.53</ele><time>2026-08-31T12:27:16Z</time></trkpt><trkpt lat="59.6479532216" lon="30.7404501736"><ele>14048.36</ele><time>2026-08-31T12:27:17Z</time></trkpt><trkpt lat="59.6479511261" lon="30.7404552028"><ele>14040.67</ele><time>2026-08-31T12:27:18Z</time></trkpt><trkpt lat="59.6479484439" lon="30.7404536940"><ele>14032.98</ele><time>2026-08-31T12:27:19Z</time></trkpt><trkpt lat="59.6479458455" lon="30.7404531911"><ele>14025.29</ele><time>2026-08-31T12:27:20Z</time></trkpt><trkpt lat="59.6479445882" lon="30.7404534426"><ele>14017.60</ele><time>2026-08-31T12:27:21Z</time></trkpt><trkpt lat="59.6479489468" lon="30.7404535264"><ele>14009.91</ele><time>2026-08-31T12:27:22Z</time></trkpt><trkpt lat="59.6479479410" lon="30.7404505089"><ele>14001.74</ele><time>2026-08-31T12:27:23Z</time></trkpt><trkpt lat="59.6479505394" lon="30.7404477429"><ele>13994.05</ele><time>2026-08-31T12:27:24Z</time></trkpt><trkpt lat="59.6479510423" lon="30.7404521015"><ele>13994.05</ele><time>2026-08-31T12:27:25Z</time></trkpt><trkpt lat="59.6479538083" lon="30.7404455636"><ele>13978.67</ele><time>2026-08-31T12:27:26Z</time></trkpt><trkpt lat="59.6479544789" lon="30.7404456474"><ele>13970.98</ele><time>2026-08-31T12:27:27Z</time></trkpt><trkpt lat="59.6479550656" lon="30.7404453959"><ele>13963.29</ele><time>2026-08-31T12:27:28Z</time></trkpt><trkpt lat="59.6479559876" lon="30.7404450607"><ele>13955.60</ele><time>2026-08-31T12:27:29Z</time></trkpt><trkpt lat="59.6479570772" lon="30.7404433843"><ele>13947.91</ele><time>2026-08-31T12:27:30Z</time></trkpt><trkpt lat="59.6479579154" lon="30.7404421270"><ele>13940.21</ele><time>2026-08-31T12:27:31Z</time></trkpt><trkpt lat="59.6479589213" lon="30.7404417079"><ele>13932.04</ele><time>2026-08-31T12:27:32Z</time></trkpt><trkpt lat="59.6479600109" lon="30.7404415403"><ele>13924.35</ele><time>2026-08-31T12:27:33Z</time></trkpt><trkpt lat="59.6479611006" lon="30.7404411212"><ele>13916.66</ele><time>2026-08-31T12:27:34Z</time></trkpt><trkpt lat="59.6479619388" lon="30.7404410373"><ele>13908.97</ele><time>2026-08-31T12:27:35Z</time></trkpt><trkpt lat="59.6479626093" lon="30.7404405344"><ele>13901.28</ele><time>2026-08-31T12:27:36Z</time></trkpt><trkpt lat="59.6479626931" lon="30.7404407021"><ele>13893.59</ele><time>2026-08-31T12:27:37Z</time></trkpt><trkpt lat="59.6479632799" lon="30.7404404506"><ele>13885.90</ele><time>2026-08-31T12:27:38Z</time></trkpt><trkpt lat="59.6479640342" lon="30.7404399477"><ele>13878.21</ele><time>2026-08-31T12:27:39Z</time></trkpt><trkpt lat="59.6479644533" lon="30.7404396124"><ele>13870.52</ele><time>2026-08-31T12:27:40Z</time></trkpt><trkpt lat="59.6479646210" lon="30.7404392771"><ele>13862.83</ele><time>2026-08-31T12:27:41Z</time></trkpt><trkpt lat="59.6479646210" lon="30.7404392771"><ele>13855.14</ele><time>2026-08-31T12:27:42Z</time></trkpt><trkpt lat="59.6479659621" lon="30.7404405344"><ele>13847.45</ele><time>2026-08-31T12:27:43Z</time></trkpt><trkpt lat="59.6479640342" lon="30.7404387742"><ele>13839.76</ele><time>2026-08-31T12:27:44Z</time></trkpt><trkpt lat="59.6479686443" lon="30.7404410373"><ele>13832.07</ele><time>2026-08-31T12:27:45Z</time></trkpt><trkpt lat="59.6479698177" lon="30.7404456474"><ele>13824.38</ele><time>2026-08-31T12:27:46Z</time></trkpt><trkpt lat="59.6479705721" lon="30.7404380199"><ele>13817.17</ele><time>2026-08-31T12:27:47Z</time></trkpt><trkpt lat="59.6479706559" lon="30.7404380199"><ele>13809.48</ele><time>2026-08-31T12:27:48Z</time></trkpt><trkpt lat="59.6479709074" lon="30.7404378522"><ele>13801.79</ele><time>2026-08-31T12:27:49Z</time></trkpt><trkpt lat="59.6479714941" lon="30.7404365949"><ele>13794.09</ele><time>2026-08-31T12:27:50Z</time></trkpt><trkpt lat="59.6479718294" lon="30.7404360082"><ele>13786.40</ele><time>2026-08-31T12:27:51Z</time></trkpt><trkpt lat="59.6479723323" lon="30.7404355891"><ele>13778.71</ele><time>2026-08-31T12:27:52Z</time></trkpt><trkpt lat="59.6479682252" lon="30.7404386904"><ele>13771.02</ele><time>2026-08-31T12:27:53Z</time></trkpt><trkpt lat="59.6479719132" lon="30.7404335774"><ele>13763.33</ele><time>2026-08-31T12:27:54Z</time></trkpt><trkpt lat="59.6479714103" lon="30.7404321525"><ele>13755.64</ele><time>2026-08-31T12:27:55Z</time></trkpt><trkpt lat="59.6479709912" lon="30.7404308114"><ele>13748.43</ele><time>2026-08-31T12:27:56Z</time></trkpt><trkpt lat="59.6479709912" lon="30.7404295541"><ele>13740.74</ele><time>2026-08-31T12:27:57Z</time></trkpt><trkpt lat="59.6479713265" lon="30.7404286321"><ele>13733.05</ele><time>2026-08-31T12:27:58Z</time></trkpt><trkpt lat="59.6479716618" lon="30.7404279616"><ele>13725.36</ele><time>2026-08-31T12:27:59Z</time></trkpt><trkpt lat="59.6479717456" lon="30.7404275425"><ele>13717.67</ele><time>2026-08-31T12:28:00Z</time></trkpt><trkpt lat="59.6479719970" lon="30.7404269557"><ele>13709.98</ele><time>2026-08-31T12:28:01Z</time></trkpt><trkpt lat="59.6479723323" lon="30.7404259499"><ele>13702.77</ele><time>2026-08-31T12:28:02Z</time></trkpt><trkpt lat="59.6479725000" lon="30.7404252794"><ele>13695.08</ele><time>2026-08-31T12:28:03Z</time></trkpt><trkpt lat="59.6479725000" lon="30.7404247764"><ele>13687.39</ele><time>2026-08-31T12:28:04Z</time></trkpt><trkpt lat="59.6479725838" lon="30.7404245250"><ele>13679.70</ele><time>2026-08-31T12:28:05Z</time></trkpt><trkpt lat="59.6479727514" lon="30.7404241059"><ele>13672.01</ele><time>2026-08-31T12:28:06Z</time></trkpt><trkpt lat="59.6479730029" lon="30.7404240221"><ele>13664.80</ele><time>2026-08-31T12:28:07Z</time></trkpt><trkpt lat="59.6479735058" lon="30.7404235192"><ele>13657.11</ele><time>2026-08-31T12:28:08Z</time></trkpt><trkpt lat="59.6479737572" lon="30.7404229324"><ele>13649.42</ele><time>2026-08-31T12:28:09Z</time></trkpt><trkpt lat="59.6479740925" lon="30.7404225133"><ele>13641.73</ele><time>2026-08-31T12:28:10Z</time></trkpt><trkpt lat="59.6479745954" lon="30.7404224295"><ele>13634.52</ele><time>2026-08-31T12:28:11Z</time></trkpt><trkpt lat="59.6479746792" lon="30.7404222619"><ele>13626.83</ele><time>2026-08-31T12:28:12Z</time></trkpt><trkpt lat="59.6479748469" lon="30.7404220104"><ele>13619.13</ele><time>2026-08-31T12:28:13Z</time></trkpt><trkpt lat="59.6479751822" lon="30.7404214237"><ele>13611.92</ele><time>2026-08-31T12:28:14Z</time></trkpt><trkpt lat="59.6479755174" lon="30.7404210884"><ele>13604.23</ele><time>2026-08-31T12:28:15Z</time></trkpt><trkpt lat="59.6479760204" lon="30.7404209208"><ele>13596.54</ele><time>2026-08-31T12:28:16Z</time></trkpt><trkpt lat="59.6479765233" lon="30.7404211722"><ele>13589.33</ele><time>2026-08-31T12:28:17Z</time></trkpt><trkpt lat="59.6479769424" lon="30.7404214237"><ele>13581.64</ele><time>2026-08-31T12:28:18Z</time></trkpt><trkpt lat="59.6479776967" lon="30.7404210046"><ele>13573.95</ele><time>2026-08-31T12:28:19Z</time></trkpt><trkpt lat="59.6479765233" lon="30.7404132094"><ele>13566.74</ele><time>2026-08-31T12:28:20Z</time></trkpt><trkpt lat="59.6479793731" lon="30.7404179033"><ele>13559.05</ele><time>2026-08-31T12:28:21Z</time></trkpt><trkpt lat="59.6479802951" lon="30.7404186577"><ele>13551.36</ele><time>2026-08-31T12:28:22Z</time></trkpt><trkpt lat="59.6479807980" lon="30.7404182386"><ele>13544.15</ele><time>2026-08-31T12:28:23Z</time></trkpt><trkpt lat="59.6479813010" lon="30.7404176518"><ele>13536.46</ele><time>2026-08-31T12:28:24Z</time></trkpt><trkpt lat="59.6479823906" lon="30.7404180709"><ele>13529.25</ele><time>2026-08-31T12:28:25Z</time></trkpt><trkpt lat="59.6479831450" lon="30.7404185738"><ele>13521.56</ele><time>2026-08-31T12:28:26Z</time></trkpt><trkpt lat="59.6479835641" lon="30.7404191606"><ele>13513.87</ele><time>2026-08-31T12:28:27Z</time></trkpt><trkpt lat="59.6479835641" lon="30.7404194959"><ele>13506.66</ele><time>2026-08-31T12:28:28Z</time></trkpt><trkpt lat="59.6479835641" lon="30.7404196635"><ele>13498.97</ele><time>2026-08-31T12:28:29Z</time></trkpt><trkpt lat="59.6479835641" lon="30.7404195797"><ele>13491.76</ele><time>2026-08-31T12:28:30Z</time></trkpt><trkpt lat="59.6479835641" lon="30.7404195797"><ele>13484.07</ele><time>2026-08-31T12:28:31Z</time></trkpt><trkpt lat="59.6479834802" lon="30.7404194120"><ele>13476.86</ele><time>2026-08-31T12:28:32Z</time></trkpt><trkpt lat="59.6479835641" lon="30.7404191606"><ele>13469.17</ele><time>2026-08-31T12:28:33Z</time></trkpt><trkpt lat="59.6479834802" lon="30.7404190768"><ele>13461.48</ele><time>2026-08-31T12:28:34Z</time></trkpt><trkpt lat="59.6479833964" lon="30.7404189929"><ele>13454.27</ele><time>2026-08-31T12:28:35Z</time></trkpt><trkpt lat="59.6479833964" lon="30.7404189091"><ele>13446.58</ele><time>2026-08-31T12:28:36Z</time></trkpt><trkpt lat="59.6479833126" lon="30.7404189929"><ele>13439.37</ele><time>2026-08-31T12:28:37Z</time></trkpt><trkpt lat="59.6479833126" lon="30.7404194120"><ele>13431.68</ele><time>2026-08-31T12:28:38Z</time></trkpt><trkpt lat="59.6479832288" lon="30.7404196635"><ele>13424.47</ele><time>2026-08-31T12:28:39Z</time></trkpt><trkpt lat="59.6479829773" lon="30.7404201664"><ele>13417.26</ele><time>2026-08-31T12:28:40Z</time></trkpt><trkpt lat="59.6479824744" lon="30.7404210884"><ele>13409.57</ele><time>2026-08-31T12:28:41Z</time></trkpt><trkpt lat="59.6479821391" lon="30.7404215075"><ele>13402.36</ele><time>2026-08-31T12:28:42Z</time></trkpt><trkpt lat="59.6479821391" lon="30.7404215913"><ele>13394.67</ele><time>2026-08-31T12:28:43Z</time></trkpt><trkpt lat="59.6479819715" lon="30.7404225133"><ele>13387.46</ele><time>2026-08-31T12:28:44Z</time></trkpt><trkpt lat="59.6479820553" lon="30.7404237706"><ele>13379.77</ele><time>2026-08-31T12:28:45Z</time></trkpt><trkpt lat="59.6479822230" lon="30.7404251117"><ele>13372.56</ele><time>2026-08-31T12:28:46Z</time></trkpt><trkpt lat="59.6479819715" lon="30.7404259499"><ele>13364.87</ele><time>2026-08-31T12:28:47Z</time></trkpt><trkpt lat="59.6479818039" lon="30.7404267881"><ele>13357.66</ele><time>2026-08-31T12:28:48Z</time></trkpt><trkpt lat="59.6479817200" lon="30.7404276263"><ele>13350.45</ele><time>2026-08-31T12:28:49Z</time></trkpt><trkpt lat="59.6479817200" lon="30.7404278778"><ele>13342.76</ele><time>2026-08-31T12:28:50Z</time></trkpt><trkpt lat="59.6479818039" lon="30.7404279616"><ele>13335.55</ele><time>2026-08-31T12:28:51Z</time></trkpt><trkpt lat="59.6479819715" lon="30.7404280454"><ele>13328.34</ele><time>2026-08-31T12:28:52Z</time></trkpt><trkpt lat="59.6479819715" lon="30.7404278778"><ele>13320.65</ele><time>2026-08-31T12:28:53Z</time></trkpt><trkpt lat="59.6479821391" lon="30.7404278778"><ele>13313.44</ele><time>2026-08-31T12:28:54Z</time></trkpt><trkpt lat="59.6479824744" lon="30.7404282130"><ele>13305.75</ele><time>2026-08-31T12:28:55Z</time></trkpt><trkpt lat="59.6479809657" lon="30.7404256985"><ele>13298.54</ele><time>2026-08-31T12:28:56Z</time></trkpt><trkpt lat="59.6479846537" lon="30.7404301409"><ele>13291.33</ele><time>2026-08-31T12:28:57Z</time></trkpt><trkpt lat="59.6479854081" lon="30.7404308952"><ele>13283.63</ele><time>2026-08-31T12:28:58Z</time></trkpt><trkpt lat="59.6479902696" lon="30.7404411212"><ele>13276.42</ele><time>2026-08-31T12:28:59Z</time></trkpt><trkpt lat="59.6479896829" lon="30.7404370140"><ele>13269.21</ele><time>2026-08-31T12:29:00Z</time></trkpt><trkpt lat="59.6479897667" lon="30.7404376008"><ele>13262.00</ele><time>2026-08-31T12:29:01Z</time></trkpt><trkpt lat="59.6479905210" lon="30.7404383551"><ele>13254.32</ele><time>2026-08-31T12:29:02Z</time></trkpt><trkpt lat="59.6479915269" lon="30.7404377684"><ele>13247.10</ele><time>2026-08-31T12:29:03Z</time></trkpt><trkpt lat="59.6479906049" lon="30.7404317334"><ele>13239.89</ele><time>2026-08-31T12:29:04Z</time></trkpt><trkpt lat="59.6479941253" lon="30.7404282130"><ele>13232.68</ele><time>2026-08-31T12:29:05Z</time></trkpt><trkpt lat="59.6479912754" lon="30.7404250279"><ele>13224.99</ele><time>2026-08-31T12:29:06Z</time></trkpt><trkpt lat="59.6479888447" lon="30.7404244412"><ele>13217.78</ele><time>2026-08-31T12:29:07Z</time></trkpt><trkpt lat="59.6479870845" lon="30.7404278778"><ele>13210.57</ele><time>2026-08-31T12:29:08Z</time></trkpt><trkpt lat="59.6479889285" lon="30.7404245250"><ele>13203.37</ele><time>2026-08-31T12:29:09Z</time></trkpt><trkpt lat="59.6479890961" lon="30.7404248603"><ele>13195.67</ele><time>2026-08-31T12:29:10Z</time></trkpt><trkpt lat="59.6479895152" lon="30.7404251955"><ele>13188.46</ele><time>2026-08-31T12:29:11Z</time></trkpt><trkpt lat="59.6479895990" lon="30.7404253632"><ele>13181.25</ele><time>2026-08-31T12:29:12Z</time></trkpt><trkpt lat="59.6479897667" lon="30.7404254470"><ele>13174.04</ele><time>2026-08-31T12:29:13Z</time></trkpt><trkpt lat="59.6479900181" lon="30.7404250279"><ele>13166.83</ele><time>2026-08-31T12:29:14Z</time></trkpt><trkpt lat="59.6479898505" lon="30.7404232677"><ele>13159.14</ele><time>2026-08-31T12:29:15Z</time></trkpt><trkpt lat="59.6479901019" lon="30.7404222619"><ele>13151.93</ele><time>2026-08-31T12:29:16Z</time></trkpt><trkpt lat="59.6479907725" lon="30.7404261176"><ele>13144.72</ele><time>2026-08-31T12:29:17Z</time></trkpt><trkpt lat="59.6479916107" lon="30.7404186577"><ele>13137.51</ele><time>2026-08-31T12:29:18Z</time></trkpt><trkpt lat="59.6479920298" lon="30.7404185738"><ele>13130.30</ele><time>2026-08-31T12:29:19Z</time></trkpt><trkpt lat="59.6479920298" lon="30.7404184900"><ele>13123.09</ele><time>2026-08-31T12:29:20Z</time></trkpt><trkpt lat="59.6479921136" lon="30.7404179033"><ele>13115.88</ele><time>2026-08-31T12:29:21Z</time></trkpt><trkpt lat="59.6479923651" lon="30.7404166460"><ele>13108.19</ele><time>2026-08-31T12:29:22Z</time></trkpt><trkpt lat="59.6479925327" lon="30.7404151373"><ele>13100.98</ele><time>2026-08-31T12:29:23Z</time></trkpt><trkpt lat="59.6479927003" lon="30.7404141314"><ele>13093.77</ele><time>2026-08-31T12:29:24Z</time></trkpt><trkpt lat="59.6479936223" lon="30.7404141314"><ele>13086.56</ele><time>2026-08-31T12:29:25Z</time></trkpt><trkpt lat="59.6479957178" lon="30.7404118683"><ele>13079.35</ele><time>2026-08-31T12:29:26Z</time></trkpt><trkpt lat="59.6479963884" lon="30.7404163945"><ele>13072.14</ele><time>2026-08-31T12:29:27Z</time></trkpt><trkpt lat="59.6479978133" lon="30.7404181547"><ele>13064.94</ele><time>2026-08-31T12:29:28Z</time></trkpt><trkpt lat="59.6479993220" lon="30.7404200826"><ele>13057.72</ele><time>2026-08-31T12:29:29Z</time></trkpt><trkpt lat="59.6480008308" lon="30.7404221781"><ele>13050.51</ele><time>2026-08-31T12:29:30Z</time></trkpt><trkpt lat="59.6480019204" lon="30.7404232677"><ele>13043.30</ele><time>2026-08-31T12:29:31Z</time></trkpt><trkpt lat="59.6480029263" lon="30.7404220104"><ele>13036.09</ele><time>2026-08-31T12:29:32Z</time></trkpt><trkpt lat="59.6480051056" lon="30.7404256146"><ele>13028.89</ele><time>2026-08-31T12:29:33Z</time></trkpt><trkpt lat="59.6480071172" lon="30.7404211722"><ele>13021.68</ele><time>2026-08-31T12:29:34Z</time></trkpt><trkpt lat="59.6480085421" lon="30.7404226810"><ele>13014.47</ele><time>2026-08-31T12:29:35Z</time></trkpt><trkpt lat="59.6480096318" lon="30.7404236868"><ele>13007.26</ele><time>2026-08-31T12:29:36Z</time></trkpt><trkpt lat="59.6480134036" lon="30.7404319011"><ele>13000.05</ele><time>2026-08-31T12:29:37Z</time></trkpt><trkpt lat="59.6480140742" lon="30.7404261176"><ele>12992.84</ele><time>2026-08-31T12:29:38Z</time></trkpt><trkpt lat="59.6480146609" lon="30.7404248603"><ele>12985.63</ele><time>2026-08-31T12:29:39Z</time></trkpt><trkpt lat="59.6480152477" lon="30.7404236868"><ele>12978.42</ele><time>2026-08-31T12:29:40Z</time></trkpt><trkpt lat="59.6480151638" lon="30.7404239383"><ele>12971.21</ele><time>2026-08-31T12:29:41Z</time></trkpt><trkpt lat="59.6480149962" lon="30.7404241897"><ele>12964.00</ele><time>2026-08-31T12:29:42Z</time></trkpt><trkpt lat="59.6480147447" lon="30.7404246088"><ele>12956.79</ele><time>2026-08-31T12:29:43Z</time></trkpt><trkpt lat="59.6480143256" lon="30.7404247764"><ele>12949.58</ele><time>2026-08-31T12:29:44Z</time></trkpt><trkpt lat="59.6480135713" lon="30.7404250279"><ele>12942.37</ele><time>2026-08-31T12:29:45Z</time></trkpt><trkpt lat="59.6480130684" lon="30.7404251117"><ele>12935.16</ele><time>2026-08-31T12:29:46Z</time></trkpt><trkpt lat="59.6480126493" lon="30.7404255308"><ele>12927.95</ele><time>2026-08-31T12:29:47Z</time></trkpt><trkpt lat="59.6480123140" lon="30.7404260337"><ele>12920.74</ele><time>2026-08-31T12:29:48Z</time></trkpt><trkpt lat="59.6480120625" lon="30.7404259499"><ele>12914.01</ele><time>2026-08-31T12:29:49Z</time></trkpt><trkpt lat="59.6480118111" lon="30.7404254470"><ele>12906.80</ele><time>2026-08-31T12:29:50Z</time></trkpt><trkpt lat="59.6480114758" lon="30.7404252794"><ele>12899.59</ele><time>2026-08-31T12:29:51Z</time></trkpt><trkpt lat="59.6480125654" lon="30.7404256985"><ele>12892.38</ele><time>2026-08-31T12:29:52Z</time></trkpt><trkpt lat="59.6480134875" lon="30.7404251117"><ele>12885.17</ele><time>2026-08-31T12:29:53Z</time></trkpt><trkpt lat="59.6480140742" lon="30.7404244412"><ele>12877.96</ele><time>2026-08-31T12:29:54Z</time></trkpt><trkpt lat="59.6480144933" lon="30.7404241897"><ele>12870.75</ele><time>2026-08-31T12:29:55Z</time></trkpt><trkpt lat="59.6480149962" lon="30.7404236030"><ele>12864.02</ele><time>2026-08-31T12:29:56Z</time></trkpt><trkpt lat="59.6480152477" lon="30.7404230163"><ele>12856.81</ele><time>2026-08-31T12:29:57Z</time></trkpt><trkpt lat="59.6480149962" lon="30.7404225133"><ele>12849.60</ele><time>2026-08-31T12:29:58Z</time></trkpt><trkpt lat="59.6480148286" lon="30.7404218428"><ele>12842.39</ele><time>2026-08-31T12:29:59Z</time></trkpt><trkpt lat="59.6480148286" lon="30.7404213399"><ele>12835.18</ele><time>2026-08-31T12:30:00Z</time></trkpt><trkpt lat="59.6480152477" lon="30.7404210884"><ele>12828.45</ele><time>2026-08-31T12:30:01Z</time></trkpt><trkpt lat="59.6480156668" lon="30.7404208370"><ele>12821.24</ele><time>2026-08-31T12:30:02Z</time></trkpt><trkpt lat="59.6480157506" lon="30.7404204179"><ele>12814.03</ele><time>2026-08-31T12:30:03Z</time></trkpt><trkpt lat="59.6480156668" lon="30.7404204179"><ele>12806.82</ele><time>2026-08-31T12:30:04Z</time></trkpt><trkpt lat="59.6480162535" lon="30.7404198311"><ele>12800.09</ele><time>2026-08-31T12:30:05Z</time></trkpt><trkpt lat="59.6480164211" lon="30.7404199988"><ele>12792.88</ele><time>2026-08-31T12:30:06Z</time></trkpt><trkpt lat="59.6480165888" lon="30.7404196635"><ele>12785.67</ele><time>2026-08-31T12:30:07Z</time></trkpt><trkpt lat="59.6480168402" lon="30.7404194959"><ele>12778.46</ele><time>2026-08-31T12:30:08Z</time></trkpt><trkpt lat="59.6480170917" lon="30.7404193282"><ele>12771.73</ele><time>2026-08-31T12:30:09Z</time></trkpt><trkpt lat="59.6480171755" lon="30.7404194120"><ele>12764.52</ele><time>2026-08-31T12:30:10Z</time></trkpt><trkpt lat="59.6480201092" lon="30.7404180709"><ele>12757.31</ele><time>2026-08-31T12:30:11Z</time></trkpt><trkpt lat="59.6480198577" lon="30.7404153049"><ele>12750.10</ele><time>2026-08-31T12:30:12Z</time></trkpt><trkpt lat="59.6480203606" lon="30.7404146343"><ele>12743.37</ele><time>2026-08-31T12:30:13Z</time></trkpt><trkpt lat="59.6480204444" lon="30.7404142991"><ele>12736.16</ele><time>2026-08-31T12:30:14Z</time></trkpt><trkpt lat="59.6480256412" lon="30.7404167298"><ele>12728.95</ele><time>2026-08-31T12:30:15Z</time></trkpt><trkpt lat="59.6480316762" lon="30.7404177357"><ele>12722.22</ele><time>2026-08-31T12:30:16Z</time></trkpt><trkpt lat="59.6480378788" lon="30.7404160593"><ele>12715.01</ele><time>2026-08-31T12:30:17Z</time></trkpt><trkpt lat="59.6480446681" lon="30.7404173166"><ele>12707.80</ele><time>2026-08-31T12:30:18Z</time></trkpt><trkpt lat="59.6480512898" lon="30.7404165622"><ele>12701.08</ele><time>2026-08-31T12:30:19Z</time></trkpt><trkpt lat="59.6480584145" lon="30.7404083479"><ele>12693.87</ele><time>2026-08-31T12:30:20Z</time></trkpt><trkpt lat="59.6480652038" lon="30.7404028159"><ele>12687.14</ele><time>2026-08-31T12:30:21Z</time></trkpt><trkpt lat="59.6480706520" lon="30.7404018100"><ele>12679.93</ele><time>2026-08-31T12:30:22Z</time></trkpt><trkpt lat="59.6480722446" lon="30.7404060010"><ele>12672.72</ele><time>2026-08-31T12:30:23Z</time></trkpt><trkpt lat="59.6480725799" lon="30.7404020615"><ele>12665.99</ele><time>2026-08-31T12:30:24Z</time></trkpt><trkpt lat="59.6480786987" lon="30.7404049113"><ele>12658.78</ele><time>2026-08-31T12:30:25Z</time></trkpt><trkpt lat="59.6480797045" lon="30.7404060848"><ele>12652.05</ele><time>2026-08-31T12:30:26Z</time></trkpt><trkpt lat="59.6480855718" lon="30.7404135447"><ele>12644.84</ele><time>2026-08-31T12:30:27Z</time></trkpt><trkpt lat="59.6480935346" lon="30.7404191606"><ele>12637.63</ele><time>2026-08-31T12:30:28Z</time></trkpt><trkpt lat="59.6480973065" lon="30.7404231839"><ele>12630.90</ele><time>2026-08-31T12:30:29Z</time></trkpt><trkpt lat="59.6481005754" lon="30.7404186577"><ele>12623.69</ele><time>2026-08-31T12:30:30Z</time></trkpt><trkpt lat="59.6481065266" lon="30.7404070068"><ele>12616.96</ele><time>2026-08-31T12:30:31Z</time></trkpt><trkpt lat="59.6481107175" lon="30.7403920870"><ele>12609.75</ele><time>2026-08-31T12:30:32Z</time></trkpt><trkpt lat="59.6481148247" lon="30.7403772511"><ele>12603.02</ele><time>2026-08-31T12:30:33Z</time></trkpt><trkpt lat="59.6481141541" lon="30.7403640915"><ele>12595.81</ele><time>2026-08-31T12:30:34Z</time></trkpt><trkpt lat="59.6481114719" lon="30.7403581403"><ele>12589.08</ele><time>2026-08-31T12:30:35Z</time></trkpt><trkpt lat="59.6481165849" lon="30.7403505966"><ele>12581.87</ele><time>2026-08-31T12:30:36Z</time></trkpt><trkpt lat="59.6481124777" lon="30.7403502613"><ele>12575.14</ele><time>2026-08-31T12:30:37Z</time></trkpt><trkpt lat="59.6481219493" lon="30.7403373532"><ele>12567.93</ele><time>2026-08-31T12:30:38Z</time></trkpt><trkpt lat="59.6481237933" lon="30.7403354254"><ele>12561.20</ele><time>2026-08-31T12:30:39Z</time></trkpt><trkpt lat="59.6481254697" lon="30.7403257024"><ele>12553.99</ele><time>2026-08-31T12:30:40Z</time></trkpt><trkpt lat="59.6481301636" lon="30.7403088547"><ele>12547.26</ele><time>2026-08-31T12:30:41Z</time></trkpt><trkpt lat="59.6481395513" lon="30.7402965333"><ele>12540.05</ele><time>2026-08-31T12:30:42Z</time></trkpt><trkpt lat="59.6481522080" lon="30.7402785122"><ele>12533.33</ele><time>2026-08-31T12:30:43Z</time></trkpt><trkpt lat="59.6481636073" lon="30.7402576413"><ele>12526.12</ele><time>2026-08-31T12:30:44Z</time></trkpt><trkpt lat="59.6481754258" lon="30.7402355131"><ele>12519.39</ele><time>2026-08-31T12:30:45Z</time></trkpt><trkpt lat="59.6481837239" lon="30.7402183302"><ele>12512.66</ele><time>2026-08-31T12:30:46Z</time></trkpt><trkpt lat="59.6481848136" lon="30.7402159832"><ele>12505.45</ele><time>2026-08-31T12:30:47Z</time></trkpt><trkpt lat="59.6481940337" lon="30.7402024884"><ele>12498.72</ele><time>2026-08-31T12:30:48Z</time></trkpt><trkpt lat="59.6482036728" lon="30.7401895802"><ele>12491.51</ele><time>2026-08-31T12:30:49Z</time></trkpt><trkpt lat="59.6482050978" lon="30.7401873171"><ele>12484.78</ele><time>2026-08-31T12:30:50Z</time></trkpt><trkpt lat="59.6482099593" lon="30.7401716430"><ele>12478.05</ele><time>2026-08-31T12:30:51Z</time></trkpt><trkpt lat="59.6482151560" lon="30.7401604950"><ele>12470.84</ele><time>2026-08-31T12:30:52Z</time></trkpt><trkpt lat="59.6482166648" lon="30.7401558012"><ele>12464.11</ele><time>2026-08-31T12:30:53Z</time></trkpt><trkpt lat="59.6482179221" lon="30.7401578967"><ele>12457.38</ele><time>2026-08-31T12:30:54Z</time></trkpt><trkpt lat="59.6482189279" lon="30.7401570585"><ele>12450.17</ele><time>2026-08-31T12:30:55Z</time></trkpt><trkpt lat="59.6482240409" lon="30.7401448209"><ele>12443.44</ele><time>2026-08-31T12:30:56Z</time></trkpt><trkpt lat="59.6482237056" lon="30.7401388697"><ele>12436.71</ele><time>2026-08-31T12:30:57Z</time></trkpt><trkpt lat="59.6482318360" lon="30.7401342597"><ele>12429.50</ele><time>2026-08-31T12:30:58Z</time></trkpt><trkpt lat="59.6482328419" lon="30.7401333377"><ele>12422.77</ele><time>2026-08-31T12:30:59Z</time></trkpt><trkpt lat="59.6482337639" lon="30.7401322480"><ele>12416.04</ele><time>2026-08-31T12:31:00Z</time></trkpt><trkpt lat="59.6482345182" lon="30.7401314937"><ele>12408.83</ele><time>2026-08-31T12:31:01Z</time></trkpt><trkpt lat="59.6482350212" lon="30.7401295658"><ele>12402.11</ele><time>2026-08-31T12:31:02Z</time></trkpt><trkpt lat="59.6482365299" lon="30.7401260454"><ele>12395.38</ele><time>2026-08-31T12:31:03Z</time></trkpt><trkpt lat="59.6482387930" lon="30.7401210163"><ele>12388.17</ele><time>2026-08-31T12:31:04Z</time></trkpt><trkpt lat="59.6482444927" lon="30.7401089463"><ele>12381.44</ele><time>2026-08-31T12:31:05Z</time></trkpt><trkpt lat="59.6482516173" lon="30.7400993910"><ele>12374.71</ele><time>2026-08-31T12:31:06Z</time></trkpt><trkpt lat="59.6482532099" lon="30.7401058450"><ele>12367.98</ele><time>2026-08-31T12:31:07Z</time></trkpt><trkpt lat="59.6482606698" lon="30.7400923502"><ele>12360.77</ele><time>2026-08-31T12:31:08Z</time></trkpt><trkpt lat="59.6482620947" lon="30.7400920149"><ele>12354.04</ele><time>2026-08-31T12:31:09Z</time></trkpt><trkpt lat="59.6482628491" lon="30.7400919311"><ele>12347.31</ele><time>2026-08-31T12:31:10Z</time></trkpt><trkpt lat="59.6482639387" lon="30.7400922664"><ele>12340.58</ele><time>2026-08-31T12:31:11Z</time></trkpt><trkpt lat="59.6482631844" lon="30.7400880754"><ele>12333.37</ele><time>2026-08-31T12:31:12Z</time></trkpt><trkpt lat="59.6482665371" lon="30.7400919311"><ele>12326.64</ele><time>2026-08-31T12:31:13Z</time></trkpt><trkpt lat="59.6482760087" lon="30.7400808670"><ele>12319.91</ele><time>2026-08-31T12:31:14Z</time></trkpt><trkpt lat="59.6482810378" lon="30.7400667854"><ele>12313.18</ele><time>2026-08-31T12:31:15Z</time></trkpt><trkpt lat="59.6482854802" lon="30.7400590740"><ele>12306.46</ele><time>2026-08-31T12:31:16Z</time></trkpt><trkpt lat="59.6482900903" lon="30.7400490995"><ele>12299.25</ele><time>2026-08-31T12:31:17Z</time></trkpt><trkpt lat="59.6482923534" lon="30.7400485128"><ele>12292.52</ele><time>2026-08-31T12:31:18Z</time></trkpt><trkpt lat="59.6482901741" lon="30.7400470879"><ele>12285.79</ele><time>2026-08-31T12:31:19Z</time></trkpt><trkpt lat="59.6482915152" lon="30.7400514465"><ele>12279.06</ele><time>2026-08-31T12:31:20Z</time></trkpt><trkpt lat="59.6482900903" lon="30.7400445733"><ele>12272.33</ele><time>2026-08-31T12:31:21Z</time></trkpt><trkpt lat="59.6482900064" lon="30.7400444057"><ele>12265.60</ele><time>2026-08-31T12:31:22Z</time></trkpt><trkpt lat="59.6482828818" lon="30.7400354370"><ele>12258.87</ele><time>2026-08-31T12:31:23Z</time></trkpt><trkpt lat="59.6482733265" lon="30.7400243729"><ele>12251.66</ele><time>2026-08-31T12:31:24Z</time></trkpt><trkpt lat="59.6482698061" lon="30.7400253788"><ele>12244.93</ele><time>2026-08-31T12:31:25Z</time></trkpt><trkpt lat="59.6482680459" lon="30.7400305755"><ele>12244.93</ele><time>2026-08-31T12:31:26Z</time></trkpt><trkpt lat="59.6482618432" lon="30.7400199305"><ele>12231.47</ele><time>2026-08-31T12:31:27Z</time></trkpt><trkpt lat="59.6482587419" lon="30.7400092017"><ele>12224.74</ele><time>2026-08-31T12:31:28Z</time></trkpt><trkpt lat="59.6482568979" lon="30.7400106266"><ele>12218.01</ele><time>2026-08-31T12:31:29Z</time></trkpt><trkpt lat="59.6482547186" lon="30.7399965450"><ele>12211.28</ele><time>2026-08-31T12:31:30Z</time></trkpt><trkpt lat="59.6482525393" lon="30.7399845589"><ele>12204.55</ele><time>2026-08-31T12:31:31Z</time></trkpt><trkpt lat="59.6482530423" lon="30.7399800327"><ele>12197.83</ele><time>2026-08-31T12:31:32Z</time></trkpt><trkpt lat="59.6482537966" lon="30.7399825472"><ele>12191.10</ele><time>2026-08-31T12:31:33Z</time></trkpt><trkpt lat="59.6482541319" lon="30.7399803679"><ele>12184.37</ele><time>2026-08-31T12:31:34Z</time></trkpt><trkpt lat="59.6482532937" lon="30.7399636041"><ele>12177.64</ele><time>2026-08-31T12:31:35Z</time></trkpt><trkpt lat="59.6482503600" lon="30.7399474271"><ele>12170.91</ele><time>2026-08-31T12:31:36Z</time></trkpt><trkpt lat="59.6482477617" lon="30.7399420626"><ele>12164.18</ele><time>2026-08-31T12:31:37Z</time></trkpt><trkpt lat="59.6482454985" lon="30.7399328426"><ele>12157.45</ele><time>2026-08-31T12:31:38Z</time></trkpt><trkpt lat="59.6482448280" lon="30.7399315853"><ele>12150.72</ele><time>2026-08-31T12:31:39Z</time></trkpt><trkpt lat="59.6482473426" lon="30.7399256341"><ele>12143.99</ele><time>2026-08-31T12:31:40Z</time></trkpt><trkpt lat="59.6482473426" lon="30.7399239577"><ele>12137.26</ele><time>2026-08-31T12:31:41Z</time></trkpt><trkpt lat="59.6482496057" lon="30.7399288192"><ele>12130.53</ele><time>2026-08-31T12:31:42Z</time></trkpt><trkpt lat="59.6482521202" lon="30.7399144024"><ele>12123.80</ele><time>2026-08-31T12:31:43Z</time></trkpt><trkpt lat="59.6482527070" lon="30.7399092056"><ele>12117.08</ele><time>2026-08-31T12:31:44Z</time></trkpt><trkpt lat="59.6482541319" lon="30.7399024162"><ele>12110.35</ele><time>2026-08-31T12:31:45Z</time></trkpt><trkpt lat="59.6482587419" lon="30.7398848981"><ele>12103.62</ele><time>2026-08-31T12:31:46Z</time></trkpt><trkpt lat="59.6482646093" lon="30.7398649491"><ele>12096.89</ele><time>2026-08-31T12:31:47Z</time></trkpt><trkpt lat="59.6482648607" lon="30.7398584951"><ele>12090.16</ele><time>2026-08-31T12:31:48Z</time></trkpt><trkpt lat="59.6482686326" lon="30.7398453355"><ele>12083.43</ele><time>2026-08-31T12:31:49Z</time></trkpt><trkpt lat="59.6482695546" lon="30.7398429047"><ele>12076.70</ele><time>2026-08-31T12:31:50Z</time></trkpt><trkpt lat="59.6482703928" lon="30.7398408931"><ele>12069.97</ele><time>2026-08-31T12:31:51Z</time></trkpt><trkpt lat="59.6482720692" lon="30.7398372050"><ele>12063.24</ele><time>2026-08-31T12:31:52Z</time></trkpt><trkpt lat="59.6482720692" lon="30.7398381270"><ele>12056.51</ele><time>2026-08-31T12:31:53Z</time></trkpt><trkpt lat="59.6482729912" lon="30.7398369536"><ele>12049.78</ele><time>2026-08-31T12:31:54Z</time></trkpt><trkpt lat="59.6482739970" lon="30.7398347743"><ele>12043.05</ele><time>2026-08-31T12:31:55Z</time></trkpt><trkpt lat="59.6482843067" lon="30.7398299128"><ele>12036.81</ele><time>2026-08-31T12:31:56Z</time></trkpt><trkpt lat="59.6482895035" lon="30.7398307510"><ele>12030.08</ele><time>2026-08-31T12:31:57Z</time></trkpt><trkpt lat="59.6482930239" lon="30.7398274820"><ele>12023.35</ele><time>2026-08-31T12:31:58Z</time></trkpt><trkpt lat="59.6482926887" lon="30.7398329303"><ele>12016.62</ele><time>2026-08-31T12:31:59Z</time></trkpt><trkpt lat="59.6483010706" lon="30.7398197707"><ele>12009.89</ele><time>2026-08-31T12:32:00Z</time></trkpt><trkpt lat="59.6483092010" lon="30.7398071140"><ele>12003.16</ele><time>2026-08-31T12:32:01Z</time></trkpt><trkpt lat="59.6483186726" lon="30.7397981454"><ele>11996.91</ele><time>2026-08-31T12:32:02Z</time></trkpt><trkpt lat="59.6483290661" lon="30.7397906855"><ele>11990.18</ele><time>2026-08-31T12:32:03Z</time></trkpt><trkpt lat="59.6483391244" lon="30.7397877518"><ele>11983.45</ele><time>2026-08-31T12:32:04Z</time></trkpt><trkpt lat="59.6483457461" lon="30.7397772744"><ele>11976.72</ele><time>2026-08-31T12:32:05Z</time></trkpt><trkpt lat="59.6483522840" lon="30.7397636119"><ele>11969.99</ele><time>2026-08-31T12:32:06Z</time></trkpt><trkpt lat="59.6483547986" lon="30.7397529669"><ele>11963.26</ele><time>2026-08-31T12:32:07Z</time></trkpt><trkpt lat="59.6483575646" lon="30.7397429086"><ele>11957.01</ele><time>2026-08-31T12:32:08Z</time></trkpt><trkpt lat="59.6483620070" lon="30.7397289947"><ele>11950.29</ele><time>2026-08-31T12:32:09Z</time></trkpt><trkpt lat="59.6483634319" lon="30.7397184335"><ele>11943.56</ele><time>2026-08-31T12:32:10Z</time></trkpt><trkpt lat="59.6483639348" lon="30.7397119794"><ele>11936.83</ele><time>2026-08-31T12:32:11Z</time></trkpt><trkpt lat="59.6483647730" lon="30.7397083752"><ele>11930.58</ele><time>2026-08-31T12:32:12Z</time></trkpt><trkpt lat="59.6483675390" lon="30.7397123147"><ele>11923.85</ele><time>2026-08-31T12:32:13Z</time></trkpt><trkpt lat="59.6483704727" lon="30.7397041842"><ele>11917.12</ele><time>2026-08-31T12:32:14Z</time></trkpt><trkpt lat="59.6483717300" lon="30.7397036813"><ele>11910.39</ele><time>2026-08-31T12:32:15Z</time></trkpt><trkpt lat="59.6483742446" lon="30.7396992389"><ele>11904.14</ele><time>2026-08-31T12:32:16Z</time></trkpt><trkpt lat="59.6483758371" lon="30.7396975625"><ele>11897.41</ele><time>2026-08-31T12:32:17Z</time></trkpt><trkpt lat="59.6483775135" lon="30.7396949641"><ele>11890.68</ele><time>2026-08-31T12:32:18Z</time></trkpt><trkpt lat="59.6483784355" lon="30.7396929525"><ele>11884.44</ele><time>2026-08-31T12:32:19Z</time></trkpt><trkpt lat="59.6483782679" lon="30.7396879233"><ele>11877.71</ele><time>2026-08-31T12:32:20Z</time></trkpt><trkpt lat="59.6483805310" lon="30.7396888454"><ele>11870.98</ele><time>2026-08-31T12:32:21Z</time></trkpt><trkpt lat="59.6483832132" lon="30.7396887615"><ele>11864.73</ele><time>2026-08-31T12:32:22Z</time></trkpt><trkpt lat="59.6483842190" lon="30.7396864146"><ele>11858.00</ele><time>2026-08-31T12:32:23Z</time></trkpt><trkpt lat="59.6483912598" lon="30.7396730036"><ele>11851.27</ele><time>2026-08-31T12:32:24Z</time></trkpt><trkpt lat="59.6484003961" lon="30.7396674715"><ele>11845.02</ele><time>2026-08-31T12:32:25Z</time></trkpt><trkpt lat="59.6484021563" lon="30.7396709919"><ele>11838.29</ele><time>2026-08-31T12:32:26Z</time></trkpt><trkpt lat="59.6484010667" lon="30.7396456786"><ele>11825.31</ele><time>2026-08-31T12:32:28Z</time></trkpt><trkpt lat="59.6484060120" lon="30.7396391407"><ele>11818.58</ele><time>2026-08-31T12:32:29Z</time></trkpt><trkpt lat="59.6484070178" lon="30.7396357879"><ele>11811.86</ele><time>2026-08-31T12:32:30Z</time></trkpt><trkpt lat="59.6484111249" lon="30.7396219578"><ele>11805.61</ele><time>2026-08-31T12:32:31Z</time></trkpt><trkpt lat="59.6484138072" lon="30.7396164257"><ele>11798.88</ele><time>2026-08-31T12:32:32Z</time></trkpt><trkpt lat="59.6484147292" lon="30.7396061160"><ele>11792.63</ele><time>2026-08-31T12:32:33Z</time></trkpt><trkpt lat="59.6484152321" lon="30.7396030147"><ele>11785.90</ele><time>2026-08-31T12:32:34Z</time></trkpt><trkpt lat="59.6484154835" lon="30.7396001648"><ele>11779.17</ele><time>2026-08-31T12:32:35Z</time></trkpt><trkpt lat="59.6484218538" lon="30.7395902742"><ele>11772.92</ele><time>2026-08-31T12:32:36Z</time></trkpt><trkpt lat="59.6484330017" lon="30.7395724207"><ele>11766.19</ele><time>2026-08-31T12:32:37Z</time></trkpt><trkpt lat="59.6484416351" lon="30.7395588420"><ele>11759.95</ele><time>2026-08-31T12:32:38Z</time></trkpt><trkpt lat="59.6484468319" lon="30.7395478617"><ele>11753.22</ele><time>2026-08-31T12:32:39Z</time></trkpt><trkpt lat="59.6484483406" lon="30.7395453472"><ele>11746.97</ele><time>2026-08-31T12:32:40Z</time></trkpt><trkpt lat="59.6484488435" lon="30.7395403180"><ele>11740.24</ele><time>2026-08-31T12:32:41Z</time></trkpt><trkpt lat="59.6484509390" lon="30.7395457663"><ele>11733.99</ele><time>2026-08-31T12:32:42Z</time></trkpt><trkpt lat="59.6484548785" lon="30.7395238057"><ele>11727.26</ele><time>2026-08-31T12:32:43Z</time></trkpt><trkpt lat="59.6484550461" lon="30.7395210396"><ele>11721.01</ele><time>2026-08-31T12:32:44Z</time></trkpt><trkpt lat="59.6484550461" lon="30.7395183574"><ele>11714.28</ele><time>2026-08-31T12:32:45Z</time></trkpt><trkpt lat="59.6484552138" lon="30.7395152561"><ele>11708.03</ele><time>2026-08-31T12:32:46Z</time></trkpt><trkpt lat="59.6484556329" lon="30.7395139150"><ele>11701.30</ele><time>2026-08-31T12:32:47Z</time></trkpt><trkpt lat="59.6484564710" lon="30.7395127416"><ele>11695.06</ele><time>2026-08-31T12:32:48Z</time></trkpt><trkpt lat="59.6484570578" lon="30.7395114005"><ele>11688.33</ele><time>2026-08-31T12:32:49Z</time></trkpt><trkpt lat="59.6484583989" lon="30.7395104785"><ele>11682.08</ele><time>2026-08-31T12:32:50Z</time></trkpt><trkpt lat="59.6484601591" lon="30.7395112328"><ele>11675.35</ele><time>2026-08-31T12:32:51Z</time></trkpt><trkpt lat="59.6484611649" lon="30.7395108975"><ele>11669.10</ele><time>2026-08-31T12:32:52Z</time></trkpt><trkpt lat="59.6484612487" lon="30.7395105623"><ele>11662.37</ele><time>2026-08-31T12:32:53Z</time></trkpt><trkpt lat="59.6484624222" lon="30.7395086344"><ele>11656.12</ele><time>2026-08-31T12:32:54Z</time></trkpt><trkpt lat="59.6484640986" lon="30.7395067904"><ele>11649.39</ele><time>2026-08-31T12:32:55Z</time></trkpt><trkpt lat="59.6484658588" lon="30.7395103108"><ele>11643.14</ele><time>2026-08-31T12:32:56Z</time></trkpt><trkpt lat="59.6484724805" lon="30.7394908648"><ele>11636.90</ele><time>2026-08-31T12:32:57Z</time></trkpt><trkpt lat="59.6484765876" lon="30.7394831534"><ele>11630.17</ele><time>2026-08-31T12:32:58Z</time></trkpt><trkpt lat="59.6484818682" lon="30.7394790463"><ele>11623.92</ele><time>2026-08-31T12:32:59Z</time></trkpt><trkpt lat="59.6484835446" lon="30.7394870091"><ele>11617.19</ele><time>2026-08-31T12:33:00Z</time></trkpt><trkpt lat="59.6484923456" lon="30.7394756097"><ele>11610.94</ele><time>2026-08-31T12:33:01Z</time></trkpt><trkpt lat="59.6484934352" lon="30.7394753583"><ele>11604.69</ele><time>2026-08-31T12:33:02Z</time></trkpt><trkpt lat="59.6484987997" lon="30.7394683175"><ele>11597.96</ele><time>2026-08-31T12:33:03Z</time></trkpt><trkpt lat="59.6485195030" lon="30.7394425012"><ele>11591.71</ele><time>2026-08-31T12:33:04Z</time></trkpt><trkpt lat="59.6485312376" lon="30.7394298445"><ele>11585.46</ele><time>2026-08-31T12:33:05Z</time></trkpt><trkpt lat="59.6485428885" lon="30.7394139189"><ele>11578.74</ele><time>2026-08-31T12:33:06Z</time></trkpt><trkpt lat="59.6485517733" lon="30.7393986639"><ele>11572.49</ele><time>2026-08-31T12:33:07Z</time></trkpt><trkpt lat="59.6485563833" lon="30.7393810619"><ele>11566.24</ele><time>2026-08-31T12:33:08Z</time></trkpt><trkpt lat="59.6485594008" lon="30.7393664774"><ele>11559.51</ele><time>2026-08-31T12:33:09Z</time></trkpt><trkpt lat="59.6485617477" lon="30.7393610291"><ele>11553.26</ele><time>2026-08-31T12:33:10Z</time></trkpt><trkpt lat="59.6485687047" lon="30.7393552456"><ele>11547.01</ele><time>2026-08-31T12:33:11Z</time></trkpt><trkpt lat="59.6485727280" lon="30.7393492106"><ele>11540.28</ele><time>2026-08-31T12:33:12Z</time></trkpt><trkpt lat="59.6485733148" lon="30.7393482886"><ele>11534.04</ele><time>2026-08-31T12:33:13Z</time></trkpt><trkpt lat="59.6485753264" lon="30.7393421698"><ele>11527.79</ele><time>2026-08-31T12:33:14Z</time></trkpt><trkpt lat="59.6485799365" lon="30.7393399067"><ele>11521.54</ele><time>2026-08-31T12:33:15Z</time></trkpt><trkpt lat="59.6485830378" lon="30.7393363863"><ele>11514.81</ele><time>2026-08-31T12:33:16Z</time></trkpt><trkpt lat="59.6485906653" lon="30.7393299323"><ele>11508.56</ele><time>2026-08-31T12:33:17Z</time></trkpt><trkpt lat="59.6485931799" lon="30.7393290102"><ele>11502.31</ele><time>2026-08-31T12:33:18Z</time></trkpt><trkpt lat="59.6486007236" lon="30.7393171079"><ele>11495.58</ele><time>2026-08-31T12:33:19Z</time></trkpt><trkpt lat="59.6486027353" lon="30.7393154316"><ele>11489.33</ele><time>2026-08-31T12:33:20Z</time></trkpt><trkpt lat="59.6486061718" lon="30.7393145096"><ele>11483.09</ele><time>2026-08-31T12:33:21Z</time></trkpt><trkpt lat="59.6486118715" lon="30.7393088937"><ele>11476.84</ele><time>2026-08-31T12:33:22Z</time></trkpt><trkpt lat="59.6486124583" lon="30.7393071335"><ele>11470.59</ele><time>2026-08-31T12:33:23Z</time></trkpt><trkpt lat="59.6486137155" lon="30.7393070497"><ele>11463.86</ele><time>2026-08-31T12:33:24Z</time></trkpt><trkpt lat="59.6486231033" lon="30.7393016852"><ele>11457.61</ele><time>2026-08-31T12:33:25Z</time></trkpt><trkpt lat="59.6486244444" lon="30.7393007632"><ele>11451.36</ele><time>2026-08-31T12:33:26Z</time></trkpt><trkpt lat="59.6486268751" lon="30.7393052895"><ele>11445.11</ele><time>2026-08-31T12:33:27Z</time></trkpt><trkpt lat="59.6486295573" lon="30.7392946444"><ele>11438.86</ele><time>2026-08-31T12:33:28Z</time></trkpt><trkpt lat="59.6486314852" lon="30.7392951474"><ele>11432.14</ele><time>2026-08-31T12:33:29Z</time></trkpt><trkpt lat="59.6486303117" lon="30.7392922137"><ele>11425.89</ele><time>2026-08-31T12:33:30Z</time></trkpt><trkpt lat="59.6486304794" lon="30.7392920461"><ele>11419.64</ele><time>2026-08-31T12:33:31Z</time></trkpt><trkpt lat="59.6486307308" lon="30.7392920461"><ele>11413.39</ele><time>2026-08-31T12:33:32Z</time></trkpt><trkpt lat="59.6486308146" lon="30.7392919622"><ele>11407.14</ele><time>2026-08-31T12:33:33Z</time></trkpt><trkpt lat="59.6486312337" lon="30.7392915431"><ele>11400.89</ele><time>2026-08-31T12:33:34Z</time></trkpt><trkpt lat="59.6486317366" lon="30.7392912079"><ele>11394.64</ele><time>2026-08-31T12:33:35Z</time></trkpt><trkpt lat="59.6486324072" lon="30.7392906211"><ele>11387.91</ele><time>2026-08-31T12:33:36Z</time></trkpt><trkpt lat="59.6486332454" lon="30.7392896991"><ele>11381.67</ele><time>2026-08-31T12:33:37Z</time></trkpt><trkpt lat="59.6486334968" lon="30.7392896991"><ele>11375.42</ele><time>2026-08-31T12:33:38Z</time></trkpt><trkpt lat="59.6486336645" lon="30.7392896153"><ele>11369.17</ele><time>2026-08-31T12:33:39Z</time></trkpt><trkpt lat="59.6486337483" lon="30.7392894477"><ele>11362.92</ele><time>2026-08-31T12:33:40Z</time></trkpt><trkpt lat="59.6486359276" lon="30.7392895315"><ele>11356.67</ele><time>2026-08-31T12:33:41Z</time></trkpt><trkpt lat="59.6486346703" lon="30.7392880227"><ele>11350.42</ele><time>2026-08-31T12:33:42Z</time></trkpt><trkpt lat="59.6486356761" lon="30.7392865978"><ele>11344.17</ele><time>2026-08-31T12:33:43Z</time></trkpt><trkpt lat="59.6486365981" lon="30.7392853405"><ele>11337.93</ele><time>2026-08-31T12:33:44Z</time></trkpt><trkpt lat="59.6486391965" lon="30.7392857596"><ele>11331.68</ele><time>2026-08-31T12:33:45Z</time></trkpt><trkpt lat="59.6486367658" lon="30.7392845862"><ele>11325.43</ele><time>2026-08-31T12:33:46Z</time></trkpt><trkpt lat="59.6486371011" lon="30.7392840832"><ele>11319.18</ele><time>2026-08-31T12:33:47Z</time></trkpt><trkpt lat="59.6486370172" lon="30.7392834127"><ele>11312.45</ele><time>2026-08-31T12:33:48Z</time></trkpt><trkpt lat="59.6486370172" lon="30.7392829936"><ele>11306.20</ele><time>2026-08-31T12:33:49Z</time></trkpt><trkpt lat="59.6486369334" lon="30.7392829098"><ele>11299.95</ele><time>2026-08-31T12:33:50Z</time></trkpt><trkpt lat="59.6486367658" lon="30.7392826583"><ele>11293.71</ele><time>2026-08-31T12:33:51Z</time></trkpt><trkpt lat="59.6486366820" lon="30.7392823230"><ele>11287.46</ele><time>2026-08-31T12:33:52Z</time></trkpt><trkpt lat="59.6486365143" lon="30.7392817363"><ele>11281.21</ele><time>2026-08-31T12:33:53Z</time></trkpt><trkpt lat="59.6486362629" lon="30.7392809819"><ele>11274.96</ele><time>2026-08-31T12:33:54Z</time></trkpt><trkpt lat="59.6486361790" lon="30.7392803952"><ele>11268.71</ele><time>2026-08-31T12:33:55Z</time></trkpt><trkpt lat="59.6486356761" lon="30.7392794732"><ele>11262.46</ele><time>2026-08-31T12:33:56Z</time></trkpt><trkpt lat="59.6486355085" lon="30.7392787188"><ele>11256.69</ele><time>2026-08-31T12:33:57Z</time></trkpt><trkpt lat="59.6486355085" lon="30.7392783836"><ele>11250.45</ele><time>2026-08-31T12:33:58Z</time></trkpt><trkpt lat="59.6486357599" lon="30.7392779645"><ele>11244.20</ele><time>2026-08-31T12:33:59Z</time></trkpt><trkpt lat="59.6486334968" lon="30.7392754499"><ele>11237.95</ele><time>2026-08-31T12:34:00Z</time></trkpt><trkpt lat="59.6486365143" lon="30.7392769586"><ele>11231.70</ele><time>2026-08-31T12:34:01Z</time></trkpt><trkpt lat="59.6486367658" lon="30.7392772101"><ele>11225.45</ele><time>2026-08-31T12:34:02Z</time></trkpt><trkpt lat="59.6486369334" lon="30.7392778806"><ele>11219.20</ele><time>2026-08-31T12:34:03Z</time></trkpt><trkpt lat="59.6486368496" lon="30.7392785512"><ele>11212.96</ele><time>2026-08-31T12:34:04Z</time></trkpt><trkpt lat="59.6486366820" lon="30.7392792217"><ele>11206.71</ele><time>2026-08-31T12:34:05Z</time></trkpt><trkpt lat="59.6486359276" lon="30.7392834965"><ele>11200.46</ele><time>2026-08-31T12:34:06Z</time></trkpt><trkpt lat="59.6486376878" lon="30.7392813172"><ele>11194.21</ele><time>2026-08-31T12:34:07Z</time></trkpt><trkpt lat="59.6486380231" lon="30.7392825745"><ele>11187.96</ele><time>2026-08-31T12:34:08Z</time></trkpt><trkpt lat="59.6486385260" lon="30.7392832451"><ele>11181.71</ele><time>2026-08-31T12:34:09Z</time></trkpt><trkpt lat="59.6486423817" lon="30.7392909564"><ele>11175.94</ele><time>2026-08-31T12:34:10Z</time></trkpt><trkpt lat="59.6486433037" lon="30.7392951474"><ele>11169.70</ele><time>2026-08-31T12:34:11Z</time></trkpt><trkpt lat="59.6486433875" lon="30.7392938063"><ele>11163.45</ele><time>2026-08-31T12:34:12Z</time></trkpt><trkpt lat="59.6486439742" lon="30.7392941415"><ele>11157.20</ele><time>2026-08-31T12:34:13Z</time></trkpt><trkpt lat="59.6486439742" lon="30.7392952312"><ele>11150.95</ele><time>2026-08-31T12:34:14Z</time></trkpt><trkpt lat="59.6486415435" lon="30.7393100671"><ele>11144.70</ele><time>2026-08-31T12:34:15Z</time></trkpt><trkpt lat="59.6486397833" lon="30.7393117435"><ele>11138.45</ele><time>2026-08-31T12:34:16Z</time></trkpt><trkpt lat="59.6486401185" lon="30.7393182814"><ele>11132.68</ele><time>2026-08-31T12:34:17Z</time></trkpt><trkpt lat="59.6486395318" lon="30.7393187005"><ele>11126.44</ele><time>2026-08-31T12:34:18Z</time></trkpt><trkpt lat="59.6486345027" lon="30.7393142581"><ele>11120.19</ele><time>2026-08-31T12:34:19Z</time></trkpt><trkpt lat="59.6486287192" lon="30.7393117435"><ele>11113.94</ele><time>2026-08-31T12:34:20Z</time></trkpt><trkpt lat="59.6486232709" lon="30.7393036969"><ele>11107.69</ele><time>2026-08-31T12:34:21Z</time></trkpt><trkpt lat="59.6486220136" lon="30.7392824069"><ele>11101.92</ele><time>2026-08-31T12:34:22Z</time></trkpt><trkpt lat="59.6486223489" lon="30.7392586023"><ele>11095.67</ele><time>2026-08-31T12:34:23Z</time></trkpt><trkpt lat="59.6486208402" lon="30.7392431796"><ele>11089.43</ele><time>2026-08-31T12:34:24Z</time></trkpt><trkpt lat="59.6486162301" lon="30.7392418385"><ele>11083.18</ele><time>2026-08-31T12:34:25Z</time></trkpt><trkpt lat="59.6486214269" lon="30.7392368093"><ele>11076.93</ele><time>2026-08-31T12:34:26Z</time></trkpt><trkpt lat="59.6486156434" lon="30.7392360549"><ele>11071.16</ele><time>2026-08-31T12:34:27Z</time></trkpt><trkpt lat="59.6486178227" lon="30.7392276730"><ele>11064.91</ele><time>2026-08-31T12:34:28Z</time></trkpt><trkpt lat="59.6486149728" lon="30.7392178662"><ele>11058.66</ele><time>2026-08-31T12:34:29Z</time></trkpt><trkpt lat="59.6486112010" lon="30.7392083108"><ele>11052.42</ele><time>2026-08-31T12:34:30Z</time></trkpt><trkpt lat="59.6486048307" lon="30.7392007671"><ele>11046.65</ele><time>2026-08-31T12:34:31Z</time></trkpt><trkpt lat="59.6486046631" lon="30.7391969953"><ele>11040.40</ele><time>2026-08-31T12:34:32Z</time></trkpt><trkpt lat="59.6486044116" lon="30.7391934749"><ele>11034.15</ele><time>2026-08-31T12:34:33Z</time></trkpt><trkpt lat="59.6486053336" lon="30.7391914632"><ele>11028.38</ele><time>2026-08-31T12:34:34Z</time></trkpt><trkpt lat="59.6486036573" lon="30.7391886134"><ele>11022.13</ele><time>2026-08-31T12:34:35Z</time></trkpt><trkpt lat="59.6486065071" lon="30.7391878590"><ele>11015.88</ele><time>2026-08-31T12:34:36Z</time></trkpt><trkpt lat="59.6486065909" lon="30.7391863503"><ele>11010.12</ele><time>2026-08-31T12:34:37Z</time></trkpt><trkpt lat="59.6486057527" lon="30.7391848415"><ele>11003.87</ele><time>2026-08-31T12:34:38Z</time></trkpt><trkpt lat="59.6486054175" lon="30.7391832490"><ele>10997.62</ele><time>2026-08-31T12:34:39Z</time></trkpt><trkpt lat="59.6486034058" lon="30.7391803153"><ele>10991.85</ele><time>2026-08-31T12:34:40Z</time></trkpt><trkpt lat="59.6486049145" lon="30.7391800638"><ele>10985.60</ele><time>2026-08-31T12:34:41Z</time></trkpt><trkpt lat="59.6486048307" lon="30.7391791418"><ele>10979.35</ele><time>2026-08-31T12:34:42Z</time></trkpt><trkpt lat="59.6486043278" lon="30.7391796447"><ele>10973.59</ele><time>2026-08-31T12:34:43Z</time></trkpt><trkpt lat="59.6486025676" lon="30.7391771302"><ele>10967.34</ele><time>2026-08-31T12:34:44Z</time></trkpt><trkpt lat="59.6486040764" lon="30.7391795609"><ele>10961.09</ele><time>2026-08-31T12:34:45Z</time></trkpt><trkpt lat="59.6486043278" lon="30.7391788904"><ele>10955.32</ele><time>2026-08-31T12:34:46Z</time></trkpt><trkpt lat="59.6486016456" lon="30.7391715981"><ele>10949.07</ele><time>2026-08-31T12:34:47Z</time></trkpt><trkpt lat="59.6486012265" lon="30.7391706761"><ele>10942.82</ele><time>2026-08-31T12:34:48Z</time></trkpt><trkpt lat="59.6485970356" lon="30.7391596120"><ele>10937.06</ele><time>2026-08-31T12:34:49Z</time></trkpt><trkpt lat="59.6485948563" lon="30.7391595282"><ele>10930.81</ele><time>2026-08-31T12:34:50Z</time></trkpt><trkpt lat="59.6485972032" lon="30.7391577680"><ele>10925.04</ele><time>2026-08-31T12:34:51Z</time></trkpt><trkpt lat="59.6485984605" lon="30.7391368970"><ele>10918.79</ele><time>2026-08-31T12:34:52Z</time></trkpt><trkpt lat="59.6485929284" lon="30.7391228154"><ele>10912.54</ele><time>2026-08-31T12:34:53Z</time></trkpt><trkpt lat="59.6485882346" lon="30.7391073927"><ele>10906.78</ele><time>2026-08-31T12:34:54Z</time></trkpt><trkpt lat="59.6485828701" lon="30.7391017769"><ele>10900.53</ele><time>2026-08-31T12:34:55Z</time></trkpt><trkpt lat="59.6485863067" lon="30.7390803192"><ele>10894.76</ele><time>2026-08-31T12:34:56Z</time></trkpt><trkpt lat="59.6485839598" lon="30.7390760444"><ele>10888.51</ele><time>2026-08-31T12:34:57Z</time></trkpt><trkpt lat="59.6485812776" lon="30.7390667405"><ele>10882.74</ele><time>2026-08-31T12:34:58Z</time></trkpt><trkpt lat="59.6485798527" lon="30.7390630525"><ele>10876.49</ele><time>2026-08-31T12:34:59Z</time></trkpt><trkpt lat="59.6485805232" lon="30.7390632201"><ele>10870.73</ele><time>2026-08-31T12:35:00Z</time></trkpt><trkpt lat="59.6485816967" lon="30.7390500605"><ele>10864.48</ele><time>2026-08-31T12:35:01Z</time></trkpt><trkpt lat="59.6485841274" lon="30.7390493900"><ele>10858.71</ele><time>2026-08-31T12:35:02Z</time></trkpt><trkpt lat="59.6485816129" lon="30.7390451152"><ele>10852.46</ele><time>2026-08-31T12:35:03Z</time></trkpt><trkpt lat="59.6485819481" lon="30.7390441932"><ele>10846.69</ele><time>2026-08-31T12:35:04Z</time></trkpt><trkpt lat="59.6485821158" lon="30.7390439417"><ele>10840.44</ele><time>2026-08-31T12:35:05Z</time></trkpt><trkpt lat="59.6485825349" lon="30.7390436064"><ele>10834.68</ele><time>2026-08-31T12:35:06Z</time></trkpt><trkpt lat="59.6485830378" lon="30.7390433550"><ele>10828.43</ele><time>2026-08-31T12:35:07Z</time></trkpt><trkpt lat="59.6485837083" lon="30.7390433550"><ele>10822.66</ele><time>2026-08-31T12:35:08Z</time></trkpt><trkpt lat="59.6485837083" lon="30.7390434388"><ele>10816.41</ele><time>2026-08-31T12:35:09Z</time></trkpt><trkpt lat="59.6485837922" lon="30.7390439417"><ele>10810.64</ele><time>2026-08-31T12:35:10Z</time></trkpt><trkpt lat="59.6485841274" lon="30.7390436064"><ele>10804.39</ele><time>2026-08-31T12:35:11Z</time></trkpt><trkpt lat="59.6485796850" lon="30.7390443608"><ele>10798.63</ele><time>2026-08-31T12:35:12Z</time></trkpt><trkpt lat="59.6485780086" lon="30.7390466239"><ele>10792.38</ele><time>2026-08-31T12:35:13Z</time></trkpt><trkpt lat="59.6485774219" lon="30.7390415110"><ele>10786.61</ele><time>2026-08-31T12:35:14Z</time></trkpt><trkpt lat="59.6485791821" lon="30.7390410919"><ele>10780.84</ele><time>2026-08-31T12:35:15Z</time></trkpt><trkpt lat="59.6485804394" lon="30.7390400860"><ele>10774.59</ele><time>2026-08-31T12:35:16Z</time></trkpt><trkpt lat="59.6485813614" lon="30.7390389964"><ele>10768.83</ele><time>2026-08-31T12:35:17Z</time></trkpt><trkpt lat="59.6485809423" lon="30.7390373200"><ele>10762.58</ele><time>2026-08-31T12:35:18Z</time></trkpt><trkpt lat="59.6485804394" lon="30.7390358113"><ele>10756.81</ele><time>2026-08-31T12:35:19Z</time></trkpt><trkpt lat="59.6485816967" lon="30.7390243281"><ele>10751.04</ele><time>2026-08-31T12:35:20Z</time></trkpt><trkpt lat="59.6485821996" lon="30.7390202209"><ele>10744.79</ele><time>2026-08-31T12:35:21Z</time></trkpt><trkpt lat="59.6485830378" lon="30.7390209753"><ele>10739.02</ele><time>2026-08-31T12:35:22Z</time></trkpt><trkpt lat="59.6485832054" lon="30.7390187960"><ele>10732.78</ele><time>2026-08-31T12:35:23Z</time></trkpt><trkpt lat="59.6485821996" lon="30.7390173711"><ele>10727.01</ele><time>2026-08-31T12:35:24Z</time></trkpt><trkpt lat="59.6485803556" lon="30.7390177064"><ele>10721.24</ele><time>2026-08-31T12:35:25Z</time></trkpt><trkpt lat="59.6485812776" lon="30.7390117552"><ele>10714.99</ele><time>2026-08-31T12:35:26Z</time></trkpt><trkpt lat="59.6485815290" lon="30.7390087377"><ele>10709.22</ele><time>2026-08-31T12:35:27Z</time></trkpt><trkpt lat="59.6485829540" lon="30.7390025351"><ele>10703.46</ele><time>2026-08-31T12:35:28Z</time></trkpt><trkpt lat="59.6485829540" lon="30.7389958296"><ele>10697.21</ele><time>2026-08-31T12:35:29Z</time></trkpt><trkpt lat="59.6485832892" lon="30.7389930636"><ele>10691.44</ele><time>2026-08-31T12:35:30Z</time></trkpt><trkpt lat="59.6485832054" lon="30.7389928959"><ele>10685.67</ele><time>2026-08-31T12:35:31Z</time></trkpt><trkpt lat="59.6485821996" lon="30.7389959972"><ele>10679.42</ele><time>2026-08-31T12:35:32Z</time></trkpt><trkpt lat="59.6485827025" lon="30.7389916386"><ele>10673.66</ele><time>2026-08-31T12:35:33Z</time></trkpt><trkpt lat="59.6485831216" lon="30.7389902975"><ele>10667.89</ele><time>2026-08-31T12:35:34Z</time></trkpt><trkpt lat="59.6485832054" lon="30.7389879506"><ele>10662.12</ele><time>2026-08-31T12:35:35Z</time></trkpt><trkpt lat="59.6485819481" lon="30.7389870286"><ele>10655.87</ele><time>2026-08-31T12:35:36Z</time></trkpt><trkpt lat="59.6485804394" lon="30.7389911357"><ele>10650.10</ele><time>2026-08-31T12:35:37Z</time></trkpt><trkpt lat="59.6485806070" lon="30.7389856875"><ele>10644.33</ele><time>2026-08-31T12:35:38Z</time></trkpt><trkpt lat="59.6485796012" lon="30.7389845978"><ele>10638.09</ele><time>2026-08-31T12:35:39Z</time></trkpt><trkpt lat="59.6485784277" lon="30.7389876153"><ele>10632.32</ele><time>2026-08-31T12:35:40Z</time></trkpt><trkpt lat="59.6485775895" lon="30.7389871124"><ele>10626.55</ele><time>2026-08-31T12:35:41Z</time></trkpt><trkpt lat="59.6485778410" lon="30.7389865257"><ele>10620.78</ele><time>2026-08-31T12:35:42Z</time></trkpt><trkpt lat="59.6485800203" lon="30.7389948238"><ele>10614.53</ele><time>2026-08-31T12:35:43Z</time></trkpt><trkpt lat="59.6485821158" lon="30.7390006911"><ele>10608.77</ele><time>2026-08-31T12:35:44Z</time></trkpt><trkpt lat="59.6485806908" lon="30.7390054688"><ele>10603.00</ele><time>2026-08-31T12:35:45Z</time></trkpt><trkpt lat="59.6485794336" lon="30.7390091568"><ele>10597.23</ele><time>2026-08-31T12:35:46Z</time></trkpt><trkpt lat="59.6485764999" lon="30.7390233222"><ele>10591.46</ele><time>2026-08-31T12:35:47Z</time></trkpt><trkpt lat="59.6485754102" lon="30.7390395831"><ele>10585.21</ele><time>2026-08-31T12:35:48Z</time></trkpt><trkpt lat="59.6485791821" lon="30.7390553411"><ele>10579.45</ele><time>2026-08-31T12:35:49Z</time></trkpt><trkpt lat="59.6485801879" lon="30.7390607055"><ele>10573.68</ele><time>2026-08-31T12:35:50Z</time></trkpt><trkpt lat="59.6485798527" lon="30.7390649803"><ele>10567.91</ele><time>2026-08-31T12:35:51Z</time></trkpt><trkpt lat="59.6485826187" lon="30.7390669081"><ele>10562.14</ele><time>2026-08-31T12:35:52Z</time></trkpt><trkpt lat="59.6485848818" lon="30.7390708476"><ele>10555.89</ele><time>2026-08-31T12:35:53Z</time></trkpt><trkpt lat="59.6485850494" lon="30.7390711829"><ele>10550.13</ele><time>2026-08-31T12:35:54Z</time></trkpt><trkpt lat="59.6485852171" lon="30.7390724402"><ele>10544.36</ele><time>2026-08-31T12:35:55Z</time></trkpt><trkpt lat="59.6485853009" lon="30.7390732784"><ele>10538.59</ele><time>2026-08-31T12:35:56Z</time></trkpt><trkpt lat="59.6485853847" lon="30.7390736137"><ele>10532.82</ele><time>2026-08-31T12:35:57Z</time></trkpt><trkpt lat="59.6485868935" lon="30.7390756253"><ele>10527.05</ele><time>2026-08-31T12:35:58Z</time></trkpt><trkpt lat="59.6485873964" lon="30.7390763797"><ele>10521.29</ele><time>2026-08-31T12:35:59Z</time></trkpt><trkpt lat="59.6485872287" lon="30.7390765473"><ele>10515.52</ele><time>2026-08-31T12:36:00Z</time></trkpt><trkpt lat="59.6485876478" lon="30.7390790619"><ele>10509.27</ele><time>2026-08-31T12:36:01Z</time></trkpt><trkpt lat="59.6485844627" lon="30.7390859351"><ele>10503.50</ele><time>2026-08-31T12:36:02Z</time></trkpt><trkpt lat="59.6485821996" lon="30.7390941493"><ele>10497.73</ele><time>2026-08-31T12:36:03Z</time></trkpt><trkpt lat="59.6485794336" lon="30.7391046267"><ele>10491.97</ele><time>2026-08-31T12:36:04Z</time></trkpt><trkpt lat="59.6485785954" lon="30.7391080633"><ele>10486.20</ele><time>2026-08-31T12:36:05Z</time></trkpt><trkpt lat="59.6485806070" lon="30.7391129248"><ele>10480.43</ele><time>2026-08-31T12:36:06Z</time></trkpt><trkpt lat="59.6485815290" lon="30.7391227316"><ele>10474.66</ele><time>2026-08-31T12:36:07Z</time></trkpt><trkpt lat="59.6485790983" lon="30.7391247433"><ele>10468.89</ele><time>2026-08-31T12:36:08Z</time></trkpt><trkpt lat="59.6485876478" lon="30.7391296886"><ele>10463.13</ele><time>2026-08-31T12:36:09Z</time></trkpt><trkpt lat="59.6485898271" lon="30.7391307782"><ele>10457.36</ele><time>2026-08-31T12:36:10Z</time></trkpt><trkpt lat="59.6485916711" lon="30.7391334604"><ele>10451.59</ele><time>2026-08-31T12:36:11Z</time></trkpt><trkpt lat="59.6485925931" lon="30.7391389087"><ele>10445.82</ele><time>2026-08-31T12:36:12Z</time></trkpt><trkpt lat="59.6485930122" lon="30.7391433511"><ele>10440.06</ele><time>2026-08-31T12:36:13Z</time></trkpt><trkpt lat="59.6485920064" lon="30.7391476259"><ele>10434.29</ele><time>2026-08-31T12:36:14Z</time></trkpt><trkpt lat="59.6485887375" lon="30.7391535770"><ele>10428.52</ele><time>2026-08-31T12:36:15Z</time></trkpt><trkpt lat="59.6485893242" lon="30.7391699217"><ele>10422.75</ele><time>2026-08-31T12:36:16Z</time></trkpt><trkpt lat="59.6485893242" lon="30.7391732745"><ele>10416.98</ele><time>2026-08-31T12:36:17Z</time></trkpt><trkpt lat="59.6485889889" lon="30.7391746156"><ele>10411.21</ele><time>2026-08-31T12:36:18Z</time></trkpt><trkpt lat="59.6485881507" lon="30.7391806506"><ele>10405.45</ele><time>2026-08-31T12:36:19Z</time></trkpt><trkpt lat="59.6485913359" lon="30.7391959056"><ele>10399.68</ele><time>2026-08-31T12:36:20Z</time></trkpt><trkpt lat="59.6485898271" lon="30.7391989231"><ele>10393.91</ele><time>2026-08-31T12:36:21Z</time></trkpt><trkpt lat="59.6485918388" lon="30.7392003480"><ele>10388.14</ele><time>2026-08-31T12:36:22Z</time></trkpt><trkpt lat="59.6485910844" lon="30.7392034493"><ele>10382.38</ele><time>2026-08-31T12:36:23Z</time></trkpt><trkpt lat="59.6485956106" lon="30.7392233144"><ele>10376.61</ele><time>2026-08-31T12:36:24Z</time></trkpt><trkpt lat="59.6486017294" lon="30.7392404135"><ele>10370.84</ele><time>2026-08-31T12:36:25Z</time></trkpt><trkpt lat="59.6486039925" lon="30.7392420061"><ele>10365.07</ele><time>2026-08-31T12:36:26Z</time></trkpt><trkpt lat="59.6486017294" lon="30.7392451912"><ele>10359.30</ele><time>2026-08-31T12:36:27Z</time></trkpt><trkpt lat="59.6486004721" lon="30.7392487116"><ele>10353.54</ele><time>2026-08-31T12:36:28Z</time></trkpt><trkpt lat="59.6486006398" lon="30.7392466161"><ele>10347.77</ele><time>2026-08-31T12:36:29Z</time></trkpt><trkpt lat="59.6486005560" lon="30.7392480411"><ele>10342.00</ele><time>2026-08-31T12:36:30Z</time></trkpt><trkpt lat="59.6486007236" lon="30.7392487116"><ele>10336.23</ele><time>2026-08-31T12:36:31Z</time></trkpt><trkpt lat="59.6486012265" lon="30.7392493822"><ele>10330.46</ele><time>2026-08-31T12:36:32Z</time></trkpt><trkpt lat="59.6486024000" lon="30.7392511424"><ele>10324.70</ele><time>2026-08-31T12:36:33Z</time></trkpt><trkpt lat="59.6486032382" lon="30.7392518967"><ele>10318.93</ele><time>2026-08-31T12:36:34Z</time></trkpt><trkpt lat="59.6486039925" lon="30.7392524835"><ele>10313.64</ele><time>2026-08-31T12:36:35Z</time></trkpt><trkpt lat="59.6486045793" lon="30.7392532378"><ele>10307.87</ele><time>2026-08-31T12:36:36Z</time></trkpt><trkpt lat="59.6486048307" lon="30.7392534055"><ele>10302.11</ele><time>2026-08-31T12:36:37Z</time></trkpt><trkpt lat="59.6486049984" lon="30.7392531540"><ele>10296.34</ele><time>2026-08-31T12:36:38Z</time></trkpt><trkpt lat="59.6486058366" lon="30.7392531540"><ele>10290.57</ele><time>2026-08-31T12:36:39Z</time></trkpt><trkpt lat="59.6486062557" lon="30.7392533217"><ele>10284.80</ele><time>2026-08-31T12:36:40Z</time></trkpt><trkpt lat="59.6486063395" lon="30.7392537408"><ele>10279.03</ele><time>2026-08-31T12:36:41Z</time></trkpt><trkpt lat="59.6486065071" lon="30.7392539084"><ele>10273.75</ele><time>2026-08-31T12:36:42Z</time></trkpt><trkpt lat="59.6486065071" lon="30.7392549142"><ele>10267.98</ele><time>2026-08-31T12:36:43Z</time></trkpt><trkpt lat="59.6486060042" lon="30.7392558362"><ele>10262.21</ele><time>2026-08-31T12:36:44Z</time></trkpt><trkpt lat="59.6486054175" lon="30.7392566744"><ele>10256.44</ele><time>2026-08-31T12:36:45Z</time></trkpt><trkpt lat="59.6486048307" lon="30.7392576803"><ele>10250.68</ele><time>2026-08-31T12:36:46Z</time></trkpt><trkpt lat="59.6486044955" lon="30.7392584346"><ele>10244.91</ele><time>2026-08-31T12:36:47Z</time></trkpt><trkpt lat="59.6486042440" lon="30.7392588537"><ele>10239.62</ele><time>2026-08-31T12:36:48Z</time></trkpt><trkpt lat="59.6486039087" lon="30.7392591890"><ele>10233.85</ele><time>2026-08-31T12:36:49Z</time></trkpt><trkpt lat="59.6486036573" lon="30.7392595243"><ele>10228.08</ele><time>2026-08-31T12:36:50Z</time></trkpt><trkpt lat="59.6486038249" lon="30.7392596919"><ele>10222.32</ele><time>2026-08-31T12:36:51Z</time></trkpt><trkpt lat="59.6486044116" lon="30.7392596081"><ele>10217.03</ele><time>2026-08-31T12:36:52Z</time></trkpt><trkpt lat="59.6486044955" lon="30.7392595243"><ele>10211.26</ele><time>2026-08-31T12:36:53Z</time></trkpt><trkpt lat="59.6486043278" lon="30.7392597757"><ele>10205.49</ele><time>2026-08-31T12:36:54Z</time></trkpt><trkpt lat="59.6486044955" lon="30.7392596919"><ele>10199.73</ele><time>2026-08-31T12:36:55Z</time></trkpt><trkpt lat="59.6486047469" lon="30.7392592728"><ele>10193.96</ele><time>2026-08-31T12:36:56Z</time></trkpt><trkpt lat="59.6486050822" lon="30.7392586023"><ele>10188.67</ele><time>2026-08-31T12:36:57Z</time></trkpt><trkpt lat="59.6486053336" lon="30.7392582670"><ele>10182.90</ele><time>2026-08-31T12:36:58Z</time></trkpt><trkpt lat="59.6486055851" lon="30.7392581832"><ele>10177.13</ele><time>2026-08-31T12:36:59Z</time></trkpt><trkpt lat="59.6486061718" lon="30.7392579317"><ele>10171.85</ele><time>2026-08-31T12:37:00Z</time></trkpt><trkpt lat="59.6486047469" lon="30.7392560877"><ele>10166.08</ele><time>2026-08-31T12:37:01Z</time></trkpt><trkpt lat="59.6486080159" lon="30.7392575126"><ele>10160.31</ele><time>2026-08-31T12:37:02Z</time></trkpt><trkpt lat="59.6486088540" lon="30.7392564230"><ele>10154.54</ele><time>2026-08-31T12:37:03Z</time></trkpt><trkpt lat="59.6486099437" lon="30.7392555010"><ele>10149.26</ele><time>2026-08-31T12:37:04Z</time></trkpt><trkpt lat="59.6486110333" lon="30.7392544951"><ele>10143.49</ele><time>2026-08-31T12:37:05Z</time></trkpt><trkpt lat="59.6486124583" lon="30.7392543275"><ele>10137.72</ele><time>2026-08-31T12:37:06Z</time></trkpt><trkpt lat="59.6486132126" lon="30.7392543275"><ele>10132.43</ele><time>2026-08-31T12:37:07Z</time></trkpt><trkpt lat="59.6486139670" lon="30.7392544113"><ele>10126.67</ele><time>2026-08-31T12:37:08Z</time></trkpt><trkpt lat="59.6486146376" lon="30.7392539084"><ele>10120.90</ele><time>2026-08-31T12:37:09Z</time></trkpt><trkpt lat="59.6486154757" lon="30.7392537408"><ele>10115.61</ele><time>2026-08-31T12:37:10Z</time></trkpt><trkpt lat="59.6486162301" lon="30.7392551657"><ele>10109.84</ele><time>2026-08-31T12:37:11Z</time></trkpt><trkpt lat="59.6486169007" lon="30.7392560877"><ele>10104.07</ele><time>2026-08-31T12:37:12Z</time></trkpt><trkpt lat="59.6486174036" lon="30.7392564230"><ele>10098.79</ele><time>2026-08-31T12:37:13Z</time></trkpt><trkpt lat="59.6486174874" lon="30.7392560039"><ele>10093.02</ele><time>2026-08-31T12:37:14Z</time></trkpt><trkpt lat="59.6486182418" lon="30.7392562553"><ele>10087.73</ele><time>2026-08-31T12:37:15Z</time></trkpt><trkpt lat="59.6486194152" lon="30.7392564230"><ele>10081.96</ele><time>2026-08-31T12:37:16Z</time></trkpt><trkpt lat="59.6486209240" lon="30.7392574288"><ele>10076.20</ele><time>2026-08-31T12:37:17Z</time></trkpt><trkpt lat="59.6486223489" lon="30.7392580993"><ele>10070.91</ele><time>2026-08-31T12:37:18Z</time></trkpt><trkpt lat="59.6486236062" lon="30.7392590214"><ele>10065.14</ele><time>2026-08-31T12:37:19Z</time></trkpt><trkpt lat="59.6486247797" lon="30.7392589375"><ele>10059.85</ele><time>2026-08-31T12:37:20Z</time></trkpt><trkpt lat="59.6486255340" lon="30.7392588537"><ele>10054.09</ele><time>2026-08-31T12:37:21Z</time></trkpt><trkpt lat="59.6486262046" lon="30.7392589375"><ele>10048.32</ele><time>2026-08-31T12:37:22Z</time></trkpt><trkpt lat="59.6486269590" lon="30.7392586023"><ele>10043.03</ele><time>2026-08-31T12:37:23Z</time></trkpt><trkpt lat="59.6486276295" lon="30.7392586023"><ele>10037.26</ele><time>2026-08-31T12:37:24Z</time></trkpt><trkpt lat="59.6486285515" lon="30.7392593566"><ele>10031.97</ele><time>2026-08-31T12:37:25Z</time></trkpt><trkpt lat="59.6486290544" lon="30.7392596919"><ele>10026.21</ele><time>2026-08-31T12:37:26Z</time></trkpt><trkpt lat="59.6486292221" lon="30.7392635476"><ele>10020.92</ele><time>2026-08-31T12:37:27Z</time></trkpt><trkpt lat="59.6486289706" lon="30.7392589375"><ele>10015.15</ele><time>2026-08-31T12:37:28Z</time></trkpt><trkpt lat="59.6486294735" lon="30.7392590214"><ele>10009.38</ele><time>2026-08-31T12:37:29Z</time></trkpt><trkpt lat="59.6486299764" lon="30.7392591890"><ele>10004.10</ele><time>2026-08-31T12:37:30Z</time></trkpt><trkpt lat="59.6486305632" lon="30.7392596081"><ele>9998.33</ele><time>2026-08-31T12:37:31Z</time></trkpt><trkpt lat="59.6486309823" lon="30.7392594405"><ele>9993.04</ele><time>2026-08-31T12:37:32Z</time></trkpt><trkpt lat="59.6486310661" lon="30.7392593566"><ele>9987.27</ele><time>2026-08-31T12:37:33Z</time></trkpt><trkpt lat="59.6486313175" lon="30.7392551657"><ele>9981.99</ele><time>2026-08-31T12:37:34Z</time></trkpt><trkpt lat="59.6486302279" lon="30.7392618712"><ele>9976.22</ele><time>2026-08-31T12:37:35Z</time></trkpt><trkpt lat="59.6486301441" lon="30.7392637990"><ele>9970.93</ele><time>2026-08-31T12:37:36Z</time></trkpt><trkpt lat="59.6486296412" lon="30.7392641343"><ele>9965.16</ele><time>2026-08-31T12:37:37Z</time></trkpt><trkpt lat="59.6486293059" lon="30.7392647211"><ele>9959.88</ele><time>2026-08-31T12:37:38Z</time></trkpt><trkpt lat="59.6486291382" lon="30.7392652240"><ele>9954.11</ele><time>2026-08-31T12:37:39Z</time></trkpt><trkpt lat="59.6486289706" lon="30.7392655592"><ele>9948.82</ele><time>2026-08-31T12:37:40Z</time></trkpt><trkpt lat="59.6486287192" lon="30.7392657269"><ele>9943.53</ele><time>2026-08-31T12:37:41Z</time></trkpt><trkpt lat="59.6486284677" lon="30.7392661460"><ele>9937.77</ele><time>2026-08-31T12:37:42Z</time></trkpt><trkpt lat="59.6486286353" lon="30.7392670680"><ele>9932.48</ele><time>2026-08-31T12:37:43Z</time></trkpt><trkpt lat="59.6486288030" lon="30.7392681576"><ele>9926.71</ele><time>2026-08-31T12:37:44Z</time></trkpt><trkpt lat="59.6486288868" lon="30.7392687444"><ele>9921.42</ele><time>2026-08-31T12:37:45Z</time></trkpt><trkpt lat="59.6486289706" lon="30.7392690796"><ele>9915.66</ele><time>2026-08-31T12:37:46Z</time></trkpt><trkpt lat="59.6486293059" lon="30.7392700016"><ele>9910.37</ele><time>2026-08-31T12:37:47Z</time></trkpt><trkpt lat="59.6486295573" lon="30.7392707560"><ele>9905.08</ele><time>2026-08-31T12:37:48Z</time></trkpt><trkpt lat="59.6486295573" lon="30.7392711751"><ele>9899.31</ele><time>2026-08-31T12:37:49Z</time></trkpt><trkpt lat="59.6486296412" lon="30.7392717618"><ele>9894.03</ele><time>2026-08-31T12:37:50Z</time></trkpt><trkpt lat="59.6486297250" lon="30.7392721809"><ele>9888.26</ele><time>2026-08-31T12:37:51Z</time></trkpt><trkpt lat="59.6486321557" lon="30.7392715942"><ele>9882.97</ele><time>2026-08-31T12:37:52Z</time></trkpt><trkpt lat="59.6486298926" lon="30.7392726000"><ele>9877.68</ele><time>2026-08-31T12:37:53Z</time></trkpt><trkpt lat="59.6486302279" lon="30.7392723486"><ele>9871.92</ele><time>2026-08-31T12:37:54Z</time></trkpt><trkpt lat="59.6486304794" lon="30.7392719295"><ele>9866.63</ele><time>2026-08-31T12:37:55Z</time></trkpt><trkpt lat="59.6486308146" lon="30.7392711751"><ele>9860.86</ele><time>2026-08-31T12:37:56Z</time></trkpt><trkpt lat="59.6486310661" lon="30.7392711751"><ele>9855.57</ele><time>2026-08-31T12:37:57Z</time></trkpt><trkpt lat="59.6486314014" lon="30.7392712589"><ele>9850.29</ele><time>2026-08-31T12:37:58Z</time></trkpt><trkpt lat="59.6486317366" lon="30.7392712589"><ele>9844.52</ele><time>2026-08-31T12:37:59Z</time></trkpt><trkpt lat="59.6486319043" lon="30.7392709237"><ele>9839.23</ele><time>2026-08-31T12:38:00Z</time></trkpt><trkpt lat="59.6486320719" lon="30.7392705884"><ele>9833.94</ele><time>2026-08-31T12:38:01Z</time></trkpt><trkpt lat="59.6486323234" lon="30.7392704207"><ele>9828.18</ele><time>2026-08-31T12:38:02Z</time></trkpt><trkpt lat="59.6486322396" lon="30.7392705046"><ele>9822.89</ele><time>2026-08-31T12:38:03Z</time></trkpt><trkpt lat="59.6486323234" lon="30.7392704207"><ele>9817.60</ele><time>2026-08-31T12:38:04Z</time></trkpt><trkpt lat="59.6486322396" lon="30.7392710075"><ele>9811.83</ele><time>2026-08-31T12:38:05Z</time></trkpt><trkpt lat="59.6486320719" lon="30.7392716780"><ele>9806.55</ele><time>2026-08-31T12:38:06Z</time></trkpt><trkpt lat="59.6486318205" lon="30.7392720971"><ele>9801.26</ele><time>2026-08-31T12:38:07Z</time></trkpt><trkpt lat="59.6486317366" lon="30.7392720971"><ele>9795.97</ele><time>2026-08-31T12:38:08Z</time></trkpt><trkpt lat="59.6486313175" lon="30.7392715942"><ele>9790.20</ele><time>2026-08-31T12:38:09Z</time></trkpt><trkpt lat="59.6486308146" lon="30.7392708398"><ele>9784.92</ele><time>2026-08-31T12:38:10Z</time></trkpt><trkpt lat="59.6486303117" lon="30.7392706722"><ele>9779.63</ele><time>2026-08-31T12:38:11Z</time></trkpt><trkpt lat="59.6486297250" lon="30.7392704207"><ele>9774.34</ele><time>2026-08-31T12:38:12Z</time></trkpt><trkpt lat="59.6486293059" lon="30.7392700855"><ele>9768.57</ele><time>2026-08-31T12:38:13Z</time></trkpt><trkpt lat="59.6486288030" lon="30.7392699178"><ele>9763.29</ele><time>2026-08-31T12:38:14Z</time></trkpt><trkpt lat="59.6486284677" lon="30.7392697502"><ele>9758.00</ele><time>2026-08-31T12:38:15Z</time></trkpt><trkpt lat="59.6486283839" lon="30.7392698340"><ele>9752.71</ele><time>2026-08-31T12:38:16Z</time></trkpt><trkpt lat="59.6486284677" lon="30.7392704207"><ele>9746.94</ele><time>2026-08-31T12:38:17Z</time></trkpt><trkpt lat="59.6486283001" lon="30.7392710913"><ele>9741.66</ele><time>2026-08-31T12:38:18Z</time></trkpt><trkpt lat="59.6486277133" lon="30.7392714266"><ele>9736.37</ele><time>2026-08-31T12:38:19Z</time></trkpt><trkpt lat="59.6486273780" lon="30.7392717618"><ele>9731.08</ele><time>2026-08-31T12:38:20Z</time></trkpt><trkpt lat="59.6486273780" lon="30.7392725162"><ele>9725.31</ele><time>2026-08-31T12:38:21Z</time></trkpt><trkpt lat="59.6486277971" lon="30.7392726839"><ele>9720.03</ele><time>2026-08-31T12:38:22Z</time></trkpt><trkpt lat="59.6486283839" lon="30.7392727677"><ele>9714.74</ele><time>2026-08-31T12:38:23Z</time></trkpt><trkpt lat="59.6486295573" lon="30.7392731030"><ele>9709.45</ele><time>2026-08-31T12:38:24Z</time></trkpt><trkpt lat="59.6486312337" lon="30.7392735220"><ele>9704.17</ele><time>2026-08-31T12:38:25Z</time></trkpt><trkpt lat="59.6486324910" lon="30.7392741926"><ele>9698.88</ele><time>2026-08-31T12:38:26Z</time></trkpt><trkpt lat="59.6486352570" lon="30.7392814010"><ele>9693.11</ele><time>2026-08-31T12:38:27Z</time></trkpt><trkpt lat="59.6486364305" lon="30.7392832451"><ele>9687.82</ele><time>2026-08-31T12:38:28Z</time></trkpt><trkpt lat="59.6486385260" lon="30.7392839156"><ele>9682.54</ele><time>2026-08-31T12:38:29Z</time></trkpt><trkpt lat="59.6486371849" lon="30.7392863464"><ele>9677.25</ele><time>2026-08-31T12:38:30Z</time></trkpt><trkpt lat="59.6486373525" lon="30.7392865140"><ele>9671.96</ele><time>2026-08-31T12:38:31Z</time></trkpt><trkpt lat="59.6486377716" lon="30.7392865140"><ele>9666.67</ele><time>2026-08-31T12:38:32Z</time></trkpt><trkpt lat="59.6486377716" lon="30.7392882742"><ele>9660.91</ele><time>2026-08-31T12:38:33Z</time></trkpt><trkpt lat="59.6486371011" lon="30.7392904535"><ele>9655.62</ele><time>2026-08-31T12:38:34Z</time></trkpt><trkpt lat="59.6486386936" lon="30.7392938901"><ele>9650.33</ele><time>2026-08-31T12:38:35Z</time></trkpt><trkpt lat="59.6486392803" lon="30.7392904535"><ele>9645.04</ele><time>2026-08-31T12:38:36Z</time></trkpt><trkpt lat="59.6486396156" lon="30.7392995059"><ele>9639.76</ele><time>2026-08-31T12:38:37Z</time></trkpt><trkpt lat="59.6486400347" lon="30.7393016852"><ele>9634.47</ele><time>2026-08-31T12:38:38Z</time></trkpt><trkpt lat="59.6486410405" lon="30.7393031940"><ele>9629.18</ele><time>2026-08-31T12:38:39Z</time></trkpt><trkpt lat="59.6486416273" lon="30.7393060438"><ele>9623.90</ele><time>2026-08-31T12:38:40Z</time></trkpt><trkpt lat="59.6486433875" lon="30.7393107377"><ele>9618.61</ele><time>2026-08-31T12:38:41Z</time></trkpt><trkpt lat="59.6486490872" lon="30.7393130008"><ele>9613.32</ele><time>2026-08-31T12:38:42Z</time></trkpt><trkpt lat="59.6486499254" lon="30.7393144257"><ele>9608.03</ele><time>2026-08-31T12:38:43Z</time></trkpt><trkpt lat="59.6486513503" lon="30.7393215504"><ele>9602.27</ele><time>2026-08-31T12:38:44Z</time></trkpt><trkpt lat="59.6486531943" lon="30.7393226400"><ele>9596.98</ele><time>2026-08-31T12:38:45Z</time></trkpt><trkpt lat="59.6486539487" lon="30.7393240649"><ele>9591.69</ele><time>2026-08-31T12:38:46Z</time></trkpt><trkpt lat="59.6486547031" lon="30.7393244002"><ele>9586.40</ele><time>2026-08-31T12:38:47Z</time></trkpt><trkpt lat="59.6486553736" lon="30.7393249031"><ele>9581.12</ele><time>2026-08-31T12:38:48Z</time></trkpt><trkpt lat="59.6486555412" lon="30.7393252384"><ele>9575.83</ele><time>2026-08-31T12:38:49Z</time></trkpt><trkpt lat="59.6486579720" lon="30.7393265795"><ele>9570.54</ele><time>2026-08-31T12:38:50Z</time></trkpt><trkpt lat="59.6486588940" lon="30.7393278368"><ele>9565.25</ele><time>2026-08-31T12:38:51Z</time></trkpt><trkpt lat="59.6486611571" lon="30.7393281721"><ele>9559.97</ele><time>2026-08-31T12:38:52Z</time></trkpt><trkpt lat="59.6486625820" lon="30.7393295132"><ele>9554.68</ele><time>2026-08-31T12:38:53Z</time></trkpt><trkpt lat="59.6486636717" lon="30.7393243164"><ele>9549.39</ele><time>2026-08-31T12:38:54Z</time></trkpt><trkpt lat="59.6486666054" lon="30.7393295970"><ele>9544.11</ele><time>2026-08-31T12:38:55Z</time></trkpt><trkpt lat="59.6486674435" lon="30.7393294293"><ele>9538.82</ele><time>2026-08-31T12:38:56Z</time></trkpt><trkpt lat="59.6486733109" lon="30.7393217180"><ele>9533.53</ele><time>2026-08-31T12:38:57Z</time></trkpt><trkpt lat="59.6486809384" lon="30.7393177785"><ele>9528.24</ele><time>2026-08-31T12:38:58Z</time></trkpt><trkpt lat="59.6486867219" lon="30.7393109053"><ele>9522.96</ele><time>2026-08-31T12:38:59Z</time></trkpt><trkpt lat="59.6486904100" lon="30.7393052056"><ele>9517.67</ele><time>2026-08-31T12:39:00Z</time></trkpt><trkpt lat="59.6486932598" lon="30.7393083908"><ele>9512.38</ele><time>2026-08-31T12:39:01Z</time></trkpt><trkpt lat="59.6486923378" lon="30.7393132523"><ele>9507.10</ele><time>2026-08-31T12:39:02Z</time></trkpt><trkpt lat="59.6486948524" lon="30.7393067982"><ele>9501.81</ele><time>2026-08-31T12:39:03Z</time></trkpt><trkpt lat="59.6486962773" lon="30.7393052056"><ele>9496.52</ele><time>2026-08-31T12:39:04Z</time></trkpt><trkpt lat="59.6486975346" lon="30.7393026911"><ele>9491.71</ele><time>2026-08-31T12:39:05Z</time></trkpt><trkpt lat="59.6486983728" lon="30.7392996736"><ele>9486.43</ele><time>2026-08-31T12:39:06Z</time></trkpt><trkpt lat="59.6487040725" lon="30.7392828260"><ele>9481.14</ele><time>2026-08-31T12:39:07Z</time></trkpt><trkpt lat="59.6487052459" lon="30.7392683253"><ele>9475.85</ele><time>2026-08-31T12:39:08Z</time></trkpt><trkpt lat="59.6487084311" lon="30.7392549980"><ele>9470.57</ele><time>2026-08-31T12:39:09Z</time></trkpt><trkpt lat="59.6487133764" lon="30.7392485440"><ele>9465.28</ele><time>2026-08-31T12:39:10Z</time></trkpt><trkpt lat="59.6487153042" lon="30.7392458618"><ele>9459.99</ele><time>2026-08-31T12:39:11Z</time></trkpt><trkpt lat="59.6487144660" lon="30.7392424252"><ele>9454.70</ele><time>2026-08-31T12:39:12Z</time></trkpt><trkpt lat="59.6487166453" lon="30.7392389048"><ele>9449.42</ele><time>2026-08-31T12:39:13Z</time></trkpt><trkpt lat="59.6487227641" lon="30.7392349653"><ele>9444.13</ele><time>2026-08-31T12:39:14Z</time></trkpt><trkpt lat="59.6487303916" lon="30.7392342947"><ele>9439.32</ele><time>2026-08-31T12:39:15Z</time></trkpt><trkpt lat="59.6487364266" lon="30.7392333727"><ele>9434.04</ele><time>2026-08-31T12:39:16Z</time></trkpt><trkpt lat="59.6487473231" lon="30.7392326184"><ele>9428.75</ele><time>2026-08-31T12:39:17Z</time></trkpt><trkpt lat="59.6487568785" lon="30.7392358873"><ele>9423.46</ele><time>2026-08-31T12:39:18Z</time></trkpt><trkpt lat="59.6487665176" lon="30.7392449398"><ele>9418.17</ele><time>2026-08-31T12:39:19Z</time></trkpt><trkpt lat="59.6487750672" lon="30.7392510585"><ele>9412.89</ele><time>2026-08-31T12:39:20Z</time></trkpt><trkpt lat="59.6487791743" lon="30.7392569259"><ele>9407.60</ele><time>2026-08-31T12:39:21Z</time></trkpt><trkpt lat="59.6487801801" lon="30.7392617874"><ele>9402.79</ele><time>2026-08-31T12:39:22Z</time></trkpt><trkpt lat="59.6487814374" lon="30.7392630447"><ele>9397.50</ele><time>2026-08-31T12:39:23Z</time></trkpt><trkpt lat="59.6487828624" lon="30.7392632123"><ele>9392.22</ele><time>2026-08-31T12:39:24Z</time></trkpt><trkpt lat="59.6487825271" lon="30.7392669003"><ele>9386.93</ele><time>2026-08-31T12:39:25Z</time></trkpt><trkpt lat="59.6487899870" lon="30.7392684091"><ele>9381.64</ele><time>2026-08-31T12:39:26Z</time></trkpt><trkpt lat="59.6487971954" lon="30.7392672356"><ele>9376.84</ele><time>2026-08-31T12:39:27Z</time></trkpt><trkpt lat="59.6488043200" lon="30.7392617036"><ele>9376.84</ele><time>2026-08-31T12:39:28Z</time></trkpt><trkpt lat="59.6488103550" lon="30.7392643020"><ele>9366.26</ele><time>2026-08-31T12:39:29Z</time></trkpt><trkpt lat="59.6488145459" lon="30.7392707560"><ele>9360.98</ele><time>2026-08-31T12:39:30Z</time></trkpt><trkpt lat="59.6488146298" lon="30.7392748632"><ele>9355.69</ele><time>2026-08-31T12:39:31Z</time></trkpt><trkpt lat="59.6488157194" lon="30.7392722648"><ele>9350.88</ele><time>2026-08-31T12:39:32Z</time></trkpt><trkpt lat="59.6488213353" lon="30.7392786350"><ele>9345.59</ele><time>2026-08-31T12:39:33Z</time></trkpt><trkpt lat="59.6488261130" lon="30.7392788026"><ele>9340.31</ele><time>2026-08-31T12:39:34Z</time></trkpt><trkpt lat="59.6488269512" lon="30.7392801438"><ele>9335.02</ele><time>2026-08-31T12:39:35Z</time></trkpt><trkpt lat="59.6488346625" lon="30.7392823230"><ele>9330.21</ele><time>2026-08-31T12:39:36Z</time></trkpt><trkpt lat="59.6488421224" lon="30.7392752822"><ele>9324.93</ele><time>2026-08-31T12:39:37Z</time></trkpt><trkpt lat="59.6488443017" lon="30.7392673194"><ele>9319.64</ele><time>2026-08-31T12:39:38Z</time></trkpt><trkpt lat="59.6488489117" lon="30.7392743602"><ele>9314.35</ele><time>2026-08-31T12:39:39Z</time></trkpt><trkpt lat="59.6488512587" lon="30.7392706722"><ele>9309.54</ele><time>2026-08-31T12:39:40Z</time></trkpt><trkpt lat="59.6488578804" lon="30.7392703369"><ele>9304.26</ele><time>2026-08-31T12:39:41Z</time></trkpt><trkpt lat="59.6488568746" lon="30.7392662298"><ele>9298.97</ele><time>2026-08-31T12:39:42Z</time></trkpt><trkpt lat="59.6488601435" lon="30.7392686605"><ele>9294.16</ele><time>2026-08-31T12:39:43Z</time></trkpt><trkpt lat="59.6488707885" lon="30.7392610330"><ele>9288.88</ele><time>2026-08-31T12:39:44Z</time></trkpt><trkpt lat="59.6488805953" lon="30.7392481249"><ele>9283.59</ele><time>2026-08-31T12:39:45Z</time></trkpt><trkpt lat="59.6488813497" lon="30.7392353006"><ele>9278.30</ele><time>2026-08-31T12:39:46Z</time></trkpt><trkpt lat="59.6488862112" lon="30.7392355520"><ele>9273.50</ele><time>2026-08-31T12:39:47Z</time></trkpt><trkpt lat="59.6488939226" lon="30.7392283436"><ele>9268.21</ele><time>2026-08-31T12:39:48Z</time></trkpt><trkpt lat="59.6489012986" lon="30.7392149325"><ele>9262.92</ele><time>2026-08-31T12:39:49Z</time></trkpt><trkpt lat="59.6489023045" lon="30.7392127533"><ele>9258.11</ele><time>2026-08-31T12:39:50Z</time></trkpt><trkpt lat="59.6489080880" lon="30.7392076403"><ele>9252.83</ele><time>2026-08-31T12:39:51Z</time></trkpt><trkpt lat="59.6489142906" lon="30.7392059639"><ele>9247.54</ele><time>2026-08-31T12:39:52Z</time></trkpt><trkpt lat="59.6489216667" lon="30.7391963247"><ele>9242.73</ele><time>2026-08-31T12:39:53Z</time></trkpt><trkpt lat="59.6489216667" lon="30.7391902898"><ele>9237.45</ele><time>2026-08-31T12:39:54Z</time></trkpt><trkpt lat="59.6489292104" lon="30.7391873561"><ele>9232.64</ele><time>2026-08-31T12:39:55Z</time></trkpt><trkpt lat="59.6489349101" lon="30.7391908765"><ele>9227.35</ele><time>2026-08-31T12:39:56Z</time></trkpt><trkpt lat="59.6489422023" lon="30.7391809858"><ele>9222.07</ele><time>2026-08-31T12:39:57Z</time></trkpt><trkpt lat="59.6489504166" lon="30.7391824108"><ele>9217.26</ele><time>2026-08-31T12:39:58Z</time></trkpt><trkpt lat="59.6489581279" lon="30.7391792256"><ele>9211.97</ele><time>2026-08-31T12:39:59Z</time></trkpt><trkpt lat="59.6489674319" lon="30.7391688321"><ele>9206.68</ele><time>2026-08-31T12:40:00Z</time></trkpt><trkpt lat="59.6489757299" lon="30.7391591091"><ele>9201.88</ele><time>2026-08-31T12:40:01Z</time></trkpt><trkpt lat="59.6489764005" lon="30.7391581032"><ele>9196.59</ele><time>2026-08-31T12:40:02Z</time></trkpt><trkpt lat="59.6489789151" lon="30.7391576841"><ele>9191.78</ele><time>2026-08-31T12:40:03Z</time></trkpt><trkpt lat="59.6489769872" lon="30.7391580194"><ele>9186.50</ele><time>2026-08-31T12:40:04Z</time></trkpt><trkpt lat="59.6489777416" lon="30.7391586062"><ele>9181.69</ele><time>2026-08-31T12:40:05Z</time></trkpt><trkpt lat="59.6489784122" lon="30.7391593605"><ele>9176.40</ele><time>2026-08-31T12:40:06Z</time></trkpt><trkpt lat="59.6489795856" lon="30.7391600311"><ele>9171.12</ele><time>2026-08-31T12:40:07Z</time></trkpt><trkpt lat="59.6489805076" lon="30.7391596120"><ele>9166.31</ele><time>2026-08-31T12:40:08Z</time></trkpt><trkpt lat="59.6489810105" lon="30.7391598634"><ele>9161.02</ele><time>2026-08-31T12:40:09Z</time></trkpt><trkpt lat="59.6489812620" lon="30.7391597796"><ele>9156.21</ele><time>2026-08-31T12:40:10Z</time></trkpt><trkpt lat="59.6489814296" lon="30.7391589414"><ele>9150.93</ele><time>2026-08-31T12:40:11Z</time></trkpt><trkpt lat="59.6489814296" lon="30.7391581032"><ele>9146.12</ele><time>2026-08-31T12:40:12Z</time></trkpt><trkpt lat="59.6489813458" lon="30.7391514815"><ele>9140.83</ele><time>2026-08-31T12:40:13Z</time></trkpt><trkpt lat="59.6489819326" lon="30.7391512301"><ele>9136.03</ele><time>2026-08-31T12:40:14Z</time></trkpt><trkpt lat="59.6489823516" lon="30.7391430996"><ele>9130.74</ele><time>2026-08-31T12:40:15Z</time></trkpt><trkpt lat="59.6489831898" lon="30.7391373999"><ele>9125.93</ele><time>2026-08-31T12:40:16Z</time></trkpt><trkpt lat="59.6489837766" lon="30.7391371485"><ele>9120.65</ele><time>2026-08-31T12:40:17Z</time></trkpt><trkpt lat="59.6489851177" lon="30.7391369808"><ele>9115.84</ele><time>2026-08-31T12:40:18Z</time></trkpt><trkpt lat="59.6489856206" lon="30.7391358912"><ele>9110.55</ele><time>2026-08-31T12:40:19Z</time></trkpt><trkpt lat="59.6489873808" lon="30.7391348854"><ele>9105.75</ele><time>2026-08-31T12:40:20Z</time></trkpt><trkpt lat="59.6489880513" lon="30.7391340472"><ele>9100.46</ele><time>2026-08-31T12:40:21Z</time></trkpt><trkpt lat="59.6489885543" lon="30.7391315326"><ele>9095.65</ele><time>2026-08-31T12:40:22Z</time></trkpt><trkpt lat="59.6489895601" lon="30.7391205523"><ele>9090.36</ele><time>2026-08-31T12:40:23Z</time></trkpt><trkpt lat="59.6489904821" lon="30.7391178701"><ele>9085.56</ele><time>2026-08-31T12:40:24Z</time></trkpt><trkpt lat="59.6489910688" lon="30.7391116675"><ele>9080.27</ele><time>2026-08-31T12:40:25Z</time></trkpt><trkpt lat="59.6489950921" lon="30.7391077280"><ele>9075.46</ele><time>2026-08-31T12:40:26Z</time></trkpt><trkpt lat="59.6489972714" lon="30.7391050458"><ele>9070.18</ele><time>2026-08-31T12:40:27Z</time></trkpt><trkpt lat="59.6489981934" lon="30.7391038723"><ele>9065.37</ele><time>2026-08-31T12:40:28Z</time></trkpt><trkpt lat="59.6489989478" lon="30.7391032856"><ele>9060.08</ele><time>2026-08-31T12:40:29Z</time></trkpt><trkpt lat="59.6490002051" lon="30.7391014416"><ele>9055.28</ele><time>2026-08-31T12:40:30Z</time></trkpt><trkpt lat="59.6490010433" lon="30.7390995137"><ele>9050.47</ele><time>2026-08-31T12:40:31Z</time></trkpt><trkpt lat="59.6490022168" lon="30.7390959095"><ele>9045.18</ele><time>2026-08-31T12:40:32Z</time></trkpt><trkpt lat="59.6489990316" lon="30.7390892878"><ele>9040.38</ele><time>2026-08-31T12:40:33Z</time></trkpt><trkpt lat="59.6490069106" lon="30.7390830852"><ele>9035.09</ele><time>2026-08-31T12:40:34Z</time></trkpt><trkpt lat="59.6490075812" lon="30.7390818279"><ele>9030.28</ele><time>2026-08-31T12:40:35Z</time></trkpt><trkpt lat="59.6490074974" lon="30.7390811574"><ele>9024.99</ele><time>2026-08-31T12:40:36Z</time></trkpt><trkpt lat="59.6490073297" lon="30.7390809897"><ele>9020.19</ele><time>2026-08-31T12:40:37Z</time></trkpt><trkpt lat="59.6490070783" lon="30.7390807383"><ele>9015.38</ele><time>2026-08-31T12:40:38Z</time></trkpt><trkpt lat="59.6490064915" lon="30.7390795648"><ele>9010.09</ele><time>2026-08-31T12:40:39Z</time></trkpt><trkpt lat="59.6490057372" lon="30.7390761282"><ele>9005.29</ele><time>2026-08-31T12:40:40Z</time></trkpt><trkpt lat="59.6490057372" lon="30.7390748709"><ele>9000.48</ele><time>2026-08-31T12:40:41Z</time></trkpt><trkpt lat="59.6490059886" lon="30.7390737813"><ele>8995.19</ele><time>2026-08-31T12:40:42Z</time></trkpt><trkpt lat="59.6490057372" lon="30.7390733622"><ele>8990.39</ele><time>2026-08-31T12:40:43Z</time></trkpt><trkpt lat="59.6490030549" lon="30.7390719373"><ele>8985.10</ele><time>2026-08-31T12:40:44Z</time></trkpt><trkpt lat="59.6490009595" lon="30.7390746195"><ele>8980.29</ele><time>2026-08-31T12:40:45Z</time></trkpt><trkpt lat="59.6490039770" lon="30.7390682492"><ele>8975.49</ele><time>2026-08-31T12:40:46Z</time></trkpt><trkpt lat="59.6490040608" lon="30.7390657347"><ele>8970.20</ele><time>2026-08-31T12:40:47Z</time></trkpt><trkpt lat="59.6490075812" lon="30.7390582748"><ele>8965.39</ele><time>2026-08-31T12:40:48Z</time></trkpt><trkpt lat="59.6490070783" lon="30.7390525751"><ele>8960.59</ele><time>2026-08-31T12:40:49Z</time></trkpt><trkpt lat="59.6490099281" lon="30.7390472945"><ele>8955.30</ele><time>2026-08-31T12:40:50Z</time></trkpt><trkpt lat="59.6490133647" lon="30.7390389964"><ele>8950.49</ele><time>2026-08-31T12:40:51Z</time></trkpt><trkpt lat="59.6490165498" lon="30.7390393317"><ele>8945.69</ele><time>2026-08-31T12:40:52Z</time></trkpt><trkpt lat="59.6490200702" lon="30.7390155271"><ele>8940.88</ele><time>2026-08-31T12:40:53Z</time></trkpt><trkpt lat="59.6490211599" lon="30.7390117552"><ele>8935.59</ele><time>2026-08-31T12:40:54Z</time></trkpt><trkpt lat="59.6490219980" lon="30.7390064746"><ele>8930.79</ele><time>2026-08-31T12:40:55Z</time></trkpt><trkpt lat="59.6490224171" lon="30.7390040439"><ele>8925.98</ele><time>2026-08-31T12:40:56Z</time></trkpt><trkpt lat="59.6490252670" lon="30.7389998529"><ele>8920.69</ele><time>2026-08-31T12:40:57Z</time></trkpt><trkpt lat="59.6490266919" lon="30.7389998529"><ele>8915.88</ele><time>2026-08-31T12:40:58Z</time></trkpt><trkpt lat="59.6490282845" lon="30.7390005235"><ele>8911.08</ele><time>2026-08-31T12:40:59Z</time></trkpt><trkpt lat="59.6490235906" lon="30.7390036248"><ele>8906.27</ele><time>2026-08-31T12:41:00Z</time></trkpt><trkpt lat="59.6490264405" lon="30.7390028704"><ele>8900.98</ele><time>2026-08-31T12:41:01Z</time></trkpt><trkpt lat="59.6490268596" lon="30.7390002720"><ele>8896.18</ele><time>2026-08-31T12:41:02Z</time></trkpt><trkpt lat="59.6490301285" lon="30.7389970869"><ele>8891.37</ele><time>2026-08-31T12:41:03Z</time></trkpt><trkpt lat="59.6490371693" lon="30.7390024513"><ele>8886.56</ele><time>2026-08-31T12:41:04Z</time></trkpt><trkpt lat="59.6490460541" lon="30.7390077319"><ele>8881.28</ele><time>2026-08-31T12:41:05Z</time></trkpt><trkpt lat="59.6490525082" lon="30.7390086539"><ele>8876.47</ele><time>2026-08-31T12:41:06Z</time></trkpt><trkpt lat="59.6490561124" lon="30.7390079834"><ele>8871.66</ele><time>2026-08-31T12:41:07Z</time></trkpt><trkpt lat="59.6490710322" lon="30.7390180416"><ele>8862.05</ele><time>2026-08-31T12:41:09Z</time></trkpt><trkpt lat="59.6490751393" lon="30.7390211429"><ele>8856.76</ele><time>2026-08-31T12:41:10Z</time></trkpt><trkpt lat="59.6490778215" lon="30.7390174549"><ele>8851.96</ele><time>2026-08-31T12:41:11Z</time></trkpt><trkpt lat="59.6490789112" lon="30.7390189636"><ele>8847.15</ele><time>2026-08-31T12:41:12Z</time></trkpt><trkpt lat="59.6490805037" lon="30.7390220650"><ele>8842.34</ele><time>2026-08-31T12:41:13Z</time></trkpt><trkpt lat="59.6490851138" lon="30.7390215620"><ele>8837.54</ele><time>2026-08-31T12:41:14Z</time></trkpt><trkpt lat="59.6490856167" lon="30.7390177064"><ele>8832.25</ele><time>2026-08-31T12:41:15Z</time></trkpt><trkpt lat="59.6490836050" lon="30.7390233222"><ele>8827.44</ele><time>2026-08-31T12:41:16Z</time></trkpt><trkpt lat="59.6490821801" lon="30.7390203048"><ele>8822.64</ele><time>2026-08-31T12:41:17Z</time></trkpt><trkpt lat="59.6490830183" lon="30.7390196342"><ele>8817.83</ele><time>2026-08-31T12:41:18Z</time></trkpt><trkpt lat="59.6490828507" lon="30.7390178740"><ele>8813.02</ele><time>2026-08-31T12:41:19Z</time></trkpt><trkpt lat="59.6490741335" lon="30.7390208915"><ele>8808.22</ele><time>2026-08-31T12:41:20Z</time></trkpt><trkpt lat="59.6490676794" lon="30.7390213944"><ele>8802.93</ele><time>2026-08-31T12:41:21Z</time></trkpt><trkpt lat="59.6490605548" lon="30.7390291896"><ele>8798.12</ele><time>2026-08-31T12:41:22Z</time></trkpt><trkpt lat="59.6490541846" lon="30.7390416786"><ele>8793.32</ele><time>2026-08-31T12:41:23Z</time></trkpt><trkpt lat="59.6490481496" lon="30.7390415110"><ele>8788.51</ele><time>2026-08-31T12:41:24Z</time></trkpt><trkpt lat="59.6490477305" lon="30.7390415110"><ele>8783.70</ele><time>2026-08-31T12:41:25Z</time></trkpt><trkpt lat="59.6490471438" lon="30.7390365656"><ele>8778.90</ele><time>2026-08-31T12:41:26Z</time></trkpt><trkpt lat="59.6490477305" lon="30.7390422653"><ele>8774.09</ele><time>2026-08-31T12:41:27Z</time></trkpt><trkpt lat="59.6490472276" lon="30.7390435226"><ele>8769.28</ele><time>2026-08-31T12:41:28Z</time></trkpt><trkpt lat="59.6490454674" lon="30.7390560955"><ele>8764.48</ele><time>2026-08-31T12:41:29Z</time></trkpt><trkpt lat="59.6490408573" lon="30.7390648127"><ele>8759.19</ele><time>2026-08-31T12:41:30Z</time></trkpt><trkpt lat="59.6490366664" lon="30.7390691712"><ele>8754.38</ele><time>2026-08-31T12:41:31Z</time></trkpt><trkpt lat="59.6490368340" lon="30.7390695903"><ele>8749.58</ele><time>2026-08-31T12:41:32Z</time></trkpt><trkpt lat="59.6490371693" lon="30.7390680816"><ele>8744.77</ele><time>2026-08-31T12:41:33Z</time></trkpt><trkpt lat="59.6490363311" lon="30.7390694227"><ele>8739.96</ele><time>2026-08-31T12:41:34Z</time></trkpt><trkpt lat="59.6490384266" lon="30.7390677463"><ele>8735.16</ele><time>2026-08-31T12:41:35Z</time></trkpt><trkpt lat="59.6490362473" lon="30.7390676625"><ele>8730.35</ele><time>2026-08-31T12:41:36Z</time></trkpt><trkpt lat="59.6490361635" lon="30.7390676625"><ele>8725.54</ele><time>2026-08-31T12:41:37Z</time></trkpt><trkpt lat="59.6490367502" lon="30.7390602026"><ele>8720.74</ele><time>2026-08-31T12:41:38Z</time></trkpt><trkpt lat="59.6490356605" lon="30.7390671596"><ele>8715.93</ele><time>2026-08-31T12:41:39Z</time></trkpt><trkpt lat="59.6490354091" lon="30.7390669920"><ele>8711.12</ele><time>2026-08-31T12:41:40Z</time></trkpt><trkpt lat="59.6490346547" lon="30.7390667405"><ele>8706.32</ele><time>2026-08-31T12:41:41Z</time></trkpt><trkpt lat="59.6490339842" lon="30.7390662376"><ele>8701.51</ele><time>2026-08-31T12:41:42Z</time></trkpt><trkpt lat="59.6490304638" lon="30.7390618790"><ele>8696.70</ele><time>2026-08-31T12:41:43Z</time></trkpt><trkpt lat="59.6490298770" lon="30.7390607055"><ele>8691.90</ele><time>2026-08-31T12:41:44Z</time></trkpt><trkpt lat="59.6490280330" lon="30.7390628010"><ele>8687.09</ele><time>2026-08-31T12:41:45Z</time></trkpt><trkpt lat="59.6490287874" lon="30.7390575204"><ele>8682.28</ele><time>2026-08-31T12:41:46Z</time></trkpt><trkpt lat="59.6490283683" lon="30.7390566822"><ele>8677.48</ele><time>2026-08-31T12:41:47Z</time></trkpt><trkpt lat="59.6490283683" lon="30.7390546706"><ele>8672.67</ele><time>2026-08-31T12:41:48Z</time></trkpt><trkpt lat="59.6490309667" lon="30.7390576880"><ele>8667.86</ele><time>2026-08-31T12:41:49Z</time></trkpt><trkpt lat="59.6490282845" lon="30.7390518207"><ele>8663.06</ele><time>2026-08-31T12:41:50Z</time></trkpt><trkpt lat="59.6490276977" lon="30.7390506472"><ele>8658.25</ele><time>2026-08-31T12:41:51Z</time></trkpt><trkpt lat="59.6490268596" lon="30.7390491385"><ele>8653.45</ele><time>2026-08-31T12:41:52Z</time></trkpt><trkpt lat="59.6490323916" lon="30.7390389964"><ele>8648.64</ele><time>2026-08-31T12:41:53Z</time></trkpt><trkpt lat="59.6490379237" lon="30.7390355598"><ele>8643.83</ele><time>2026-08-31T12:41:54Z</time></trkpt><trkpt lat="59.6490439586" lon="30.7390375715"><ele>8639.02</ele><time>2026-08-31T12:41:55Z</time></trkpt><trkpt lat="59.6490498260" lon="30.7390371524"><ele>8634.22</ele><time>2026-08-31T12:41:56Z</time></trkpt><trkpt lat="59.6490459703" lon="30.7390410081"><ele>8629.41</ele><time>2026-08-31T12:41:57Z</time></trkpt><trkpt lat="59.6490523405" lon="30.7390431874"><ele>8624.61</ele><time>2026-08-31T12:41:58Z</time></trkpt><trkpt lat="59.6490557771" lon="30.7390386611"><ele>8619.80</ele><time>2026-08-31T12:41:59Z</time></trkpt><trkpt lat="59.6490577888" lon="30.7390384935"><ele>8614.99</ele><time>2026-08-31T12:42:00Z</time></trkpt><trkpt lat="59.6490614768" lon="30.7390414272"><ele>8610.19</ele><time>2026-08-31T12:42:01Z</time></trkpt><trkpt lat="59.6490613092" lon="30.7390405051"><ele>8605.38</ele><time>2026-08-31T12:42:02Z</time></trkpt><trkpt lat="59.6490615606" lon="30.7390403375"><ele>8601.05</ele><time>2026-08-31T12:42:03Z</time></trkpt><trkpt lat="59.6490615606" lon="30.7390408404"><ele>8596.25</ele><time>2026-08-31T12:42:04Z</time></trkpt><trkpt lat="59.6490662545" lon="30.7390417624"><ele>8591.44</ele><time>2026-08-31T12:42:05Z</time></trkpt><trkpt lat="59.6490700264" lon="30.7390434388"><ele>8586.63</ele><time>2026-08-31T12:42:06Z</time></trkpt><trkpt lat="59.6490758937" lon="30.7390438579"><ele>8581.83</ele><time>2026-08-31T12:42:07Z</time></trkpt><trkpt lat="59.6490803361" lon="30.7390459534"><ele>8577.02</ele><time>2026-08-31T12:42:08Z</time></trkpt><trkpt lat="59.6490813419" lon="30.7390352245"><ele>8572.21</ele><time>2026-08-31T12:42:09Z</time></trkpt><trkpt lat="59.6490820125" lon="30.7390342187"><ele>8567.41</ele><time>2026-08-31T12:42:10Z</time></trkpt><trkpt lat="59.6490827668" lon="30.7390336320"><ele>8562.60</ele><time>2026-08-31T12:42:11Z</time></trkpt><trkpt lat="59.6490867063" lon="30.7390251663"><ele>8558.27</ele><time>2026-08-31T12:42:12Z</time></trkpt><trkpt lat="59.6490867063" lon="30.7390173711"><ele>8553.47</ele><time>2026-08-31T12:42:13Z</time></trkpt><trkpt lat="59.6490853652" lon="30.7390137669"><ele>8548.66</ele><time>2026-08-31T12:42:14Z</time></trkpt><trkpt lat="59.6490875445" lon="30.7390149403"><ele>8543.85</ele><time>2026-08-31T12:42:15Z</time></trkpt><trkpt lat="59.6490874607" lon="30.7390132640"><ele>8539.05</ele><time>2026-08-31T12:42:16Z</time></trkpt><trkpt lat="59.6490866225" lon="30.7390127610"><ele>8534.24</ele><time>2026-08-31T12:42:17Z</time></trkpt><trkpt lat="59.6490862034" lon="30.7390121743"><ele>8529.92</ele><time>2026-08-31T12:42:18Z</time></trkpt><trkpt lat="59.6490867063" lon="30.7390129287"><ele>8525.11</ele><time>2026-08-31T12:42:19Z</time></trkpt><trkpt lat="59.6490862034" lon="30.7390128449"><ele>8520.30</ele><time>2026-08-31T12:42:20Z</time></trkpt><trkpt lat="59.6490861196" lon="30.7390131801"><ele>8515.50</ele><time>2026-08-31T12:42:21Z</time></trkpt><trkpt lat="59.6490868740" lon="30.7390128449"><ele>8510.69</ele><time>2026-08-31T12:42:22Z</time></trkpt><trkpt lat="59.6490876283" lon="30.7390121743"><ele>8506.36</ele><time>2026-08-31T12:42:23Z</time></trkpt><trkpt lat="59.6490880474" lon="30.7390112523"><ele>8501.56</ele><time>2026-08-31T12:42:24Z</time></trkpt><trkpt lat="59.6490876283" lon="30.7390082348"><ele>8496.75</ele><time>2026-08-31T12:42:25Z</time></trkpt><trkpt lat="59.6490873769" lon="30.7390042115"><ele>8491.94</ele><time>2026-08-31T12:42:26Z</time></trkpt><trkpt lat="59.6490875445" lon="30.7390020322"><ele>8487.14</ele><time>2026-08-31T12:42:27Z</time></trkpt><trkpt lat="59.6490888018" lon="30.7390009426"><ele>8482.81</ele><time>2026-08-31T12:42:28Z</time></trkpt><trkpt lat="59.6490898915" lon="30.7390021160"><ele>8478.00</ele><time>2026-08-31T12:42:29Z</time></trkpt><trkpt lat="59.6490904782" lon="30.7390016131"><ele>8473.20</ele><time>2026-08-31T12:42:30Z</time></trkpt><trkpt lat="59.6490907297" lon="30.7390009426"><ele>8468.39</ele><time>2026-08-31T12:42:31Z</time></trkpt><trkpt lat="59.6490907297" lon="30.7389998529"><ele>8464.07</ele><time>2026-08-31T12:42:32Z</time></trkpt><trkpt lat="59.6490903944" lon="30.7389990985"><ele>8459.26</ele><time>2026-08-31T12:42:33Z</time></trkpt><trkpt lat="59.6490937471" lon="30.7389933150"><ele>8454.45</ele><time>2026-08-31T12:42:34Z</time></trkpt><trkpt lat="59.6490965970" lon="30.7389829215"><ele>8449.64</ele><time>2026-08-31T12:42:35Z</time></trkpt><trkpt lat="59.6490981057" lon="30.7389722764"><ele>8445.32</ele><time>2026-08-31T12:42:36Z</time></trkpt><trkpt lat="59.6490991116" lon="30.7389702648"><ele>8440.51</ele><time>2026-08-31T12:42:37Z</time></trkpt><trkpt lat="59.6491049789" lon="30.7389651518"><ele>8435.71</ele><time>2026-08-31T12:42:38Z</time></trkpt><trkpt lat="59.6491061524" lon="30.7389635593"><ele>8431.38</ele><time>2026-08-31T12:42:39Z</time></trkpt><trkpt lat="59.6491137799" lon="30.7389498129"><ele>8426.57</ele><time>2026-08-31T12:42:40Z</time></trkpt><trkpt lat="59.6491217427" lon="30.7389418501"><ele>8421.77</ele><time>2026-08-31T12:42:41Z</time></trkpt><trkpt lat="59.6491318848" lon="30.7389324624"><ele>8416.96</ele><time>2026-08-31T12:42:42Z</time></trkpt><trkpt lat="59.6491414402" lon="30.7389255892"><ele>8412.63</ele><time>2026-08-31T12:42:43Z</time></trkpt><trkpt lat="59.6491463855" lon="30.7389270980"><ele>8407.83</ele><time>2026-08-31T12:42:44Z</time></trkpt><trkpt lat="59.6491483133" lon="30.7389163692"><ele>8403.02</ele><time>2026-08-31T12:42:45Z</time></trkpt><trkpt lat="59.6491469722" lon="30.7389102504"><ele>8398.70</ele><time>2026-08-31T12:42:46Z</time></trkpt><trkpt lat="59.6491494030" lon="30.7389037963"><ele>8393.89</ele><time>2026-08-31T12:42:47Z</time></trkpt><trkpt lat="59.6491530072" lon="30.7389050536"><ele>8389.08</ele><time>2026-08-31T12:42:48Z</time></trkpt><trkpt lat="59.6491576172" lon="30.7388869487"><ele>8384.76</ele><time>2026-08-31T12:42:49Z</time></trkpt><trkpt lat="59.6491590422" lon="30.7388833445"><ele>8379.95</ele><time>2026-08-31T12:42:50Z</time></trkpt><trkpt lat="59.6491701063" lon="30.7388730347"><ele>8375.14</ele><time>2026-08-31T12:42:51Z</time></trkpt><trkpt lat="59.6491808351" lon="30.7388684247"><ele>8370.82</ele><time>2026-08-31T12:42:52Z</time></trkpt><trkpt lat="59.6491818409" lon="30.7388693467"><ele>8366.01</ele><time>2026-08-31T12:42:53Z</time></trkpt><trkpt lat="59.6491931565" lon="30.7388654910"><ele>8361.68</ele><time>2026-08-31T12:42:54Z</time></trkpt><trkpt lat="59.6491995268" lon="30.7388621382"><ele>8356.88</ele><time>2026-08-31T12:42:55Z</time></trkpt><trkpt lat="59.6492046397" lon="30.7388556842"><ele>8352.07</ele><time>2026-08-31T12:42:56Z</time></trkpt><trkpt lat="59.6492058132" lon="30.7388548460"><ele>8347.75</ele><time>2026-08-31T12:42:57Z</time></trkpt><trkpt lat="59.6492142789" lon="30.7388463803"><ele>8342.94</ele><time>2026-08-31T12:42:58Z</time></trkpt><trkpt lat="59.6492237505" lon="30.7388335560"><ele>8338.13</ele><time>2026-08-31T12:42:59Z</time></trkpt><trkpt lat="59.6492345631" lon="30.7388336398"><ele>8333.81</ele><time>2026-08-31T12:43:00Z</time></trkpt><trkpt lat="59.6492405981" lon="30.7388341427"><ele>8329.00</ele><time>2026-08-31T12:43:01Z</time></trkpt><trkpt lat="59.6492458787" lon="30.7388297003"><ele>8324.67</ele><time>2026-08-31T12:43:02Z</time></trkpt><trkpt lat="59.6492468007" lon="30.7388306223"><ele>8319.87</ele><time>2026-08-31T12:43:03Z</time></trkpt><trkpt lat="59.6492490638" lon="30.7388238329"><ele>8315.54</ele><time>2026-08-31T12:43:04Z</time></trkpt><trkpt lat="59.6492515784" lon="30.7388131879"><ele>8310.73</ele><time>2026-08-31T12:43:05Z</time></trkpt><trkpt lat="59.6492524166" lon="30.7388114277"><ele>8305.93</ele><time>2026-08-31T12:43:06Z</time></trkpt><trkpt lat="59.6492533386" lon="30.7388094161"><ele>8301.60</ele><time>2026-08-31T12:43:07Z</time></trkpt><trkpt lat="59.6492504887" lon="30.7388043031"><ele>8296.80</ele><time>2026-08-31T12:43:08Z</time></trkpt><trkpt lat="59.6492578648" lon="30.7387913950"><ele>8292.47</ele><time>2026-08-31T12:43:09Z</time></trkpt><trkpt lat="59.6492587868" lon="30.7387897186"><ele>8287.66</ele><time>2026-08-31T12:43:10Z</time></trkpt><trkpt lat="59.6492597926" lon="30.7387873717"><ele>8283.34</ele><time>2026-08-31T12:43:11Z</time></trkpt><trkpt lat="59.6492620558" lon="30.7387734577"><ele>8278.53</ele><time>2026-08-31T12:43:12Z</time></trkpt><trkpt lat="59.6492648218" lon="30.7387665845"><ele>8274.21</ele><time>2026-08-31T12:43:13Z</time></trkpt><trkpt lat="59.6492676716" lon="30.7387691829"><ele>8269.40</ele><time>2026-08-31T12:43:14Z</time></trkpt><trkpt lat="59.6492690966" lon="30.7387627289"><ele>8265.07</ele><time>2026-08-31T12:43:15Z</time></trkpt><trkpt lat="59.6492687613" lon="30.7387587056"><ele>8260.27</ele><time>2026-08-31T12:43:16Z</time></trkpt><trkpt lat="59.6492709406" lon="30.7387622260"><ele>8255.94</ele><time>2026-08-31T12:43:17Z</time></trkpt><trkpt lat="59.6492717788" lon="30.7387618907"><ele>8251.13</ele><time>2026-08-31T12:43:18Z</time></trkpt><trkpt lat="59.6492709406" lon="30.7387550175"><ele>8246.81</ele><time>2026-08-31T12:43:19Z</time></trkpt><trkpt lat="59.6492758859" lon="30.7387473900"><ele>8242.00</ele><time>2026-08-31T12:43:20Z</time></trkpt><trkpt lat="59.6492754668" lon="30.7387434505"><ele>8237.67</ele><time>2026-08-31T12:43:21Z</time></trkpt><trkpt lat="59.6492790710" lon="30.7387414388"><ele>8232.87</ele><time>2026-08-31T12:43:22Z</time></trkpt><trkpt lat="59.6492801607" lon="30.7387393434"><ele>8228.54</ele><time>2026-08-31T12:43:23Z</time></trkpt><trkpt lat="59.6492812503" lon="30.7387372479"><ele>8223.74</ele><time>2026-08-31T12:43:24Z</time></trkpt><trkpt lat="59.6492836811" lon="30.7387341466"><ele>8219.41</ele><time>2026-08-31T12:43:25Z</time></trkpt><trkpt lat="59.6492926497" lon="30.7387267705"><ele>8214.60</ele><time>2026-08-31T12:43:26Z</time></trkpt><trkpt lat="59.6492939908" lon="30.7387255132"><ele>8210.28</ele><time>2026-08-31T12:43:27Z</time></trkpt><trkpt lat="59.6492957510" lon="30.7387254294"><ele>8205.47</ele><time>2026-08-31T12:43:28Z</time></trkpt><trkpt lat="59.6493046358" lon="30.7387145329"><ele>8205.47</ele><time>2026-08-31T12:43:29Z</time></trkpt><trkpt lat="59.6493128501" lon="30.7387100905"><ele>8196.82</ele><time>2026-08-31T12:43:30Z</time></trkpt><trkpt lat="59.6493190527" lon="30.7387062348"><ele>8192.01</ele><time>2026-08-31T12:43:31Z</time></trkpt><trkpt lat="59.6493247524" lon="30.7387055643"><ele>8187.69</ele><time>2026-08-31T12:43:32Z</time></trkpt><trkpt lat="59.6493305359" lon="30.7387041394"><ele>8182.88</ele><time>2026-08-31T12:43:33Z</time></trkpt><trkpt lat="59.6493366547" lon="30.7386996970"><ele>8178.55</ele><time>2026-08-31T12:43:34Z</time></trkpt><trkpt lat="59.6493371576" lon="30.7386960089"><ele>8173.75</ele><time>2026-08-31T12:43:35Z</time></trkpt><trkpt lat="59.6493374929" lon="30.7386965957"><ele>8169.42</ele><time>2026-08-31T12:43:36Z</time></trkpt><trkpt lat="59.6493384149" lon="30.7386954222"><ele>8165.09</ele><time>2026-08-31T12:43:37Z</time></trkpt><trkpt lat="59.6493392531" lon="30.7386932429"><ele>8160.29</ele><time>2026-08-31T12:43:38Z</time></trkpt><trkpt lat="59.6493469644" lon="30.7386818435"><ele>8155.96</ele><time>2026-08-31T12:43:39Z</time></trkpt><trkpt lat="59.6493489761" lon="30.7386803348"><ele>8151.16</ele><time>2026-08-31T12:43:40Z</time></trkpt><trkpt lat="59.6493488085" lon="30.7386788260"><ele>8146.83</ele><time>2026-08-31T12:43:41Z</time></trkpt><trkpt lat="59.6493490599" lon="30.7386772335"><ele>8142.50</ele><time>2026-08-31T12:43:42Z</time></trkpt><trkpt lat="59.6493499819" lon="30.7386755571"><ele>8137.70</ele><time>2026-08-31T12:43:43Z</time></trkpt><trkpt lat="59.6493517421" lon="30.7386731263"><ele>8133.37</ele><time>2026-08-31T12:43:44Z</time></trkpt><trkpt lat="59.6493649017" lon="30.7386626489"><ele>8129.04</ele><time>2026-08-31T12:43:45Z</time></trkpt><trkpt lat="59.6493773907" lon="30.7386522554"><ele>8124.24</ele><time>2026-08-31T12:43:46Z</time></trkpt><trkpt lat="59.6493873652" lon="30.7386423647"><ele>8119.91</ele><time>2026-08-31T12:43:47Z</time></trkpt><trkpt lat="59.6493897960" lon="30.7386395149"><ele>8115.59</ele><time>2026-08-31T12:43:48Z</time></trkpt><trkpt lat="59.6493921429" lon="30.7386374194"><ele>8110.78</ele><time>2026-08-31T12:43:49Z</time></trkpt><trkpt lat="59.6493933164" lon="30.7386344858"><ele>8106.45</ele><time>2026-08-31T12:43:50Z</time></trkpt><trkpt lat="59.6493941545" lon="30.7386335637"><ele>8102.13</ele><time>2026-08-31T12:43:51Z</time></trkpt><trkpt lat="59.6493942384" lon="30.7386323065"><ele>8097.32</ele><time>2026-08-31T12:43:52Z</time></trkpt><trkpt lat="59.6493963338" lon="30.7386312168"><ele>8093.00</ele><time>2026-08-31T12:43:53Z</time></trkpt><trkpt lat="59.6493957471" lon="30.7386274450"><ele>8088.67</ele><time>2026-08-31T12:43:54Z</time></trkpt><trkpt lat="59.6493956633" lon="30.7386227511"><ele>8083.86</ele><time>2026-08-31T12:43:55Z</time></trkpt><trkpt lat="59.6493995190" lon="30.7386226673"><ele>8079.54</ele><time>2026-08-31T12:43:56Z</time></trkpt><trkpt lat="59.6494112536" lon="30.7386074122"><ele>8075.21</ele><time>2026-08-31T12:43:57Z</time></trkpt><trkpt lat="59.6494147740" lon="30.7386081666"><ele>8070.41</ele><time>2026-08-31T12:43:58Z</time></trkpt><trkpt lat="59.6494258381" lon="30.7385974377"><ele>8066.08</ele><time>2026-08-31T12:43:59Z</time></trkpt><trkpt lat="59.6494391654" lon="30.7385867927"><ele>8057.43</ele><time>2026-08-31T12:44:01Z</time></trkpt><trkpt lat="59.6494391654" lon="30.7385738008"><ele>8052.62</ele><time>2026-08-31T12:44:02Z</time></trkpt><trkpt lat="59.6494427696" lon="30.7385695260"><ele>8048.29</ele><time>2026-08-31T12:44:03Z</time></trkpt><trkpt lat="59.6494448651" lon="30.7385566179"><ele>8043.97</ele><time>2026-08-31T12:44:04Z</time></trkpt><trkpt lat="59.6494452003" lon="30.7385515887"><ele>8039.64</ele><time>2026-08-31T12:44:05Z</time></trkpt><trkpt lat="59.6494487207" lon="30.7385515049"><ele>8034.84</ele><time>2026-08-31T12:44:06Z</time></trkpt><trkpt lat="59.6494613774" lon="30.7385377586"><ele>8030.51</ele><time>2026-08-31T12:44:07Z</time></trkpt><trkpt lat="59.6494726930" lon="30.7385195699"><ele>8026.18</ele><time>2026-08-31T12:44:08Z</time></trkpt><trkpt lat="59.6494803205" lon="30.7385100145"><ele>8021.86</ele><time>2026-08-31T12:44:09Z</time></trkpt><trkpt lat="59.6494886186" lon="30.7385007106"><ele>8017.05</ele><time>2026-08-31T12:44:10Z</time></trkpt><trkpt lat="59.6494998503" lon="30.7384854555"><ele>8012.73</ele><time>2026-08-31T12:44:11Z</time></trkpt><trkpt lat="59.6495162789" lon="30.7384655066"><ele>8008.40</ele><time>2026-08-31T12:44:12Z</time></trkpt><trkpt lat="59.6495306119" lon="30.7384552807"><ele>8004.07</ele><time>2026-08-31T12:44:13Z</time></trkpt><trkpt lat="59.6495440230" lon="30.7384524308"><ele>7999.75</ele><time>2026-08-31T12:44:14Z</time></trkpt><trkpt lat="59.6495557576" lon="30.7384457253"><ele>7994.94</ele><time>2026-08-31T12:44:15Z</time></trkpt><trkpt lat="59.6495606191" lon="30.7384361699"><ele>7990.62</ele><time>2026-08-31T12:44:16Z</time></trkpt><trkpt lat="59.6495631337" lon="30.7384282909"><ele>7986.29</ele><time>2026-08-31T12:44:17Z</time></trkpt><trkpt lat="59.6495635528" lon="30.7384266146"><ele>7981.96</ele><time>2026-08-31T12:44:18Z</time></trkpt><trkpt lat="59.6495667379" lon="30.7384264469"><ele>7977.64</ele><time>2026-08-31T12:44:19Z</time></trkpt><trkpt lat="59.6495674085" lon="30.7384275366"><ele>7972.83</ele><time>2026-08-31T12:44:20Z</time></trkpt><trkpt lat="59.6495688334" lon="30.7384259440"><ele>7968.51</ele><time>2026-08-31T12:44:21Z</time></trkpt><trkpt lat="59.6495716833" lon="30.7384254411"><ele>7964.18</ele><time>2026-08-31T12:44:22Z</time></trkpt><trkpt lat="59.6495809872" lon="30.7384224236"><ele>7959.85</ele><time>2026-08-31T12:44:23Z</time></trkpt><trkpt lat="59.6495823283" lon="30.7384214178"><ele>7955.53</ele><time>2026-08-31T12:44:24Z</time></trkpt><trkpt lat="59.6495954040" lon="30.7384105213"><ele>7951.20</ele><time>2026-08-31T12:44:25Z</time></trkpt><trkpt lat="59.6496060491" lon="30.7383984514"><ele>7946.40</ele><time>2026-08-31T12:44:26Z</time></trkpt><trkpt lat="59.6496171970" lon="30.7383708749"><ele>7937.74</ele><time>2026-08-31T12:44:28Z</time></trkpt><trkpt lat="59.6496276744" lon="30.7383586373"><ele>7933.42</ele><time>2026-08-31T12:44:29Z</time></trkpt><trkpt lat="59.6496381517" lon="30.7383514289"><ele>7929.09</ele><time>2026-08-31T12:44:30Z</time></trkpt><trkpt lat="59.6496474557" lon="30.7383443043"><ele>7924.76</ele><time>2026-08-31T12:44:31Z</time></trkpt><trkpt lat="59.6496544965" lon="30.7383347489"><ele>7920.44</ele><time>2026-08-31T12:44:32Z</time></trkpt><trkpt lat="59.6496555861" lon="30.7383324020"><ele>7916.11</ele><time>2026-08-31T12:44:33Z</time></trkpt><trkpt lat="59.6496567596" lon="30.7383271214"><ele>7911.31</ele><time>2026-08-31T12:44:34Z</time></trkpt><trkpt lat="59.6496617887" lon="30.7383199967"><ele>7906.98</ele><time>2026-08-31T12:44:35Z</time></trkpt><trkpt lat="59.6496661473" lon="30.7383199129"><ele>7902.66</ele><time>2026-08-31T12:44:36Z</time></trkpt><trkpt lat="59.6496713441" lon="30.7383133750"><ele>7898.33</ele><time>2026-08-31T12:44:37Z</time></trkpt><trkpt lat="59.6496803127" lon="30.7383076753"><ele>7894.00</ele><time>2026-08-31T12:44:38Z</time></trkpt><trkpt lat="59.6496875212" lon="30.7383005507"><ele>7889.68</ele><time>2026-08-31T12:44:39Z</time></trkpt><trkpt lat="59.6496894490" lon="30.7383001316"><ele>7885.35</ele><time>2026-08-31T12:44:40Z</time></trkpt><trkpt lat="59.6496918797" lon="30.7382971141"><ele>7881.03</ele><time>2026-08-31T12:44:41Z</time></trkpt><trkpt lat="59.6496972442" lon="30.7382858824"><ele>7876.70</ele><time>2026-08-31T12:44:42Z</time></trkpt><trkpt lat="59.6496995911" lon="30.7382830326"><ele>7872.37</ele><time>2026-08-31T12:44:43Z</time></trkpt><trkpt lat="59.6496984176" lon="30.7382861339"><ele>7868.05</ele><time>2026-08-31T12:44:44Z</time></trkpt><trkpt lat="59.6496994235" lon="30.7382837031"><ele>7863.72</ele><time>2026-08-31T12:44:45Z</time></trkpt><trkpt lat="59.6496997587" lon="30.7382822782"><ele>7859.40</ele><time>2026-08-31T12:44:46Z</time></trkpt><trkpt lat="59.6497048717" lon="30.7382695377"><ele>7855.07</ele><time>2026-08-31T12:44:47Z</time></trkpt><trkpt lat="59.6497062966" lon="30.7382680289"><ele>7850.74</ele><time>2026-08-31T12:44:48Z</time></trkpt><trkpt lat="59.6497051232" lon="30.7382564619"><ele>7845.94</ele><time>2026-08-31T12:44:49Z</time></trkpt><trkpt lat="59.6497053746" lon="30.7382536121"><ele>7841.61</ele><time>2026-08-31T12:44:50Z</time></trkpt><trkpt lat="59.6497049555" lon="30.7382493373"><ele>7837.29</ele><time>2026-08-31T12:44:51Z</time></trkpt><trkpt lat="59.6497072186" lon="30.7382497564"><ele>7832.96</ele><time>2026-08-31T12:44:52Z</time></trkpt><trkpt lat="59.6497081406" lon="30.7382442243"><ele>7828.63</ele><time>2026-08-31T12:44:53Z</time></trkpt><trkpt lat="59.6497130021" lon="30.7382389437"><ele>7824.31</ele><time>2026-08-31T12:44:54Z</time></trkpt><trkpt lat="59.6497136727" lon="30.7382380217"><ele>7819.98</ele><time>2026-08-31T12:44:55Z</time></trkpt><trkpt lat="59.6497145947" lon="30.7382376865"><ele>7815.66</ele><time>2026-08-31T12:44:56Z</time></trkpt><trkpt lat="59.6497212164" lon="30.7382411230"><ele>7811.33</ele><time>2026-08-31T12:44:57Z</time></trkpt><trkpt lat="59.6497247368" lon="30.7382403687"><ele>7807.00</ele><time>2026-08-31T12:44:58Z</time></trkpt><trkpt lat="59.6497298498" lon="30.7382390276"><ele>7802.68</ele><time>2026-08-31T12:44:59Z</time></trkpt><trkpt lat="59.6497274190" lon="30.7382381894"><ele>7798.35</ele><time>2026-08-31T12:45:00Z</time></trkpt><trkpt lat="59.6497332864" lon="30.7382331602"><ele>7794.51</ele><time>2026-08-31T12:45:01Z</time></trkpt><trkpt lat="59.6497427579" lon="30.7382189110"><ele>7790.18</ele><time>2026-08-31T12:45:02Z</time></trkpt><trkpt lat="59.6497543249" lon="30.7382061705"><ele>7785.85</ele><time>2026-08-31T12:45:03Z</time></trkpt><trkpt lat="59.6497648861" lon="30.7381960284"><ele>7781.53</ele><time>2026-08-31T12:45:04Z</time></trkpt><trkpt lat="59.6497744415" lon="30.7381872274"><ele>7777.20</ele><time>2026-08-31T12:45:05Z</time></trkpt><trkpt lat="59.6497850865" lon="30.7381778397"><ele>7772.88</ele><time>2026-08-31T12:45:06Z</time></trkpt><trkpt lat="59.6497917920" lon="30.7381663565"><ele>7768.55</ele><time>2026-08-31T12:45:07Z</time></trkpt><trkpt lat="59.6497959830" lon="30.7381511852"><ele>7764.23</ele><time>2026-08-31T12:45:08Z</time></trkpt><trkpt lat="59.6497973241" lon="30.7381501794"><ele>7759.90</ele><time>2026-08-31T12:45:09Z</time></trkpt><trkpt lat="59.6497987490" lon="30.7381472457"><ele>7755.57</ele><time>2026-08-31T12:45:10Z</time></trkpt><trkpt lat="59.6498029400" lon="30.7381381094"><ele>7751.25</ele><time>2026-08-31T12:45:11Z</time></trkpt><trkpt lat="59.6498078853" lon="30.7381415460"><ele>7746.92</ele><time>2026-08-31T12:45:12Z</time></trkpt><trkpt lat="59.6498084720" lon="30.7381405402"><ele>7742.59</ele><time>2026-08-31T12:45:13Z</time></trkpt><trkpt lat="59.6498172730" lon="30.7381277159"><ele>7738.27</ele><time>2026-08-31T12:45:14Z</time></trkpt><trkpt lat="59.6498198714" lon="30.7381282188"><ele>7733.94</ele><time>2026-08-31T12:45:15Z</time></trkpt><trkpt lat="59.6498202905" lon="30.7381231897"><ele>7730.10</ele><time>2026-08-31T12:45:16Z</time></trkpt><trkpt lat="59.6498216316" lon="30.7381211780"><ele>7725.77</ele><time>2026-08-31T12:45:17Z</time></trkpt><trkpt lat="59.6498227213" lon="30.7381166518"><ele>7721.45</ele><time>2026-08-31T12:45:18Z</time></trkpt><trkpt lat="59.6498227213" lon="30.7381128799"><ele>7717.12</ele><time>2026-08-31T12:45:19Z</time></trkpt><trkpt lat="59.6498238109" lon="30.7381087728"><ele>7712.79</ele><time>2026-08-31T12:45:20Z</time></trkpt><trkpt lat="59.6498259064" lon="30.7381107844"><ele>7708.47</ele><time>2026-08-31T12:45:21Z</time></trkpt><trkpt lat="59.6498243138" lon="30.7381060906"><ele>7704.14</ele><time>2026-08-31T12:45:22Z</time></trkpt><trkpt lat="59.6498259064" lon="30.7380963676"><ele>7699.82</ele><time>2026-08-31T12:45:23Z</time></trkpt><trkpt lat="59.6498234756" lon="30.7380958647"><ele>7695.97</ele><time>2026-08-31T12:45:24Z</time></trkpt><trkpt lat="59.6498274989" lon="30.7380934339"><ele>7691.65</ele><time>2026-08-31T12:45:25Z</time></trkpt><trkpt lat="59.6498286724" lon="30.7380912546"><ele>7687.32</ele><time>2026-08-31T12:45:26Z</time></trkpt><trkpt lat="59.6498290077" lon="30.7380896620"><ele>7682.99</ele><time>2026-08-31T12:45:27Z</time></trkpt><trkpt lat="59.6498366352" lon="30.7380833756"><ele>7678.67</ele><time>2026-08-31T12:45:28Z</time></trkpt><trkpt lat="59.6498424187" lon="30.7380814478"><ele>7674.34</ele><time>2026-08-31T12:45:29Z</time></trkpt><trkpt lat="59.6498482861" lon="30.7380779274"><ele>7670.02</ele><time>2026-08-31T12:45:30Z</time></trkpt><trkpt lat="59.6498491243" lon="30.7380773406"><ele>7666.17</ele><time>2026-08-31T12:45:31Z</time></trkpt><trkpt lat="59.6498570871" lon="30.7380721439"><ele>7661.84</ele><time>2026-08-31T12:45:32Z</time></trkpt><trkpt lat="59.6498670615" lon="30.7380609959"><ele>7657.52</ele><time>2026-08-31T12:45:33Z</time></trkpt><trkpt lat="59.6498761978" lon="30.7380468305"><ele>7653.19</ele><time>2026-08-31T12:45:34Z</time></trkpt><trkpt lat="59.6498827357" lon="30.7380385324"><ele>7648.87</ele><time>2026-08-31T12:45:35Z</time></trkpt><trkpt lat="59.6498867590" lon="30.7380288932"><ele>7645.02</ele><time>2026-08-31T12:45:36Z</time></trkpt><trkpt lat="59.6498906147" lon="30.7380202599"><ele>7640.70</ele><time>2026-08-31T12:45:37Z</time></trkpt><trkpt lat="59.6498968173" lon="30.7380136382"><ele>7636.37</ele><time>2026-08-31T12:45:38Z</time></trkpt><trkpt lat="59.6498986613" lon="30.7380140573"><ele>7632.04</ele><time>2026-08-31T12:45:39Z</time></trkpt><trkpt lat="59.6499001700" lon="30.7380130515"><ele>7627.72</ele><time>2026-08-31T12:45:40Z</time></trkpt><trkpt lat="59.6499014273" lon="30.7380128838"><ele>7623.87</ele><time>2026-08-31T12:45:41Z</time></trkpt><trkpt lat="59.6499088034" lon="30.7380039990"><ele>7619.55</ele><time>2026-08-31T12:45:42Z</time></trkpt><trkpt lat="59.6499089710" lon="30.7379965391"><ele>7615.22</ele><time>2026-08-31T12:45:43Z</time></trkpt><trkpt lat="59.6499180235" lon="30.7379951142"><ele>7610.89</ele><time>2026-08-31T12:45:44Z</time></trkpt><trkpt lat="59.6499150060" lon="30.7379884087"><ele>7607.05</ele><time>2026-08-31T12:45:45Z</time></trkpt><trkpt lat="59.6499212924" lon="30.7379880734"><ele>7602.72</ele><time>2026-08-31T12:45:46Z</time></trkpt><trkpt lat="59.6499262378" lon="30.7379805297"><ele>7598.40</ele><time>2026-08-31T12:45:47Z</time></trkpt><trkpt lat="59.6499279141" lon="30.7379751652"><ele>7594.07</ele><time>2026-08-31T12:45:48Z</time></trkpt><trkpt lat="59.6499306802" lon="30.7379688788"><ele>7590.23</ele><time>2026-08-31T12:45:49Z</time></trkpt><trkpt lat="59.6499328595" lon="30.7379665319"><ele>7585.90</ele><time>2026-08-31T12:45:50Z</time></trkpt><trkpt lat="59.6499408223" lon="30.7379486784"><ele>7581.58</ele><time>2026-08-31T12:45:51Z</time></trkpt><trkpt lat="59.6499463543" lon="30.7379350998"><ele>7577.73</ele><time>2026-08-31T12:45:52Z</time></trkpt><trkpt lat="59.6499518864" lon="30.7379268017"><ele>7573.40</ele><time>2026-08-31T12:45:53Z</time></trkpt><trkpt lat="59.6499547362" lon="30.7379250415"><ele>7569.08</ele><time>2026-08-31T12:45:54Z</time></trkpt><trkpt lat="59.6499573346" lon="30.7379201800"><ele>7564.75</ele><time>2026-08-31T12:45:55Z</time></trkpt><trkpt lat="59.6499591786" lon="30.7379193418"><ele>7560.91</ele><time>2026-08-31T12:45:56Z</time></trkpt><trkpt lat="59.6499637049" lon="30.7379099540"><ele>7556.58</ele><time>2026-08-31T12:45:57Z</time></trkpt><trkpt lat="59.6499646269" lon="30.7379093673"><ele>7552.25</ele><time>2026-08-31T12:45:58Z</time></trkpt><trkpt lat="59.6499683149" lon="30.7379019074"><ele>7548.41</ele><time>2026-08-31T12:45:59Z</time></trkpt><trkpt lat="59.6499723382" lon="30.7378934417"><ele>7544.08</ele><time>2026-08-31T12:46:00Z</time></trkpt><trkpt lat="59.6499746013" lon="30.7378921006"><ele>7539.76</ele><time>2026-08-31T12:46:01Z</time></trkpt><trkpt lat="59.6499782056" lon="30.7378786057"><ele>7535.91</ele><time>2026-08-31T12:46:02Z</time></trkpt><trkpt lat="59.6499793790" lon="30.7378770970"><ele>7531.59</ele><time>2026-08-31T12:46:03Z</time></trkpt><trkpt lat="59.6499863360" lon="30.7378640212"><ele>7527.26</ele><time>2026-08-31T12:46:04Z</time></trkpt><trkpt lat="59.6499877609" lon="30.7378636021"><ele>7523.42</ele><time>2026-08-31T12:46:05Z</time></trkpt><trkpt lat="59.6499885991" lon="30.7378628477"><ele>7519.09</ele><time>2026-08-31T12:46:06Z</time></trkpt><trkpt lat="59.6499893535" lon="30.7378617581"><ele>7514.76</ele><time>2026-08-31T12:46:07Z</time></trkpt><trkpt lat="59.6499908622" lon="30.7378584053"><ele>7510.92</ele><time>2026-08-31T12:46:08Z</time></trkpt><trkpt lat="59.6499908622" lon="30.7378603332"><ele>7506.59</ele><time>2026-08-31T12:46:09Z</time></trkpt><trkpt lat="59.6499930415" lon="30.7378589921"><ele>7502.27</ele><time>2026-08-31T12:46:10Z</time></trkpt><trkpt lat="59.6499934606" lon="30.7378573157"><ele>7498.42</ele><time>2026-08-31T12:46:11Z</time></trkpt><trkpt lat="59.6499945503" lon="30.7378555555"><ele>7494.09</ele><time>2026-08-31T12:46:12Z</time></trkpt><trkpt lat="59.6499959752" lon="30.7378523704"><ele>7489.77</ele><time>2026-08-31T12:46:13Z</time></trkpt><trkpt lat="59.6499972325" lon="30.7378516998"><ele>7485.92</ele><time>2026-08-31T12:46:14Z</time></trkpt><trkpt lat="59.6499983221" lon="30.7378504425"><ele>7481.60</ele><time>2026-08-31T12:46:15Z</time></trkpt><trkpt lat="59.6499994956" lon="30.7378487661"><ele>7477.75</ele><time>2026-08-31T12:46:16Z</time></trkpt><trkpt lat="59.6500009205" lon="30.7378469221"><ele>7473.43</ele><time>2026-08-31T12:46:17Z</time></trkpt><trkpt lat="59.6500029322" lon="30.7378468383"><ele>7469.10</ele><time>2026-08-31T12:46:18Z</time></trkpt><trkpt lat="59.6500036027" lon="30.7378464192"><ele>7465.25</ele><time>2026-08-31T12:46:19Z</time></trkpt><trkpt lat="59.6500067879" lon="30.7378476765"><ele>7460.93</ele><time>2026-08-31T12:46:20Z</time></trkpt><trkpt lat="59.6500072908" lon="30.7378473412"><ele>7457.08</ele><time>2026-08-31T12:46:21Z</time></trkpt><trkpt lat="59.6500102244" lon="30.7378387079"><ele>7452.76</ele><time>2026-08-31T12:46:22Z</time></trkpt><trkpt lat="59.6500106435" lon="30.7378375344"><ele>7448.43</ele><time>2026-08-31T12:46:23Z</time></trkpt><trkpt lat="59.6500130743" lon="30.7378340140"><ele>7444.59</ele><time>2026-08-31T12:46:24Z</time></trkpt><trkpt lat="59.6500179358" lon="30.7378231175"><ele>7440.26</ele><time>2026-08-31T12:46:25Z</time></trkpt><trkpt lat="59.6500199474" lon="30.7378250454"><ele>7436.42</ele><time>2026-08-31T12:46:26Z</time></trkpt><trkpt lat="59.6500223782" lon="30.7378202677"><ele>7432.09</ele><time>2026-08-31T12:46:27Z</time></trkpt><trkpt lat="59.6500238869" lon="30.7378231175"><ele>7428.25</ele><time>2026-08-31T12:46:28Z</time></trkpt><trkpt lat="59.6500245575" lon="30.7378177531"><ele>7423.92</ele><time>2026-08-31T12:46:29Z</time></trkpt><trkpt lat="59.6500321012" lon="30.7378128916"><ele>7420.07</ele><time>2026-08-31T12:46:30Z</time></trkpt><trkpt lat="59.6500364598" lon="30.7378003187"><ele>7415.75</ele><time>2026-08-31T12:46:31Z</time></trkpt><trkpt lat="59.6500431653" lon="30.7377816271"><ele>7411.90</ele><time>2026-08-31T12:46:32Z</time></trkpt><trkpt lat="59.6500512119" lon="30.7377729099"><ele>7407.58</ele><time>2026-08-31T12:46:33Z</time></trkpt><trkpt lat="59.6500528045" lon="30.7377730776"><ele>7403.25</ele><time>2026-08-31T12:46:34Z</time></trkpt><trkpt lat="59.6500595100" lon="30.7377639413"><ele>7399.41</ele><time>2026-08-31T12:46:35Z</time></trkpt><trkpt lat="59.6500655450" lon="30.7377492730"><ele>7395.08</ele><time>2026-08-31T12:46:36Z</time></trkpt><trkpt lat="59.6500748489" lon="30.7377348561"><ele>7391.23</ele><time>2026-08-31T12:46:37Z</time></trkpt><trkpt lat="59.6500840690" lon="30.7377274800"><ele>7386.91</ele><time>2026-08-31T12:46:38Z</time></trkpt><trkpt lat="59.6500856616" lon="30.7377263904"><ele>7383.06</ele><time>2026-08-31T12:46:39Z</time></trkpt><trkpt lat="59.6500930376" lon="30.7377186790"><ele>7378.74</ele><time>2026-08-31T12:46:40Z</time></trkpt><trkpt lat="59.6501035150" lon="30.7377170864"><ele>7374.89</ele><time>2026-08-31T12:46:41Z</time></trkpt><trkpt lat="59.6501141600" lon="30.7377144881"><ele>7370.57</ele><time>2026-08-31T12:46:42Z</time></trkpt><trkpt lat="59.6501260623" lon="30.7377044298"><ele>7366.72</ele><time>2026-08-31T12:46:43Z</time></trkpt><trkpt lat="59.6501373779" lon="30.7376968022"><ele>7362.87</ele><time>2026-08-31T12:46:44Z</time></trkpt><trkpt lat="59.6501463465" lon="30.7377031725"><ele>7358.55</ele><time>2026-08-31T12:46:45Z</time></trkpt><trkpt lat="59.6501573268" lon="30.7377083693"><ele>7354.70</ele><time>2026-08-31T12:46:46Z</time></trkpt><trkpt lat="59.6501659602" lon="30.7377061062"><ele>7350.38</ele><time>2026-08-31T12:46:47Z</time></trkpt><trkpt lat="59.6501772758" lon="30.7377094589"><ele>7346.53</ele><time>2026-08-31T12:46:48Z</time></trkpt><trkpt lat="59.6501860768" lon="30.7377085369"><ele>7342.21</ele><time>2026-08-31T12:46:49Z</time></trkpt><trkpt lat="59.6501933690" lon="30.7377029210"><ele>7338.36</ele><time>2026-08-31T12:46:50Z</time></trkpt><trkpt lat="59.6501974761" lon="30.7376953773"><ele>7334.04</ele><time>2026-08-31T12:46:51Z</time></trkpt><trkpt lat="59.6502019186" lon="30.7376869116"><ele>7330.19</ele><time>2026-08-31T12:46:52Z</time></trkpt><trkpt lat="59.6502046008" lon="30.7376753446"><ele>7325.86</ele><time>2026-08-31T12:46:53Z</time></trkpt><trkpt lat="59.6502082888" lon="30.7376639452"><ele>7322.02</ele><time>2026-08-31T12:46:54Z</time></trkpt><trkpt lat="59.6502096299" lon="30.7376636099"><ele>7318.17</ele><time>2026-08-31T12:46:55Z</time></trkpt><trkpt lat="59.6502160840" lon="30.7376568206"><ele>7313.85</ele><time>2026-08-31T12:46:56Z</time></trkpt><trkpt lat="59.6502198558" lon="30.7376481872"><ele>7310.00</ele><time>2026-08-31T12:46:57Z</time></trkpt><trkpt lat="59.6502260584" lon="30.7376393862"><ele>7305.68</ele><time>2026-08-31T12:46:58Z</time></trkpt><trkpt lat="59.6502318420" lon="30.7376337703"><ele>7301.83</ele><time>2026-08-31T12:46:59Z</time></trkpt><trkpt lat="59.6502326801" lon="30.7376315910"><ele>7297.99</ele><time>2026-08-31T12:47:00Z</time></trkpt><trkpt lat="59.6502415650" lon="30.7376286574"><ele>7293.66</ele><time>2026-08-31T12:47:01Z</time></trkpt><trkpt lat="59.6502461750" lon="30.7376246341"><ele>7289.81</ele><time>2026-08-31T12:47:02Z</time></trkpt><trkpt lat="59.6502475999" lon="30.7376211975"><ele>7285.49</ele><time>2026-08-31T12:47:03Z</time></trkpt><trkpt lat="59.6502475161" lon="30.7376215328"><ele>7281.64</ele><time>2026-08-31T12:47:04Z</time></trkpt><trkpt lat="59.6502481028" lon="30.7376201078"><ele>7277.80</ele><time>2026-08-31T12:47:05Z</time></trkpt><trkpt lat="59.6502486058" lon="30.7376188505"><ele>7273.47</ele><time>2026-08-31T12:47:06Z</time></trkpt><trkpt lat="59.6502569038" lon="30.7376088761"><ele>7269.63</ele><time>2026-08-31T12:47:07Z</time></trkpt><trkpt lat="59.6502618492" lon="30.7376004942"><ele>7265.78</ele><time>2026-08-31T12:47:08Z</time></trkpt><trkpt lat="59.6502701472" lon="30.7375860773"><ele>7261.46</ele><time>2026-08-31T12:47:09Z</time></trkpt><trkpt lat="59.6502791997" lon="30.7375800423"><ele>7257.61</ele><time>2026-08-31T12:47:10Z</time></trkpt><trkpt lat="59.6502861567" lon="30.7375777792"><ele>7253.77</ele><time>2026-08-31T12:47:11Z</time></trkpt><trkpt lat="59.6502875816" lon="30.7375761028"><ele>7249.44</ele><time>2026-08-31T12:47:12Z</time></trkpt><trkpt lat="59.6502926946" lon="30.7375636976"><ele>7245.59</ele><time>2026-08-31T12:47:13Z</time></trkpt><trkpt lat="59.6502981428" lon="30.7375548128"><ele>7241.75</ele><time>2026-08-31T12:47:14Z</time></trkpt><trkpt lat="59.6503019147" lon="30.7375511248"><ele>7237.42</ele><time>2026-08-31T12:47:15Z</time></trkpt><trkpt lat="59.6503027529" lon="30.7375492807"><ele>7233.58</ele><time>2026-08-31T12:47:16Z</time></trkpt><trkpt lat="59.6503098775" lon="30.7375352830"><ele>7229.73</ele><time>2026-08-31T12:47:17Z</time></trkpt><trkpt lat="59.6503165830" lon="30.7375251409"><ele>7225.41</ele><time>2026-08-31T12:47:18Z</time></trkpt><trkpt lat="59.6503220312" lon="30.7375158370"><ele>7221.56</ele><time>2026-08-31T12:47:19Z</time></trkpt><trkpt lat="59.6503232885" lon="30.7375140768"><ele>7217.72</ele><time>2026-08-31T12:47:20Z</time></trkpt><trkpt lat="59.6503262222" lon="30.7375025935"><ele>7213.39</ele><time>2026-08-31T12:47:21Z</time></trkpt><trkpt lat="59.6503265575" lon="30.7375005819"><ele>7209.54</ele><time>2026-08-31T12:47:22Z</time></trkpt><trkpt lat="59.6503334306" lon="30.7374874223"><ele>7205.70</ele><time>2026-08-31T12:47:23Z</time></trkpt><trkpt lat="59.6503356937" lon="30.7374661323"><ele>7201.37</ele><time>2026-08-31T12:47:24Z</time></trkpt><trkpt lat="59.6503374539" lon="30.7374603488"><ele>7197.53</ele><time>2026-08-31T12:47:25Z</time></trkpt><trkpt lat="59.6503410581" lon="30.7374487817"><ele>7193.68</ele><time>2026-08-31T12:47:26Z</time></trkpt><trkpt lat="59.6503430698" lon="30.7374490332"><ele>7189.84</ele><time>2026-08-31T12:47:27Z</time></trkpt><trkpt lat="59.6503433213" lon="30.7374454290"><ele>7185.51</ele><time>2026-08-31T12:47:28Z</time></trkpt><trkpt lat="59.6503450815" lon="30.7374446746"><ele>7181.67</ele><time>2026-08-31T12:47:29Z</time></trkpt><trkpt lat="59.6503467578" lon="30.7374430820"><ele>7177.82</ele><time>2026-08-31T12:47:30Z</time></trkpt><trkpt lat="59.6503564809" lon="30.7374351192"><ele>7173.98</ele><time>2026-08-31T12:47:31Z</time></trkpt><trkpt lat="59.6503636893" lon="30.7374254800"><ele>7169.65</ele><time>2026-08-31T12:47:32Z</time></trkpt><trkpt lat="59.6503702272" lon="30.7374175172"><ele>7165.80</ele><time>2026-08-31T12:47:33Z</time></trkpt><trkpt lat="59.6503708139" lon="30.7374145836"><ele>7161.96</ele><time>2026-08-31T12:47:34Z</time></trkpt><trkpt lat="59.6503730770" lon="30.7374038547"><ele>7158.11</ele><time>2026-08-31T12:47:35Z</time></trkpt><trkpt lat="59.6503748372" lon="30.7374016754"><ele>7153.79</ele><time>2026-08-31T12:47:36Z</time></trkpt><trkpt lat="59.6503825486" lon="30.7373985741"><ele>7149.94</ele><time>2026-08-31T12:47:37Z</time></trkpt><trkpt lat="59.6503943671" lon="30.7373860013"><ele>7146.10</ele><time>2026-08-31T12:47:38Z</time></trkpt><trkpt lat="59.6504062694" lon="30.7373696566"><ele>7142.25</ele><time>2026-08-31T12:47:39Z</time></trkpt><trkpt lat="59.6504144836" lon="30.7373533119"><ele>7137.93</ele><time>2026-08-31T12:47:40Z</time></trkpt><trkpt lat="59.6504202671" lon="30.7373344526"><ele>7134.08</ele><time>2026-08-31T12:47:41Z</time></trkpt><trkpt lat="59.6504278947" lon="30.7373129949"><ele>7130.24</ele><time>2026-08-31T12:47:42Z</time></trkpt><trkpt lat="59.6504345164" lon="30.7372943033"><ele>7126.39</ele><time>2026-08-31T12:47:43Z</time></trkpt><trkpt lat="59.6504417248" lon="30.7372772042"><ele>7122.55</ele><time>2026-08-31T12:47:44Z</time></trkpt><trkpt lat="59.6504511125" lon="30.7372539025"><ele>7118.22</ele><time>2026-08-31T12:47:45Z</time></trkpt><trkpt lat="59.6504592430" lon="30.7372395694"><ele>7114.37</ele><time>2026-08-31T12:47:46Z</time></trkpt><trkpt lat="59.6504655294" lon="30.7372326124"><ele>7110.53</ele><time>2026-08-31T12:47:47Z</time></trkpt><trkpt lat="59.6504710615" lon="30.7372227218"><ele>7106.68</ele><time>2026-08-31T12:47:48Z</time></trkpt><trkpt lat="59.6504765935" lon="30.7372135017"><ele>7102.84</ele><time>2026-08-31T12:47:49Z</time></trkpt><trkpt lat="59.6504834667" lon="30.7372069638"><ele>7098.99</ele><time>2026-08-31T12:47:50Z</time></trkpt><trkpt lat="59.6504889149" lon="30.7371992525"><ele>7094.67</ele><time>2026-08-31T12:47:51Z</time></trkpt><trkpt lat="59.6504938602" lon="30.7371907029"><ele>7090.82</ele><time>2026-08-31T12:47:52Z</time></trkpt><trkpt lat="59.6504997276" lon="30.7371856738"><ele>7086.98</ele><time>2026-08-31T12:47:53Z</time></trkpt><trkpt lat="59.6505099535" lon="30.7371933013"><ele>7083.13</ele><time>2026-08-31T12:47:54Z</time></trkpt><trkpt lat="59.6505165752" lon="30.7371953130"><ele>7079.29</ele><time>2026-08-31T12:47:55Z</time></trkpt><trkpt lat="59.6505190898" lon="30.7371955644"><ele>7075.44</ele><time>2026-08-31T12:47:56Z</time></trkpt><trkpt lat="59.6505309083" lon="30.7371952292"><ele>7071.12</ele><time>2026-08-31T12:47:57Z</time></trkpt><trkpt lat="59.6505410504" lon="30.7371974923"><ele>7067.27</ele><time>2026-08-31T12:47:58Z</time></trkpt><trkpt lat="59.6505483426" lon="30.7371939719"><ele>7063.42</ele><time>2026-08-31T12:47:59Z</time></trkpt><trkpt lat="59.6505497675" lon="30.7371919602"><ele>7059.58</ele><time>2026-08-31T12:48:00Z</time></trkpt><trkpt lat="59.6505694650" lon="30.7371681556"><ele>7051.89</ele><time>2026-08-31T12:48:02Z</time></trkpt><trkpt lat="59.6505711414" lon="30.7371580973"><ele>7048.04</ele><time>2026-08-31T12:48:03Z</time></trkpt><trkpt lat="59.6505715605" lon="30.7371504698"><ele>7044.20</ele><time>2026-08-31T12:48:04Z</time></trkpt><trkpt lat="59.6505744103" lon="30.7371470332"><ele>7040.35</ele><time>2026-08-31T12:48:05Z</time></trkpt><trkpt lat="59.6505754162" lon="30.7371455245"><ele>7036.03</ele><time>2026-08-31T12:48:06Z</time></trkpt><trkpt lat="59.6505822893" lon="30.7371399924"><ele>7032.18</ele><time>2026-08-31T12:48:07Z</time></trkpt><trkpt lat="59.6505899169" lon="30.7371290121"><ele>7028.34</ele><time>2026-08-31T12:48:08Z</time></trkpt><trkpt lat="59.6505974606" lon="30.7371233962"><ele>7024.49</ele><time>2026-08-31T12:48:09Z</time></trkpt><trkpt lat="59.6505984664" lon="30.7371233124"><ele>7020.65</ele><time>2026-08-31T12:48:10Z</time></trkpt><trkpt lat="59.6506047528" lon="30.7371215522"><ele>7016.80</ele><time>2026-08-31T12:48:11Z</time></trkpt><trkpt lat="59.6506095305" lon="30.7371178642"><ele>7012.96</ele><time>2026-08-31T12:48:12Z</time></trkpt><trkpt lat="59.6506174095" lon="30.7371137571"><ele>7009.11</ele><time>2026-08-31T12:48:13Z</time></trkpt><trkpt lat="59.6506224386" lon="30.7371059619"><ele>7005.26</ele><time>2026-08-31T12:48:14Z</time></trkpt><trkpt lat="59.6506234445" lon="30.7371036988"><ele>7001.42</ele><time>2026-08-31T12:48:15Z</time></trkpt><trkpt lat="59.6506292280" lon="30.7370942272"><ele>6997.57</ele><time>2026-08-31T12:48:16Z</time></trkpt><trkpt lat="59.6506350953" lon="30.7370933890"><ele>6993.73</ele><time>2026-08-31T12:48:17Z</time></trkpt><trkpt lat="59.6506400406" lon="30.7370907906"><ele>6989.88</ele><time>2026-08-31T12:48:18Z</time></trkpt><trkpt lat="59.6506424714" lon="30.7370838337"><ele>6986.04</ele><time>2026-08-31T12:48:19Z</time></trkpt><trkpt lat="59.6506460756" lon="30.7370766252"><ele>6982.19</ele><time>2026-08-31T12:48:20Z</time></trkpt><trkpt lat="59.6506518591" lon="30.7370624598"><ele>6978.35</ele><time>2026-08-31T12:48:21Z</time></trkpt><trkpt lat="59.6506580617" lon="30.7370467018"><ele>6974.02</ele><time>2026-08-31T12:48:22Z</time></trkpt><trkpt lat="59.6506684553" lon="30.7370338775"><ele>6970.18</ele><time>2026-08-31T12:48:23Z</time></trkpt><trkpt lat="59.6506763343" lon="30.7370290160"><ele>6966.33</ele><time>2026-08-31T12:48:24Z</time></trkpt><trkpt lat="59.6506743226" lon="30.7370251603"><ele>6962.49</ele><time>2026-08-31T12:48:25Z</time></trkpt><trkpt lat="59.6506768372" lon="30.7370280940"><ele>6958.64</ele><time>2026-08-31T12:48:26Z</time></trkpt><trkpt lat="59.6506769210" lon="30.7370279264"><ele>6954.79</ele><time>2026-08-31T12:48:27Z</time></trkpt><trkpt lat="59.6506769210" lon="30.7370281778"><ele>6950.95</ele><time>2026-08-31T12:48:28Z</time></trkpt><trkpt lat="59.6506754961" lon="30.7370244060"><ele>6947.10</ele><time>2026-08-31T12:48:29Z</time></trkpt><trkpt lat="59.6506762505" lon="30.7370276749"><ele>6943.26</ele><time>2026-08-31T12:48:30Z</time></trkpt><trkpt lat="59.6506756637" lon="30.7370245736"><ele>6939.41</ele><time>2026-08-31T12:48:31Z</time></trkpt><trkpt lat="59.6506758314" lon="30.7370224781"><ele>6935.57</ele><time>2026-08-31T12:48:32Z</time></trkpt><trkpt lat="59.6506806929" lon="30.7370130066"><ele>6931.72</ele><time>2026-08-31T12:48:33Z</time></trkpt><trkpt lat="59.6506812796" lon="30.7370036189"><ele>6928.36</ele><time>2026-08-31T12:48:34Z</time></trkpt><trkpt lat="59.6506832913" lon="30.7370027807"><ele>6924.51</ele><time>2026-08-31T12:48:35Z</time></trkpt><trkpt lat="59.6506819502" lon="30.7369935606"><ele>6920.67</ele><time>2026-08-31T12:48:36Z</time></trkpt><trkpt lat="59.6506829560" lon="30.7369872741"><ele>6916.82</ele><time>2026-08-31T12:48:37Z</time></trkpt><trkpt lat="59.6506833751" lon="30.7369918004"><ele>6912.98</ele><time>2026-08-31T12:48:38Z</time></trkpt><trkpt lat="59.6506845485" lon="30.7369826641"><ele>6909.13</ele><time>2026-08-31T12:48:39Z</time></trkpt><trkpt lat="59.6506853867" lon="30.7369801495"><ele>6905.29</ele><time>2026-08-31T12:48:40Z</time></trkpt><trkpt lat="59.6506868955" lon="30.7369688340"><ele>6901.44</ele><time>2026-08-31T12:48:41Z</time></trkpt><trkpt lat="59.6506818663" lon="30.7369680796"><ele>6897.60</ele><time>2026-08-31T12:48:42Z</time></trkpt><trkpt lat="59.6506844647" lon="30.7369550038"><ele>6893.75</ele><time>2026-08-31T12:48:43Z</time></trkpt><trkpt lat="59.6506848000" lon="30.7369538303"><ele>6889.91</ele><time>2026-08-31T12:48:44Z</time></trkpt><trkpt lat="59.6506844647" lon="30.7369512320"><ele>6886.06</ele><time>2026-08-31T12:48:45Z</time></trkpt><trkpt lat="59.6506841294" lon="30.7369512320"><ele>6882.22</ele><time>2026-08-31T12:48:46Z</time></trkpt><trkpt lat="59.6506837104" lon="30.7369531598"><ele>6878.37</ele><time>2026-08-31T12:48:47Z</time></trkpt><trkpt lat="59.6506861411" lon="30.7369559258"><ele>6874.53</ele><time>2026-08-31T12:48:48Z</time></trkpt><trkpt lat="59.6506847162" lon="30.7369557582"><ele>6870.68</ele><time>2026-08-31T12:48:49Z</time></trkpt><trkpt lat="59.6506853029" lon="30.7369563449"><ele>6867.32</ele><time>2026-08-31T12:48:50Z</time></trkpt><trkpt lat="59.6506854706" lon="30.7369567640"><ele>6863.47</ele><time>2026-08-31T12:48:51Z</time></trkpt><trkpt lat="59.6506853867" lon="30.7369568478"><ele>6859.62</ele><time>2026-08-31T12:48:52Z</time></trkpt><trkpt lat="59.6506859735" lon="30.7369561773"><ele>6855.78</ele><time>2026-08-31T12:48:53Z</time></trkpt><trkpt lat="59.6506877337" lon="30.7369542494"><ele>6851.93</ele><time>2026-08-31T12:48:54Z</time></trkpt><trkpt lat="59.6506891586" lon="30.7369534113"><ele>6848.09</ele><time>2026-08-31T12:48:55Z</time></trkpt><trkpt lat="59.6506897453" lon="30.7369526569"><ele>6844.24</ele><time>2026-08-31T12:48:56Z</time></trkpt><trkpt lat="59.6506930143" lon="30.7369511481"><ele>6840.40</ele><time>2026-08-31T12:48:57Z</time></trkpt><trkpt lat="59.6506965347" lon="30.7369544171"><ele>6836.55</ele><time>2026-08-31T12:48:58Z</time></trkpt><trkpt lat="59.6506994683" lon="30.7369500585"><ele>6833.19</ele><time>2026-08-31T12:48:59Z</time></trkpt><trkpt lat="59.6507007256" lon="30.7369467057"><ele>6829.34</ele><time>2026-08-31T12:49:00Z</time></trkpt><trkpt lat="59.6507018991" lon="30.7369438559"><ele>6825.50</ele><time>2026-08-31T12:49:01Z</time></trkpt><trkpt lat="59.6507034078" lon="30.7369409222"><ele>6821.65</ele><time>2026-08-31T12:49:02Z</time></trkpt><trkpt lat="59.6507082693" lon="30.7369268406"><ele>6817.81</ele><time>2026-08-31T12:49:03Z</time></trkpt><trkpt lat="59.6507095266" lon="30.7369237393"><ele>6813.96</ele><time>2026-08-31T12:49:04Z</time></trkpt><trkpt lat="59.6507101133" lon="30.7369237393"><ele>6810.12</ele><time>2026-08-31T12:49:05Z</time></trkpt><trkpt lat="59.6507109515" lon="30.7369229849"><ele>6806.75</ele><time>2026-08-31T12:49:06Z</time></trkpt><trkpt lat="59.6507084370" lon="30.7369207218"><ele>6802.91</ele><time>2026-08-31T12:49:07Z</time></trkpt><trkpt lat="59.6507125441" lon="30.7369204704"><ele>6799.06</ele><time>2026-08-31T12:49:08Z</time></trkpt><trkpt lat="59.6507134661" lon="30.7369206380"><ele>6795.22</ele><time>2026-08-31T12:49:09Z</time></trkpt><trkpt lat="59.6507109515" lon="30.7369183749"><ele>6791.37</ele><time>2026-08-31T12:49:10Z</time></trkpt><trkpt lat="59.6507158969" lon="30.7369185425"><ele>6788.01</ele><time>2026-08-31T12:49:11Z</time></trkpt><trkpt lat="59.6507187467" lon="30.7369135134"><ele>6784.16</ele><time>2026-08-31T12:49:12Z</time></trkpt><trkpt lat="59.6507192496" lon="30.7369136810"><ele>6780.32</ele><time>2026-08-31T12:49:13Z</time></trkpt><trkpt lat="59.6507206745" lon="30.7369152736"><ele>6776.47</ele><time>2026-08-31T12:49:14Z</time></trkpt><trkpt lat="59.6507298108" lon="30.7369125914"><ele>6772.62</ele><time>2026-08-31T12:49:15Z</time></trkpt><trkpt lat="59.6507324092" lon="30.7369121723"><ele>6769.26</ele><time>2026-08-31T12:49:16Z</time></trkpt><trkpt lat="59.6507409588" lon="30.7369021140"><ele>6765.42</ele><time>2026-08-31T12:49:17Z</time></trkpt><trkpt lat="59.6507464908" lon="30.7368890382"><ele>6761.57</ele><time>2026-08-31T12:49:18Z</time></trkpt><trkpt lat="59.6507483348" lon="30.7368744537"><ele>6757.72</ele><time>2026-08-31T12:49:19Z</time></trkpt><trkpt lat="59.6507559624" lon="30.7368675806"><ele>6753.88</ele><time>2026-08-31T12:49:20Z</time></trkpt><trkpt lat="59.6507645119" lon="30.7368614618"><ele>6750.51</ele><time>2026-08-31T12:49:21Z</time></trkpt><trkpt lat="59.6507741511" lon="30.7368554268"><ele>6746.67</ele><time>2026-08-31T12:49:22Z</time></trkpt><trkpt lat="59.6507801022" lon="30.7368388306"><ele>6742.82</ele><time>2026-08-31T12:49:23Z</time></trkpt><trkpt lat="59.6507857181" lon="30.7368261740"><ele>6738.98</ele><time>2026-08-31T12:49:24Z</time></trkpt><trkpt lat="59.6507866401" lon="30.7368251681"><ele>6735.62</ele><time>2026-08-31T12:49:25Z</time></trkpt><trkpt lat="59.6507844608" lon="30.7368226536"><ele>6731.77</ele><time>2026-08-31T12:49:26Z</time></trkpt><trkpt lat="59.6507866401" lon="30.7368236594"><ele>6727.92</ele><time>2026-08-31T12:49:27Z</time></trkpt><trkpt lat="59.6507878974" lon="30.7368157804"><ele>6724.08</ele><time>2026-08-31T12:49:28Z</time></trkpt><trkpt lat="59.6507930104" lon="30.7368044648"><ele>6720.71</ele><time>2026-08-31T12:49:29Z</time></trkpt><trkpt lat="59.6508001350" lon="30.7367939875"><ele>6716.87</ele><time>2026-08-31T12:49:30Z</time></trkpt><trkpt lat="59.6508077625" lon="30.7367900480"><ele>6713.02</ele><time>2026-08-31T12:49:31Z</time></trkpt><trkpt lat="59.6508155577" lon="30.7367848512"><ele>6709.18</ele><time>2026-08-31T12:49:32Z</time></trkpt><trkpt lat="59.6508232690" lon="30.7367820013"><ele>6705.81</ele><time>2026-08-31T12:49:33Z</time></trkpt><trkpt lat="59.6508254483" lon="30.7367754634"><ele>6701.97</ele><time>2026-08-31T12:49:34Z</time></trkpt><trkpt lat="59.6508264542" lon="30.7367794029"><ele>6698.12</ele><time>2026-08-31T12:49:35Z</time></trkpt><trkpt lat="59.6508251131" lon="30.7367765531"><ele>6694.76</ele><time>2026-08-31T12:49:36Z</time></trkpt><trkpt lat="59.6508264542" lon="30.7367766369"><ele>6690.91</ele><time>2026-08-31T12:49:37Z</time></trkpt><trkpt lat="59.6508267056" lon="30.7367765531"><ele>6687.07</ele><time>2026-08-31T12:49:38Z</time></trkpt><trkpt lat="59.6508267894" lon="30.7367761340"><ele>6683.70</ele><time>2026-08-31T12:49:39Z</time></trkpt><trkpt lat="59.6508270409" lon="30.7367755473"><ele>6679.86</ele><time>2026-08-31T12:49:40Z</time></trkpt><trkpt lat="59.6508268733" lon="30.7367740385"><ele>6676.01</ele><time>2026-08-31T12:49:41Z</time></trkpt><trkpt lat="59.6508293878" lon="30.7367715240"><ele>6672.17</ele><time>2026-08-31T12:49:42Z</time></trkpt><trkpt lat="59.6508302260" lon="30.7367697638"><ele>6668.80</ele><time>2026-08-31T12:49:43Z</time></trkpt><trkpt lat="59.6508316509" lon="30.7367688417"><ele>6664.96</ele><time>2026-08-31T12:49:44Z</time></trkpt><trkpt lat="59.6508365963" lon="30.7367628906"><ele>6661.11</ele><time>2026-08-31T12:49:45Z</time></trkpt><trkpt lat="59.6508398652" lon="30.7367577776"><ele>6657.75</ele><time>2026-08-31T12:49:46Z</time></trkpt><trkpt lat="59.6508396138" lon="30.7367555145"><ele>6653.90</ele><time>2026-08-31T12:49:47Z</time></trkpt><trkpt lat="59.6508417092" lon="30.7367556822"><ele>6650.06</ele><time>2026-08-31T12:49:48Z</time></trkpt><trkpt lat="59.6508429665" lon="30.7367510721"><ele>6646.69</ele><time>2026-08-31T12:49:49Z</time></trkpt><trkpt lat="59.6508453973" lon="30.7367514074"><ele>6642.85</ele><time>2026-08-31T12:49:50Z</time></trkpt><trkpt lat="59.6508482471" lon="30.7367436960"><ele>6639.48</ele><time>2026-08-31T12:49:51Z</time></trkpt><trkpt lat="59.6508490853" lon="30.7367415167"><ele>6635.64</ele><time>2026-08-31T12:49:52Z</time></trkpt><trkpt lat="59.6508558746" lon="30.7367390022"><ele>6631.79</ele><time>2026-08-31T12:49:53Z</time></trkpt><trkpt lat="59.6508598980" lon="30.7367329672"><ele>6628.43</ele><time>2026-08-31T12:49:54Z</time></trkpt><trkpt lat="59.6508656815" lon="30.7367256749"><ele>6624.58</ele><time>2026-08-31T12:49:55Z</time></trkpt><trkpt lat="59.6508752368" lon="30.7367206458"><ele>6620.74</ele><time>2026-08-31T12:49:56Z</time></trkpt><trkpt lat="59.6508847922" lon="30.7367175445"><ele>6617.37</ele><time>2026-08-31T12:49:57Z</time></trkpt><trkpt lat="59.6508883964" lon="30.7367119286"><ele>6613.53</ele><time>2026-08-31T12:49:58Z</time></trkpt><trkpt lat="59.6508922521" lon="30.7367078215"><ele>6610.16</ele><time>2026-08-31T12:49:59Z</time></trkpt><trkpt lat="59.6508993767" lon="30.7367027923"><ele>6606.32</ele><time>2026-08-31T12:50:00Z</time></trkpt><trkpt lat="59.6509086806" lon="30.7366978470"><ele>6602.47</ele><time>2026-08-31T12:50:01Z</time></trkpt><trkpt lat="59.6509157214" lon="30.7366949134"><ele>6599.11</ele><time>2026-08-31T12:50:02Z</time></trkpt><trkpt lat="59.6509208344" lon="30.7366894651"><ele>6595.26</ele><time>2026-08-31T12:50:03Z</time></trkpt><trkpt lat="59.6509241033" lon="30.7366903871"><ele>6591.90</ele><time>2026-08-31T12:50:04Z</time></trkpt><trkpt lat="59.6509272046" lon="30.7366861124"><ele>6588.05</ele><time>2026-08-31T12:50:05Z</time></trkpt><trkpt lat="59.6509278752" lon="30.7366853580"><ele>6584.21</ele><time>2026-08-31T12:50:06Z</time></trkpt><trkpt lat="59.6509287972" lon="30.7366844360"><ele>6580.84</ele><time>2026-08-31T12:50:07Z</time></trkpt><trkpt lat="59.6509349160" lon="30.7366733719"><ele>6577.00</ele><time>2026-08-31T12:50:08Z</time></trkpt><trkpt lat="59.6509382688" lon="30.7366728690"><ele>6573.63</ele><time>2026-08-31T12:50:09Z</time></trkpt><trkpt lat="59.6509458963" lon="30.7366663311"><ele>6569.79</ele><time>2026-08-31T12:50:10Z</time></trkpt><trkpt lat="59.6509545296" lon="30.7366582006"><ele>6566.42</ele><time>2026-08-31T12:50:11Z</time></trkpt><trkpt lat="59.6509608999" lon="30.7366498187"><ele>6562.58</ele><time>2026-08-31T12:50:12Z</time></trkpt><trkpt lat="59.6509624925" lon="30.7366492320"><ele>6558.73</ele><time>2026-08-31T12:50:13Z</time></trkpt><trkpt lat="59.6509622410" lon="30.7366436161"><ele>6555.37</ele><time>2026-08-31T12:50:14Z</time></trkpt><trkpt lat="59.6509650908" lon="30.7366471365"><ele>6551.52</ele><time>2026-08-31T12:50:15Z</time></trkpt><trkpt lat="59.6509659290" lon="30.7366448734"><ele>6548.16</ele><time>2026-08-31T12:50:16Z</time></trkpt><trkpt lat="59.6509664319" lon="30.7366436161"><ele>6544.31</ele><time>2026-08-31T12:50:17Z</time></trkpt><trkpt lat="59.6509673540" lon="30.7366416045"><ele>6540.95</ele><time>2026-08-31T12:50:18Z</time></trkpt><trkpt lat="59.6509700362" lon="30.7366423588"><ele>6537.10</ele><time>2026-08-31T12:50:19Z</time></trkpt><trkpt lat="59.6509688627" lon="30.7366376650"><ele>6533.74</ele><time>2026-08-31T12:50:20Z</time></trkpt><trkpt lat="59.6509694494" lon="30.7366370782"><ele>6529.89</ele><time>2026-08-31T12:50:21Z</time></trkpt><trkpt lat="59.6509702038" lon="30.7366355695"><ele>6526.53</ele><time>2026-08-31T12:50:22Z</time></trkpt><trkpt lat="59.6509709582" lon="30.7366343122"><ele>6522.68</ele><time>2026-08-31T12:50:23Z</time></trkpt><trkpt lat="59.6509714611" lon="30.7366331387"><ele>6519.32</ele><time>2026-08-31T12:50:24Z</time></trkpt><trkpt lat="59.6509722155" lon="30.7366313785"><ele>6515.47</ele><time>2026-08-31T12:50:25Z</time></trkpt><trkpt lat="59.6509727184" lon="30.7366302051"><ele>6512.11</ele><time>2026-08-31T12:50:26Z</time></trkpt><trkpt lat="59.6509732213" lon="30.7366296183"><ele>6508.26</ele><time>2026-08-31T12:50:27Z</time></trkpt><trkpt lat="59.6509733889" lon="30.7366291154"><ele>6504.90</ele><time>2026-08-31T12:50:28Z</time></trkpt><trkpt lat="59.6509738080" lon="30.7366288640"><ele>6501.05</ele><time>2026-08-31T12:50:29Z</time></trkpt><trkpt lat="59.6509759035" lon="30.7366276905"><ele>6497.69</ele><time>2026-08-31T12:50:30Z</time></trkpt><trkpt lat="59.6509756520" lon="30.7366255112"><ele>6493.84</ele><time>2026-08-31T12:50:31Z</time></trkpt><trkpt lat="59.6509774961" lon="30.7366252597"><ele>6490.48</ele><time>2026-08-31T12:50:32Z</time></trkpt><trkpt lat="59.6509816032" lon="30.7366265170"><ele>6486.63</ele><time>2026-08-31T12:50:33Z</time></trkpt><trkpt lat="59.6509884764" lon="30.7366209012"><ele>6483.27</ele><time>2026-08-31T12:50:34Z</time></trkpt><trkpt lat="59.6509972773" lon="30.7366077416"><ele>6479.90</ele><time>2026-08-31T12:50:35Z</time></trkpt><trkpt lat="59.6510037314" lon="30.7365931571"><ele>6476.06</ele><time>2026-08-31T12:50:36Z</time></trkpt><trkpt lat="59.6510050725" lon="30.7365892176"><ele>6472.69</ele><time>2026-08-31T12:50:37Z</time></trkpt><trkpt lat="59.6510067489" lon="30.7365891337"><ele>6468.85</ele><time>2026-08-31T12:50:38Z</time></trkpt><trkpt lat="59.6510129515" lon="30.7365753874"><ele>6465.48</ele><time>2026-08-31T12:50:39Z</time></trkpt><trkpt lat="59.6510211658" lon="30.7365646586"><ele>6461.64</ele><time>2026-08-31T12:50:40Z</time></trkpt><trkpt lat="59.6510295477" lon="30.7365537621"><ele>6458.27</ele><time>2026-08-31T12:50:41Z</time></trkpt><trkpt lat="59.6510303859" lon="30.7365468889"><ele>6454.91</ele><time>2026-08-31T12:50:42Z</time></trkpt><trkpt lat="59.6510366723" lon="30.7365409378"><ele>6451.06</ele><time>2026-08-31T12:50:43Z</time></trkpt><trkpt lat="59.6510443836" lon="30.7365271915"><ele>6447.70</ele><time>2026-08-31T12:50:44Z</time></trkpt><trkpt lat="59.6510581300" lon="30.7365219109"><ele>6443.85</ele><time>2026-08-31T12:50:45Z</time></trkpt><trkpt lat="59.6510624047" lon="30.7365227491"><ele>6440.49</ele><time>2026-08-31T12:50:46Z</time></trkpt><trkpt lat="59.6510683559" lon="30.7365105953"><ele>6436.64</ele><time>2026-08-31T12:50:47Z</time></trkpt><trkpt lat="59.6510783304" lon="30.7364976872"><ele>6433.28</ele><time>2026-08-31T12:50:48Z</time></trkpt><trkpt lat="59.6510819346" lon="30.7364981901"><ele>6429.92</ele><time>2026-08-31T12:50:49Z</time></trkpt><trkpt lat="59.6510884725" lon="30.7364827674"><ele>6426.07</ele><time>2026-08-31T12:50:50Z</time></trkpt><trkpt lat="59.6510920767" lon="30.7364822645"><ele>6422.71</ele><time>2026-08-31T12:50:51Z</time></trkpt><trkpt lat="59.6510966029" lon="30.7364729606"><ele>6418.86</ele><time>2026-08-31T12:50:52Z</time></trkpt><trkpt lat="59.6510994527" lon="30.7364639081"><ele>6415.50</ele><time>2026-08-31T12:50:53Z</time></trkpt><trkpt lat="59.6511049848" lon="30.7364599686"><ele>6412.13</ele><time>2026-08-31T12:50:54Z</time></trkpt><trkpt lat="59.6511136182" lon="30.7364424504"><ele>6408.29</ele><time>2026-08-31T12:50:55Z</time></trkpt><trkpt lat="59.6511192340" lon="30.7364230882"><ele>6404.92</ele><time>2026-08-31T12:50:56Z</time></trkpt><trkpt lat="59.6511183120" lon="30.7364183944"><ele>6401.56</ele><time>2026-08-31T12:50:57Z</time></trkpt><trkpt lat="59.6511203237" lon="30.7364203222"><ele>6397.71</ele><time>2026-08-31T12:50:58Z</time></trkpt><trkpt lat="59.6511204913" lon="30.7364189811"><ele>6394.35</ele><time>2026-08-31T12:50:59Z</time></trkpt><trkpt lat="59.6511267778" lon="30.7364039775"><ele>6390.98</ele><time>2026-08-31T12:51:00Z</time></trkpt><trkpt lat="59.6511307172" lon="30.7363928296"><ele>6387.14</ele><time>2026-08-31T12:51:01Z</time></trkpt><trkpt lat="59.6511316393" lon="30.7363913208"><ele>6383.77</ele><time>2026-08-31T12:51:02Z</time></trkpt><trkpt lat="59.6511395182" lon="30.7363873813"><ele>6380.41</ele><time>2026-08-31T12:51:03Z</time></trkpt><trkpt lat="59.6511401050" lon="30.7363864593"><ele>6376.56</ele><time>2026-08-31T12:51:04Z</time></trkpt><trkpt lat="59.6511479001" lon="30.7363803405"><ele>6373.20</ele><time>2026-08-31T12:51:05Z</time></trkpt><trkpt lat="59.6511553600" lon="30.7363738026"><ele>6369.83</ele><time>2026-08-31T12:51:06Z</time></trkpt><trkpt lat="59.6511572879" lon="30.7363731321"><ele>6365.99</ele><time>2026-08-31T12:51:07Z</time></trkpt><trkpt lat="59.6511641610" lon="30.7363772392"><ele>6362.62</ele><time>2026-08-31T12:51:08Z</time></trkpt><trkpt lat="59.6511727106" lon="30.7363653369"><ele>6359.26</ele><time>2026-08-31T12:51:09Z</time></trkpt><trkpt lat="59.6511826850" lon="30.7363462262"><ele>6355.41</ele><time>2026-08-31T12:51:10Z</time></trkpt><trkpt lat="59.6511922404" lon="30.7363371737"><ele>6352.05</ele><time>2026-08-31T12:51:11Z</time></trkpt><trkpt lat="59.6512010414" lon="30.7363236789"><ele>6348.68</ele><time>2026-08-31T12:51:12Z</time></trkpt><trkpt lat="59.6512101777" lon="30.7363134529"><ele>6344.84</ele><time>2026-08-31T12:51:13Z</time></trkpt><trkpt lat="59.6512180567" lon="30.7363103516"><ele>6341.47</ele><time>2026-08-31T12:51:14Z</time></trkpt><trkpt lat="59.6512213256" lon="30.7363137044"><ele>6338.11</ele><time>2026-08-31T12:51:15Z</time></trkpt><trkpt lat="59.6512243431" lon="30.7363064960"><ele>6334.26</ele><time>2026-08-31T12:51:16Z</time></trkpt><trkpt lat="59.6512253489" lon="30.7363054901"><ele>6330.90</ele><time>2026-08-31T12:51:17Z</time></trkpt><trkpt lat="59.6512250975" lon="30.7362961862"><ele>6327.54</ele><time>2026-08-31T12:51:18Z</time></trkpt><trkpt lat="59.6512284502" lon="30.7362903189"><ele>6324.17</ele><time>2026-08-31T12:51:19Z</time></trkpt><trkpt lat="59.6512248460" lon="30.7362790033"><ele>6320.32</ele><time>2026-08-31T12:51:20Z</time></trkpt><trkpt lat="59.6512237564" lon="30.7362670172"><ele>6316.96</ele><time>2026-08-31T12:51:21Z</time></trkpt><trkpt lat="59.6512275282" lon="30.7362641674"><ele>6313.60</ele><time>2026-08-31T12:51:22Z</time></trkpt><trkpt lat="59.6512292046" lon="30.7362534385"><ele>6310.23</ele><time>2026-08-31T12:51:23Z</time></trkpt><trkpt lat="59.6512277797" lon="30.7362365909"><ele>6306.39</ele><time>2026-08-31T12:51:24Z</time></trkpt><trkpt lat="59.6512354072" lon="30.7362339925"><ele>6303.02</ele><time>2026-08-31T12:51:25Z</time></trkpt><trkpt lat="59.6512374189" lon="30.7362334896"><ele>6299.66</ele><time>2026-08-31T12:51:26Z</time></trkpt><trkpt lat="59.6512490697" lon="30.7362322323"><ele>6296.29</ele><time>2026-08-31T12:51:27Z</time></trkpt><trkpt lat="59.6512540150" lon="30.7362377644"><ele>6292.45</ele><time>2026-08-31T12:51:28Z</time></trkpt><trkpt lat="59.6512603015" lon="30.7362328190"><ele>6289.08</ele><time>2026-08-31T12:51:29Z</time></trkpt><trkpt lat="59.6512728743" lon="30.7362319808"><ele>6285.72</ele><time>2026-08-31T12:51:30Z</time></trkpt><trkpt lat="59.6512831002" lon="30.7362270355"><ele>6282.35</ele><time>2026-08-31T12:51:31Z</time></trkpt><trkpt lat="59.6512927394" lon="30.7362169772"><ele>6278.51</ele><time>2026-08-31T12:51:32Z</time></trkpt><trkpt lat="59.6512994450" lon="30.7362056617"><ele>6275.14</ele><time>2026-08-31T12:51:33Z</time></trkpt><trkpt lat="59.6513056476" lon="30.7361920830"><ele>6271.78</ele><time>2026-08-31T12:51:34Z</time></trkpt><trkpt lat="59.6513238363" lon="30.7361782528"><ele>6265.05</ele><time>2026-08-31T12:51:36Z</time></trkpt><trkpt lat="59.6513255965" lon="30.7361762412"><ele>6261.20</ele><time>2026-08-31T12:51:37Z</time></trkpt><trkpt lat="59.6513254289" lon="30.7361740619"><ele>6257.84</ele><time>2026-08-31T12:51:38Z</time></trkpt><trkpt lat="59.6513364930" lon="30.7361653447"><ele>6254.47</ele><time>2026-08-31T12:51:39Z</time></trkpt><trkpt lat="59.6513447072" lon="30.7361584716"><ele>6251.11</ele><time>2026-08-31T12:51:40Z</time></trkpt><trkpt lat="59.6513551008" lon="30.7361497544"><ele>6247.75</ele><time>2026-08-31T12:51:41Z</time></trkpt><trkpt lat="59.6513587050" lon="30.7361520175"><ele>6243.90</ele><time>2026-08-31T12:51:42Z</time></trkpt><trkpt lat="59.6513641533" lon="30.7361466531"><ele>6240.54</ele><time>2026-08-31T12:51:43Z</time></trkpt><trkpt lat="59.6513690148" lon="30.7361325715"><ele>6237.17</ele><time>2026-08-31T12:51:44Z</time></trkpt><trkpt lat="59.6513740439" lon="30.7361223456"><ele>6233.81</ele><time>2026-08-31T12:51:45Z</time></trkpt><trkpt lat="59.6513743792" lon="30.7361205854"><ele>6230.44</ele><time>2026-08-31T12:51:46Z</time></trkpt><trkpt lat="59.6513747983" lon="30.7361200824"><ele>6227.08</ele><time>2026-08-31T12:51:47Z</time></trkpt><trkpt lat="59.6513762232" lon="30.7361126225"><ele>6223.23</ele><time>2026-08-31T12:51:48Z</time></trkpt><trkpt lat="59.6513733733" lon="30.7361075096"><ele>6219.87</ele><time>2026-08-31T12:51:49Z</time></trkpt><trkpt lat="59.6513786539" lon="30.7361036539"><ele>6216.50</ele><time>2026-08-31T12:51:50Z</time></trkpt><trkpt lat="59.6513798274" lon="30.7361032348"><ele>6213.14</ele><time>2026-08-31T12:51:51Z</time></trkpt><trkpt lat="59.6513846889" lon="30.7360944338"><ele>6209.77</ele><time>2026-08-31T12:51:52Z</time></trkpt><trkpt lat="59.6513924003" lon="30.7360901590"><ele>6206.41</ele><time>2026-08-31T12:51:53Z</time></trkpt><trkpt lat="59.6513981000" lon="30.7360873930"><ele>6203.04</ele><time>2026-08-31T12:51:54Z</time></trkpt><trkpt lat="59.6514051408" lon="30.7360790949"><ele>6199.20</ele><time>2026-08-31T12:51:55Z</time></trkpt><trkpt lat="59.6514128521" lon="30.7360749878"><ele>6195.83</ele><time>2026-08-31T12:51:56Z</time></trkpt><trkpt lat="59.6514184680" lon="30.7360644266"><ele>6192.47</ele><time>2026-08-31T12:51:57Z</time></trkpt><trkpt lat="59.6514219884" lon="30.7360581402"><ele>6189.10</ele><time>2026-08-31T12:51:58Z</time></trkpt><trkpt lat="59.6514261793" lon="30.7360581402"><ele>6185.74</ele><time>2026-08-31T12:51:59Z</time></trkpt><trkpt lat="59.6514321305" lon="30.7360597327"><ele>6182.38</ele><time>2026-08-31T12:52:00Z</time></trkpt><trkpt lat="59.6514387522" lon="30.7360687852"><ele>6179.01</ele><time>2026-08-31T12:52:01Z</time></trkpt><trkpt lat="59.6514440328" lon="30.7360744849"><ele>6175.65</ele><time>2026-08-31T12:52:02Z</time></trkpt><trkpt lat="59.6514517441" lon="30.7360757422"><ele>6172.28</ele><time>2026-08-31T12:52:03Z</time></trkpt><trkpt lat="59.6514580306" lon="30.7360754069"><ele>6168.44</ele><time>2026-08-31T12:52:04Z</time></trkpt><trkpt lat="59.6514630597" lon="30.7360726409"><ele>6165.07</ele><time>2026-08-31T12:52:05Z</time></trkpt><trkpt lat="59.6514701005" lon="30.7360710483"><ele>6161.71</ele><time>2026-08-31T12:52:06Z</time></trkpt><trkpt lat="59.6514781471" lon="30.7360566314"><ele>6158.34</ele><time>2026-08-31T12:52:07Z</time></trkpt><trkpt lat="59.6514840145" lon="30.7360445615"><ele>6154.98</ele><time>2026-08-31T12:52:08Z</time></trkpt><trkpt lat="59.6514876187" lon="30.7360435557"><ele>6151.61</ele><time>2026-08-31T12:52:09Z</time></trkpt><trkpt lat="59.6514873672" lon="30.7360409573"><ele>6148.25</ele><time>2026-08-31T12:52:10Z</time></trkpt><trkpt lat="59.6514872834" lon="30.7360394485"><ele>6144.88</ele><time>2026-08-31T12:52:11Z</time></trkpt><trkpt lat="59.6514868643" lon="30.7360366825"><ele>6141.52</ele><time>2026-08-31T12:52:12Z</time></trkpt><trkpt lat="59.6514895465" lon="30.7360402867"><ele>6138.16</ele><time>2026-08-31T12:52:13Z</time></trkpt><trkpt lat="59.6514913067" lon="30.7360371854"><ele>6134.79</ele><time>2026-08-31T12:52:14Z</time></trkpt><trkpt lat="59.6514925640" lon="30.7360302284"><ele>6131.43</ele><time>2026-08-31T12:52:15Z</time></trkpt><trkpt lat="59.6514931507" lon="30.7360262051"><ele>6128.06</ele><time>2026-08-31T12:52:16Z</time></trkpt><trkpt lat="59.6514933184" lon="30.7360233553"><ele>6124.70</ele><time>2026-08-31T12:52:17Z</time></trkpt><trkpt lat="59.6514944080" lon="30.7360196672"><ele>6121.33</ele><time>2026-08-31T12:52:18Z</time></trkpt><trkpt lat="59.6514946595" lon="30.7360186614"><ele>6117.97</ele><time>2026-08-31T12:52:19Z</time></trkpt><trkpt lat="59.6514949948" lon="30.7360174879"><ele>6114.60</ele><time>2026-08-31T12:52:20Z</time></trkpt><trkpt lat="59.6514955815" lon="30.7360165659"><ele>6110.76</ele><time>2026-08-31T12:52:21Z</time></trkpt><trkpt lat="59.6514956653" lon="30.7360149734"><ele>6107.39</ele><time>2026-08-31T12:52:22Z</time></trkpt><trkpt lat="59.6514950786" lon="30.7360128779"><ele>6104.03</ele><time>2026-08-31T12:52:23Z</time></trkpt><trkpt lat="59.6514994372" lon="30.7360077649"><ele>6100.66</ele><time>2026-08-31T12:52:24Z</time></trkpt><trkpt lat="59.6515042149" lon="30.7360072620"><ele>6097.30</ele><time>2026-08-31T12:52:25Z</time></trkpt><trkpt lat="59.6515119262" lon="30.7360042445"><ele>6093.93</ele><time>2026-08-31T12:52:26Z</time></trkpt><trkpt lat="59.6515174583" lon="30.7359985448"><ele>6090.57</ele><time>2026-08-31T12:52:27Z</time></trkpt><trkpt lat="59.6515198052" lon="30.7359922584"><ele>6087.21</ele><time>2026-08-31T12:52:28Z</time></trkpt><trkpt lat="59.6515203081" lon="30.7359886542"><ele>6083.84</ele><time>2026-08-31T12:52:29Z</time></trkpt><trkpt lat="59.6515212301" lon="30.7359866425"><ele>6080.48</ele><time>2026-08-31T12:52:30Z</time></trkpt><trkpt lat="59.6515242476" lon="30.7359847147"><ele>6077.11</ele><time>2026-08-31T12:52:31Z</time></trkpt><trkpt lat="59.6515363175" lon="30.7359737344"><ele>6073.75</ele><time>2026-08-31T12:52:32Z</time></trkpt><trkpt lat="59.6515374910" lon="30.7359733153"><ele>6070.38</ele><time>2026-08-31T12:52:33Z</time></trkpt><trkpt lat="59.6515399218" lon="30.7359707169"><ele>6067.50</ele><time>2026-08-31T12:52:34Z</time></trkpt><trkpt lat="59.6515411790" lon="30.7359702978"><ele>6064.13</ele><time>2026-08-31T12:52:35Z</time></trkpt><trkpt lat="59.6515437774" lon="30.7359687891"><ele>6060.77</ele><time>2026-08-31T12:52:36Z</time></trkpt><trkpt lat="59.6515556797" lon="30.7359646820"><ele>6057.40</ele><time>2026-08-31T12:52:37Z</time></trkpt><trkpt lat="59.6515639778" lon="30.7359531149"><ele>6054.04</ele><time>2026-08-31T12:52:38Z</time></trkpt><trkpt lat="59.6515666600" lon="30.7359547913"><ele>6050.68</ele><time>2026-08-31T12:52:39Z</time></trkpt><trkpt lat="59.6515657380" lon="30.7359423023"><ele>6047.31</ele><time>2026-08-31T12:52:40Z</time></trkpt><trkpt lat="59.6515669953" lon="30.7359379437"><ele>6043.95</ele><time>2026-08-31T12:52:41Z</time></trkpt><trkpt lat="59.6515734494" lon="30.7359282207"><ele>6040.58</ele><time>2026-08-31T12:52:42Z</time></trkpt><trkpt lat="59.6515807416" lon="30.7359190006"><ele>6037.22</ele><time>2026-08-31T12:52:43Z</time></trkpt><trkpt lat="59.6515906323" lon="30.7359013986"><ele>6033.85</ele><time>2026-08-31T12:52:44Z</time></trkpt><trkpt lat="59.6515944041" lon="30.7358950283"><ele>6030.49</ele><time>2026-08-31T12:52:45Z</time></trkpt><trkpt lat="59.6516023669" lon="30.7358891610"><ele>6027.12</ele><time>2026-08-31T12:52:46Z</time></trkpt><trkpt lat="59.6516032051" lon="30.7358875684"><ele>6023.76</ele><time>2026-08-31T12:52:47Z</time></trkpt><trkpt lat="59.6516040433" lon="30.7358858921"><ele>6020.39</ele><time>2026-08-31T12:52:48Z</time></trkpt><trkpt lat="59.6516059712" lon="30.7358839642"><ele>6017.03</ele><time>2026-08-31T12:52:49Z</time></trkpt><trkpt lat="59.6516071446" lon="30.7358811982"><ele>6013.66</ele><time>2026-08-31T12:52:50Z</time></trkpt><trkpt lat="59.6516081505" lon="30.7358776778"><ele>6010.78</ele><time>2026-08-31T12:52:51Z</time></trkpt><trkpt lat="59.6516084019" lon="30.7358765882"><ele>6007.42</ele><time>2026-08-31T12:52:52Z</time></trkpt><trkpt lat="59.6516090725" lon="30.7358749118"><ele>6004.05</ele><time>2026-08-31T12:52:53Z</time></trkpt><trkpt lat="59.6516095754" lon="30.7358740736"><ele>6000.69</ele><time>2026-08-31T12:52:54Z</time></trkpt><trkpt lat="59.6516099107" lon="30.7358728163"><ele>5997.32</ele><time>2026-08-31T12:52:55Z</time></trkpt><trkpt lat="59.6516142692" lon="30.7358668651"><ele>5993.96</ele><time>2026-08-31T12:52:56Z</time></trkpt><trkpt lat="59.6516144369" lon="30.7358660270"><ele>5990.59</ele><time>2026-08-31T12:52:57Z</time></trkpt><trkpt lat="59.6516189631" lon="30.7358549628"><ele>5987.23</ele><time>2026-08-31T12:52:58Z</time></trkpt><trkpt lat="59.6516256686" lon="30.7358339243"><ele>5983.86</ele><time>2026-08-31T12:52:59Z</time></trkpt><trkpt lat="59.6516355593" lon="30.7358112093"><ele>5980.98</ele><time>2026-08-31T12:53:00Z</time></trkpt><trkpt lat="59.6516433544" lon="30.7357997261"><ele>5977.62</ele><time>2026-08-31T12:53:01Z</time></trkpt><trkpt lat="59.6516453661" lon="30.7357972953"><ele>5974.25</ele><time>2026-08-31T12:53:02Z</time></trkpt><trkpt lat="59.6516467910" lon="30.7357952837"><ele>5970.89</ele><time>2026-08-31T12:53:03Z</time></trkpt><trkpt lat="59.6516447794" lon="30.7357925177"><ele>5967.52</ele><time>2026-08-31T12:53:04Z</time></trkpt><trkpt lat="59.6516476292" lon="30.7357946131"><ele>5964.16</ele><time>2026-08-31T12:53:05Z</time></trkpt><trkpt lat="59.6516473778" lon="30.7357934397"><ele>5960.79</ele><time>2026-08-31T12:53:06Z</time></trkpt><trkpt lat="59.6516470425" lon="30.7357924338"><ele>5957.91</ele><time>2026-08-31T12:53:07Z</time></trkpt><trkpt lat="59.6516468748" lon="30.7357913442"><ele>5954.54</ele><time>2026-08-31T12:53:08Z</time></trkpt><trkpt lat="59.6516467910" lon="30.7357907575"><ele>5951.18</ele><time>2026-08-31T12:53:09Z</time></trkpt><trkpt lat="59.6516472101" lon="30.7357886620"><ele>5947.81</ele><time>2026-08-31T12:53:10Z</time></trkpt><trkpt lat="59.6516480483" lon="30.7357756700"><ele>5944.45</ele><time>2026-08-31T12:53:11Z</time></trkpt><trkpt lat="59.6516500600" lon="30.7357625943"><ele>5941.08</ele><time>2026-08-31T12:53:12Z</time></trkpt><trkpt lat="59.6516518202" lon="30.7357580680"><ele>5938.20</ele><time>2026-08-31T12:53:13Z</time></trkpt><trkpt lat="59.6516596992" lon="30.7357479259"><ele>5934.84</ele><time>2026-08-31T12:53:14Z</time></trkpt><trkpt lat="59.6516613755" lon="30.7357498538"><ele>5931.47</ele><time>2026-08-31T12:53:15Z</time></trkpt><trkpt lat="59.6516631357" lon="30.7357405499"><ele>5928.11</ele><time>2026-08-31T12:53:16Z</time></trkpt><trkpt lat="59.6516691707" lon="30.7357275579"><ele>5924.74</ele><time>2026-08-31T12:53:17Z</time></trkpt><trkpt lat="59.6516762115" lon="30.7357109617"><ele>5921.38</ele><time>2026-08-31T12:53:18Z</time></trkpt><trkpt lat="59.6516778879" lon="30.7357076928"><ele>5918.49</ele><time>2026-08-31T12:53:19Z</time></trkpt><trkpt lat="59.6516788099" lon="30.7357034180"><ele>5915.13</ele><time>2026-08-31T12:53:20Z</time></trkpt><trkpt lat="59.6516842581" lon="30.7356911805"><ele>5911.76</ele><time>2026-08-31T12:53:21Z</time></trkpt><trkpt lat="59.6516865212" lon="30.7356834691"><ele>5908.40</ele><time>2026-08-31T12:53:22Z</time></trkpt><trkpt lat="59.6516868565" lon="30.7356805354"><ele>5905.52</ele><time>2026-08-31T12:53:23Z</time></trkpt><trkpt lat="59.6516887844" lon="30.7356792782"><ele>5902.15</ele><time>2026-08-31T12:53:24Z</time></trkpt><trkpt lat="59.6516882814" lon="30.7356742490"><ele>5898.79</ele><time>2026-08-31T12:53:25Z</time></trkpt><trkpt lat="59.6516911313" lon="30.7356568985"><ele>5895.42</ele><time>2026-08-31T12:53:26Z</time></trkpt><trkpt lat="59.6516925562" lon="30.7356394641"><ele>5892.06</ele><time>2026-08-31T12:53:27Z</time></trkpt><trkpt lat="59.6516909637" lon="30.7356346026"><ele>5889.17</ele><time>2026-08-31T12:53:28Z</time></trkpt><trkpt lat="59.6516926400" lon="30.7356254663"><ele>5885.81</ele><time>2026-08-31T12:53:29Z</time></trkpt><trkpt lat="59.6516933944" lon="30.7356231194"><ele>5882.44</ele><time>2026-08-31T12:53:30Z</time></trkpt><trkpt lat="59.6516936459" lon="30.7356204372"><ele>5879.08</ele><time>2026-08-31T12:53:31Z</time></trkpt><trkpt lat="59.6516949032" lon="30.7356175873"><ele>5876.20</ele><time>2026-08-31T12:53:32Z</time></trkpt><trkpt lat="59.6516959090" lon="30.7356130611"><ele>5872.83</ele><time>2026-08-31T12:53:33Z</time></trkpt><trkpt lat="59.6517043747" lon="30.7355977222"><ele>5869.47</ele><time>2026-08-31T12:53:34Z</time></trkpt><trkpt lat="59.6517182048" lon="30.7355700620"><ele>5863.22</ele><time>2026-08-31T12:53:36Z</time></trkpt><trkpt lat="59.6517200489" lon="30.7355613448"><ele>5859.85</ele><time>2026-08-31T12:53:37Z</time></trkpt><trkpt lat="59.6517192945" lon="30.7355556451"><ele>5856.49</ele><time>2026-08-31T12:53:38Z</time></trkpt><trkpt lat="59.6517192945" lon="30.7355519570"><ele>5853.12</ele><time>2026-08-31T12:53:39Z</time></trkpt><trkpt lat="59.6517200489" lon="30.7355506998"><ele>5850.24</ele><time>2026-08-31T12:53:40Z</time></trkpt><trkpt lat="59.6517210547" lon="30.7355469279"><ele>5846.88</ele><time>2026-08-31T12:53:41Z</time></trkpt><trkpt lat="59.6517209709" lon="30.7355446648"><ele>5843.51</ele><time>2026-08-31T12:53:42Z</time></trkpt><trkpt lat="59.6517210547" lon="30.7355429884"><ele>5840.63</ele><time>2026-08-31T12:53:43Z</time></trkpt><trkpt lat="59.6517224796" lon="30.7355386298"><ele>5837.26</ele><time>2026-08-31T12:53:44Z</time></trkpt><trkpt lat="59.6517221443" lon="30.7355317567"><ele>5833.90</ele><time>2026-08-31T12:53:45Z</time></trkpt><trkpt lat="59.6517235693" lon="30.7355275657"><ele>5830.53</ele><time>2026-08-31T12:53:46Z</time></trkpt><trkpt lat="59.6517259162" lon="30.7355237938"><ele>5827.65</ele><time>2026-08-31T12:53:47Z</time></trkpt><trkpt lat="59.6517282631" lon="30.7355139870"><ele>5824.28</ele><time>2026-08-31T12:53:48Z</time></trkpt><trkpt lat="59.6517301071" lon="30.7355112210"><ele>5820.92</ele><time>2026-08-31T12:53:49Z</time></trkpt><trkpt lat="59.6517310292" lon="30.7355018333"><ele>5818.04</ele><time>2026-08-31T12:53:50Z</time></trkpt><trkpt lat="59.6517319512" lon="30.7354999054"><ele>5814.67</ele><time>2026-08-31T12:53:51Z</time></trkpt><trkpt lat="59.6517331246" lon="30.7354971394"><ele>5811.31</ele><time>2026-08-31T12:53:52Z</time></trkpt><trkpt lat="59.6517353877" lon="30.7354939543"><ele>5808.42</ele><time>2026-08-31T12:53:53Z</time></trkpt><trkpt lat="59.6517311130" lon="30.7354906015"><ele>5805.06</ele><time>2026-08-31T12:53:54Z</time></trkpt><trkpt lat="59.6517273411" lon="30.7354874164"><ele>5801.69</ele><time>2026-08-31T12:53:55Z</time></trkpt><trkpt lat="59.6517277602" lon="30.7354802918"><ele>5798.81</ele><time>2026-08-31T12:53:56Z</time></trkpt><trkpt lat="59.6517278440" lon="30.7354774419"><ele>5795.45</ele><time>2026-08-31T12:53:57Z</time></trkpt><trkpt lat="59.6517279278" lon="30.7354742568"><ele>5792.08</ele><time>2026-08-31T12:53:58Z</time></trkpt><trkpt lat="59.6517280955" lon="30.7354746759"><ele>5789.20</ele><time>2026-08-31T12:53:59Z</time></trkpt><trkpt lat="59.6517385729" lon="30.7354863267"><ele>5785.83</ele><time>2026-08-31T12:54:00Z</time></trkpt><trkpt lat="59.6517482959" lon="30.7354885060"><ele>5782.47</ele><time>2026-08-31T12:54:01Z</time></trkpt><trkpt lat="59.6517529059" lon="30.7354925293"><ele>5779.58</ele><time>2026-08-31T12:54:02Z</time></trkpt><trkpt lat="59.6517586894" lon="30.7355003245"><ele>5776.22</ele><time>2026-08-31T12:54:03Z</time></trkpt><trkpt lat="59.6517600305" lon="30.7355023362"><ele>5773.33</ele><time>2026-08-31T12:54:04Z</time></trkpt><trkpt lat="59.6517596953" lon="30.7355074491"><ele>5769.97</ele><time>2026-08-31T12:54:05Z</time></trkpt><trkpt lat="59.6517601982" lon="30.7355037611"><ele>5766.61</ele><time>2026-08-31T12:54:06Z</time></trkpt><trkpt lat="59.6517603658" lon="30.7355042640"><ele>5763.72</ele><time>2026-08-31T12:54:07Z</time></trkpt><trkpt lat="59.6517605335" lon="30.7355063595"><ele>5760.36</ele><time>2026-08-31T12:54:08Z</time></trkpt><trkpt lat="59.6517593600" lon="30.7355174236"><ele>5756.99</ele><time>2026-08-31T12:54:09Z</time></trkpt><trkpt lat="59.6517582703" lon="30.7355185132"><ele>5754.11</ele><time>2026-08-31T12:54:10Z</time></trkpt><trkpt lat="59.6517536603" lon="30.7355315890"><ele>5750.74</ele><time>2026-08-31T12:54:11Z</time></trkpt><trkpt lat="59.6517505590" lon="30.7355314214"><ele>5747.86</ele><time>2026-08-31T12:54:12Z</time></trkpt><trkpt lat="59.6517497208" lon="30.7355430722"><ele>5744.50</ele><time>2026-08-31T12:54:13Z</time></trkpt><trkpt lat="59.6517491341" lon="30.7355451677"><ele>5741.13</ele><time>2026-08-31T12:54:14Z</time></trkpt><trkpt lat="59.6517431829" lon="30.7355618477"><ele>5738.25</ele><time>2026-08-31T12:54:15Z</time></trkpt><trkpt lat="59.6517379861" lon="30.7355764322"><ele>5734.88</ele><time>2026-08-31T12:54:16Z</time></trkpt><trkpt lat="59.6517372318" lon="30.7355785277"><ele>5732.00</ele><time>2026-08-31T12:54:17Z</time></trkpt><trkpt lat="59.6517368127" lon="30.7355812099"><ele>5728.63</ele><time>2026-08-31T12:54:18Z</time></trkpt><trkpt lat="59.6517342143" lon="30.7356006559"><ele>5725.75</ele><time>2026-08-31T12:54:19Z</time></trkpt><trkpt lat="59.6517291851" lon="30.7356191799"><ele>5722.39</ele><time>2026-08-31T12:54:20Z</time></trkpt><trkpt lat="59.6517269220" lon="30.7356244605"><ele>5719.02</ele><time>2026-08-31T12:54:21Z</time></trkpt><trkpt lat="59.6517229825" lon="30.7356362790"><ele>5716.14</ele><time>2026-08-31T12:54:22Z</time></trkpt><trkpt lat="59.6517177019" lon="30.7356507797"><ele>5712.77</ele><time>2026-08-31T12:54:23Z</time></trkpt><trkpt lat="59.6517149359" lon="30.7356552221"><ele>5709.89</ele><time>2026-08-31T12:54:24Z</time></trkpt><trkpt lat="59.6517134272" lon="30.7356673758"><ele>5706.52</ele><time>2026-08-31T12:54:25Z</time></trkpt><trkpt lat="59.6517141815" lon="30.7356708962"><ele>5703.64</ele><time>2026-08-31T12:54:26Z</time></trkpt><trkpt lat="59.6517154388" lon="30.7356885821"><ele>5700.27</ele><time>2026-08-31T12:54:27Z</time></trkpt><trkpt lat="59.6517139301" lon="30.7357073575"><ele>5697.39</ele><time>2026-08-31T12:54:28Z</time></trkpt><trkpt lat="59.6517158579" lon="30.7357111294"><ele>5694.03</ele><time>2026-08-31T12:54:29Z</time></trkpt><trkpt lat="59.6517118346" lon="30.7357294858"><ele>5690.66</ele><time>2026-08-31T12:54:30Z</time></trkpt><trkpt lat="59.6517125890" lon="30.7357340958"><ele>5687.78</ele><time>2026-08-31T12:54:31Z</time></trkpt><trkpt lat="59.6517114155" lon="30.7357268035"><ele>5684.41</ele><time>2026-08-31T12:54:32Z</time></trkpt><trkpt lat="59.6517152712" lon="30.7357361913"><ele>5681.53</ele><time>2026-08-31T12:54:33Z</time></trkpt><trkpt lat="59.6517199650" lon="30.7357308269"><ele>5678.16</ele><time>2026-08-31T12:54:34Z</time></trkpt><trkpt lat="59.6517208032" lon="30.7357294019"><ele>5675.28</ele><time>2026-08-31T12:54:35Z</time></trkpt><trkpt lat="59.6517206356" lon="30.7357347663"><ele>5671.92</ele><time>2026-08-31T12:54:36Z</time></trkpt><trkpt lat="59.6517223958" lon="30.7357293181"><ele>5669.03</ele><time>2026-08-31T12:54:37Z</time></trkpt><trkpt lat="59.6517204680" lon="30.7357278932"><ele>5665.67</ele><time>2026-08-31T12:54:38Z</time></trkpt><trkpt lat="59.6517224796" lon="30.7357291505"><ele>5662.78</ele><time>2026-08-31T12:54:39Z</time></trkpt><trkpt lat="59.6517226472" lon="30.7357289828"><ele>5659.42</ele><time>2026-08-31T12:54:40Z</time></trkpt><trkpt lat="59.6517228987" lon="30.7357288152"><ele>5656.53</ele><time>2026-08-31T12:54:41Z</time></trkpt><trkpt lat="59.6517232340" lon="30.7357286476"><ele>5653.17</ele><time>2026-08-31T12:54:42Z</time></trkpt><trkpt lat="59.6517243236" lon="30.7357245404"><ele>5650.29</ele><time>2026-08-31T12:54:43Z</time></trkpt><trkpt lat="59.6517248265" lon="30.7357259654"><ele>5646.92</ele><time>2026-08-31T12:54:44Z</time></trkpt><trkpt lat="59.6517251618" lon="30.7357252110"><ele>5644.04</ele><time>2026-08-31T12:54:45Z</time></trkpt><trkpt lat="59.6517254971" lon="30.7357239537"><ele>5640.67</ele><time>2026-08-31T12:54:46Z</time></trkpt><trkpt lat="59.6517260838" lon="30.7357221935"><ele>5637.79</ele><time>2026-08-31T12:54:47Z</time></trkpt><trkpt lat="59.6517268382" lon="30.7357211038"><ele>5634.42</ele><time>2026-08-31T12:54:48Z</time></trkpt><trkpt lat="59.6517281793" lon="30.7357190922"><ele>5631.54</ele><time>2026-08-31T12:54:49Z</time></trkpt><trkpt lat="59.6517287660" lon="30.7357179187"><ele>5628.66</ele><time>2026-08-31T12:54:50Z</time></trkpt><trkpt lat="59.6517293528" lon="30.7357165776"><ele>5625.29</ele><time>2026-08-31T12:54:51Z</time></trkpt><trkpt lat="59.6517299395" lon="30.7357157394"><ele>5622.41</ele><time>2026-08-31T12:54:52Z</time></trkpt><trkpt lat="59.6517317835" lon="30.7357123028"><ele>5619.04</ele><time>2026-08-31T12:54:53Z</time></trkpt><trkpt lat="59.6517313644" lon="30.7357143145"><ele>5616.16</ele><time>2026-08-31T12:54:54Z</time></trkpt><trkpt lat="59.6517314482" lon="30.7357146498"><ele>5612.79</ele><time>2026-08-31T12:54:55Z</time></trkpt><trkpt lat="59.6517327055" lon="30.7357144821"><ele>5609.91</ele><time>2026-08-31T12:54:56Z</time></trkpt><trkpt lat="59.6517340466" lon="30.7357130572"><ele>5606.55</ele><time>2026-08-31T12:54:57Z</time></trkpt><trkpt lat="59.6517342981" lon="30.7357123028"><ele>5603.66</ele><time>2026-08-31T12:54:58Z</time></trkpt><trkpt lat="59.6517351363" lon="30.7357117999"><ele>5600.78</ele><time>2026-08-31T12:54:59Z</time></trkpt><trkpt lat="59.6517365612" lon="30.7357107941"><ele>5597.41</ele><time>2026-08-31T12:55:00Z</time></trkpt><trkpt lat="59.6517373156" lon="30.7357099559"><ele>5594.53</ele><time>2026-08-31T12:55:01Z</time></trkpt><trkpt lat="59.6517392434" lon="30.7357059326"><ele>5591.17</ele><time>2026-08-31T12:55:02Z</time></trkpt><trkpt lat="59.6517379023" lon="30.7357090339"><ele>5588.28</ele><time>2026-08-31T12:55:03Z</time></trkpt><trkpt lat="59.6517395787" lon="30.7357068546"><ele>5584.92</ele><time>2026-08-31T12:55:04Z</time></trkpt><trkpt lat="59.6517469548" lon="30.7356954552"><ele>5582.03</ele><time>2026-08-31T12:55:05Z</time></trkpt><trkpt lat="59.6517534927" lon="30.7356868219"><ele>5579.15</ele><time>2026-08-31T12:55:06Z</time></trkpt><trkpt lat="59.6517598629" lon="30.7356747519"><ele>5575.78</ele><time>2026-08-31T12:55:07Z</time></trkpt><trkpt lat="59.6517667361" lon="30.7356671244"><ele>5572.90</ele><time>2026-08-31T12:55:08Z</time></trkpt><trkpt lat="59.6517758723" lon="30.7356618438"><ele>5570.02</ele><time>2026-08-31T12:55:09Z</time></trkpt><trkpt lat="59.6517800633" lon="30.7356627658"><ele>5566.65</ele><time>2026-08-31T12:55:10Z</time></trkpt><trkpt lat="59.6517860144" lon="30.7356495224"><ele>5563.77</ele><time>2026-08-31T12:55:11Z</time></trkpt><trkpt lat="59.6517928038" lon="30.7356360275"><ele>5560.40</ele><time>2026-08-31T12:55:12Z</time></trkpt><trkpt lat="59.6517985035" lon="30.7356230356"><ele>5557.52</ele><time>2026-08-31T12:55:13Z</time></trkpt><trkpt lat="59.6518052090" lon="30.7356066909"><ele>5554.63</ele><time>2026-08-31T12:55:14Z</time></trkpt><trkpt lat="59.6518145129" lon="30.7355884183"><ele>5551.27</ele><time>2026-08-31T12:55:15Z</time></trkpt><trkpt lat="59.6518199611" lon="30.7355772704"><ele>5548.39</ele><time>2026-08-31T12:55:16Z</time></trkpt><trkpt lat="59.6518173628" lon="30.7355733309"><ele>5545.02</ele><time>2026-08-31T12:55:17Z</time></trkpt><trkpt lat="59.6518272534" lon="30.7355719898"><ele>5542.14</ele><time>2026-08-31T12:55:18Z</time></trkpt><trkpt lat="59.6518486273" lon="30.7355517894"><ele>5535.89</ele><time>2026-08-31T12:55:20Z</time></trkpt><trkpt lat="59.6518506389" lon="30.7355512027"><ele>5533.01</ele><time>2026-08-31T12:55:21Z</time></trkpt><trkpt lat="59.6518616192" lon="30.7355502807"><ele>5530.12</ele><time>2026-08-31T12:55:22Z</time></trkpt><trkpt lat="59.6518731024" lon="30.7355484366"><ele>5526.76</ele><time>2026-08-31T12:55:23Z</time></trkpt><trkpt lat="59.6518835798" lon="30.7355494425"><ele>5523.87</ele><time>2026-08-31T12:55:24Z</time></trkpt><trkpt lat="59.6518943086" lon="30.7355518732"><ele>5520.99</ele><time>2026-08-31T12:55:25Z</time></trkpt><trkpt lat="59.6519036964" lon="30.7355482690"><ele>5517.62</ele><time>2026-08-31T12:55:26Z</time></trkpt><trkpt lat="59.6519093122" lon="30.7355422340"><ele>5514.74</ele><time>2026-08-31T12:55:27Z</time></trkpt><trkpt lat="59.6519181132" lon="30.7355455868"><ele>5511.86</ele><time>2026-08-31T12:55:28Z</time></trkpt><trkpt lat="59.6519264951" lon="30.7355504483"><ele>5508.49</ele><time>2026-08-31T12:55:29Z</time></trkpt><trkpt lat="59.6519306023" lon="30.7355472632"><ele>5505.61</ele><time>2026-08-31T12:55:30Z</time></trkpt><trkpt lat="59.6519339550" lon="30.7355506998"><ele>5502.72</ele><time>2026-08-31T12:55:31Z</time></trkpt><trkpt lat="59.6519378107" lon="30.7355443295"><ele>5499.36</ele><time>2026-08-31T12:55:32Z</time></trkpt><trkpt lat="59.6519387327" lon="30.7355380431"><ele>5496.48</ele><time>2026-08-31T12:55:33Z</time></trkpt><trkpt lat="59.6519390680" lon="30.7355354447"><ele>5493.59</ele><time>2026-08-31T12:55:34Z</time></trkpt><trkpt lat="59.6519462764" lon="30.7355193514"><ele>5490.71</ele><time>2026-08-31T12:55:35Z</time></trkpt><trkpt lat="59.6519557480" lon="30.7355048507"><ele>5487.34</ele><time>2026-08-31T12:55:36Z</time></trkpt><trkpt lat="59.6519622859" lon="30.7354854047"><ele>5484.46</ele><time>2026-08-31T12:55:37Z</time></trkpt><trkpt lat="59.6519687399" lon="30.7354727481"><ele>5481.57</ele><time>2026-08-31T12:55:38Z</time></trkpt><trkpt lat="59.6519745234" lon="30.7354658749"><ele>5478.21</ele><time>2026-08-31T12:55:39Z</time></trkpt><trkpt lat="59.6519786306" lon="30.7354654558"><ele>5475.33</ele><time>2026-08-31T12:55:40Z</time></trkpt><trkpt lat="59.6519763675" lon="30.7354550622"><ele>5472.44</ele><time>2026-08-31T12:55:41Z</time></trkpt><trkpt lat="59.6519765351" lon="30.7354527153"><ele>5469.56</ele><time>2026-08-31T12:55:42Z</time></trkpt><trkpt lat="59.6519772895" lon="30.7354496978"><ele>5466.19</ele><time>2026-08-31T12:55:43Z</time></trkpt><trkpt lat="59.6519742720" lon="30.7354392204"><ele>5463.31</ele><time>2026-08-31T12:55:44Z</time></trkpt><trkpt lat="59.6519813128" lon="30.7354347780"><ele>5460.43</ele><time>2026-08-31T12:55:45Z</time></trkpt><trkpt lat="59.6519891918" lon="30.7354317605"><ele>5457.06</ele><time>2026-08-31T12:55:46Z</time></trkpt><trkpt lat="59.6519952267" lon="30.7354276534"><ele>5454.18</ele><time>2026-08-31T12:55:47Z</time></trkpt><trkpt lat="59.6519969869" lon="30.7354318444"><ele>5451.29</ele><time>2026-08-31T12:55:48Z</time></trkpt><trkpt lat="59.6520017646" lon="30.7354215346"><ele>5448.41</ele><time>2026-08-31T12:55:49Z</time></trkpt><trkpt lat="59.6520075481" lon="30.7354167569"><ele>5445.04</ele><time>2026-08-31T12:55:50Z</time></trkpt><trkpt lat="59.6520093922" lon="30.7354113087"><ele>5442.16</ele><time>2026-08-31T12:55:51Z</time></trkpt><trkpt lat="59.6520112362" lon="30.7354055252"><ele>5439.28</ele><time>2026-08-31T12:55:52Z</time></trkpt><trkpt lat="59.6520183608" lon="30.7354003284"><ele>5433.03</ele><time>2026-08-31T12:55:54Z</time></trkpt><trkpt lat="59.6520191990" lon="30.7354012504"><ele>5427.26</ele><time>2026-08-31T12:55:56Z</time></trkpt><trkpt lat="59.6520261560" lon="30.7353816368"><ele>5421.49</ele><time>2026-08-31T12:55:58Z</time></trkpt><trkpt lat="59.6520280838" lon="30.7353730872"><ele>5415.24</ele><time>2026-08-31T12:56:00Z</time></trkpt><trkpt lat="59.6520363819" lon="30.7353661302"><ele>5409.48</ele><time>2026-08-31T12:56:02Z</time></trkpt><trkpt lat="59.6520506311" lon="30.7353465166"><ele>5403.23</ele><time>2026-08-31T12:56:04Z</time></trkpt><trkpt lat="59.6520537324" lon="30.7353445049"><ele>5397.46</ele><time>2026-08-31T12:56:06Z</time></trkpt><trkpt lat="59.6520776208" lon="30.7353187725"><ele>5391.21</ele><time>2026-08-31T12:56:08Z</time></trkpt><trkpt lat="59.6520932950" lon="30.7353027631"><ele>5385.44</ele><time>2026-08-31T12:56:10Z</time></trkpt><trkpt lat="59.6520961449" lon="30.7352839038"><ele>5379.67</ele><time>2026-08-31T12:56:12Z</time></trkpt><trkpt lat="59.6520970669" lon="30.7352824789"><ele>5373.43</ele><time>2026-08-31T12:56:14Z</time></trkpt><trkpt lat="59.6521067061" lon="30.7352647930"><ele>5367.66</ele><time>2026-08-31T12:56:16Z</time></trkpt><trkpt lat="59.6521132439" lon="30.7352614403"><ele>5361.89</ele><time>2026-08-31T12:56:18Z</time></trkpt><trkpt lat="59.6521205362" lon="30.7352612726"><ele>5355.64</ele><time>2026-08-31T12:56:20Z</time></trkpt><trkpt lat="59.6521287505" lon="30.7352574170"><ele>5349.87</ele><time>2026-08-31T12:56:22Z</time></trkpt><trkpt lat="59.6521509625" lon="30.7352578361"><ele>5344.11</ele><time>2026-08-31T12:56:24Z</time></trkpt><trkpt lat="59.6521620266" lon="30.7352525555"><ele>5338.34</ele><time>2026-08-31T12:56:26Z</time></trkpt><trkpt lat="59.6521733422" lon="30.7352212910"><ele>5332.09</ele><time>2026-08-31T12:56:28Z</time></trkpt><trkpt lat="59.6521795448" lon="30.7352012582"><ele>5326.32</ele><time>2026-08-31T12:56:30Z</time></trkpt><trkpt lat="59.6521833166" lon="30.7351759449"><ele>5320.55</ele><time>2026-08-31T12:56:32Z</time></trkpt><trkpt lat="59.6521839034" lon="30.7351647969"><ele>5314.79</ele><time>2026-08-31T12:56:34Z</time></trkpt><trkpt lat="59.6521859150" lon="30.7351548225"><ele>5309.02</ele><time>2026-08-31T12:56:36Z</time></trkpt><trkpt lat="59.6521912795" lon="30.7351446804"><ele>5302.77</ele><time>2026-08-31T12:56:38Z</time></trkpt><trkpt lat="59.6521989070" lon="30.7351436745"><ele>5297.00</ele><time>2026-08-31T12:56:40Z</time></trkpt><trkpt lat="59.6522026788" lon="30.7351376396"><ele>5291.23</ele><time>2026-08-31T12:56:42Z</time></trkpt><trkpt lat="59.6522037685" lon="30.7351283357"><ele>5285.47</ele><time>2026-08-31T12:56:44Z</time></trkpt><trkpt lat="59.6522056125" lon="30.7351223845"><ele>5279.70</ele><time>2026-08-31T12:56:46Z</time></trkpt><trkpt lat="59.6522101387" lon="30.7351166010"><ele>5273.93</ele><time>2026-08-31T12:56:48Z</time></trkpt><trkpt lat="59.6522284951" lon="30.7350982446"><ele>5268.16</ele><time>2026-08-31T12:56:50Z</time></trkpt><trkpt lat="59.6522415709" lon="30.7350761164"><ele>5262.39</ele><time>2026-08-31T12:56:52Z</time></trkpt><trkpt lat="59.6522451751" lon="30.7350630406"><ele>5256.15</ele><time>2026-08-31T12:56:54Z</time></trkpt><trkpt lat="59.6522487793" lon="30.7350694109"><ele>5250.38</ele><time>2026-08-31T12:56:56Z</time></trkpt><trkpt lat="59.6522556525" lon="30.7350526471"><ele>5244.61</ele><time>2026-08-31T12:56:58Z</time></trkpt><trkpt lat="59.6522592567" lon="30.7350418344"><ele>5238.84</ele><time>2026-08-31T12:57:00Z</time></trkpt><trkpt lat="59.6522666328" lon="30.7350290939"><ele>5233.07</ele><time>2026-08-31T12:57:02Z</time></trkpt><trkpt lat="59.6522689797" lon="30.7350271661"><ele>5227.31</ele><time>2026-08-31T12:57:04Z</time></trkpt><trkpt lat="59.6522691473" lon="30.7350282557"><ele>5221.54</ele><time>2026-08-31T12:57:06Z</time></trkpt><trkpt lat="59.6522686444" lon="30.7350270823"><ele>5215.77</ele><time>2026-08-31T12:57:08Z</time></trkpt><trkpt lat="59.6522702370" lon="30.7350256573"><ele>5210.00</ele><time>2026-08-31T12:57:10Z</time></trkpt><trkpt lat="59.6522715781" lon="30.7350231428"><ele>5204.23</ele><time>2026-08-31T12:57:12Z</time></trkpt><trkpt lat="59.6522775292" lon="30.7350207120"><ele>5198.47</ele><time>2026-08-31T12:57:14Z</time></trkpt><trkpt lat="59.6522834804" lon="30.7350215502"><ele>5193.18</ele><time>2026-08-31T12:57:16Z</time></trkpt><trkpt lat="59.6522838157" lon="30.7350161020"><ele>5187.41</ele><time>2026-08-31T12:57:18Z</time></trkpt><trkpt lat="59.6522906888" lon="30.7350170240"><ele>5181.64</ele><time>2026-08-31T12:57:20Z</time></trkpt><trkpt lat="59.6522927843" lon="30.7350130007"><ele>5175.88</ele><time>2026-08-31T12:57:22Z</time></trkpt><trkpt lat="59.6522933710" lon="30.7350088935"><ele>5170.11</ele><time>2026-08-31T12:57:24Z</time></trkpt><trkpt lat="59.6522924490" lon="30.7350077201"><ele>5164.34</ele><time>2026-08-31T12:57:26Z</time></trkpt><trkpt lat="59.6522910241" lon="30.7350057084"><ele>5158.57</ele><time>2026-08-31T12:57:28Z</time></trkpt><trkpt lat="59.6522911917" lon="30.7350033615"><ele>5152.80</ele><time>2026-08-31T12:57:30Z</time></trkpt><trkpt lat="59.6522906888" lon="30.7350041158"><ele>5147.52</ele><time>2026-08-31T12:57:32Z</time></trkpt><trkpt lat="59.6522903536" lon="30.7350029424"><ele>5141.75</ele><time>2026-08-31T12:57:34Z</time></trkpt><trkpt lat="59.6522900183" lon="30.7350010145"><ele>5135.98</ele><time>2026-08-31T12:57:36Z</time></trkpt><trkpt lat="59.6522896830" lon="30.7350001764"><ele>5130.21</ele><time>2026-08-31T12:57:38Z</time></trkpt><trkpt lat="59.6522888448" lon="30.7349992543"><ele>5124.44</ele><time>2026-08-31T12:57:40Z</time></trkpt><trkpt lat="59.6522886772" lon="30.7349970751"><ele>5119.16</ele><time>2026-08-31T12:57:42Z</time></trkpt><trkpt lat="59.6522881743" lon="30.7349954825"><ele>5113.39</ele><time>2026-08-31T12:57:44Z</time></trkpt><trkpt lat="59.6522872522" lon="30.7349928003"><ele>5107.62</ele><time>2026-08-31T12:57:46Z</time></trkpt><trkpt lat="59.6522868332" lon="30.7349922135"><ele>5102.33</ele><time>2026-08-31T12:57:48Z</time></trkpt><trkpt lat="59.6522865817" lon="30.7349922974"><ele>5096.57</ele><time>2026-08-31T12:57:50Z</time></trkpt><trkpt lat="59.6522861626" lon="30.7349907048"><ele>5090.80</ele><time>2026-08-31T12:57:52Z</time></trkpt><trkpt lat="59.6522851568" lon="30.7349875197"><ele>5085.03</ele><time>2026-08-31T12:57:54Z</time></trkpt><trkpt lat="59.6522843186" lon="30.7349859271"><ele>5079.74</ele><time>2026-08-31T12:57:56Z</time></trkpt><trkpt lat="59.6522844862" lon="30.7349858433"><ele>5073.98</ele><time>2026-08-31T12:57:58Z</time></trkpt><trkpt lat="59.6522849891" lon="30.7349862624"><ele>5068.69</ele><time>2026-08-31T12:58:00Z</time></trkpt><trkpt lat="59.6522852406" lon="30.7349848375"><ele>5062.92</ele><time>2026-08-31T12:58:02Z</time></trkpt><trkpt lat="59.6522856597" lon="30.7349843346"><ele>5057.15</ele><time>2026-08-31T12:58:04Z</time></trkpt><trkpt lat="59.6522861626" lon="30.7349831611"><ele>5051.87</ele><time>2026-08-31T12:58:06Z</time></trkpt><trkpt lat="59.6522868332" lon="30.7349817362"><ele>5046.10</ele><time>2026-08-31T12:58:08Z</time></trkpt><trkpt lat="59.6522889286" lon="30.7349827420"><ele>5040.81</ele><time>2026-08-31T12:58:10Z</time></trkpt><trkpt lat="59.6522911917" lon="30.7349844184"><ele>5035.04</ele><time>2026-08-31T12:58:12Z</time></trkpt><trkpt lat="59.6522930358" lon="30.7349793892"><ele>5029.27</ele><time>2026-08-31T12:58:14Z</time></trkpt><trkpt lat="59.6522966400" lon="30.7349741925"><ele>5023.99</ele><time>2026-08-31T12:58:16Z</time></trkpt><trkpt lat="59.6523095481" lon="30.7349695824"><ele>5018.22</ele><time>2026-08-31T12:58:18Z</time></trkpt><trkpt lat="59.6523223724" lon="30.7349547464"><ele>5012.93</ele><time>2026-08-31T12:58:20Z</time></trkpt><trkpt lat="59.6523386333" lon="30.7349489629"><ele>5007.16</ele><time>2026-08-31T12:58:22Z</time></trkpt><trkpt lat="59.6523398068" lon="30.7349558361"><ele>5001.88</ele><time>2026-08-31T12:58:24Z</time></trkpt><trkpt lat="59.6523415670" lon="30.7349615358"><ele>4996.11</ele><time>2026-08-31T12:58:26Z</time></trkpt><trkpt lat="59.6523442492" lon="30.7349645533"><ele>4990.82</ele><time>2026-08-31T12:58:28Z</time></trkpt><trkpt lat="59.6523465961" lon="30.7349663135"><ele>4985.53</ele><time>2026-08-31T12:58:30Z</time></trkpt><trkpt lat="59.6523547266" lon="30.7349669002"><ele>4979.77</ele><time>2026-08-31T12:58:32Z</time></trkpt><trkpt lat="59.6523541398" lon="30.7349578477"><ele>4974.48</ele><time>2026-08-31T12:58:34Z</time></trkpt><trkpt lat="59.6523590852" lon="30.7349577639"><ele>4968.71</ele><time>2026-08-31T12:58:36Z</time></trkpt><trkpt lat="59.6523685567" lon="30.7349388208"><ele>4963.42</ele><time>2026-08-31T12:58:38Z</time></trkpt><trkpt lat="59.6523745079" lon="30.7349288464"><ele>4958.14</ele><time>2026-08-31T12:58:40Z</time></trkpt><trkpt lat="59.6523760166" lon="30.7349240687"><ele>4952.37</ele><time>2026-08-31T12:58:42Z</time></trkpt><trkpt lat="59.6523766872" lon="30.7349172793"><ele>4947.08</ele><time>2026-08-31T12:58:44Z</time></trkpt><trkpt lat="59.6523814648" lon="30.7349197101"><ele>4941.31</ele><time>2026-08-31T12:58:46Z</time></trkpt><trkpt lat="59.6523837280" lon="30.7349209674"><ele>4936.03</ele><time>2026-08-31T12:58:48Z</time></trkpt><trkpt lat="59.6523857396" lon="30.7349191234"><ele>4930.74</ele><time>2026-08-31T12:58:50Z</time></trkpt><trkpt lat="59.6523915231" lon="30.7349161897"><ele>4925.45</ele><time>2026-08-31T12:58:52Z</time></trkpt><trkpt lat="59.6524003241" lon="30.7349065505"><ele>4919.68</ele><time>2026-08-31T12:58:54Z</time></trkpt><trkpt lat="59.6524019167" lon="30.7349036168"><ele>4914.40</ele><time>2026-08-31T12:58:56Z</time></trkpt><trkpt lat="59.6524030063" lon="30.7349004317"><ele>4909.11</ele><time>2026-08-31T12:58:58Z</time></trkpt><trkpt lat="59.6524046827" lon="30.7348966599"><ele>4903.34</ele><time>2026-08-31T12:59:00Z</time></trkpt><trkpt lat="59.6524051856" lon="30.7348938938"><ele>4898.05</ele><time>2026-08-31T12:59:02Z</time></trkpt><trkpt lat="59.6524080355" lon="30.7348906249"><ele>4895.65</ele><time>2026-08-31T12:59:04Z</time></trkpt><trkpt lat="59.6524101309" lon="30.7348797284"><ele>4889.88</ele><time>2026-08-31T12:59:08Z</time></trkpt><trkpt lat="59.6524109691" lon="30.7348870207"><ele>4884.60</ele><time>2026-08-31T12:59:10Z</time></trkpt><trkpt lat="59.6524123102" lon="30.7348862663"><ele>4879.31</ele><time>2026-08-31T12:59:12Z</time></trkpt><trkpt lat="59.6524150763" lon="30.7348770462"><ele>4874.02</ele><time>2026-08-31T12:59:14Z</time></trkpt><trkpt lat="59.6524211951" lon="30.7348674070"><ele>4868.73</ele><time>2026-08-31T12:59:16Z</time></trkpt><trkpt lat="59.6524224523" lon="30.7348695863"><ele>4862.97</ele><time>2026-08-31T12:59:18Z</time></trkpt><trkpt lat="59.6524247993" lon="30.7348603662"><ele>4857.68</ele><time>2026-08-31T12:59:20Z</time></trkpt><trkpt lat="59.6524284873" lon="30.7348572649"><ele>4852.39</ele><time>2026-08-31T12:59:22Z</time></trkpt><trkpt lat="59.6524395514" lon="30.7348391600"><ele>4847.10</ele><time>2026-08-31T12:59:24Z</time></trkpt><trkpt lat="59.6524489392" lon="30.7348293532"><ele>4841.82</ele><time>2026-08-31T12:59:26Z</time></trkpt><trkpt lat="59.6524545550" lon="30.7348140981"><ele>4836.53</ele><time>2026-08-31T12:59:28Z</time></trkpt><trkpt lat="59.6524610091" lon="30.7347976696"><ele>4831.24</ele><time>2026-08-31T12:59:30Z</time></trkpt><trkpt lat="59.6524666250" lon="30.7347928081"><ele>4825.96</ele><time>2026-08-31T12:59:32Z</time></trkpt><trkpt lat="59.6524688881" lon="30.7347883657"><ele>4820.67</ele><time>2026-08-31T12:59:34Z</time></trkpt><trkpt lat="59.6524695586" lon="30.7347852644"><ele>4815.38</ele><time>2026-08-31T12:59:36Z</time></trkpt><trkpt lat="59.6524688881" lon="30.7347831689"><ele>4810.09</ele><time>2026-08-31T12:59:38Z</time></trkpt><trkpt lat="59.6524694748" lon="30.7347814925"><ele>4804.81</ele><time>2026-08-31T12:59:40Z</time></trkpt><trkpt lat="59.6524709836" lon="30.7347778883"><ele>4799.52</ele><time>2026-08-31T12:59:42Z</time></trkpt><trkpt lat="59.6524703130" lon="30.7347773854"><ele>4794.23</ele><time>2026-08-31T12:59:44Z</time></trkpt><trkpt lat="59.6524711512" lon="30.7347749546"><ele>4788.94</ele><time>2026-08-31T12:59:46Z</time></trkpt><trkpt lat="59.6524740011" lon="30.7347715180"><ele>4783.66</ele><time>2026-08-31T12:59:48Z</time></trkpt><trkpt lat="59.6524760127" lon="30.7347653154"><ele>4778.37</ele><time>2026-08-31T12:59:50Z</time></trkpt><trkpt lat="59.6524784435" lon="30.7347594481"><ele>4773.08</ele><time>2026-08-31T12:59:52Z</time></trkpt><trkpt lat="59.6524827182" lon="30.7347519044"><ele>4767.80</ele><time>2026-08-31T12:59:54Z</time></trkpt><trkpt lat="59.6524952911" lon="30.7347339671"><ele>4762.51</ele><time>2026-08-31T12:59:56Z</time></trkpt><trkpt lat="59.6525159944" lon="30.7347161137"><ele>4757.22</ele><time>2026-08-31T12:59:58Z</time></trkpt><trkpt lat="59.6525406372" lon="30.7347036246"><ele>4751.93</ele><time>2026-08-31T13:00:00Z</time></trkpt><trkpt lat="59.6525545511" lon="30.7346938178"><ele>4746.65</ele><time>2026-08-31T13:00:02Z</time></trkpt><trkpt lat="59.6525615081" lon="30.7346738689"><ele>4741.36</ele><time>2026-08-31T13:00:04Z</time></trkpt><trkpt lat="59.6525672916" lon="30.7346607093"><ele>4736.07</ele><time>2026-08-31T13:00:06Z</time></trkpt><trkpt lat="59.6525734942" lon="30.7346507348"><ele>4730.79</ele><time>2026-08-31T13:00:08Z</time></trkpt><trkpt lat="59.6525760926" lon="30.7346354797"><ele>4725.98</ele><time>2026-08-31T13:00:10Z</time></trkpt><trkpt lat="59.6525800321" lon="30.7346185483"><ele>4720.69</ele><time>2026-08-31T13:00:12Z</time></trkpt><trkpt lat="59.6525808703" lon="30.7346153632"><ele>4715.40</ele><time>2026-08-31T13:00:14Z</time></trkpt><trkpt lat="59.6525863186" lon="30.7346066460"><ele>4710.12</ele><time>2026-08-31T13:00:16Z</time></trkpt><trkpt lat="59.6525897551" lon="30.7346004434"><ele>4704.83</ele><time>2026-08-31T13:00:18Z</time></trkpt><trkpt lat="59.6526052617" lon="30.7345946599"><ele>4700.02</ele><time>2026-08-31T13:00:20Z</time></trkpt><trkpt lat="59.6526256297" lon="30.7346027903"><ele>4694.74</ele><time>2026-08-31T13:00:22Z</time></trkpt><trkpt lat="59.6526490990" lon="30.7345897146"><ele>4689.45</ele><time>2026-08-31T13:00:24Z</time></trkpt><trkpt lat="59.6526599117" lon="30.7345786504"><ele>4684.16</ele><time>2026-08-31T13:00:26Z</time></trkpt><trkpt lat="59.6526710596" lon="30.7345552649"><ele>4679.35</ele><time>2026-08-31T13:00:28Z</time></trkpt><trkpt lat="59.6526843030" lon="30.7345431950"><ele>4674.07</ele><time>2026-08-31T13:00:30Z</time></trkpt><trkpt lat="59.6526951157" lon="30.7345281914"><ele>4668.78</ele><time>2026-08-31T13:00:32Z</time></trkpt><trkpt lat="59.6526998095" lon="30.7345240843"><ele>4663.49</ele><time>2026-08-31T13:00:34Z</time></trkpt><trkpt lat="59.6527005639" lon="30.7345229946"><ele>4658.69</ele><time>2026-08-31T13:00:36Z</time></trkpt><trkpt lat="59.6527015697" lon="30.7345160376"><ele>4653.40</ele><time>2026-08-31T13:00:38Z</time></trkpt><trkpt lat="59.6527031623" lon="30.7345230784"><ele>4648.11</ele><time>2026-08-31T13:00:40Z</time></trkpt><trkpt lat="59.6527040005" lon="30.7345236652"><ele>4643.31</ele><time>2026-08-31T13:00:42Z</time></trkpt><trkpt lat="59.6527049225" lon="30.7345250063"><ele>4638.02</ele><time>2026-08-31T13:00:44Z</time></trkpt><trkpt lat="59.6527146455" lon="30.7345284428"><ele>4632.73</ele><time>2026-08-31T13:00:46Z</time></trkpt><trkpt lat="59.6527185012" lon="30.7345307060"><ele>4627.92</ele><time>2026-08-31T13:00:48Z</time></trkpt><trkpt lat="59.6527206805" lon="30.7345305383"><ele>4622.64</ele><time>2026-08-31T13:00:50Z</time></trkpt><trkpt lat="59.6527233627" lon="30.7345307898"><ele>4617.83</ele><time>2026-08-31T13:00:52Z</time></trkpt><trkpt lat="59.6527248714" lon="30.7345298678"><ele>4612.54</ele><time>2026-08-31T13:00:54Z</time></trkpt><trkpt lat="59.6527256258" lon="30.7345088292"><ele>4607.74</ele><time>2026-08-31T13:00:56Z</time></trkpt><trkpt lat="59.6527210996" lon="30.7345046382"><ele>4602.45</ele><time>2026-08-31T13:00:58Z</time></trkpt><trkpt lat="59.6527250390" lon="30.7344937418"><ele>4597.16</ele><time>2026-08-31T13:01:00Z</time></trkpt><trkpt lat="59.6527241170" lon="30.7344934065"><ele>4592.35</ele><time>2026-08-31T13:01:02Z</time></trkpt><trkpt lat="59.6527236979" lon="30.7344887964"><ele>4587.07</ele><time>2026-08-31T13:01:04Z</time></trkpt><trkpt lat="59.6527275536" lon="30.7344812527"><ele>4582.26</ele><time>2026-08-31T13:01:06Z</time></trkpt><trkpt lat="59.6527349297" lon="30.7344753016"><ele>4576.97</ele><time>2026-08-31T13:01:08Z</time></trkpt><trkpt lat="59.6527391206" lon="30.7344623096"><ele>4572.17</ele><time>2026-08-31T13:01:10Z</time></trkpt><trkpt lat="59.6527388692" lon="30.7344581187"><ele>4566.88</ele><time>2026-08-31T13:01:12Z</time></trkpt><trkpt lat="59.6527391206" lon="30.7344514132"><ele>4562.07</ele><time>2026-08-31T13:01:14Z</time></trkpt><trkpt lat="59.6527418029" lon="30.7344326377"><ele>4556.79</ele><time>2026-08-31T13:01:16Z</time></trkpt><trkpt lat="59.6527458262" lon="30.7344075758"><ele>4551.98</ele><time>2026-08-31T13:01:18Z</time></trkpt><trkpt lat="59.6527499333" lon="30.7344064023"><ele>4547.17</ele><time>2026-08-31T13:01:20Z</time></trkpt><trkpt lat="59.6527572256" lon="30.7343923207"><ele>4541.89</ele><time>2026-08-31T13:01:22Z</time></trkpt><trkpt lat="59.6527659427" lon="30.7343805861"><ele>4537.08</ele><time>2026-08-31T13:01:24Z</time></trkpt><trkpt lat="59.6527677868" lon="30.7343788259"><ele>4531.79</ele><time>2026-08-31T13:01:26Z</time></trkpt><trkpt lat="59.6527748276" lon="30.7343603019"><ele>4526.99</ele><time>2026-08-31T13:01:28Z</time></trkpt><trkpt lat="59.6527846344" lon="30.7343599666"><ele>4522.18</ele><time>2026-08-31T13:01:30Z</time></trkpt><trkpt lat="59.6528048348" lon="30.7343483157"><ele>4516.89</ele><time>2026-08-31T13:01:32Z</time></trkpt><trkpt lat="59.6528137196" lon="30.7343508303"><ele>4512.08</ele><time>2026-08-31T13:01:34Z</time></trkpt><trkpt lat="59.6528328303" lon="30.7343431190"><ele>4507.28</ele><time>2026-08-31T13:01:36Z</time></trkpt><trkpt lat="59.6528425533" lon="30.7343423646"><ele>4501.99</ele><time>2026-08-31T13:01:38Z</time></trkpt><trkpt lat="59.6528424695" lon="30.7343377545"><ele>4497.18</ele><time>2026-08-31T13:01:40Z</time></trkpt><trkpt lat="59.6528540365" lon="30.7343362458"><ele>4492.38</ele><time>2026-08-31T13:01:42Z</time></trkpt><trkpt lat="59.6528725605" lon="30.7343192305"><ele>4487.09</ele><time>2026-08-31T13:01:44Z</time></trkpt><trkpt lat="59.6528803557" lon="30.7343157940"><ele>4482.28</ele><time>2026-08-31T13:01:46Z</time></trkpt><trkpt lat="59.6528951079" lon="30.7342932466"><ele>4477.48</ele><time>2026-08-31T13:01:48Z</time></trkpt><trkpt lat="59.6529097762" lon="30.7342744712"><ele>4472.67</ele><time>2026-08-31T13:01:50Z</time></trkpt><trkpt lat="59.6529150568" lon="30.7342640776"><ele>4467.38</ele><time>2026-08-31T13:01:52Z</time></trkpt><trkpt lat="59.6529177390" lon="30.7342520077"><ele>4462.58</ele><time>2026-08-31T13:01:54Z</time></trkpt><trkpt lat="59.6529168170" lon="30.7342429552"><ele>4457.77</ele><time>2026-08-31T13:01:56Z</time></trkpt><trkpt lat="59.6529217623" lon="30.7342216652"><ele>4452.96</ele><time>2026-08-31T13:01:58Z</time></trkpt><trkpt lat="59.6529208403" lon="30.7342151273"><ele>4447.68</ele><time>2026-08-31T13:02:00Z</time></trkpt><trkpt lat="59.6529314853" lon="30.7342051528"><ele>4442.87</ele><time>2026-08-31T13:02:02Z</time></trkpt><trkpt lat="59.6529303957" lon="30.7342004590"><ele>4438.06</ele><time>2026-08-31T13:02:04Z</time></trkpt><trkpt lat="59.6529323235" lon="30.7341968548"><ele>4433.26</ele><time>2026-08-31T13:02:06Z</time></trkpt><trkpt lat="59.6529327426" lon="30.7341928314"><ele>4428.45</ele><time>2026-08-31T13:02:08Z</time></trkpt><trkpt lat="59.6529328264" lon="30.7341899816"><ele>4423.64</ele><time>2026-08-31T13:02:10Z</time></trkpt><trkpt lat="59.6529370174" lon="30.7341852877"><ele>4418.36</ele><time>2026-08-31T13:02:12Z</time></trkpt><trkpt lat="59.6529384423" lon="30.7341804262"><ele>4413.55</ele><time>2026-08-31T13:02:14Z</time></trkpt><trkpt lat="59.6529425494" lon="30.7341827732"><ele>4408.74</ele><time>2026-08-31T13:02:16Z</time></trkpt><trkpt lat="59.6529443096" lon="30.7341826893"><ele>4403.94</ele><time>2026-08-31T13:02:18Z</time></trkpt><trkpt lat="59.6529452316" lon="30.7341814321"><ele>4399.13</ele><time>2026-08-31T13:02:20Z</time></trkpt><trkpt lat="59.6529458184" lon="30.7341774926"><ele>4394.32</ele><time>2026-08-31T13:02:22Z</time></trkpt><trkpt lat="59.6529471595" lon="30.7341749780"><ele>4389.52</ele><time>2026-08-31T13:02:24Z</time></trkpt><trkpt lat="59.6529453155" lon="30.7341687754"><ele>4384.71</ele><time>2026-08-31T13:02:26Z</time></trkpt><trkpt lat="59.6529485844" lon="30.7341658417"><ele>4379.90</ele><time>2026-08-31T13:02:28Z</time></trkpt><trkpt lat="59.6529453155" lon="30.7341562863"><ele>4375.10</ele><time>2026-08-31T13:02:30Z</time></trkpt><trkpt lat="59.6529443935" lon="30.7341433782"><ele>4370.29</ele><time>2026-08-31T13:02:32Z</time></trkpt><trkpt lat="59.6529464889" lon="30.7341346610"><ele>4365.48</ele><time>2026-08-31T13:02:34Z</time></trkpt><trkpt lat="59.6529486682" lon="30.7341261953"><ele>4360.68</ele><time>2026-08-31T13:02:36Z</time></trkpt><trkpt lat="59.6529446449" lon="30.7341017202"><ele>4355.87</ele><time>2026-08-31T13:02:38Z</time></trkpt><trkpt lat="59.6529440582" lon="30.7340960205"><ele>4351.06</ele><time>2026-08-31T13:02:40Z</time></trkpt><trkpt lat="59.6529432200" lon="30.7340758201"><ele>4346.26</ele><time>2026-08-31T13:02:42Z</time></trkpt><trkpt lat="59.6529427171" lon="30.7340583019"><ele>4341.45</ele><time>2026-08-31T13:02:44Z</time></trkpt><trkpt lat="59.6529477462" lon="30.7340463996"><ele>4336.64</ele><time>2026-08-31T13:02:46Z</time></trkpt><trkpt lat="59.6529505961" lon="30.7340364251"><ele>4331.84</ele><time>2026-08-31T13:02:48Z</time></trkpt><trkpt lat="59.6529591456" lon="30.7340173982"><ele>4327.03</ele><time>2026-08-31T13:02:50Z</time></trkpt><trkpt lat="59.6529618278" lon="30.7340154704"><ele>4322.22</ele><time>2026-08-31T13:02:52Z</time></trkpt><trkpt lat="59.6529632527" lon="30.7340150513"><ele>4317.42</ele><time>2026-08-31T13:02:54Z</time></trkpt><trkpt lat="59.6529675275" lon="30.7340116985"><ele>4312.61</ele><time>2026-08-31T13:02:56Z</time></trkpt><trkpt lat="59.6529731434" lon="30.7340043224"><ele>4307.80</ele><time>2026-08-31T13:02:58Z</time></trkpt><trkpt lat="59.6529739816" lon="30.7340010535"><ele>4303.00</ele><time>2026-08-31T13:03:00Z</time></trkpt><trkpt lat="59.6529751550" lon="30.7339981198"><ele>4298.67</ele><time>2026-08-31T13:03:02Z</time></trkpt><trkpt lat="59.6529784240" lon="30.7339956891"><ele>4293.87</ele><time>2026-08-31T13:03:04Z</time></trkpt><trkpt lat="59.6529830340" lon="30.7339703757"><ele>4289.06</ele><time>2026-08-31T13:03:06Z</time></trkpt><trkpt lat="59.6529870573" lon="30.7339460682"><ele>4284.25</ele><time>2026-08-31T13:03:08Z</time></trkpt><trkpt lat="59.6529893205" lon="30.7339365967"><ele>4279.45</ele><time>2026-08-31T13:03:10Z</time></trkpt><trkpt lat="59.6530125383" lon="30.7338929269"><ele>4274.64</ele><time>2026-08-31T13:03:12Z</time></trkpt><trkpt lat="59.6530162264" lon="30.7338902447"><ele>4270.31</ele><time>2026-08-31T13:03:14Z</time></trkpt><trkpt lat="59.6530191600" lon="30.7338960283"><ele>4265.51</ele><time>2026-08-31T13:03:16Z</time></trkpt><trkpt lat="59.6530255303" lon="30.7338946871"><ele>4260.70</ele><time>2026-08-31T13:03:18Z</time></trkpt><trkpt lat="59.6530284639" lon="30.7338915020"><ele>4255.89</ele><time>2026-08-31T13:03:20Z</time></trkpt><trkpt lat="59.6530286316" lon="30.7338863891"><ele>4251.09</ele><time>2026-08-31T13:03:22Z</time></trkpt><trkpt lat="59.6530343313" lon="30.7338878978"><ele>4246.76</ele><time>2026-08-31T13:03:24Z</time></trkpt><trkpt lat="59.6530420426" lon="30.7338958606"><ele>4241.95</ele><time>2026-08-31T13:03:26Z</time></trkpt><trkpt lat="59.6530445572" lon="30.7338941004"><ele>4237.15</ele><time>2026-08-31T13:03:28Z</time></trkpt><trkpt lat="59.6530462336" lon="30.7338968664"><ele>4232.82</ele><time>2026-08-31T13:03:30Z</time></trkpt><trkpt lat="59.6530485805" lon="30.7338993810"><ele>4228.02</ele><time>2026-08-31T13:03:32Z</time></trkpt><trkpt lat="59.6530643385" lon="30.7339118700"><ele>4223.21</ele><time>2026-08-31T13:03:34Z</time></trkpt><trkpt lat="59.6530766599" lon="30.7339189947"><ele>4218.88</ele><time>2026-08-31T13:03:36Z</time></trkpt><trkpt lat="59.6530890651" lon="30.7339238562"><ele>4214.08</ele><time>2026-08-31T13:03:38Z</time></trkpt><trkpt lat="59.6531061642" lon="30.7339176536"><ele>4209.27</ele><time>2026-08-31T13:03:40Z</time></trkpt><trkpt lat="59.6531153843" lon="30.7339143846"><ele>4204.94</ele><time>2026-08-31T13:03:42Z</time></trkpt><trkpt lat="59.6531181503" lon="30.7339172345"><ele>4200.14</ele><time>2026-08-31T13:03:44Z</time></trkpt><trkpt lat="59.6531349979" lon="30.7339160610"><ele>4195.33</ele><time>2026-08-31T13:03:46Z</time></trkpt><trkpt lat="59.6531452239" lon="30.7339153066"><ele>4191.00</ele><time>2026-08-31T13:03:48Z</time></trkpt><trkpt lat="59.6531541087" lon="30.7339123730"><ele>4186.20</ele><time>2026-08-31T13:03:50Z</time></trkpt><trkpt lat="59.6531679388" lon="30.7339123730"><ele>4181.39</ele><time>2026-08-31T13:03:52Z</time></trkpt><trkpt lat="59.6531706210" lon="30.7339116186"><ele>4177.07</ele><time>2026-08-31T13:03:54Z</time></trkpt><trkpt lat="59.6531857084" lon="30.7338972017"><ele>4172.26</ele><time>2026-08-31T13:03:56Z</time></trkpt><trkpt lat="59.6531972755" lon="30.7338919211"><ele>4167.93</ele><time>2026-08-31T13:03:58Z</time></trkpt><trkpt lat="59.6532064117" lon="30.7338867243"><ele>4163.13</ele><time>2026-08-31T13:04:00Z</time></trkpt><trkpt lat="59.6532095131" lon="30.7338852994"><ele>4158.80</ele><time>2026-08-31T13:04:02Z</time></trkpt><trkpt lat="59.6532260254" lon="30.7338656858"><ele>4153.99</ele><time>2026-08-31T13:04:04Z</time></trkpt><trkpt lat="59.6532406937" lon="30.7338436414"><ele>4149.67</ele><time>2026-08-31T13:04:06Z</time></trkpt><trkpt lat="59.6532431245" lon="30.7338395342"><ele>4144.86</ele><time>2026-08-31T13:04:08Z</time></trkpt><trkpt lat="59.6532442980" lon="30.7338288054"><ele>4140.54</ele><time>2026-08-31T13:04:10Z</time></trkpt><trkpt lat="59.6532457229" lon="30.7338252850"><ele>4135.73</ele><time>2026-08-31T13:04:12Z</time></trkpt><trkpt lat="59.6532454714" lon="30.7338223513"><ele>4131.40</ele><time>2026-08-31T13:04:14Z</time></trkpt><trkpt lat="59.6532442141" lon="30.7338132989"><ele>4126.60</ele><time>2026-08-31T13:04:16Z</time></trkpt><trkpt lat="59.6532477345" lon="30.7337982114"><ele>4122.27</ele><time>2026-08-31T13:04:18Z</time></trkpt><trkpt lat="59.6532537695" lon="30.7337775081"><ele>4117.46</ele><time>2026-08-31T13:04:20Z</time></trkpt><trkpt lat="59.6532604750" lon="30.7337640971"><ele>4113.14</ele><time>2026-08-31T13:04:22Z</time></trkpt><trkpt lat="59.6532726288" lon="30.7337535359"><ele>4108.81</ele><time>2026-08-31T13:04:24Z</time></trkpt><trkpt lat="59.6532831062" lon="30.7337436453"><ele>4104.01</ele><time>2026-08-31T13:04:26Z</time></trkpt><trkpt lat="59.6532901470" lon="30.7337326650"><ele>4099.68</ele><time>2026-08-31T13:04:28Z</time></trkpt><trkpt lat="59.6532983612" lon="30.7337208465"><ele>4094.87</ele><time>2026-08-31T13:04:30Z</time></trkpt><trkpt lat="59.6533072460" lon="30.7336987182"><ele>4090.55</ele><time>2026-08-31T13:04:32Z</time></trkpt><trkpt lat="59.6533162147" lon="30.7336853910"><ele>4086.22</ele><time>2026-08-31T13:04:34Z</time></trkpt><trkpt lat="59.6533195674" lon="30.7336796075"><ele>4081.41</ele><time>2026-08-31T13:04:36Z</time></trkpt><trkpt lat="59.6533307992" lon="30.7336471695"><ele>4077.09</ele><time>2026-08-31T13:04:38Z</time></trkpt><trkpt lat="59.6533572022" lon="30.7335986383"><ele>4072.76</ele><time>2026-08-31T13:04:40Z</time></trkpt><trkpt lat="59.6533591300" lon="30.7335941959"><ele>4067.96</ele><time>2026-08-31T13:04:42Z</time></trkpt><trkpt lat="59.6533619799" lon="30.7335755043"><ele>4063.63</ele><time>2026-08-31T13:04:44Z</time></trkpt><trkpt lat="59.6533667576" lon="30.7335679606"><ele>4059.30</ele><time>2026-08-31T13:04:46Z</time></trkpt><trkpt lat="59.6533815935" lon="30.7335454971"><ele>4054.50</ele><time>2026-08-31T13:04:48Z</time></trkpt><trkpt lat="59.6533856168" lon="30.7335424796"><ele>4050.17</ele><time>2026-08-31T13:04:50Z</time></trkpt><trkpt lat="59.6533902269" lon="30.7335411385"><ele>4045.85</ele><time>2026-08-31T13:04:52Z</time></trkpt><trkpt lat="59.6533973515" lon="30.7335382048"><ele>4041.52</ele><time>2026-08-31T13:04:54Z</time></trkpt><trkpt lat="59.6534237545" lon="30.7335196808"><ele>4036.71</ele><time>2026-08-31T13:04:56Z</time></trkpt><trkpt lat="59.6534307953" lon="30.7335105445"><ele>4032.39</ele><time>2026-08-31T13:04:58Z</time></trkpt><trkpt lat="59.6534346510" lon="30.7335071918"><ele>4028.06</ele><time>2026-08-31T13:05:00Z</time></trkpt><trkpt lat="59.6534412727" lon="30.7335062698"><ele>4023.74</ele><time>2026-08-31T13:05:02Z</time></trkpt><trkpt lat="59.6534482297" lon="30.7335060183"><ele>4018.93</ele><time>2026-08-31T13:05:04Z</time></trkpt><trkpt lat="59.6534496546" lon="30.7334972173"><ele>4014.60</ele><time>2026-08-31T13:05:06Z</time></trkpt><trkpt lat="59.6534591261" lon="30.7334809564"><ele>4010.28</ele><time>2026-08-31T13:05:08Z</time></trkpt><trkpt lat="59.6534670889" lon="30.7334670424"><ele>4005.95</ele><time>2026-08-31T13:05:10Z</time></trkpt><trkpt lat="59.6534826793" lon="30.7334502786"><ele>4001.62</ele><time>2026-08-31T13:05:12Z</time></trkpt><trkpt lat="59.6534921508" lon="30.7334397174"><ele>3996.82</ele><time>2026-08-31T13:05:14Z</time></trkpt><trkpt lat="59.6535122674" lon="30.7334341016"><ele>3992.49</ele><time>2026-08-31T13:05:16Z</time></trkpt><trkpt lat="59.6535172965" lon="30.7334306650"><ele>3988.17</ele><time>2026-08-31T13:05:18Z</time></trkpt><trkpt lat="59.6535264328" lon="30.7334311679"><ele>3983.84</ele><time>2026-08-31T13:05:20Z</time></trkpt><trkpt lat="59.6535339765" lon="30.7334347721"><ele>3979.51</ele><time>2026-08-31T13:05:22Z</time></trkpt><trkpt lat="59.6535369940" lon="30.7334325090"><ele>3975.19</ele><time>2026-08-31T13:05:24Z</time></trkpt><trkpt lat="59.6535470523" lon="30.7334175892"><ele>3970.86</ele><time>2026-08-31T13:05:26Z</time></trkpt><trkpt lat="59.6535552666" lon="30.7333979756"><ele>3966.54</ele><time>2026-08-31T13:05:28Z</time></trkpt><trkpt lat="59.6535579488" lon="30.7333938684"><ele>3962.21</ele><time>2026-08-31T13:05:30Z</time></trkpt><trkpt lat="59.6535611339" lon="30.7333916053"><ele>3957.89</ele><time>2026-08-31T13:05:32Z</time></trkpt><trkpt lat="59.6535768081" lon="30.7333734166"><ele>3953.08</ele><time>2026-08-31T13:05:34Z</time></trkpt><trkpt lat="59.6535879560" lon="30.7333618496"><ele>3948.75</ele><time>2026-08-31T13:05:36Z</time></trkpt><trkpt lat="59.6535941586" lon="30.7333411463"><ele>3944.43</ele><time>2026-08-31T13:05:38Z</time></trkpt><trkpt lat="59.6536005288" lon="30.7333183475"><ele>3940.10</ele><time>2026-08-31T13:05:40Z</time></trkpt><trkpt lat="59.6536008641" lon="30.7333108038"><ele>3935.77</ele><time>2026-08-31T13:05:42Z</time></trkpt><trkpt lat="59.6536110062" lon="30.7333066128"><ele>3931.45</ele><time>2026-08-31T13:05:44Z</time></trkpt><trkpt lat="59.6536280215" lon="30.7333040982"><ele>3927.12</ele><time>2026-08-31T13:05:46Z</time></trkpt><trkpt lat="59.6536527481" lon="30.7332933694"><ele>3922.80</ele><time>2026-08-31T13:05:48Z</time></trkpt><trkpt lat="59.6536606271" lon="30.7332781982"><ele>3918.47</ele><time>2026-08-31T13:05:50Z</time></trkpt><trkpt lat="59.6536690928" lon="30.7332626916"><ele>3914.15</ele><time>2026-08-31T13:05:52Z</time></trkpt><trkpt lat="59.6536721941" lon="30.7332512923"><ele>3909.82</ele><time>2026-08-31T13:05:54Z</time></trkpt><trkpt lat="59.6536750440" lon="30.7332417369"><ele>3905.97</ele><time>2026-08-31T13:05:56Z</time></trkpt><trkpt lat="59.6536778938" lon="30.7332331873"><ele>3901.65</ele><time>2026-08-31T13:05:58Z</time></trkpt><trkpt lat="59.6536799893" lon="30.7332257275"><ele>3897.32</ele><time>2026-08-31T13:06:00Z</time></trkpt><trkpt lat="59.6536806598" lon="30.7332199439"><ele>3893.00</ele><time>2026-08-31T13:06:02Z</time></trkpt><trkpt lat="59.6536814142" lon="30.7332140766"><ele>3888.67</ele><time>2026-08-31T13:06:04Z</time></trkpt><trkpt lat="59.6536861919" lon="30.7332113944"><ele>3884.34</ele><time>2026-08-31T13:06:06Z</time></trkpt><trkpt lat="59.6536893770" lon="30.7331986539"><ele>3880.02</ele><time>2026-08-31T13:06:08Z</time></trkpt><trkpt lat="59.6537067275" lon="30.7331671380"><ele>3875.69</ele><time>2026-08-31T13:06:10Z</time></trkpt><trkpt lat="59.6537134331" lon="30.7331552356"><ele>3871.37</ele><time>2026-08-31T13:06:12Z</time></trkpt><trkpt lat="59.6537188813" lon="30.7331563253"><ele>3867.04</ele><time>2026-08-31T13:06:14Z</time></trkpt><trkpt lat="59.6537269279" lon="30.7331315987"><ele>3863.20</ele><time>2026-08-31T13:06:16Z</time></trkpt><trkpt lat="59.6537342202" lon="30.7331099734"><ele>3858.87</ele><time>2026-08-31T13:06:18Z</time></trkpt><trkpt lat="59.6537348907" lon="30.7331087999"><ele>3854.54</ele><time>2026-08-31T13:06:20Z</time></trkpt><trkpt lat="59.6537379082" lon="30.7331062015"><ele>3850.22</ele><time>2026-08-31T13:06:22Z</time></trkpt><trkpt lat="59.6537394170" lon="30.7331059501"><ele>3845.89</ele><time>2026-08-31T13:06:24Z</time></trkpt><trkpt lat="59.6537421830" lon="30.7331051119"><ele>3842.05</ele><time>2026-08-31T13:06:26Z</time></trkpt><trkpt lat="59.6537472960" lon="30.7331025973"><ele>3837.72</ele><time>2026-08-31T13:06:28Z</time></trkpt><trkpt lat="59.6537514869" lon="30.7331011724"><ele>3833.39</ele><time>2026-08-31T13:06:30Z</time></trkpt><trkpt lat="59.6537667420" lon="30.7330820616"><ele>3829.07</ele><time>2026-08-31T13:06:32Z</time></trkpt><trkpt lat="59.6537794825" lon="30.7330692373"><ele>3824.74</ele><time>2026-08-31T13:06:34Z</time></trkpt><trkpt lat="59.6537819132" lon="30.7330671418"><ele>3820.90</ele><time>2026-08-31T13:06:36Z</time></trkpt><trkpt lat="59.6537861042" lon="30.7330682315"><ele>3816.57</ele><time>2026-08-31T13:06:38Z</time></trkpt><trkpt lat="59.6537887864" lon="30.7330658007"><ele>3812.25</ele><time>2026-08-31T13:06:40Z</time></trkpt><trkpt lat="59.6537925582" lon="30.7330582570"><ele>3808.40</ele><time>2026-08-31T13:06:42Z</time></trkpt><trkpt lat="59.6537989285" lon="30.7330492046"><ele>3804.07</ele><time>2026-08-31T13:06:44Z</time></trkpt><trkpt lat="59.6538242418" lon="30.7330186106"><ele>3799.75</ele><time>2026-08-31T13:06:46Z</time></trkpt><trkpt lat="59.6538446937" lon="30.7329861727"><ele>3795.42</ele><time>2026-08-31T13:06:48Z</time></trkpt><trkpt lat="59.6538606193" lon="30.7329663914"><ele>3791.58</ele><time>2026-08-31T13:06:50Z</time></trkpt><trkpt lat="59.6538737789" lon="30.7329421677"><ele>3787.25</ele><time>2026-08-31T13:06:52Z</time></trkpt><trkpt lat="59.6538806520" lon="30.7329181116"><ele>3782.93</ele><time>2026-08-31T13:06:54Z</time></trkpt><trkpt lat="59.6538837533" lon="30.7328982465"><ele>3779.08</ele><time>2026-08-31T13:06:56Z</time></trkpt><trkpt lat="59.6538912132" lon="30.7328872662"><ele>3774.75</ele><time>2026-08-31T13:06:58Z</time></trkpt><trkpt lat="59.6538937278" lon="30.7328851707"><ele>3770.91</ele><time>2026-08-31T13:07:00Z</time></trkpt><trkpt lat="59.6538964100" lon="30.7328787167"><ele>3766.58</ele><time>2026-08-31T13:07:02Z</time></trkpt><trkpt lat="59.6539061330" lon="30.7328714244"><ele>3762.26</ele><time>2026-08-31T13:07:04Z</time></trkpt><trkpt lat="59.6539239027" lon="30.7328573428"><ele>3758.41</ele><time>2026-08-31T13:07:06Z</time></trkpt><trkpt lat="59.6539351344" lon="30.7328611985"><ele>3754.09</ele><time>2026-08-31T13:07:08Z</time></trkpt><trkpt lat="59.6539378166" lon="30.7328551635"><ele>3750.24</ele><time>2026-08-31T13:07:10Z</time></trkpt><trkpt lat="59.6539397445" lon="30.7328558341"><ele>3745.91</ele><time>2026-08-31T13:07:12Z</time></trkpt><trkpt lat="59.6539435163" lon="30.7328538224"><ele>3741.59</ele><time>2026-08-31T13:07:14Z</time></trkpt><trkpt lat="59.6539509762" lon="30.7328550797"><ele>3737.74</ele><time>2026-08-31T13:07:16Z</time></trkpt><trkpt lat="59.6539512277" lon="30.7328564208"><ele>3733.42</ele><time>2026-08-31T13:07:18Z</time></trkpt><trkpt lat="59.6539529879" lon="30.7328536548"><ele>3729.57</ele><time>2026-08-31T13:07:20Z</time></trkpt><trkpt lat="59.6539557539" lon="30.7328468654"><ele>3725.25</ele><time>2026-08-31T13:07:22Z</time></trkpt><trkpt lat="59.6539575979" lon="30.7328450214"><ele>3721.40</ele><time>2026-08-31T13:07:24Z</time></trkpt><trkpt lat="59.6539593581" lon="30.7328382321"><ele>3717.07</ele><time>2026-08-31T13:07:26Z</time></trkpt><trkpt lat="59.6539604478" lon="30.7328321133"><ele>3713.23</ele><time>2026-08-31T13:07:28Z</time></trkpt><trkpt lat="59.6539726015" lon="30.7328063808"><ele>3708.90</ele><time>2026-08-31T13:07:30Z</time></trkpt><trkpt lat="59.6539881080" lon="30.7327701710"><ele>3705.06</ele><time>2026-08-31T13:07:32Z</time></trkpt><trkpt lat="59.6539968252" lon="30.7327544969"><ele>3700.73</ele><time>2026-08-31T13:07:34Z</time></trkpt><trkpt lat="59.6540055424" lon="30.7327505574"><ele>3696.89</ele><time>2026-08-31T13:07:36Z</time></trkpt><trkpt lat="59.6540166065" lon="30.7327443548"><ele>3692.56</ele><time>2026-08-31T13:07:38Z</time></trkpt><trkpt lat="59.6540188696" lon="30.7327397447"><ele>3688.72</ele><time>2026-08-31T13:07:40Z</time></trkpt><trkpt lat="59.6540212166" lon="30.7327379845"><ele>3684.87</ele><time>2026-08-31T13:07:42Z</time></trkpt><trkpt lat="59.6540290955" lon="30.7327358890"><ele>3680.54</ele><time>2026-08-31T13:07:44Z</time></trkpt><trkpt lat="59.6540342923" lon="30.7327335421"><ele>3676.70</ele><time>2026-08-31T13:07:46Z</time></trkpt><trkpt lat="59.6540368069" lon="30.7327337097"><ele>3672.37</ele><time>2026-08-31T13:07:48Z</time></trkpt><trkpt lat="59.6540500503" lon="30.7327193767"><ele>3668.53</ele><time>2026-08-31T13:07:50Z</time></trkpt><trkpt lat="59.6540558338" lon="30.7327080611"><ele>3664.68</ele><time>2026-08-31T13:07:52Z</time></trkpt><trkpt lat="59.6540605277" lon="30.7327088993"><ele>3660.36</ele><time>2026-08-31T13:07:54Z</time></trkpt><trkpt lat="59.6540860087" lon="30.7326943148"><ele>3656.51</ele><time>2026-08-31T13:07:56Z</time></trkpt><trkpt lat="59.6541047003" lon="30.7326722704"><ele>3652.19</ele><time>2026-08-31T13:07:58Z</time></trkpt><trkpt lat="59.6541103162" lon="30.7326578535"><ele>3648.34</ele><time>2026-08-31T13:08:00Z</time></trkpt><trkpt lat="59.6541102324" lon="30.7326521538"><ele>3644.50</ele><time>2026-08-31T13:08:02Z</time></trkpt><trkpt lat="59.6541129146" lon="30.7326367311"><ele>3640.17</ele><time>2026-08-31T13:08:04Z</time></trkpt><trkpt lat="59.6541145910" lon="30.7326330431"><ele>3636.32</ele><time>2026-08-31T13:08:06Z</time></trkpt><trkpt lat="59.6541149262" lon="30.7326298580"><ele>3632.48</ele><time>2026-08-31T13:08:08Z</time></trkpt><trkpt lat="59.6541162673" lon="30.7326173689"><ele>3628.63</ele><time>2026-08-31T13:08:10Z</time></trkpt><trkpt lat="59.6541171893" lon="30.7326148544"><ele>3624.31</ele><time>2026-08-31T13:08:12Z</time></trkpt><trkpt lat="59.6541179437" lon="30.7326130103"><ele>3620.46</ele><time>2026-08-31T13:08:14Z</time></trkpt><trkpt lat="59.6541192010" lon="30.7326076459"><ele>3616.62</ele><time>2026-08-31T13:08:16Z</time></trkpt><trkpt lat="59.6541229729" lon="30.7326073945"><ele>3612.29</ele><time>2026-08-31T13:08:18Z</time></trkpt><trkpt lat="59.6541228052" lon="30.7326029520"><ele>3608.45</ele><time>2026-08-31T13:08:20Z</time></trkpt><trkpt lat="59.6541241463" lon="30.7326006051"><ele>3604.60</ele><time>2026-08-31T13:08:22Z</time></trkpt><trkpt lat="59.6541292593" lon="30.7325943187"><ele>3600.76</ele><time>2026-08-31T13:08:24Z</time></trkpt><trkpt lat="59.6541308518" lon="30.7325907145"><ele>3596.43</ele><time>2026-08-31T13:08:26Z</time></trkpt><trkpt lat="59.6541303489" lon="30.7325907145"><ele>3592.58</ele><time>2026-08-31T13:08:28Z</time></trkpt><trkpt lat="59.6541321930" lon="30.7325879484"><ele>3588.74</ele><time>2026-08-31T13:08:30Z</time></trkpt><trkpt lat="59.6541365515" lon="30.7325866912"><ele>3584.89</ele><time>2026-08-31T13:08:32Z</time></trkpt><trkpt lat="59.6541492082" lon="30.7325775549"><ele>3581.05</ele><time>2026-08-31T13:08:34Z</time></trkpt><trkpt lat="59.6541523933" lon="30.7325643953"><ele>3576.72</ele><time>2026-08-31T13:08:36Z</time></trkpt><trkpt lat="59.6541539021" lon="30.7325620484"><ele>3572.88</ele><time>2026-08-31T13:08:38Z</time></trkpt><trkpt lat="59.6541542374" lon="30.7325441111"><ele>3569.03</ele><time>2026-08-31T13:08:40Z</time></trkpt><trkpt lat="59.6541585959" lon="30.7325385790"><ele>3565.19</ele><time>2026-08-31T13:08:42Z</time></trkpt><trkpt lat="59.6541610267" lon="30.7325323764"><ele>3561.34</ele><time>2026-08-31T13:08:44Z</time></trkpt><trkpt lat="59.6541663911" lon="30.7325322088"><ele>3557.50</ele><time>2026-08-31T13:08:46Z</time></trkpt><trkpt lat="59.6541680675" lon="30.7325313706"><ele>3553.17</ele><time>2026-08-31T13:08:48Z</time></trkpt><trkpt lat="59.6541690733" lon="30.7325289398"><ele>3549.32</ele><time>2026-08-31T13:08:50Z</time></trkpt><trkpt lat="59.6541698277" lon="30.7325270958"><ele>3545.48</ele><time>2026-08-31T13:08:52Z</time></trkpt><trkpt lat="59.6541704983" lon="30.7325263415"><ele>3541.63</ele><time>2026-08-31T13:08:54Z</time></trkpt><trkpt lat="59.6541698277" lon="30.7325141877"><ele>3537.79</ele><time>2026-08-31T13:08:56Z</time></trkpt><trkpt lat="59.6541757789" lon="30.7324969210"><ele>3533.94</ele><time>2026-08-31T13:08:58Z</time></trkpt><trkpt lat="59.6541796345" lon="30.7324994355"><ele>3530.10</ele><time>2026-08-31T13:09:00Z</time></trkpt><trkpt lat="59.6541801374" lon="30.7324990164"><ele>3526.25</ele><time>2026-08-31T13:09:02Z</time></trkpt><trkpt lat="59.6541792993" lon="30.7325069793"><ele>3522.41</ele><time>2026-08-31T13:09:04Z</time></trkpt><trkpt lat="59.6541946381" lon="30.7325061411"><ele>3518.56</ele><time>2026-08-31T13:09:06Z</time></trkpt><trkpt lat="59.6541986614" lon="30.7325038780"><ele>3514.72</ele><time>2026-08-31T13:09:08Z</time></trkpt><trkpt lat="59.6542102285" lon="30.7324820012"><ele>3510.87</ele><time>2026-08-31T13:09:10Z</time></trkpt><trkpt lat="59.6542157605" lon="30.7324747089"><ele>3506.55</ele><time>2026-08-31T13:09:12Z</time></trkpt><trkpt lat="59.6542169340" lon="30.7324675843"><ele>3502.70</ele><time>2026-08-31T13:09:14Z</time></trkpt><trkpt lat="59.6542231366" lon="30.7324470486"><ele>3498.86</ele><time>2026-08-31T13:09:16Z</time></trkpt><trkpt lat="59.6542316861" lon="30.7324339729"><ele>3495.01</ele><time>2026-08-31T13:09:18Z</time></trkpt><trkpt lat="59.6542299259" lon="30.7324414328"><ele>3491.17</ele><time>2026-08-31T13:09:20Z</time></trkpt><trkpt lat="59.6542297583" lon="30.7324387506"><ele>3487.32</ele><time>2026-08-31T13:09:22Z</time></trkpt><trkpt lat="59.6542292554" lon="30.7324377447"><ele>3483.47</ele><time>2026-08-31T13:09:24Z</time></trkpt><trkpt lat="59.6542295069" lon="30.7324329671"><ele>3479.63</ele><time>2026-08-31T13:09:26Z</time></trkpt><trkpt lat="59.6542335302" lon="30.7324277703"><ele>3476.26</ele><time>2026-08-31T13:09:28Z</time></trkpt><trkpt lat="59.6542419121" lon="30.7324247528"><ele>3472.42</ele><time>2026-08-31T13:09:30Z</time></trkpt><trkpt lat="59.6542416606" lon="30.7324202266"><ele>3468.57</ele><time>2026-08-31T13:09:32Z</time></trkpt><trkpt lat="59.6542428341" lon="30.7324218191"><ele>3464.73</ele><time>2026-08-31T13:09:34Z</time></trkpt><trkpt lat="59.6542436723" lon="30.7324213162"><ele>3460.88</ele><time>2026-08-31T13:09:36Z</time></trkpt><trkpt lat="59.6542440075" lon="30.7324193884"><ele>3457.04</ele><time>2026-08-31T13:09:38Z</time></trkpt><trkpt lat="59.6542479470" lon="30.7324254233"><ele>3453.19</ele><time>2026-08-31T13:09:40Z</time></trkpt><trkpt lat="59.6542487014" lon="30.7324247528"><ele>3449.35</ele><time>2026-08-31T13:09:42Z</time></trkpt><trkpt lat="59.6542482823" lon="30.7324236631"><ele>3445.50</ele><time>2026-08-31T13:09:44Z</time></trkpt><trkpt lat="59.6542482823" lon="30.7324207295"><ele>3441.66</ele><time>2026-08-31T13:09:46Z</time></trkpt><trkpt lat="59.6542481147" lon="30.7324159518"><ele>3437.81</ele><time>2026-08-31T13:09:48Z</time></trkpt><trkpt lat="59.6542500425" lon="30.7324140240"><ele>3434.45</ele><time>2026-08-31T13:09:50Z</time></trkpt><trkpt lat="59.6542512160" lon="30.7324109226"><ele>3430.60</ele><time>2026-08-31T13:09:52Z</time></trkpt><trkpt lat="59.6542515513" lon="30.7324068155"><ele>3426.76</ele><time>2026-08-31T13:09:54Z</time></trkpt><trkpt lat="59.6542518865" lon="30.7324043848"><ele>3422.91</ele><time>2026-08-31T13:09:56Z</time></trkpt><trkpt lat="59.6542530600" lon="30.7324036304"><ele>3419.07</ele><time>2026-08-31T13:09:58Z</time></trkpt><trkpt lat="59.6542540658" lon="30.7324022055"><ele>3415.22</ele><time>2026-08-31T13:10:00Z</time></trkpt><trkpt lat="59.6542546526" lon="30.7324001938"><ele>3411.86</ele><time>2026-08-31T13:10:02Z</time></trkpt><trkpt lat="59.6542535629" lon="30.7323962543"><ele>3408.01</ele><time>2026-08-31T13:10:04Z</time></trkpt><trkpt lat="59.6542494558" lon="30.7323923986"><ele>3404.17</ele><time>2026-08-31T13:10:06Z</time></trkpt><trkpt lat="59.6542479470" lon="30.7323884591"><ele>3400.32</ele><time>2026-08-31T13:10:08Z</time></trkpt><trkpt lat="59.6542476118" lon="30.7323832624"><ele>3396.48</ele><time>2026-08-31T13:10:10Z</time></trkpt><trkpt lat="59.6542456001" lon="30.7323771436"><ele>3393.11</ele><time>2026-08-31T13:10:12Z</time></trkpt><trkpt lat="59.6542461030" lon="30.7323738746"><ele>3389.27</ele><time>2026-08-31T13:10:14Z</time></trkpt><trkpt lat="59.6542436723" lon="30.7323742099"><ele>3385.42</ele><time>2026-08-31T13:10:16Z</time></trkpt><trkpt lat="59.6542452648" lon="30.7323754672"><ele>3381.57</ele><time>2026-08-31T13:10:18Z</time></trkpt><trkpt lat="59.6542449296" lon="30.7323736232"><ele>3378.21</ele><time>2026-08-31T13:10:20Z</time></trkpt><trkpt lat="59.6542444266" lon="30.7323716115"><ele>3374.36</ele><time>2026-08-31T13:10:22Z</time></trkpt><trkpt lat="59.6542435884" lon="30.7323703542"><ele>3370.52</ele><time>2026-08-31T13:10:24Z</time></trkpt><trkpt lat="59.6542427503" lon="30.7323688455"><ele>3366.67</ele><time>2026-08-31T13:10:26Z</time></trkpt><trkpt lat="59.6542417444" lon="30.7323680073"><ele>3363.31</ele><time>2026-08-31T13:10:28Z</time></trkpt><trkpt lat="59.6542414092" lon="30.7323675044"><ele>3359.46</ele><time>2026-08-31T13:10:30Z</time></trkpt><trkpt lat="59.6542414092" lon="30.7323669177"><ele>3355.62</ele><time>2026-08-31T13:10:32Z</time></trkpt><trkpt lat="59.6542412415" lon="30.7323665824"><ele>3352.25</ele><time>2026-08-31T13:10:34Z</time></trkpt><trkpt lat="59.6542409062" lon="30.7323659956"><ele>3348.41</ele><time>2026-08-31T13:10:36Z</time></trkpt><trkpt lat="59.6542409901" lon="30.7323653251"><ele>3344.56</ele><time>2026-08-31T13:10:38Z</time></trkpt><trkpt lat="59.6542412415" lon="30.7323652413"><ele>3341.20</ele><time>2026-08-31T13:10:40Z</time></trkpt><trkpt lat="59.6542416606" lon="30.7323654089"><ele>3337.35</ele><time>2026-08-31T13:10:42Z</time></trkpt><trkpt lat="59.6542422473" lon="30.7323658280"><ele>3333.51</ele><time>2026-08-31T13:10:44Z</time></trkpt><trkpt lat="59.6542434208" lon="30.7323660795"><ele>3330.14</ele><time>2026-08-31T13:10:46Z</time></trkpt><trkpt lat="59.6542442590" lon="30.7323680073"><ele>3326.30</ele><time>2026-08-31T13:10:48Z</time></trkpt><trkpt lat="59.6542440914" lon="30.7323690131"><ele>3322.93</ele><time>2026-08-31T13:10:50Z</time></trkpt><trkpt lat="59.6542437561" lon="30.7323686779"><ele>3319.09</ele><time>2026-08-31T13:10:52Z</time></trkpt><trkpt lat="59.6542427503" lon="30.7323649060"><ele>3315.24</ele><time>2026-08-31T13:10:54Z</time></trkpt><trkpt lat="59.6542419121" lon="30.7323610503"><ele>3311.88</ele><time>2026-08-31T13:10:56Z</time></trkpt><trkpt lat="59.6542433370" lon="30.7323575299"><ele>3308.03</ele><time>2026-08-31T13:10:58Z</time></trkpt><trkpt lat="59.6542435884" lon="30.7323548477"><ele>3304.67</ele><time>2026-08-31T13:11:00Z</time></trkpt><trkpt lat="59.6542431694" lon="30.7323539257"><ele>3300.82</ele><time>2026-08-31T13:11:02Z</time></trkpt><trkpt lat="59.6542434208" lon="30.7323534228"><ele>3297.46</ele><time>2026-08-31T13:11:04Z</time></trkpt><trkpt lat="59.6542430855" lon="30.7323523331"><ele>3293.61</ele><time>2026-08-31T13:11:06Z</time></trkpt><trkpt lat="59.6542414930" lon="30.7323545963"><ele>3290.25</ele><time>2026-08-31T13:11:08Z</time></trkpt><trkpt lat="59.6542432532" lon="30.7323518302"><ele>3286.40</ele><time>2026-08-31T13:11:10Z</time></trkpt><trkpt lat="59.6542435046" lon="30.7323514950"><ele>3283.04</ele><time>2026-08-31T13:11:12Z</time></trkpt><trkpt lat="59.6542440914" lon="30.7323509920"><ele>3279.19</ele><time>2026-08-31T13:11:14Z</time></trkpt><trkpt lat="59.6542442590" lon="30.7323504891"><ele>3275.35</ele><time>2026-08-31T13:11:16Z</time></trkpt><trkpt lat="59.6542432532" lon="30.7323460467"><ele>3271.98</ele><time>2026-08-31T13:11:18Z</time></trkpt><trkpt lat="59.6542399842" lon="30.7323412690"><ele>3268.62</ele><time>2026-08-31T13:11:20Z</time></trkpt><trkpt lat="59.6542392299" lon="30.7323386706"><ele>3264.77</ele><time>2026-08-31T13:11:22Z</time></trkpt><trkpt lat="59.6542419121" lon="30.7323306240"><ele>3261.41</ele><time>2026-08-31T13:11:24Z</time></trkpt><trkpt lat="59.6542503778" lon="30.7323206495"><ele>3257.56</ele><time>2026-08-31T13:11:26Z</time></trkpt><trkpt lat="59.6542558260" lon="30.7323302049"><ele>3254.20</ele><time>2026-08-31T13:11:28Z</time></trkpt><trkpt lat="59.6542627830" lon="30.7323260978"><ele>3250.35</ele><time>2026-08-31T13:11:30Z</time></trkpt><trkpt lat="59.6542721707" lon="30.7323152851"><ele>3246.99</ele><time>2026-08-31T13:11:32Z</time></trkpt><trkpt lat="59.6542820614" lon="30.7323141955"><ele>3243.14</ele><time>2026-08-31T13:11:34Z</time></trkpt><trkpt lat="59.6542870905" lon="30.7323143631"><ele>3239.78</ele><time>2026-08-31T13:11:36Z</time></trkpt><trkpt lat="59.6542931255" lon="30.7323108427"><ele>3236.42</ele><time>2026-08-31T13:11:38Z</time></trkpt><trkpt lat="59.6542927064" lon="30.7323093340"><ele>3232.57</ele><time>2026-08-31T13:11:40Z</time></trkpt><trkpt lat="59.6542928740" lon="30.7323082443"><ele>3229.21</ele><time>2026-08-31T13:11:42Z</time></trkpt><trkpt lat="59.6542982385" lon="30.7323081605"><ele>3225.36</ele><time>2026-08-31T13:11:44Z</time></trkpt><trkpt lat="59.6542992443" lon="30.7322985213"><ele>3222.00</ele><time>2026-08-31T13:11:46Z</time></trkpt><trkpt lat="59.6542966459" lon="30.7322925702"><ele>3218.63</ele><time>2026-08-31T13:11:48Z</time></trkpt><trkpt lat="59.6542960592" lon="30.7322871219"><ele>3214.79</ele><time>2026-08-31T13:11:50Z</time></trkpt><trkpt lat="59.6542902756" lon="30.7322726212"><ele>3211.42</ele><time>2026-08-31T13:11:52Z</time></trkpt><trkpt lat="59.6542920358" lon="30.7322735433"><ele>3208.06</ele><time>2026-08-31T13:11:54Z</time></trkpt><trkpt lat="59.6542915329" lon="30.7322675921"><ele>3204.21</ele><time>2026-08-31T13:11:56Z</time></trkpt><trkpt lat="59.6542918682" lon="30.7322627306"><ele>3200.85</ele><time>2026-08-31T13:11:58Z</time></trkpt><trkpt lat="59.6542935446" lon="30.7322323043"><ele>3197.48</ele><time>2026-08-31T13:12:00Z</time></trkpt><trkpt lat="59.6542979870" lon="30.7321995310"><ele>3193.64</ele><time>2026-08-31T13:12:02Z</time></trkpt><trkpt lat="59.6542999987" lon="30.7321872935"><ele>3190.27</ele><time>2026-08-31T13:12:04Z</time></trkpt><trkpt lat="59.6543016750" lon="30.7321607228"><ele>3186.91</ele><time>2026-08-31T13:12:06Z</time></trkpt><trkpt lat="59.6543024294" lon="30.7321499940"><ele>3183.06</ele><time>2026-08-31T13:12:08Z</time></trkpt><trkpt lat="59.6543030161" lon="30.7321509160"><ele>3179.70</ele><time>2026-08-31T13:12:10Z</time></trkpt><trkpt lat="59.6543043572" lon="30.7321513351"><ele>3176.33</ele><time>2026-08-31T13:12:12Z</time></trkpt><trkpt lat="59.6543057822" lon="30.7321516704"><ele>3172.97</ele><time>2026-08-31T13:12:14Z</time></trkpt><trkpt lat="59.6543085482" lon="30.7321499102"><ele>3169.12</ele><time>2026-08-31T13:12:16Z</time></trkpt><trkpt lat="59.6543119010" lon="30.7321575377"><ele>3165.76</ele><time>2026-08-31T13:12:18Z</time></trkpt><trkpt lat="59.6543113142" lon="30.7321506646"><ele>3162.39</ele><time>2026-08-31T13:12:20Z</time></trkpt><trkpt lat="59.6543113980" lon="30.7321490720"><ele>3159.03</ele><time>2026-08-31T13:12:22Z</time></trkpt><trkpt lat="59.6543103084" lon="30.7321536820"><ele>3155.18</ele><time>2026-08-31T13:12:24Z</time></trkpt><trkpt lat="59.6543085482" lon="30.7321564481"><ele>3151.82</ele><time>2026-08-31T13:12:26Z</time></trkpt><trkpt lat="59.6543041058" lon="30.7321581244"><ele>3148.46</ele><time>2026-08-31T13:12:28Z</time></trkpt><trkpt lat="59.6543062851" lon="30.7321530115"><ele>3145.09</ele><time>2026-08-31T13:12:30Z</time></trkpt><trkpt lat="59.6543088835" lon="30.7321463060"><ele>3141.73</ele><time>2026-08-31T13:12:32Z</time></trkpt><trkpt lat="59.6543096378" lon="30.7321433723"><ele>3137.88</ele><time>2026-08-31T13:12:34Z</time></trkpt><trkpt lat="59.6543103084" lon="30.7321413606"><ele>3134.52</ele><time>2026-08-31T13:12:36Z</time></trkpt><trkpt lat="59.6543095540" lon="30.7321402710"><ele>3131.15</ele><time>2026-08-31T13:12:38Z</time></trkpt><trkpt lat="59.6543081291" lon="30.7321359124"><ele>3127.79</ele><time>2026-08-31T13:12:40Z</time></trkpt><trkpt lat="59.6543065365" lon="30.7321309671"><ele>3124.42</ele><time>2026-08-31T13:12:42Z</time></trkpt><trkpt lat="59.6543062013" lon="30.7321264409"><ele>3121.06</ele><time>2026-08-31T13:12:44Z</time></trkpt><trkpt lat="59.6543058660" lon="30.7321240939"><ele>3117.69</ele><time>2026-08-31T13:12:46Z</time></trkpt><trkpt lat="59.6543059498" lon="30.7321209926"><ele>3113.85</ele><time>2026-08-31T13:12:48Z</time></trkpt><trkpt lat="59.6543046925" lon="30.7321012113"><ele>3110.48</ele><time>2026-08-31T13:12:50Z</time></trkpt><trkpt lat="59.6543165110" lon="30.7320901472"><ele>3107.12</ele><time>2026-08-31T13:12:52Z</time></trkpt><trkpt lat="59.6543187741" lon="30.7320875488"><ele>3103.75</ele><time>2026-08-31T13:12:54Z</time></trkpt><trkpt lat="59.6543200314" lon="30.7320863754"><ele>3100.39</ele><time>2026-08-31T13:12:56Z</time></trkpt><trkpt lat="59.6543199476" lon="30.7320848666"><ele>3097.02</ele><time>2026-08-31T13:12:58Z</time></trkpt><trkpt lat="59.6543200314" lon="30.7320826873"><ele>3093.66</ele><time>2026-08-31T13:13:00Z</time></trkpt><trkpt lat="59.6543203667" lon="30.7320823520"><ele>3090.29</ele><time>2026-08-31T13:13:02Z</time></trkpt><trkpt lat="59.6543195285" lon="30.7320812624"><ele>3086.93</ele><time>2026-08-31T13:13:04Z</time></trkpt><trkpt lat="59.6543181036" lon="30.7320758980"><ele>3083.57</ele><time>2026-08-31T13:13:06Z</time></trkpt><trkpt lat="59.6543193609" lon="30.7320765685"><ele>3080.20</ele><time>2026-08-31T13:13:08Z</time></trkpt><trkpt lat="59.6543186903" lon="30.7320743054"><ele>3076.84</ele><time>2026-08-31T13:13:10Z</time></trkpt><trkpt lat="59.6543172654" lon="30.7320701145"><ele>3073.47</ele><time>2026-08-31T13:13:12Z</time></trkpt><trkpt lat="59.6543172654" lon="30.7320691925"><ele>3070.11</ele><time>2026-08-31T13:13:14Z</time></trkpt><trkpt lat="59.6543155052" lon="30.7320657559"><ele>3066.74</ele><time>2026-08-31T13:13:16Z</time></trkpt><trkpt lat="59.6543147508" lon="30.7320631575"><ele>3063.38</ele><time>2026-08-31T13:13:18Z</time></trkpt><trkpt lat="59.6543134097" lon="30.7320656721"><ele>3060.01</ele><time>2026-08-31T13:13:20Z</time></trkpt><trkpt lat="59.6543143317" lon="30.7320580445"><ele>3056.65</ele><time>2026-08-31T13:13:22Z</time></trkpt><trkpt lat="59.6543136612" lon="30.7320567034"><ele>3053.28</ele><time>2026-08-31T13:13:24Z</time></trkpt><trkpt lat="59.6543139126" lon="30.7320542727"><ele>3049.92</ele><time>2026-08-31T13:13:26Z</time></trkpt><trkpt lat="59.6543110628" lon="30.7320502494"><ele>3046.56</ele><time>2026-08-31T13:13:28Z</time></trkpt><trkpt lat="59.6543124877" lon="30.7320404425"><ele>3043.19</ele><time>2026-08-31T13:13:30Z</time></trkpt><trkpt lat="59.6543176007" lon="30.7320303842"><ele>3039.83</ele><time>2026-08-31T13:13:32Z</time></trkpt><trkpt lat="59.6543227136" lon="30.7320068311"><ele>3036.46</ele><time>2026-08-31T13:13:34Z</time></trkpt><trkpt lat="59.6543180197" lon="30.7319778297"><ele>3033.10</ele><time>2026-08-31T13:13:36Z</time></trkpt><trkpt lat="59.6543072071" lon="30.7319586352"><ele>3029.73</ele><time>2026-08-31T13:13:38Z</time></trkpt><trkpt lat="59.6543020941" lon="30.7319404464"><ele>3026.37</ele><time>2026-08-31T13:13:40Z</time></trkpt><trkpt lat="59.6542931255" lon="30.7319307234"><ele>3023.00</ele><time>2026-08-31T13:13:42Z</time></trkpt><trkpt lat="59.6542789601" lon="30.7319015544"><ele>3019.64</ele><time>2026-08-31T13:13:44Z</time></trkpt><trkpt lat="59.6542744339" lon="30.7319027279"><ele>3016.27</ele><time>2026-08-31T13:13:46Z</time></trkpt><trkpt lat="59.6542721707" lon="30.7318603992"><ele>3012.91</ele><time>2026-08-31T13:13:48Z</time></trkpt><trkpt lat="59.6542554069" lon="30.7318462338"><ele>3010.03</ele><time>2026-08-31T13:13:50Z</time></trkpt><trkpt lat="59.6542450134" lon="30.7318422105"><ele>3006.66</ele><time>2026-08-31T13:13:52Z</time></trkpt><trkpt lat="59.6542427503" lon="30.7318400312"><ele>3003.30</ele><time>2026-08-31T13:13:54Z</time></trkpt><trkpt lat="59.6542342845" lon="30.7318278775"><ele>2999.93</ele><time>2026-08-31T13:13:56Z</time></trkpt><trkpt lat="59.6542252321" lon="30.7318088505"><ele>2996.57</ele><time>2026-08-31T13:13:58Z</time></trkpt><trkpt lat="59.6542180236" lon="30.7317969482"><ele>2993.20</ele><time>2026-08-31T13:14:00Z</time></trkpt><trkpt lat="59.6542080492" lon="30.7317979541"><ele>2989.84</ele><time>2026-08-31T13:14:02Z</time></trkpt><trkpt lat="59.6541965660" lon="30.7318012230"><ele>2986.95</ele><time>2026-08-31T13:14:04Z</time></trkpt><trkpt lat="59.6541911177" lon="30.7318030670"><ele>2983.59</ele><time>2026-08-31T13:14:06Z</time></trkpt><trkpt lat="59.6541878488" lon="30.7318024803"><ele>2980.22</ele><time>2026-08-31T13:14:08Z</time></trkpt><trkpt lat="59.6541865077" lon="30.7318012230"><ele>2976.86</ele><time>2026-08-31T13:14:10Z</time></trkpt><trkpt lat="59.6541819815" lon="30.7318013068"><ele>2973.50</ele><time>2026-08-31T13:14:12Z</time></trkpt><trkpt lat="59.6541862562" lon="30.7317986246"><ele>2970.61</ele><time>2026-08-31T13:14:14Z</time></trkpt><trkpt lat="59.6541844960" lon="30.7317966968"><ele>2967.25</ele><time>2026-08-31T13:14:16Z</time></trkpt><trkpt lat="59.6541837417" lon="30.7317936793"><ele>2963.88</ele><time>2026-08-31T13:14:18Z</time></trkpt><trkpt lat="59.6541834064" lon="30.7317932602"><ele>2960.52</ele><time>2026-08-31T13:14:20Z</time></trkpt><trkpt lat="59.6541828196" lon="30.7317927573"><ele>2957.15</ele><time>2026-08-31T13:14:22Z</time></trkpt><trkpt lat="59.6541816462" lon="30.7317917515"><ele>2954.27</ele><time>2026-08-31T13:14:24Z</time></trkpt><trkpt lat="59.6541783772" lon="30.7317926735"><ele>2950.90</ele><time>2026-08-31T13:14:26Z</time></trkpt><trkpt lat="59.6541761141" lon="30.7317885663"><ele>2947.54</ele><time>2026-08-31T13:14:28Z</time></trkpt><trkpt lat="59.6541782934" lon="30.7317836210"><ele>2944.17</ele><time>2026-08-31T13:14:30Z</time></trkpt><trkpt lat="59.6541777067" lon="30.7317813579"><ele>2941.29</ele><time>2026-08-31T13:14:32Z</time></trkpt><trkpt lat="59.6541769523" lon="30.7317806873"><ele>2937.93</ele><time>2026-08-31T13:14:34Z</time></trkpt><trkpt lat="59.6541757789" lon="30.7317813579"><ele>2934.56</ele><time>2026-08-31T13:14:36Z</time></trkpt><trkpt lat="59.6541756950" lon="30.7317806035"><ele>2931.68</ele><time>2026-08-31T13:14:38Z</time></trkpt><trkpt lat="59.6541766170" lon="30.7317775860"><ele>2928.31</ele><time>2026-08-31T13:14:40Z</time></trkpt><trkpt lat="59.6541776229" lon="30.7317729760"><ele>2924.95</ele><time>2026-08-31T13:14:42Z</time></trkpt><trkpt lat="59.6541747730" lon="30.7317675278"><ele>2922.06</ele><time>2026-08-31T13:14:44Z</time></trkpt><trkpt lat="59.6541743539" lon="30.7317665219"><ele>2918.70</ele><time>2026-08-31T13:14:46Z</time></trkpt><trkpt lat="59.6541734319" lon="30.7317631692"><ele>2915.34</ele><time>2026-08-31T13:14:48Z</time></trkpt><trkpt lat="59.6541715879" lon="30.7317600679"><ele>2912.45</ele><time>2026-08-31T13:14:50Z</time></trkpt><trkpt lat="59.6541716717" lon="30.7317565475"><ele>2909.09</ele><time>2026-08-31T13:14:52Z</time></trkpt><trkpt lat="59.6541503817" lon="30.7317567989"><ele>2904.28</ele><time>2026-08-31T13:14:55Z</time></trkpt><trkpt lat="59.6541394852" lon="30.7317493390"><ele>2900.92</ele><time>2026-08-31T13:14:57Z</time></trkpt><trkpt lat="59.6541302651" lon="30.7317451481"><ele>2898.03</ele><time>2026-08-31T13:14:59Z</time></trkpt><trkpt lat="59.6541249007" lon="30.7317396160"><ele>2894.67</ele><time>2026-08-31T13:15:01Z</time></trkpt><trkpt lat="59.6541151777" lon="30.7317319047"><ele>2891.30</ele><time>2026-08-31T13:15:03Z</time></trkpt><trkpt lat="59.6541094780" lon="30.7317003049"><ele>2888.42</ele><time>2026-08-31T13:15:05Z</time></trkpt><trkpt lat="59.6540933847" lon="30.7316864748"><ele>2885.05</ele><time>2026-08-31T13:15:07Z</time></trkpt><trkpt lat="59.6540862601" lon="30.7316872291"><ele>2882.17</ele><time>2026-08-31T13:15:09Z</time></trkpt><trkpt lat="59.6540834103" lon="30.7316868100"><ele>2878.81</ele><time>2026-08-31T13:15:11Z</time></trkpt><trkpt lat="59.6540866792" lon="30.7316857204"><ele>2875.92</ele><time>2026-08-31T13:15:13Z</time></trkpt><trkpt lat="59.6540879365" lon="30.7316813618"><ele>2872.56</ele><time>2026-08-31T13:15:15Z</time></trkpt><trkpt lat="59.6540897805" lon="30.7316821162"><ele>2869.19</ele><time>2026-08-31T13:15:17Z</time></trkpt><trkpt lat="59.6540896129" lon="30.7316793501"><ele>2866.31</ele><time>2026-08-31T13:15:19Z</time></trkpt><trkpt lat="59.6540886909" lon="30.7316758297"><ele>2862.94</ele><time>2026-08-31T13:15:21Z</time></trkpt><trkpt lat="59.6540867630" lon="30.7316691242"><ele>2860.06</ele><time>2026-08-31T13:15:23Z</time></trkpt><trkpt lat="59.6540827397" lon="30.7316590659"><ele>2856.69</ele><time>2026-08-31T13:15:25Z</time></trkpt><trkpt lat="59.6540813986" lon="30.7316552941"><ele>2853.81</ele><time>2026-08-31T13:15:27Z</time></trkpt><trkpt lat="59.6540808957" lon="30.7316531148"><ele>2850.45</ele><time>2026-08-31T13:15:29Z</time></trkpt><trkpt lat="59.6540812310" lon="30.7316520251"><ele>2847.56</ele><time>2026-08-31T13:15:31Z</time></trkpt><trkpt lat="59.6540806442" lon="30.7316497620"><ele>2844.20</ele><time>2026-08-31T13:15:33Z</time></trkpt><trkpt lat="59.6540771239" lon="30.7316482533"><ele>2841.31</ele><time>2026-08-31T13:15:35Z</time></trkpt><trkpt lat="59.6540767048" lon="30.7316397037"><ele>2837.95</ele><time>2026-08-31T13:15:37Z</time></trkpt><trkpt lat="59.6540765371" lon="30.7316370215"><ele>2835.06</ele><time>2026-08-31T13:15:39Z</time></trkpt><trkpt lat="59.6540800575" lon="30.7316377759"><ele>2831.70</ele><time>2026-08-31T13:15:41Z</time></trkpt><trkpt lat="59.6540830750" lon="30.7316388655"><ele>2828.82</ele><time>2026-08-31T13:15:43Z</time></trkpt><trkpt lat="59.6540840808" lon="30.7316368539"><ele>2825.45</ele><time>2026-08-31T13:15:45Z</time></trkpt><trkpt lat="59.6540839132" lon="30.7316360995"><ele>2822.57</ele><time>2026-08-31T13:15:47Z</time></trkpt><trkpt lat="59.6540842485" lon="30.7316322438"><ele>2819.68</ele><time>2026-08-31T13:15:49Z</time></trkpt><trkpt lat="59.6540822368" lon="30.7316281367"><ele>2816.32</ele><time>2026-08-31T13:15:51Z</time></trkpt><trkpt lat="59.6540846676" lon="30.7316304836"><ele>2813.44</ele><time>2026-08-31T13:15:53Z</time></trkpt><trkpt lat="59.6540832426" lon="30.7316299807"><ele>2810.07</ele><time>2026-08-31T13:15:55Z</time></trkpt><trkpt lat="59.6540829912" lon="30.7316267118"><ele>2807.19</ele><time>2026-08-31T13:15:57Z</time></trkpt><trkpt lat="59.6540832426" lon="30.7316293102"><ele>2803.82</ele><time>2026-08-31T13:15:59Z</time></trkpt><trkpt lat="59.6540844161" lon="30.7316196710"><ele>2800.94</ele><time>2026-08-31T13:16:01Z</time></trkpt><trkpt lat="59.6540830750" lon="30.7316208445"><ele>2798.05</ele><time>2026-08-31T13:16:03Z</time></trkpt><trkpt lat="59.6540829074" lon="30.7316212635"><ele>2794.69</ele><time>2026-08-31T13:16:05Z</time></trkpt><trkpt lat="59.6540964860" lon="30.7316046674"><ele>2791.81</ele><time>2026-08-31T13:16:07Z</time></trkpt><trkpt lat="59.6541033592" lon="30.7315922622"><ele>2788.92</ele><time>2026-08-31T13:16:09Z</time></trkpt><trkpt lat="59.6540990006" lon="30.7315901667"><ele>2785.56</ele><time>2026-08-31T13:16:11Z</time></trkpt><trkpt lat="59.6540979948" lon="30.7315846346"><ele>2782.67</ele><time>2026-08-31T13:16:13Z</time></trkpt><trkpt lat="59.6540977433" lon="30.7315754984"><ele>2779.31</ele><time>2026-08-31T13:16:15Z</time></trkpt><trkpt lat="59.6540974919" lon="30.7315677032"><ele>2776.42</ele><time>2026-08-31T13:16:17Z</time></trkpt><trkpt lat="59.6540910378" lon="30.7315413002"><ele>2773.54</ele><time>2026-08-31T13:16:19Z</time></trkpt><trkpt lat="59.6540863439" lon="30.7315376960"><ele>2770.18</ele><time>2026-08-31T13:16:21Z</time></trkpt><trkpt lat="59.6540813148" lon="30.7315139752"><ele>2767.29</ele><time>2026-08-31T13:16:23Z</time></trkpt><trkpt lat="59.6540803928" lon="30.7315112092"><ele>2764.41</ele><time>2026-08-31T13:16:25Z</time></trkpt><trkpt lat="59.6540758666" lon="30.7314957026"><ele>2761.52</ele><time>2026-08-31T13:16:27Z</time></trkpt><trkpt lat="59.6540731005" lon="30.7314885780"><ele>2758.16</ele><time>2026-08-31T13:16:29Z</time></trkpt><trkpt lat="59.6540667303" lon="30.7314760890"><ele>2755.28</ele><time>2026-08-31T13:16:31Z</time></trkpt><trkpt lat="59.6540566720" lon="30.7314688805"><ele>2752.39</ele><time>2026-08-31T13:16:33Z</time></trkpt><trkpt lat="59.6540441830" lon="30.7314493507"><ele>2749.03</ele><time>2026-08-31T13:16:35Z</time></trkpt><trkpt lat="59.6540404949" lon="30.7314451598"><ele>2746.14</ele><time>2026-08-31T13:16:37Z</time></trkpt><trkpt lat="59.6540420037" lon="30.7314400468"><ele>2743.26</ele><time>2026-08-31T13:16:39Z</time></trkpt><trkpt lat="59.6540388186" lon="30.7314363588"><ele>2740.38</ele><time>2026-08-31T13:16:41Z</time></trkpt><trkpt lat="59.6540368069" lon="30.7314237021"><ele>2737.01</ele><time>2026-08-31T13:16:43Z</time></trkpt><trkpt lat="59.6540340409" lon="30.7314169966"><ele>2734.13</ele><time>2026-08-31T13:16:45Z</time></trkpt><trkpt lat="59.6540323645" lon="30.7314118836"><ele>2729.80</ele><time>2026-08-31T13:16:48Z</time></trkpt><trkpt lat="59.6540292632" lon="30.7314075250"><ele>2724.99</ele><time>2026-08-31T13:16:51Z</time></trkpt><trkpt lat="59.6540243179" lon="30.7314092852"><ele>2720.67</ele><time>2026-08-31T13:16:54Z</time></trkpt><trkpt lat="59.6540150978" lon="30.7314157393"><ele>2716.34</ele><time>2026-08-31T13:16:57Z</time></trkpt><trkpt lat="59.6540023573" lon="30.7314195950"><ele>2711.54</ele><time>2026-08-31T13:17:00Z</time></trkpt><trkpt lat="59.6539890300" lon="30.7314203493"><ele>2707.21</ele><time>2026-08-31T13:17:03Z</time></trkpt><trkpt lat="59.6539832465" lon="30.7314258814"><ele>2702.88</ele><time>2026-08-31T13:17:06Z</time></trkpt><trkpt lat="59.6539801452" lon="30.7314356882"><ele>2698.56</ele><time>2026-08-31T13:17:09Z</time></trkpt><trkpt lat="59.6539759543" lon="30.7314437348"><ele>2693.75</ele><time>2026-08-31T13:17:12Z</time></trkpt><trkpt lat="59.6539739426" lon="30.7314453274"><ele>2689.43</ele><time>2026-08-31T13:17:15Z</time></trkpt><trkpt lat="59.6539672371" lon="30.7314425614"><ele>2685.10</ele><time>2026-08-31T13:17:18Z</time></trkpt><trkpt lat="59.6539606992" lon="30.7314433157"><ele>2680.77</ele><time>2026-08-31T13:17:21Z</time></trkpt><trkpt lat="59.6539531555" lon="30.7314415555"><ele>2676.45</ele><time>2026-08-31T13:17:24Z</time></trkpt><trkpt lat="59.6539510600" lon="30.7314494345"><ele>2671.64</ele><time>2026-08-31T13:17:27Z</time></trkpt><trkpt lat="59.6539465338" lon="30.7314447407"><ele>2667.31</ele><time>2026-08-31T13:17:30Z</time></trkpt><trkpt lat="59.6539436001" lon="30.7314438187"><ele>2662.99</ele><time>2026-08-31T13:17:33Z</time></trkpt><trkpt lat="59.6539418399" lon="30.7314445730"><ele>2658.66</ele><time>2026-08-31T13:17:36Z</time></trkpt><trkpt lat="59.6539391577" lon="30.7314467523"><ele>2655.78</ele><time>2026-08-31T13:17:39Z</time></trkpt><trkpt lat="59.6539345477" lon="30.7314502727"><ele>2651.45</ele><time>2026-08-31T13:17:43Z</time></trkpt><trkpt lat="59.6539328713" lon="30.7314526197"><ele>2647.13</ele><time>2026-08-31T13:17:46Z</time></trkpt><trkpt lat="59.6539313626" lon="30.7314600796"><ele>2642.80</ele><time>2026-08-31T13:17:49Z</time></trkpt><trkpt lat="59.6539296862" lon="30.7314746641"><ele>2638.48</ele><time>2026-08-31T13:17:52Z</time></trkpt><trkpt lat="59.6539226454" lon="30.7314912602"><ele>2634.15</ele><time>2026-08-31T13:17:55Z</time></trkpt><trkpt lat="59.6539114974" lon="30.7315130532"><ele>2629.82</ele><time>2026-08-31T13:17:58Z</time></trkpt><trkpt lat="59.6538965777" lon="30.7315414678"><ele>2625.50</ele><time>2026-08-31T13:18:01Z</time></trkpt><trkpt lat="59.6538845915" lon="30.7315646019"><ele>2621.17</ele><time>2026-08-31T13:18:04Z</time></trkpt><trkpt lat="59.6538815740" lon="30.7315753307"><ele>2616.85</ele><time>2026-08-31T13:18:07Z</time></trkpt><trkpt lat="59.6538780537" lon="30.7315883227"><ele>2612.52</ele><time>2026-08-31T13:18:10Z</time></trkpt><trkpt lat="59.6538728569" lon="30.7315938547"><ele>2608.19</ele><time>2026-08-31T13:18:13Z</time></trkpt><trkpt lat="59.6538676601" lon="30.7315922622"><ele>2603.87</ele><time>2026-08-31T13:18:16Z</time></trkpt><trkpt lat="59.6538681630" lon="30.7316036616"><ele>2599.54</ele><time>2026-08-31T13:18:19Z</time></trkpt><trkpt lat="59.6538599487" lon="30.7316150609"><ele>2595.22</ele><time>2026-08-31T13:18:22Z</time></trkpt><trkpt lat="59.6538541652" lon="30.7316095289"><ele>2591.37</ele><time>2026-08-31T13:18:25Z</time></trkpt><trkpt lat="59.6538478788" lon="30.7316134684"><ele>2587.04</ele><time>2026-08-31T13:18:28Z</time></trkpt><trkpt lat="59.6538406704" lon="30.7316087745"><ele>2582.72</ele><time>2026-08-31T13:18:31Z</time></trkpt><trkpt lat="59.6538372338" lon="30.7316103671"><ele>2578.39</ele><time>2026-08-31T13:18:34Z</time></trkpt><trkpt lat="59.6538343001" lon="30.7316106185"><ele>2574.07</ele><time>2026-08-31T13:18:37Z</time></trkpt><trkpt lat="59.6538328752" lon="30.7316133846"><ele>2569.74</ele><time>2026-08-31T13:18:40Z</time></trkpt><trkpt lat="59.6538265888" lon="30.7316178270"><ele>2565.90</ele><time>2026-08-31T13:18:43Z</time></trkpt><trkpt lat="59.6538259182" lon="30.7316217665"><ele>2561.57</ele><time>2026-08-31T13:18:46Z</time></trkpt><trkpt lat="59.6538238227" lon="30.7316238619"><ele>2557.24</ele><time>2026-08-31T13:18:49Z</time></trkpt><trkpt lat="59.6538187098" lon="30.7316301484"><ele>2552.92</ele><time>2026-08-31T13:18:52Z</time></trkpt><trkpt lat="59.6538161952" lon="30.7316380274"><ele>2549.07</ele><time>2026-08-31T13:18:55Z</time></trkpt><trkpt lat="59.6538128424" lon="30.7316439785"><ele>2544.75</ele><time>2026-08-31T13:18:58Z</time></trkpt><trkpt lat="59.6538097411" lon="30.7316482533"><ele>2540.42</ele><time>2026-08-31T13:19:01Z</time></trkpt><trkpt lat="59.6538078971" lon="30.7316494267"><ele>2536.58</ele><time>2026-08-31T13:19:04Z</time></trkpt><trkpt lat="59.6537971683" lon="30.7316656038"><ele>2532.25</ele><time>2026-08-31T13:19:07Z</time></trkpt><trkpt lat="59.6537915524" lon="30.7316763327"><ele>2527.92</ele><time>2026-08-31T13:19:10Z</time></trkpt><trkpt lat="59.6537915524" lon="30.7316863909"><ele>2524.08</ele><time>2026-08-31T13:19:13Z</time></trkpt><trkpt lat="59.6537877806" lon="30.7317018975"><ele>2519.75</ele><time>2026-08-31T13:19:16Z</time></trkpt><trkpt lat="59.6537826676" lon="30.7317073457"><ele>2515.43</ele><time>2026-08-31T13:19:19Z</time></trkpt><trkpt lat="59.6537784766" lon="30.7317115366"><ele>2511.58</ele><time>2026-08-31T13:19:22Z</time></trkpt><trkpt lat="59.6537735313" lon="30.7317197509"><ele>2507.26</ele><time>2026-08-31T13:19:25Z</time></trkpt><trkpt lat="59.6537702624" lon="30.7317217626"><ele>2503.41</ele><time>2026-08-31T13:19:28Z</time></trkpt><trkpt lat="59.6537643112" lon="30.7317278814"><ele>2499.08</ele><time>2026-08-31T13:19:31Z</time></trkpt><trkpt lat="59.6537612937" lon="30.7317294739"><ele>2495.24</ele><time>2026-08-31T13:19:34Z</time></trkpt><trkpt lat="59.6537560131" lon="30.7317328267"><ele>2490.91</ele><time>2026-08-31T13:19:37Z</time></trkpt><trkpt lat="59.6537524927" lon="30.7317404542"><ele>2487.07</ele><time>2026-08-31T13:19:40Z</time></trkpt><trkpt lat="59.6537495591" lon="30.7317473274"><ele>2482.74</ele><time>2026-08-31T13:19:43Z</time></trkpt><trkpt lat="59.6537404228" lon="30.7317624986"><ele>2478.90</ele><time>2026-08-31T13:19:46Z</time></trkpt><trkpt lat="59.6537353937" lon="30.7317799330"><ele>2474.57</ele><time>2026-08-31T13:19:49Z</time></trkpt><trkpt lat="59.6537255868" lon="30.7318040729"><ele>2470.73</ele><time>2026-08-31T13:19:52Z</time></trkpt><trkpt lat="59.6537200548" lon="30.7318245247"><ele>2466.40</ele><time>2026-08-31T13:19:55Z</time></trkpt><trkpt lat="59.6537146904" lon="30.7318619080"><ele>2462.55</ele><time>2026-08-31T13:19:58Z</time></trkpt><trkpt lat="59.6537089068" lon="30.7318811025"><ele>2458.71</ele><time>2026-08-31T13:20:01Z</time></trkpt><trkpt lat="59.6537001058" lon="30.7318995427"><ele>2454.38</ele><time>2026-08-31T13:20:04Z</time></trkpt><trkpt lat="59.6536972560" lon="30.7319078408"><ele>2450.54</ele><time>2026-08-31T13:20:07Z</time></trkpt><trkpt lat="59.6536962502" lon="30.7319085952"><ele>2446.21</ele><time>2026-08-31T13:20:10Z</time></trkpt><trkpt lat="59.6536941547" lon="30.7319127861"><ele>2442.37</ele><time>2026-08-31T13:20:13Z</time></trkpt><trkpt lat="59.6536882035" lon="30.7319130376"><ele>2438.52</ele><time>2026-08-31T13:20:16Z</time></trkpt><trkpt lat="59.6536867786" lon="30.7319226768"><ele>2434.20</ele><time>2026-08-31T13:20:19Z</time></trkpt><trkpt lat="59.6536862757" lon="30.7319260295"><ele>2430.35</ele><time>2026-08-31T13:20:22Z</time></trkpt><trkpt lat="59.6536840126" lon="30.7319301367"><ele>2426.50</ele><time>2026-08-31T13:20:25Z</time></trkpt><trkpt lat="59.6536775585" lon="30.7319311425"><ele>2422.66</ele><time>2026-08-31T13:20:28Z</time></trkpt><trkpt lat="59.6536642313" lon="30.7319313940"><ele>2418.33</ele><time>2026-08-31T13:20:31Z</time></trkpt><trkpt lat="59.6536630578" lon="30.7319294661"><ele>2414.49</ele><time>2026-08-31T13:20:34Z</time></trkpt><trkpt lat="59.6536505688" lon="30.7319305558"><ele>2410.64</ele><time>2026-08-31T13:20:37Z</time></trkpt><trkpt lat="59.6536221541" lon="30.7319289632"><ele>2406.80</ele><time>2026-08-31T13:20:40Z</time></trkpt><trkpt lat="59.6536057256" lon="30.7319223415"><ele>2402.47</ele><time>2026-08-31T13:20:43Z</time></trkpt><trkpt lat="59.6535901353" lon="30.7319168933"><ele>2398.63</ele><time>2026-08-31T13:20:46Z</time></trkpt><trkpt lat="59.6535858605" lon="30.7319080085"><ele>2394.78</ele><time>2026-08-31T13:20:49Z</time></trkpt><trkpt lat="59.6535799932" lon="30.7319056615"><ele>2390.94</ele><time>2026-08-31T13:20:52Z</time></trkpt><trkpt lat="59.6535550989" lon="30.7318990398"><ele>2387.09</ele><time>2026-08-31T13:20:55Z</time></trkpt><trkpt lat="59.6535530034" lon="30.7318979502"><ele>2383.25</ele><time>2026-08-31T13:20:58Z</time></trkpt><trkpt lat="59.6535493154" lon="30.7318997104"><ele>2378.92</ele><time>2026-08-31T13:21:01Z</time></trkpt><trkpt lat="59.6535411011" lon="30.7319010515"><ele>2375.07</ele><time>2026-08-31T13:21:04Z</time></trkpt><trkpt lat="59.6535324678" lon="30.7319038175"><ele>2371.23</ele><time>2026-08-31T13:21:07Z</time></trkpt><trkpt lat="59.6535260137" lon="30.7319038175"><ele>2367.38</ele><time>2026-08-31T13:21:10Z</time></trkpt><trkpt lat="59.6535240859" lon="30.7319028117"><ele>2363.54</ele><time>2026-08-31T13:21:13Z</time></trkpt><trkpt lat="59.6535209008" lon="30.7319044042"><ele>2359.69</ele><time>2026-08-31T13:21:16Z</time></trkpt><trkpt lat="59.6535137761" lon="30.7319065835"><ele>2355.85</ele><time>2026-08-31T13:21:19Z</time></trkpt><trkpt lat="59.6535020415" lon="30.7319020573"><ele>2352.00</ele><time>2026-08-31T13:21:22Z</time></trkpt><trkpt lat="59.6534983534" lon="30.7319032308"><ele>2348.16</ele><time>2026-08-31T13:21:25Z</time></trkpt><trkpt lat="59.6535011195" lon="30.7319111098"><ele>2344.31</ele><time>2026-08-31T13:21:28Z</time></trkpt><trkpt lat="59.6534981020" lon="30.7319288794"><ele>2340.47</ele><time>2026-08-31T13:21:31Z</time></trkpt><trkpt lat="59.6534973476" lon="30.7319339924"><ele>2336.62</ele><time>2026-08-31T13:21:34Z</time></trkpt><trkpt lat="59.6534863673" lon="30.7319393568"><ele>2332.78</ele><time>2026-08-31T13:21:37Z</time></trkpt><trkpt lat="59.6534684300" lon="30.7319548633"><ele>2328.93</ele><time>2026-08-31T13:21:40Z</time></trkpt><trkpt lat="59.6534489840" lon="30.7319743093"><ele>2325.09</ele><time>2026-08-31T13:21:43Z</time></trkpt><trkpt lat="59.6534366626" lon="30.7320081722"><ele>2321.24</ele><time>2026-08-31T13:21:46Z</time></trkpt><trkpt lat="59.6534345672" lon="30.7320240140"><ele>2317.40</ele><time>2026-08-31T13:21:49Z</time></trkpt><trkpt lat="59.6534321364" lon="30.7320426218"><ele>2313.55</ele><time>2026-08-31T13:21:52Z</time></trkpt><trkpt lat="59.6534191445" lon="30.7321027201"><ele>2310.19</ele><time>2026-08-31T13:21:55Z</time></trkpt><trkpt lat="59.6534088347" lon="30.7321410254"><ele>2306.34</ele><time>2026-08-31T13:21:58Z</time></trkpt><trkpt lat="59.6534008719" lon="30.7321603037"><ele>2302.49</ele><time>2026-08-31T13:22:01Z</time></trkpt><trkpt lat="59.6534069069" lon="30.7322010398"><ele>2298.65</ele><time>2026-08-31T13:22:04Z</time></trkpt><trkpt lat="59.6534121875" lon="30.7322533429"><ele>2294.80</ele><time>2026-08-31T13:22:07Z</time></trkpt><trkpt lat="59.6534188930" lon="30.7322780695"><ele>2290.96</ele><time>2026-08-31T13:22:10Z</time></trkpt><trkpt lat="59.6534181386" lon="30.7322743814"><ele>2287.59</ele><time>2026-08-31T13:22:13Z</time></trkpt><trkpt lat="59.6534122713" lon="30.7322725374"><ele>2283.75</ele><time>2026-08-31T13:22:16Z</time></trkpt><trkpt lat="59.6534110140" lon="30.7322639879"><ele>2279.90</ele><time>2026-08-31T13:22:19Z</time></trkpt><trkpt lat="59.6534041408" lon="30.7322615571"><ele>2276.06</ele><time>2026-08-31T13:22:22Z</time></trkpt><trkpt lat="59.6533838566" lon="30.7322449610"><ele>2272.21</ele><time>2026-08-31T13:22:25Z</time></trkpt><trkpt lat="59.6533773188" lon="30.7322420273"><ele>2268.85</ele><time>2026-08-31T13:22:28Z</time></trkpt><trkpt lat="59.6533768997" lon="30.7322440390"><ele>2265.00</ele><time>2026-08-31T13:22:31Z</time></trkpt><trkpt lat="59.6533618961" lon="30.7322494034"><ele>2261.16</ele><time>2026-08-31T13:22:34Z</time></trkpt><trkpt lat="59.6533537656" lon="30.7322586235"><ele>2257.79</ele><time>2026-08-31T13:22:37Z</time></trkpt><trkpt lat="59.6533514187" lon="30.7322677597"><ele>2253.95</ele><time>2026-08-31T13:22:40Z</time></trkpt><trkpt lat="59.6533422824" lon="30.7322617248"><ele>2250.10</ele><time>2026-08-31T13:22:43Z</time></trkpt><trkpt lat="59.6533449646" lon="30.7322640717"><ele>2246.74</ele><time>2026-08-31T13:22:46Z</time></trkpt><trkpt lat="59.6533437911" lon="30.7322755549"><ele>2242.89</ele><time>2026-08-31T13:22:49Z</time></trkpt><trkpt lat="59.6533452161" lon="30.7322939951"><ele>2239.05</ele><time>2026-08-31T13:22:52Z</time></trkpt><trkpt lat="59.6533416957" lon="30.7323017064"><ele>2235.68</ele><time>2026-08-31T13:22:55Z</time></trkpt><trkpt lat="59.6533256862" lon="30.7323275227"><ele>2231.84</ele><time>2026-08-31T13:22:58Z</time></trkpt><trkpt lat="59.6533218306" lon="30.7323378325"><ele>2227.99</ele><time>2026-08-31T13:23:01Z</time></trkpt><trkpt lat="59.6532950923" lon="30.7323602121"><ele>2224.63</ele><time>2026-08-31T13:23:04Z</time></trkpt><trkpt lat="59.6532670967" lon="30.7324043009"><ele>2220.78</ele><time>2026-08-31T13:23:07Z</time></trkpt><trkpt lat="59.6532616485" lon="30.7324309554"><ele>2217.42</ele><time>2026-08-31T13:23:10Z</time></trkpt><trkpt lat="59.6532603912" lon="30.7324384991"><ele>2213.57</ele><time>2026-08-31T13:23:13Z</time></trkpt><trkpt lat="59.6532608941" lon="30.7324472163"><ele>2210.21</ele><time>2026-08-31T13:23:16Z</time></trkpt><trkpt lat="59.6532620676" lon="30.7324565202"><ele>2206.36</ele><time>2026-08-31T13:23:19Z</time></trkpt><trkpt lat="59.6532544401" lon="30.7324716076"><ele>2203.00</ele><time>2026-08-31T13:23:22Z</time></trkpt><trkpt lat="59.6532484889" lon="30.7324803248"><ele>2199.15</ele><time>2026-08-31T13:23:25Z</time></trkpt><trkpt lat="59.6532413643" lon="30.7324855216"><ele>2195.79</ele><time>2026-08-31T13:23:28Z</time></trkpt><trkpt lat="59.6532400232" lon="30.7324899640"><ele>2191.94</ele><time>2026-08-31T13:23:31Z</time></trkpt><trkpt lat="59.6532348264" lon="30.7324982621"><ele>2188.58</ele><time>2026-08-31T13:23:34Z</time></trkpt><trkpt lat="59.6532333177" lon="30.7325051352"><ele>2184.73</ele><time>2026-08-31T13:23:37Z</time></trkpt><trkpt lat="59.6532332338" lon="30.7325079013"><ele>2181.37</ele><time>2026-08-31T13:23:40Z</time></trkpt><trkpt lat="59.6532345749" lon="30.7325047161"><ele>2177.52</ele><time>2026-08-31T13:23:43Z</time></trkpt><trkpt lat="59.6532207448" lon="30.7325177081"><ele>2174.16</ele><time>2026-08-31T13:23:46Z</time></trkpt><trkpt lat="59.6532148775" lon="30.7325332146"><ele>2170.79</ele><time>2026-08-31T13:23:49Z</time></trkpt><trkpt lat="59.6531997900" lon="30.7325502299"><ele>2166.95</ele><time>2026-08-31T13:23:52Z</time></trkpt><trkpt lat="59.6531983651" lon="30.7325581927"><ele>2163.58</ele><time>2026-08-31T13:23:55Z</time></trkpt><trkpt lat="59.6531848703" lon="30.7325746212"><ele>2160.22</ele><time>2026-08-31T13:23:58Z</time></trkpt><trkpt lat="59.6531775780" lon="30.7325873617"><ele>2156.37</ele><time>2026-08-31T13:24:01Z</time></trkpt><trkpt lat="59.6531793382" lon="30.7325830869"><ele>2153.01</ele><time>2026-08-31T13:24:04Z</time></trkpt><trkpt lat="59.6531776618" lon="30.7325829193"><ele>2149.65</ele><time>2026-08-31T13:24:07Z</time></trkpt><trkpt lat="59.6531736385" lon="30.7325829193"><ele>2145.80</ele><time>2026-08-31T13:24:10Z</time></trkpt><trkpt lat="59.6531724650" lon="30.7325875293"><ele>2142.44</ele><time>2026-08-31T13:24:13Z</time></trkpt><trkpt lat="59.6531716269" lon="30.7325964142"><ele>2139.07</ele><time>2026-08-31T13:24:16Z</time></trkpt><trkpt lat="59.6531701181" lon="30.7326078974"><ele>2135.23</ele><time>2026-08-31T13:24:19Z</time></trkpt><trkpt lat="59.6531678550" lon="30.7326115016"><ele>2131.86</ele><time>2026-08-31T13:24:22Z</time></trkpt><trkpt lat="59.6531665977" lon="30.7326125074"><ele>2128.50</ele><time>2026-08-31T13:24:25Z</time></trkpt><trkpt lat="59.6531655081" lon="30.7326104958"><ele>2125.13</ele><time>2026-08-31T13:24:28Z</time></trkpt><trkpt lat="59.6531624068" lon="30.7326152734"><ele>2121.29</ele><time>2026-08-31T13:24:31Z</time></trkpt><trkpt lat="59.6531663463" lon="30.7326201349"><ele>2117.92</ele><time>2026-08-31T13:24:34Z</time></trkpt><trkpt lat="59.6531645022" lon="30.7326394133"><ele>2114.56</ele><time>2026-08-31T13:24:37Z</time></trkpt><trkpt lat="59.6531611495" lon="30.7326497231"><ele>2111.19</ele><time>2026-08-31T13:24:40Z</time></trkpt><trkpt lat="59.6531610657" lon="30.7326534111"><ele>2107.83</ele><time>2026-08-31T13:24:43Z</time></trkpt><trkpt lat="59.6531590540" lon="30.7326602004"><ele>2104.46</ele><time>2026-08-31T13:24:46Z</time></trkpt><trkpt lat="59.6531520970" lon="30.7326702587"><ele>2100.62</ele><time>2026-08-31T13:24:49Z</time></trkpt><trkpt lat="59.6531507559" lon="30.7326757908"><ele>2097.25</ele><time>2026-08-31T13:24:52Z</time></trkpt><trkpt lat="59.6531498339" lon="30.7326835860"><ele>2093.89</ele><time>2026-08-31T13:24:55Z</time></trkpt><trkpt lat="59.6531443857" lon="30.7327154372"><ele>2090.52</ele><time>2026-08-31T13:24:58Z</time></trkpt><trkpt lat="59.6531415358" lon="30.7327285130"><ele>2087.16</ele><time>2026-08-31T13:25:01Z</time></trkpt><trkpt lat="59.6531396918" lon="30.7327361405"><ele>2083.79</ele><time>2026-08-31T13:25:04Z</time></trkpt><trkpt lat="59.6531374287" lon="30.7327441033"><ele>2080.43</ele><time>2026-08-31T13:25:07Z</time></trkpt><trkpt lat="59.6531355847" lon="30.7327712607"><ele>2077.07</ele><time>2026-08-31T13:25:10Z</time></trkpt><trkpt lat="59.6531297173" lon="30.7328024413"><ele>2073.70</ele><time>2026-08-31T13:25:13Z</time></trkpt><trkpt lat="59.6531235985" lon="30.7328048721"><ele>2070.34</ele><time>2026-08-31T13:25:16Z</time></trkpt><trkpt lat="59.6531066671" lon="30.7328228932"><ele>2066.97</ele><time>2026-08-31T13:25:19Z</time></trkpt><trkpt lat="59.6530980337" lon="30.7328437641"><ele>2063.61</ele><time>2026-08-31T13:25:22Z</time></trkpt><trkpt lat="59.6530917473" lon="30.7328500506"><ele>2060.24</ele><time>2026-08-31T13:25:25Z</time></trkpt><trkpt lat="59.6530838683" lon="30.7328575943"><ele>2056.88</ele><time>2026-08-31T13:25:28Z</time></trkpt><trkpt lat="59.6530743968" lon="30.7328664791"><ele>2053.51</ele><time>2026-08-31T13:25:31Z</time></trkpt><trkpt lat="59.6530675236" lon="30.7328738552"><ele>2050.15</ele><time>2026-08-31T13:25:34Z</time></trkpt><trkpt lat="59.6530363429" lon="30.7328688260"><ele>2046.78</ele><time>2026-08-31T13:25:37Z</time></trkpt><trkpt lat="59.6530323196" lon="30.7328533195"><ele>2043.42</ele><time>2026-08-31T13:25:40Z</time></trkpt><trkpt lat="59.6530282963" lon="30.7328646351"><ele>2040.05</ele><time>2026-08-31T13:25:43Z</time></trkpt><trkpt lat="59.6530236863" lon="30.7328719273"><ele>2036.69</ele><time>2026-08-31T13:25:46Z</time></trkpt><trkpt lat="59.6530185733" lon="30.7328743581"><ele>2033.33</ele><time>2026-08-31T13:25:49Z</time></trkpt><trkpt lat="59.6530051623" lon="30.7328680716"><ele>2029.96</ele><time>2026-08-31T13:25:52Z</time></trkpt><trkpt lat="59.6529883146" lon="30.7328883559"><ele>2026.60</ele><time>2026-08-31T13:25:55Z</time></trkpt><trkpt lat="59.6529834531" lon="30.7328984141"><ele>2023.23</ele><time>2026-08-31T13:25:58Z</time></trkpt><trkpt lat="59.6529784240" lon="30.7329095621"><ele>2019.87</ele><time>2026-08-31T13:26:01Z</time></trkpt><trkpt lat="59.6529673599" lon="30.7329254039"><ele>2016.50</ele><time>2026-08-31T13:26:04Z</time></trkpt><trkpt lat="59.6529622469" lon="30.7329360489"><ele>2013.62</ele><time>2026-08-31T13:26:07Z</time></trkpt><trkpt lat="59.6529412083" lon="30.7329330314"><ele>2010.25</ele><time>2026-08-31T13:26:10Z</time></trkpt><trkpt lat="59.6528976224" lon="30.7329817303"><ele>2006.89</ele><time>2026-08-31T13:26:13Z</time></trkpt><trkpt lat="59.6528918389" lon="30.7330031879"><ele>2003.52</ele><time>2026-08-31T13:26:16Z</time></trkpt><trkpt lat="59.6528869774" lon="30.7330154255"><ele>2000.16</ele><time>2026-08-31T13:26:19Z</time></trkpt><trkpt lat="59.6528772544" lon="30.7330336981"><ele>1997.28</ele><time>2026-08-31T13:26:22Z</time></trkpt><trkpt lat="59.6528614126" lon="30.7330735959"><ele>1993.91</ele><time>2026-08-31T13:26:25Z</time></trkpt><trkpt lat="59.6528392006" lon="30.7331263181"><ele>1990.55</ele><time>2026-08-31T13:26:28Z</time></trkpt><trkpt lat="59.6528318245" lon="30.7331460156"><ele>1987.18</ele><time>2026-08-31T13:26:31Z</time></trkpt><trkpt lat="59.6528303996" lon="30.7331554871"><ele>1983.82</ele><time>2026-08-31T13:26:34Z</time></trkpt><trkpt lat="59.6528337523" lon="30.7331662159"><ele>1980.93</ele><time>2026-08-31T13:26:37Z</time></trkpt><trkpt lat="59.6528236941" lon="30.7331856620"><ele>1977.57</ele><time>2026-08-31T13:26:40Z</time></trkpt><trkpt lat="59.6528215148" lon="30.7331908587"><ele>1974.20</ele><time>2026-08-31T13:26:43Z</time></trkpt><trkpt lat="59.6528184973" lon="30.7331994921"><ele>1971.32</ele><time>2026-08-31T13:26:46Z</time></trkpt><trkpt lat="59.6528099477" lon="30.7332516275"><ele>1967.96</ele><time>2026-08-31T13:26:49Z</time></trkpt><trkpt lat="59.6528184973" lon="30.7332433295"><ele>1964.59</ele><time>2026-08-31T13:26:52Z</time></trkpt><trkpt lat="59.6528179105" lon="30.7332462631"><ele>1961.23</ele><time>2026-08-31T13:26:55Z</time></trkpt><trkpt lat="59.6528181620" lon="30.7332466822"><ele>1958.34</ele><time>2026-08-31T13:26:58Z</time></trkpt><trkpt lat="59.6528179105" lon="30.7332465984"><ele>1954.98</ele><time>2026-08-31T13:27:01Z</time></trkpt><trkpt lat="59.6528168209" lon="30.7332471851"><ele>1951.61</ele><time>2026-08-31T13:27:04Z</time></trkpt><trkpt lat="59.6528159827" lon="30.7332346123"><ele>1948.73</ele><time>2026-08-31T13:27:07Z</time></trkpt><trkpt lat="59.6528168209" lon="30.7332369592"><ele>1945.36</ele><time>2026-08-31T13:27:10Z</time></trkpt><trkpt lat="59.6528333332" lon="30.7332729176"><ele>1942.48</ele><time>2026-08-31T13:27:13Z</time></trkpt><trkpt lat="59.6528470796" lon="30.7333023380"><ele>1939.12</ele><time>2026-08-31T13:27:16Z</time></trkpt><trkpt lat="59.6528562997" lon="30.7333155815"><ele>1935.75</ele><time>2026-08-31T13:27:19Z</time></trkpt><trkpt lat="59.6528626699" lon="30.7333244663"><ele>1932.87</ele><time>2026-08-31T13:27:22Z</time></trkpt><trkpt lat="59.6528631728" lon="30.7333237119"><ele>1929.50</ele><time>2026-08-31T13:27:25Z</time></trkpt><trkpt lat="59.6528627537" lon="30.7333222870"><ele>1926.62</ele><time>2026-08-31T13:27:28Z</time></trkpt><trkpt lat="59.6528751589" lon="30.7333404757"><ele>1923.25</ele><time>2026-08-31T13:27:31Z</time></trkpt><trkpt lat="59.6528807748" lon="30.7333511207"><ele>1920.37</ele><time>2026-08-31T13:27:34Z</time></trkpt><trkpt lat="59.6528848819" lon="30.7333564851"><ele>1917.01</ele><time>2026-08-31T13:27:37Z</time></trkpt><trkpt lat="59.6528932638" lon="30.7333779428"><ele>1916.04</ele><time>2026-08-31T13:27:39Z</time></trkpt><trkpt lat="59.6528941859" lon="30.7333797030"><ele>1912.68</ele><time>2026-08-31T13:27:41Z</time></trkpt><trkpt lat="59.6528979577" lon="30.7333779428"><ele>1910.76</ele><time>2026-08-31T13:27:44Z</time></trkpt><trkpt lat="59.6528946050" lon="30.7333975565"><ele>1907.87</ele><time>2026-08-31T13:27:46Z</time></trkpt><trkpt lat="59.6528926771" lon="30.7334079500"><ele>1904.51</ele><time>2026-08-31T13:27:49Z</time></trkpt><trkpt lat="59.6528957784" lon="30.7334265579"><ele>1901.63</ele><time>2026-08-31T13:27:52Z</time></trkpt><trkpt lat="59.6528994665" lon="30.7334327605"><ele>1898.26</ele><time>2026-08-31T13:27:55Z</time></trkpt><trkpt lat="59.6528965328" lon="30.7334415615"><ele>1895.38</ele><time>2026-08-31T13:27:58Z</time></trkpt><trkpt lat="59.6528941859" lon="30.7334464230"><ele>1892.01</ele><time>2026-08-31T13:28:01Z</time></trkpt><trkpt lat="59.6528951917" lon="30.7334489375"><ele>1889.13</ele><time>2026-08-31T13:28:04Z</time></trkpt><trkpt lat="59.6528937668" lon="30.7334543020"><ele>1886.24</ele><time>2026-08-31T13:28:07Z</time></trkpt><trkpt lat="59.6528935991" lon="30.7334606722"><ele>1882.88</ele><time>2026-08-31T13:28:10Z</time></trkpt><trkpt lat="59.6528942697" lon="30.7334666234"><ele>1880.00</ele><time>2026-08-31T13:28:13Z</time></trkpt><trkpt lat="59.6528897434" lon="30.7334703952"><ele>1876.63</ele><time>2026-08-31T13:28:16Z</time></trkpt><trkpt lat="59.6528874803" lon="30.7334852312"><ele>1873.75</ele><time>2026-08-31T13:28:19Z</time></trkpt><trkpt lat="59.6528868936" lon="30.7335008215"><ele>1870.86</ele><time>2026-08-31T13:28:22Z</time></trkpt><trkpt lat="59.6528888214" lon="30.7335075270"><ele>1867.50</ele><time>2026-08-31T13:28:25Z</time></trkpt><trkpt lat="59.6528908331" lon="30.7335184235"><ele>1864.61</ele><time>2026-08-31T13:28:28Z</time></trkpt><trkpt lat="59.6528914198" lon="30.7335260510"><ele>1861.73</ele><time>2026-08-31T13:28:31Z</time></trkpt><trkpt lat="59.6528834570" lon="30.7336301543"><ele>1858.37</ele><time>2026-08-31T13:28:34Z</time></trkpt><trkpt lat="59.6528795175" lon="30.7336598262"><ele>1855.48</ele><time>2026-08-31T13:28:37Z</time></trkpt><trkpt lat="59.6528707165" lon="30.7337104529"><ele>1852.60</ele><time>2026-08-31T13:28:40Z</time></trkpt><trkpt lat="59.6528740693" lon="30.7337551285"><ele>1849.71</ele><time>2026-08-31T13:28:43Z</time></trkpt><trkpt lat="59.6528739017" lon="30.7337602414"><ele>1846.35</ele><time>2026-08-31T13:28:46Z</time></trkpt><trkpt lat="59.6528733149" lon="30.7337652706"><ele>1843.47</ele><time>2026-08-31T13:28:49Z</time></trkpt><trkpt lat="59.6528519411" lon="30.7337744068"><ele>1839.62</ele><time>2026-08-31T13:28:53Z</time></trkpt><trkpt lat="59.6528322436" lon="30.7337651867"><ele>1835.77</ele><time>2026-08-31T13:28:57Z</time></trkpt><trkpt lat="59.6528257895" lon="30.7337589841"><ele>1831.45</ele><time>2026-08-31T13:29:01Z</time></trkpt><trkpt lat="59.6528239455" lon="30.7337589003"><ele>1827.60</ele><time>2026-08-31T13:29:05Z</time></trkpt><trkpt lat="59.6528247837" lon="30.7337661088"><ele>1823.76</ele><time>2026-08-31T13:29:09Z</time></trkpt><trkpt lat="59.6528294776" lon="30.7337884046"><ele>1819.43</ele><time>2026-08-31T13:29:13Z</time></trkpt><trkpt lat="59.6528303996" lon="30.7338002231"><ele>1815.59</ele><time>2026-08-31T13:29:17Z</time></trkpt><trkpt lat="59.6528125461" lon="30.7338640932"><ele>1811.74</ele><time>2026-08-31T13:29:21Z</time></trkpt><trkpt lat="59.6528086066" lon="30.7338714693"><ele>1807.90</ele><time>2026-08-31T13:29:25Z</time></trkpt><trkpt lat="59.6528056730" lon="30.7338790968"><ele>1804.05</ele><time>2026-08-31T13:29:29Z</time></trkpt><trkpt lat="59.6528037451" lon="30.7339004707"><ele>1800.21</ele><time>2026-08-31T13:29:33Z</time></trkpt><trkpt lat="59.6528020687" lon="30.7339088526"><ele>1795.88</ele><time>2026-08-31T13:29:37Z</time></trkpt><trkpt lat="59.6528018173" lon="30.7339174021"><ele>1792.03</ele><time>2026-08-31T13:29:41Z</time></trkpt><trkpt lat="59.6528016496" lon="30.7339253649"><ele>1788.19</ele><time>2026-08-31T13:29:45Z</time></trkpt><trkpt lat="59.6528001409" lon="30.7339314837"><ele>1784.34</ele><time>2026-08-31T13:29:49Z</time></trkpt><trkpt lat="59.6527875680" lon="30.7339514326"><ele>1780.50</ele><time>2026-08-31T13:29:53Z</time></trkpt><trkpt lat="59.6527654398" lon="30.7339757401"><ele>1776.65</ele><time>2026-08-31T13:29:57Z</time></trkpt><trkpt lat="59.6527630091" lon="30.7339934260"><ele>1772.81</ele><time>2026-08-31T13:30:01Z</time></trkpt><trkpt lat="59.6527609974" lon="30.7340007182"><ele>1768.96</ele><time>2026-08-31T13:30:05Z</time></trkpt><trkpt lat="59.6527507715" lon="30.7340190746"><ele>1765.12</ele><time>2026-08-31T13:30:09Z</time></trkpt><trkpt lat="59.6527221054" lon="30.7340479922"><ele>1761.27</ele><time>2026-08-31T13:30:13Z</time></trkpt><trkpt lat="59.6527032461" lon="30.7340685278"><ele>1757.43</ele><time>2026-08-31T13:30:17Z</time></trkpt><trkpt lat="59.6526879910" lon="30.7340877224"><ele>1753.58</ele><time>2026-08-31T13:30:21Z</time></trkpt><trkpt lat="59.6526804473" lon="30.7340910751"><ele>1749.74</ele><time>2026-08-31T13:30:25Z</time></trkpt><trkpt lat="59.6526731551" lon="30.7340919971"><ele>1745.89</ele><time>2026-08-31T13:30:29Z</time></trkpt><trkpt lat="59.6526736580" lon="30.7340928353"><ele>1742.53</ele><time>2026-08-31T13:30:33Z</time></trkpt><trkpt lat="59.6526734065" lon="30.7340937573"><ele>1738.68</ele><time>2026-08-31T13:30:37Z</time></trkpt><trkpt lat="59.6526694670" lon="30.7340978645"><ele>1734.84</ele><time>2026-08-31T13:30:41Z</time></trkpt><trkpt lat="59.6526631806" lon="30.7341041509"><ele>1730.99</ele><time>2026-08-31T13:30:45Z</time></trkpt><trkpt lat="59.6526578162" lon="30.7341073360"><ele>1727.15</ele><time>2026-08-31T13:30:49Z</time></trkpt><trkpt lat="59.6526527032" lon="30.7341184840"><ele>1723.30</ele><time>2026-08-31T13:30:53Z</time></trkpt><trkpt lat="59.6526369452" lon="30.7341378462"><ele>1719.94</ele><time>2026-08-31T13:30:57Z</time></trkpt><trkpt lat="59.6526040882" lon="30.7341353316"><ele>1716.09</ele><time>2026-08-31T13:31:01Z</time></trkpt><trkpt lat="59.6525603347" lon="30.7341993693"><ele>1712.25</ele><time>2026-08-31T13:31:05Z</time></trkpt><trkpt lat="59.6525026672" lon="30.7342255209"><ele>1708.40</ele><time>2026-08-31T13:31:09Z</time></trkpt><trkpt lat="59.6524967998" lon="30.7342214976"><ele>1705.04</ele><time>2026-08-31T13:31:13Z</time></trkpt><trkpt lat="59.6524876636" lon="30.7341947593"><ele>1701.19</ele><time>2026-08-31T13:31:17Z</time></trkpt><trkpt lat="59.6524598356" lon="30.7341399416"><ele>1697.34</ele><time>2026-08-31T13:31:21Z</time></trkpt><trkpt lat="59.6524541359" lon="30.7341305539"><ele>1693.98</ele><time>2026-08-31T13:31:25Z</time></trkpt><trkpt lat="59.6524465084" lon="30.7341235131"><ele>1690.14</ele><time>2026-08-31T13:31:29Z</time></trkpt><trkpt lat="59.6524413116" lon="30.7341300510"><ele>1686.29</ele><time>2026-08-31T13:31:33Z</time></trkpt><trkpt lat="59.6524351090" lon="30.7341220882"><ele>1682.93</ele><time>2026-08-31T13:31:37Z</time></trkpt><trkpt lat="59.6524244640" lon="30.7341228426"><ele>1679.08</ele><time>2026-08-31T13:31:41Z</time></trkpt><trkpt lat="59.6524180099" lon="30.7341205794"><ele>1675.23</ele><time>2026-08-31T13:31:45Z</time></trkpt><trkpt lat="59.6523859072" lon="30.7341343258"><ele>1671.87</ele><time>2026-08-31T13:31:49Z</time></trkpt><trkpt lat="59.6523383819" lon="30.7341395225"><ele>1668.02</ele><time>2026-08-31T13:31:53Z</time></trkpt><trkpt lat="59.6523331851" lon="30.7341437973"><ele>1664.66</ele><time>2026-08-31T13:31:57Z</time></trkpt><trkpt lat="59.6523289103" lon="30.7341484912"><ele>1660.81</ele><time>2026-08-31T13:32:01Z</time></trkpt><trkpt lat="59.6523105539" lon="30.7341634948"><ele>1657.45</ele><time>2026-08-31T13:32:05Z</time></trkpt><trkpt lat="59.6522733383" lon="30.7341581304"><ele>1653.60</ele><time>2026-08-31T13:32:09Z</time></trkpt><trkpt lat="59.6522605140" lon="30.7341615669"><ele>1650.24</ele><time>2026-08-31T13:32:13Z</time></trkpt><trkpt lat="59.6522564068" lon="30.7341634948"><ele>1646.40</ele><time>2026-08-31T13:32:17Z</time></trkpt><trkpt lat="59.6522468515" lon="30.7341790013"><ele>1643.03</ele><time>2026-08-31T13:32:21Z</time></trkpt><trkpt lat="59.6522398945" lon="30.7341946755"><ele>1639.19</ele><time>2026-08-31T13:32:25Z</time></trkpt><trkpt lat="59.6522351168" lon="30.7341992855"><ele>1635.82</ele><time>2026-08-31T13:32:29Z</time></trkpt><trkpt lat="59.6522045229" lon="30.7342034765"><ele>1632.46</ele><time>2026-08-31T13:32:33Z</time></trkpt><trkpt lat="59.6521999966" lon="30.7342035603"><ele>1628.61</ele><time>2026-08-31T13:32:37Z</time></trkpt><trkpt lat="59.6521461010" lon="30.7342308015"><ele>1625.25</ele><time>2026-08-31T13:32:41Z</time></trkpt><trkpt lat="59.6521296725" lon="30.7342277002"><ele>1621.88</ele><time>2026-08-31T13:32:45Z</time></trkpt><trkpt lat="59.6521294210" lon="30.7342334837"><ele>1618.04</ele><time>2026-08-31T13:32:49Z</time></trkpt><trkpt lat="59.6521260682" lon="30.7342313882"><ele>1614.67</ele><time>2026-08-31T13:32:53Z</time></trkpt><trkpt lat="59.6521253977" lon="30.7342314720"><ele>1611.31</ele><time>2026-08-31T13:32:57Z</time></trkpt><trkpt lat="59.6521246433" lon="30.7342363335"><ele>1607.46</ele><time>2026-08-31T13:33:01Z</time></trkpt><trkpt lat="59.6520953067" lon="30.7342638262"><ele>1604.10</ele><time>2026-08-31T13:33:05Z</time></trkpt><trkpt lat="59.6520870924" lon="30.7342738006"><ele>1600.73</ele><time>2026-08-31T13:33:09Z</time></trkpt><trkpt lat="59.6520673949" lon="30.7342790812"><ele>1597.37</ele><time>2026-08-31T13:33:13Z</time></trkpt><trkpt lat="59.6520572528" lon="30.7342727948"><ele>1593.52</ele><time>2026-08-31T13:33:17Z</time></trkpt><trkpt lat="59.6520540677" lon="30.7342660893"><ele>1590.16</ele><time>2026-08-31T13:33:21Z</time></trkpt><trkpt lat="59.6520515531" lon="30.7342624012"><ele>1586.79</ele><time>2026-08-31T13:33:25Z</time></trkpt><trkpt lat="59.6520361304" lon="30.7342490740"><ele>1583.43</ele><time>2026-08-31T13:33:29Z</time></trkpt><trkpt lat="59.6520417463" lon="30.7342403568"><ele>1580.06</ele><time>2026-08-31T13:33:33Z</time></trkpt><trkpt lat="59.6520541515" lon="30.7342212461"><ele>1576.70</ele><time>2026-08-31T13:33:37Z</time></trkpt><trkpt lat="59.6520534810" lon="30.7342093438"><ele>1573.33</ele><time>2026-08-31T13:33:41Z</time></trkpt><trkpt lat="59.6520504635" lon="30.7342028897"><ele>1569.49</ele><time>2026-08-31T13:33:45Z</time></trkpt><trkpt lat="59.6520349570" lon="30.7341839466"><ele>1566.12</ele><time>2026-08-31T13:33:49Z</time></trkpt><trkpt lat="59.6520175226" lon="30.7341688592"><ele>1562.76</ele><time>2026-08-31T13:33:53Z</time></trkpt><trkpt lat="59.6520129964" lon="30.7341665123"><ele>1559.40</ele><time>2026-08-31T13:33:57Z</time></trkpt><trkpt lat="59.6520099789" lon="30.7341598906"><ele>1556.03</ele><time>2026-08-31T13:34:01Z</time></trkpt><trkpt lat="59.6520004235" lon="30.7341577951"><ele>1552.67</ele><time>2026-08-31T13:34:05Z</time></trkpt><trkpt lat="59.6519751102" lon="30.7341492455"><ele>1549.30</ele><time>2026-08-31T13:34:09Z</time></trkpt><trkpt lat="59.6519524790" lon="30.7341849525"><ele>1545.94</ele><time>2026-08-31T13:34:13Z</time></trkpt><trkpt lat="59.6519555803" lon="30.7341998722"><ele>1542.57</ele><time>2026-08-31T13:34:17Z</time></trkpt><trkpt lat="59.6519553289" lon="30.7342001237"><ele>1539.21</ele><time>2026-08-31T13:34:21Z</time></trkpt><trkpt lat="59.6519513056" lon="30.7341987826"><ele>1535.84</ele><time>2026-08-31T13:34:25Z</time></trkpt><trkpt lat="59.6519074682" lon="30.7342131156"><ele>1532.96</ele><time>2026-08-31T13:34:29Z</time></trkpt><trkpt lat="59.6518876869" lon="30.7342054881"><ele>1529.59</ele><time>2026-08-31T13:34:33Z</time></trkpt><trkpt lat="59.6518703364" lon="30.7342067454"><ele>1526.23</ele><time>2026-08-31T13:34:37Z</time></trkpt><trkpt lat="59.6518663969" lon="30.7341986988"><ele>1522.87</ele><time>2026-08-31T13:34:41Z</time></trkpt><trkpt lat="59.6518576797" lon="30.7341994531"><ele>1519.50</ele><time>2026-08-31T13:34:45Z</time></trkpt><trkpt lat="59.6518552490" lon="30.7342045661"><ele>1516.14</ele><time>2026-08-31T13:34:49Z</time></trkpt><trkpt lat="59.6518553328" lon="30.7342163008"><ele>1512.77</ele><time>2026-08-31T13:34:53Z</time></trkpt><trkpt lat="59.6518575121" lon="30.7342194859"><ele>1509.89</ele><time>2026-08-31T13:34:57Z</time></trkpt><trkpt lat="59.6518490463" lon="30.7342467271"><ele>1506.52</ele><time>2026-08-31T13:35:01Z</time></trkpt><trkpt lat="59.6518379822" lon="30.7342603058"><ele>1503.16</ele><time>2026-08-31T13:35:05Z</time></trkpt><trkpt lat="59.6518317796" lon="30.7342613954"><ele>1499.79</ele><time>2026-08-31T13:35:09Z</time></trkpt><trkpt lat="59.6518289298" lon="30.7342680171"><ele>1496.91</ele><time>2026-08-31T13:35:13Z</time></trkpt><trkpt lat="59.6518031973" lon="30.7342784945"><ele>1493.55</ele><time>2026-08-31T13:35:17Z</time></trkpt><trkpt lat="59.6517669875" lon="30.7342785783"><ele>1490.18</ele><time>2026-08-31T13:35:21Z</time></trkpt><trkpt lat="59.6517654788" lon="30.7342810091"><ele>1487.30</ele><time>2026-08-31T13:35:25Z</time></trkpt><trkpt lat="59.6517621260" lon="30.7342883013"><ele>1483.93</ele><time>2026-08-31T13:35:29Z</time></trkpt><trkpt lat="59.6517526545" lon="30.7343175542"><ele>1480.57</ele><time>2026-08-31T13:35:33Z</time></trkpt><trkpt lat="59.6517520677" lon="30.7343271095"><ele>1477.68</ele><time>2026-08-31T13:35:37Z</time></trkpt><trkpt lat="59.6517518163" lon="30.7343460526"><ele>1474.32</ele><time>2026-08-31T13:35:41Z</time></trkpt><trkpt lat="59.6517124213" lon="30.7343878783"><ele>1470.95</ele><time>2026-08-31T13:35:45Z</time></trkpt><trkpt lat="59.6516824979" lon="30.7344347332"><ele>1468.07</ele><time>2026-08-31T13:35:49Z</time></trkpt><trkpt lat="59.6516783070" lon="30.7344851922"><ele>1464.71</ele><time>2026-08-31T13:35:53Z</time></trkpt><trkpt lat="59.6516808216" lon="30.7344914787"><ele>1461.82</ele><time>2026-08-31T13:35:57Z</time></trkpt><trkpt lat="59.6516870242" lon="30.7345070690"><ele>1458.46</ele><time>2026-08-31T13:36:01Z</time></trkpt><trkpt lat="59.6516981721" lon="30.7345219050"><ele>1455.57</ele><time>2026-08-31T13:36:05Z</time></trkpt><trkpt lat="59.6516964957" lon="30.7345309574"><ele>1452.21</ele><time>2026-08-31T13:36:09Z</time></trkpt><trkpt lat="59.6516890358" lon="30.7345408481"><ele>1448.84</ele><time>2026-08-31T13:36:13Z</time></trkpt><trkpt lat="59.6516209748" lon="30.7346243318"><ele>1445.96</ele><time>2026-08-31T13:36:17Z</time></trkpt><trkpt lat="59.6515927278" lon="30.7346705161"><ele>1443.08</ele><time>2026-08-31T13:36:21Z</time></trkpt><trkpt lat="59.6515877824" lon="30.7346739527"><ele>1439.71</ele><time>2026-08-31T13:36:25Z</time></trkpt><trkpt lat="59.6515865251" lon="30.7346760482"><ele>1436.83</ele><time>2026-08-31T13:36:29Z</time></trkpt><trkpt lat="59.6515817475" lon="30.7346626371"><ele>1433.46</ele><time>2026-08-31T13:36:33Z</time></trkpt><trkpt lat="59.6515559312" lon="30.7346009463"><ele>1430.58</ele><time>2026-08-31T13:36:37Z</time></trkpt><trkpt lat="59.6515529137" lon="30.7345545106"><ele>1427.21</ele><time>2026-08-31T13:36:41Z</time></trkpt><trkpt lat="59.6515462082" lon="30.7345531695"><ele>1424.33</ele><time>2026-08-31T13:36:45Z</time></trkpt><trkpt lat="59.6515204757" lon="30.7345719449"><ele>1420.97</ele><time>2026-08-31T13:36:49Z</time></trkpt><trkpt lat="59.6515071485" lon="30.7345630601"><ele>1418.08</ele><time>2026-08-31T13:36:53Z</time></trkpt><trkpt lat="59.6515156981" lon="30.7345602941"><ele>1415.20</ele><time>2026-08-31T13:36:57Z</time></trkpt><trkpt lat="59.6515216492" lon="30.7345813327"><ele>1411.83</ele><time>2026-08-31T13:37:01Z</time></trkpt><trkpt lat="59.6515210625" lon="30.7345936541"><ele>1408.95</ele><time>2026-08-31T13:37:05Z</time></trkpt><trkpt lat="59.6515148599" lon="30.7345945761"><ele>1406.07</ele><time>2026-08-31T13:37:09Z</time></trkpt><trkpt lat="59.6514856070" lon="30.7345562708"><ele>1402.70</ele><time>2026-08-31T13:37:13Z</time></trkpt><trkpt lat="59.6514752973" lon="30.7345493976"><ele>1399.82</ele><time>2026-08-31T13:37:17Z</time></trkpt><trkpt lat="59.6514566895" lon="30.7345228270"><ele>1396.93</ele><time>2026-08-31T13:37:21Z</time></trkpt><trkpt lat="59.6514430270" lon="30.7344975974"><ele>1394.05</ele><time>2026-08-31T13:37:25Z</time></trkpt><trkpt lat="59.6514420211" lon="30.7344961725"><ele>1390.68</ele><time>2026-08-31T13:37:29Z</time></trkpt><trkpt lat="59.6514260117" lon="30.7345186360"><ele>1387.80</ele><time>2026-08-31T13:37:33Z</time></trkpt><trkpt lat="59.6514105890" lon="30.7345385849"><ele>1383.96</ele><time>2026-08-31T13:37:38Z</time></trkpt><trkpt lat="59.6514032129" lon="30.7345483080"><ele>1380.11</ele><time>2026-08-31T13:37:43Z</time></trkpt><trkpt lat="59.6513786539" lon="30.7346145250"><ele>1376.75</ele><time>2026-08-31T13:37:48Z</time></trkpt><trkpt lat="59.6513784863" lon="30.7346239127"><ele>1372.90</ele><time>2026-08-31T13:37:53Z</time></trkpt><trkpt lat="59.6513662487" lon="30.7346882857"><ele>1369.05</ele><time>2026-08-31T13:37:58Z</time></trkpt><trkpt lat="59.6513395105" lon="30.7347815763"><ele>1365.69</ele><time>2026-08-31T13:38:03Z</time></trkpt><trkpt lat="59.6513205674" lon="30.7348580193"><ele>1361.84</ele><time>2026-08-31T13:38:08Z</time></trkpt><trkpt lat="59.6513137780" lon="30.7348719332"><ele>1358.00</ele><time>2026-08-31T13:38:13Z</time></trkpt><trkpt lat="59.6513039712" lon="30.7348760404"><ele>1354.63</ele><time>2026-08-31T13:38:18Z</time></trkpt><trkpt lat="59.6512971818" lon="30.7348836679"><ele>1350.79</ele><time>2026-08-31T13:38:23Z</time></trkpt><trkpt lat="59.6512883808" lon="30.7349042036"><ele>1347.43</ele><time>2026-08-31T13:38:28Z</time></trkpt><trkpt lat="59.6512831002" lon="30.7349169441"><ele>1343.58</ele><time>2026-08-31T13:38:33Z</time></trkpt><trkpt lat="59.6512810886" lon="30.7349378150"><ele>1339.73</ele><time>2026-08-31T13:38:38Z</time></trkpt><trkpt lat="59.6512680128" lon="30.7349743601"><ele>1336.37</ele><time>2026-08-31T13:38:43Z</time></trkpt><trkpt lat="59.6512596309" lon="30.7350380626"><ele>1332.52</ele><time>2026-08-31T13:38:48Z</time></trkpt><trkpt lat="59.6512623131" lon="30.7350771222"><ele>1329.16</ele><time>2026-08-31T13:38:53Z</time></trkpt><trkpt lat="59.6512610558" lon="30.7350863423"><ele>1328.68</ele><time>2026-08-31T13:38:55Z</time></trkpt><trkpt lat="59.6512452140" lon="30.7351642940"><ele>1324.83</ele><time>2026-08-31T13:39:01Z</time></trkpt><trkpt lat="59.6512435377" lon="30.7351740170"><ele>1321.47</ele><time>2026-08-31T13:39:06Z</time></trkpt><trkpt lat="59.6512406878" lon="30.7351838239"><ele>1317.62</ele><time>2026-08-31T13:39:11Z</time></trkpt><trkpt lat="59.6512355749" lon="30.7351941336"><ele>1314.26</ele><time>2026-08-31T13:39:16Z</time></trkpt><trkpt lat="59.6512477286" lon="30.7352260686"><ele>1310.41</ele><time>2026-08-31T13:39:21Z</time></trkpt><trkpt lat="59.6512499917" lon="30.7352569979"><ele>1307.05</ele><time>2026-08-31T13:39:26Z</time></trkpt><trkpt lat="59.6512489021" lon="30.7353051100"><ele>1303.69</ele><time>2026-08-31T13:39:31Z</time></trkpt><trkpt lat="59.6512258518" lon="30.7353691477"><ele>1300.32</ele><time>2026-08-31T13:39:36Z</time></trkpt><trkpt lat="59.6512261871" lon="30.7353838161"><ele>1296.48</ele><time>2026-08-31T13:39:41Z</time></trkpt><trkpt lat="59.6512127761" lon="30.7354281563"><ele>1293.11</ele><time>2026-08-31T13:39:46Z</time></trkpt><trkpt lat="59.6512154583" lon="30.7354601752"><ele>1289.75</ele><time>2026-08-31T13:39:51Z</time></trkpt><trkpt lat="59.6512136981" lon="30.7354919426"><ele>1286.38</ele><time>2026-08-31T13:39:56Z</time></trkpt><trkpt lat="59.6512117703" lon="30.7354991511"><ele>1282.54</ele><time>2026-08-31T13:40:01Z</time></trkpt><trkpt lat="59.6511789132" lon="30.7355029229"><ele>1279.17</ele><time>2026-08-31T13:40:06Z</time></trkpt><trkpt lat="59.6511701122" lon="30.7355056051"><ele>1275.81</ele><time>2026-08-31T13:40:11Z</time></trkpt><trkpt lat="59.6511687711" lon="30.7355096284"><ele>1272.44</ele><time>2026-08-31T13:40:16Z</time></trkpt><trkpt lat="59.6511642449" lon="30.7355125621"><ele>1269.08</ele><time>2026-08-31T13:40:21Z</time></trkpt><trkpt lat="59.6511657536" lon="30.7355178427"><ele>1265.71</ele><time>2026-08-31T13:40:26Z</time></trkpt><trkpt lat="59.6511643287" lon="30.7355374563"><ele>1261.87</ele><time>2026-08-31T13:40:31Z</time></trkpt><trkpt lat="59.6511691064" lon="30.7355559804"><ele>1258.50</ele><time>2026-08-31T13:40:36Z</time></trkpt><trkpt lat="59.6511437930" lon="30.7355743367"><ele>1255.14</ele><time>2026-08-31T13:40:41Z</time></trkpt><trkpt lat="59.6511137858" lon="30.7356158271"><ele>1251.77</ele><time>2026-08-31T13:40:46Z</time></trkpt><trkpt lat="59.6510843653" lon="30.7356704772"><ele>1248.41</ele><time>2026-08-31T13:40:51Z</time></trkpt><trkpt lat="59.6510684397" lon="30.7356958743"><ele>1245.04</ele><time>2026-08-31T13:40:56Z</time></trkpt><trkpt lat="59.6510627400" lon="30.7357151527"><ele>1241.68</ele><time>2026-08-31T13:41:01Z</time></trkpt><trkpt lat="59.6510468982" lon="30.7357375324"><ele>1238.32</ele><time>2026-08-31T13:41:06Z</time></trkpt><trkpt lat="59.6510320622" lon="30.7357655279"><ele>1234.95</ele><time>2026-08-31T13:41:11Z</time></trkpt><trkpt lat="59.6510306373" lon="30.7357693836"><ele>1232.07</ele><time>2026-08-31T13:41:16Z</time></trkpt><trkpt lat="59.6510214172" lon="30.7357859798"><ele>1228.70</ele><time>2026-08-31T13:41:21Z</time></trkpt><trkpt lat="59.6510204952" lon="30.7357939426"><ele>1225.34</ele><time>2026-08-31T13:41:26Z</time></trkpt><trkpt lat="59.6510209981" lon="30.7357983012"><ele>1221.97</ele><time>2026-08-31T13:41:31Z</time></trkpt><trkpt lat="59.6510120295" lon="30.7358143944"><ele>1218.61</ele><time>2026-08-31T13:41:36Z</time></trkpt><trkpt lat="59.6510083415" lon="30.7358252071"><ele>1215.24</ele><time>2026-08-31T13:41:41Z</time></trkpt><trkpt lat="59.6510078385" lon="30.7358270511"><ele>1211.88</ele><time>2026-08-31T13:41:46Z</time></trkpt><trkpt lat="59.6510012168" lon="30.7358296495"><ele>1209.48</ele><time>2026-08-31T13:41:50Z</time></trkpt><trkpt lat="59.6509990375" lon="30.7358618360"><ele>1206.11</ele><time>2026-08-31T13:42:00Z</time></trkpt><trkpt lat="59.6509986185" lon="30.7358768396"><ele>1203.23</ele><time>2026-08-31T13:42:05Z</time></trkpt><trkpt lat="59.6509948466" lon="30.7359103672"><ele>1199.86</ele><time>2026-08-31T13:42:10Z</time></trkpt><trkpt lat="59.6509772446" lon="30.7359263767"><ele>1196.50</ele><time>2026-08-31T13:42:15Z</time></trkpt><trkpt lat="59.6509702038" lon="30.7359405421"><ele>1193.13</ele><time>2026-08-31T13:42:20Z</time></trkpt><trkpt lat="59.6509629954" lon="30.7359578926"><ele>1190.25</ele><time>2026-08-31T13:42:25Z</time></trkpt><trkpt lat="59.6509652585" lon="30.7360075135"><ele>1186.88</ele><time>2026-08-31T13:42:30Z</time></trkpt><trkpt lat="59.6509357542" lon="30.7360314857"><ele>1183.52</ele><time>2026-08-31T13:42:35Z</time></trkpt><trkpt lat="59.6509163082" lon="30.7360618282"><ele>1180.64</ele><time>2026-08-31T13:42:40Z</time></trkpt><trkpt lat="59.6509059984" lon="30.7360891532"><ele>1177.27</ele><time>2026-08-31T13:42:45Z</time></trkpt><trkpt lat="59.6508994605" lon="30.7361008041"><ele>1174.39</ele><time>2026-08-31T13:42:50Z</time></trkpt><trkpt lat="59.6508988738" lon="30.7361188252"><ele>1171.02</ele><time>2026-08-31T13:42:55Z</time></trkpt><trkpt lat="59.6508857142" lon="30.7361520175"><ele>1168.14</ele><time>2026-08-31T13:43:00Z</time></trkpt><trkpt lat="59.6508974489" lon="30.7361542806"><ele>1164.77</ele><time>2026-08-31T13:43:05Z</time></trkpt><trkpt lat="59.6508889832" lon="30.7361722179"><ele>1161.41</ele><time>2026-08-31T13:43:10Z</time></trkpt><trkpt lat="59.6508560423" lon="30.7362317294"><ele>1158.53</ele><time>2026-08-31T13:43:15Z</time></trkpt><trkpt lat="59.6508070920" lon="30.7363052387"><ele>1155.16</ele><time>2026-08-31T13:43:20Z</time></trkpt><trkpt lat="59.6507859696" lon="30.7363363355"><ele>1152.28</ele><time>2026-08-31T13:43:25Z</time></trkpt><trkpt lat="59.6507681999" lon="30.7363371737"><ele>1149.39</ele><time>2026-08-31T13:43:30Z</time></trkpt><trkpt lat="59.6507339180" lon="30.7363674324"><ele>1146.03</ele><time>2026-08-31T13:43:35Z</time></trkpt><trkpt lat="59.6507251170" lon="30.7363909017"><ele>1143.14</ele><time>2026-08-31T13:43:40Z</time></trkpt><trkpt lat="59.6507204231" lon="30.7364066597"><ele>1139.78</ele><time>2026-08-31T13:43:45Z</time></trkpt><trkpt lat="59.6507157292" lon="30.7364126947"><ele>1136.90</ele><time>2026-08-31T13:43:50Z</time></trkpt><trkpt lat="59.6507180762" lon="30.7364197355"><ele>1134.01</ele><time>2026-08-31T13:43:55Z</time></trkpt><trkpt lat="59.6507104486" lon="30.7364257704"><ele>1130.65</ele><time>2026-08-31T13:44:00Z</time></trkpt><trkpt lat="59.6506940201" lon="30.7364582922"><ele>1127.76</ele><time>2026-08-31T13:44:05Z</time></trkpt><trkpt lat="59.6506543737" lon="30.7365363277"><ele>1124.88</ele><time>2026-08-31T13:44:10Z</time></trkpt><trkpt lat="59.6506472491" lon="30.7365607191"><ele>1121.52</ele><time>2026-08-31T13:44:15Z</time></trkpt><trkpt lat="59.6506435610" lon="30.7365673408"><ele>1118.63</ele><time>2026-08-31T13:44:20Z</time></trkpt><trkpt lat="59.6506323293" lon="30.7365842722"><ele>1115.27</ele><time>2026-08-31T13:44:26Z</time></trkpt><trkpt lat="59.6506182477" lon="30.7366159558"><ele>1111.42</ele><time>2026-08-31T13:44:32Z</time></trkpt><trkpt lat="59.6505683754" lon="30.7366975117"><ele>1108.06</ele><time>2026-08-31T13:44:38Z</time></trkpt><trkpt lat="59.6505464148" lon="30.7367255911"><ele>1104.21</ele><time>2026-08-31T13:44:44Z</time></trkpt><trkpt lat="59.6505479235" lon="30.7367113419"><ele>1100.85</ele><time>2026-08-31T13:44:50Z</time></trkpt><trkpt lat="59.6505438164" lon="30.7367114257"><ele>1097.00</ele><time>2026-08-31T13:44:56Z</time></trkpt><trkpt lat="59.6505449060" lon="30.7367085759"><ele>1093.64</ele><time>2026-08-31T13:45:02Z</time></trkpt><trkpt lat="59.6505039185" lon="30.7366993558"><ele>1090.27</ele><time>2026-08-31T13:45:08Z</time></trkpt><trkpt lat="59.6504923515" lon="30.7366960030"><ele>1086.43</ele><time>2026-08-31T13:45:14Z</time></trkpt><trkpt lat="59.6504786890" lon="30.7366802450"><ele>1083.06</ele><time>2026-08-31T13:45:20Z</time></trkpt><trkpt lat="59.6504678763" lon="30.7367007807"><ele>1079.70</ele><time>2026-08-31T13:45:26Z</time></trkpt><trkpt lat="59.6504315827" lon="30.7367060613"><ele>1076.33</ele><time>2026-08-31T13:45:32Z</time></trkpt><trkpt lat="59.6504121367" lon="30.7366832625"><ele>1072.49</ele><time>2026-08-31T13:45:38Z</time></trkpt><trkpt lat="59.6504038386" lon="30.7366952486"><ele>1069.12</ele><time>2026-08-31T13:45:44Z</time></trkpt><trkpt lat="59.6503942832" lon="30.7367162034"><ele>1065.76</ele><time>2026-08-31T13:45:50Z</time></trkpt><trkpt lat="59.6503976360" lon="30.7367219869"><ele>1062.39</ele><time>2026-08-31T13:45:56Z</time></trkpt><trkpt lat="59.6503860690" lon="30.7367326319"><ele>1059.03</ele><time>2026-08-31T13:46:02Z</time></trkpt><trkpt lat="59.6503444109" lon="30.7367174607"><ele>1055.67</ele><time>2026-08-31T13:46:08Z</time></trkpt><trkpt lat="59.6503179241" lon="30.7367429417"><ele>1052.30</ele><time>2026-08-31T13:46:14Z</time></trkpt><trkpt lat="59.6503141522" lon="30.7367303688"><ele>1048.94</ele><time>2026-08-31T13:46:20Z</time></trkpt><trkpt lat="59.6503005736" lon="30.7367166225"><ele>1045.57</ele><time>2026-08-31T13:46:26Z</time></trkpt><trkpt lat="59.6502809599" lon="30.7366955001"><ele>1042.21</ele><time>2026-08-31T13:46:32Z</time></trkpt><trkpt lat="59.6502600890" lon="30.7366510760"><ele>1038.84</ele><time>2026-08-31T13:46:38Z</time></trkpt><trkpt lat="59.6501955483" lon="30.7366538420"><ele>1035.48</ele><time>2026-08-31T13:46:44Z</time></trkpt><trkpt lat="59.6501738392" lon="30.7366454601"><ele>1032.11</ele><time>2026-08-31T13:46:50Z</time></trkpt><trkpt lat="59.6501552314" lon="30.7366306242"><ele>1028.75</ele><time>2026-08-31T13:46:56Z</time></trkpt><trkpt lat="59.6501248050" lon="30.7366235834"><ele>1025.38</ele><time>2026-08-31T13:47:02Z</time></trkpt><trkpt lat="59.6501163393" lon="30.7366328035"><ele>1022.02</ele><time>2026-08-31T13:47:08Z</time></trkpt><trkpt lat="59.6500917803" lon="30.7366385031"><ele>1018.65</ele><time>2026-08-31T13:47:14Z</time></trkpt><trkpt lat="59.6500856616" lon="30.7366735395"><ele>1015.29</ele><time>2026-08-31T13:47:20Z</time></trkpt><trkpt lat="59.6500836499" lon="30.7367117610"><ele>1012.41</ele><time>2026-08-31T13:47:26Z</time></trkpt><trkpt lat="59.6500777826" lon="30.7367161196"><ele>1009.04</ele><time>2026-08-31T13:47:32Z</time></trkpt><trkpt lat="59.6500632819" lon="30.7367149461"><ele>1005.68</ele><time>2026-08-31T13:47:38Z</time></trkpt><trkpt lat="59.6500194445" lon="30.7367432769"><ele>1002.31</ele><time>2026-08-31T13:47:44Z</time></trkpt><trkpt lat="59.6499747690" lon="30.7367233280"><ele>999.43</ele><time>2026-08-31T13:47:50Z</time></trkpt><trkpt lat="59.6499195322" lon="30.7366801612"><ele>996.06</ele><time>2026-08-31T13:47:56Z</time></trkpt><trkpt lat="59.6499009244" lon="30.7366836816"><ele>992.70</ele><time>2026-08-31T13:48:02Z</time></trkpt><trkpt lat="59.6499008406" lon="30.7366986014"><ele>989.33</ele><time>2026-08-31T13:48:08Z</time></trkpt><trkpt lat="59.6498890221" lon="30.7367433608"><ele>986.45</ele><time>2026-08-31T13:48:14Z</time></trkpt><trkpt lat="59.6498606075" lon="30.7367837615"><ele>983.09</ele><time>2026-08-31T13:48:20Z</time></trkpt><trkpt lat="59.6498277504" lon="30.7368295267"><ele>980.20</ele><time>2026-08-31T13:48:26Z</time></trkpt><trkpt lat="59.6498127468" lon="30.7368542533"><ele>976.84</ele><time>2026-08-31T13:48:32Z</time></trkpt><trkpt lat="59.6498059575" lon="30.7368402556"><ele>973.95</ele><time>2026-08-31T13:48:38Z</time></trkpt><trkpt lat="59.6497897804" lon="30.7368222345"><ele>970.59</ele><time>2026-08-31T13:48:44Z</time></trkpt><trkpt lat="59.6497430932" lon="30.7368334662"><ele>967.70</ele><time>2026-08-31T13:48:50Z</time></trkpt><trkpt lat="59.6497156844" lon="30.7368447818"><ele>964.34</ele><time>2026-08-31T13:48:56Z</time></trkpt><trkpt lat="59.6496964060" lon="30.7368902117"><ele>961.46</ele><time>2026-08-31T13:49:02Z</time></trkpt><trkpt lat="59.6496967413" lon="30.7368935645"><ele>958.09</ele><time>2026-08-31T13:49:08Z</time></trkpt><trkpt lat="59.6496922988" lon="30.7369084843"><ele>955.21</ele><time>2026-08-31T13:49:14Z</time></trkpt><trkpt lat="59.6496470366" lon="30.7369104959"><ele>951.84</ele><time>2026-08-31T13:49:20Z</time></trkpt><trkpt lat="59.6496009361" lon="30.7369422633"><ele>948.96</ele><time>2026-08-31T13:49:26Z</time></trkpt><trkpt lat="59.6495886147" lon="30.7369269244"><ele>946.07</ele><time>2026-08-31T13:49:32Z</time></trkpt><trkpt lat="59.6495737787" lon="30.7369251642"><ele>943.19</ele><time>2026-08-31T13:49:38Z</time></trkpt><trkpt lat="59.6495678276" lon="30.7369231526"><ele>939.83</ele><time>2026-08-31T13:49:44Z</time></trkpt><trkpt lat="59.6495477948" lon="30.7369370665"><ele>936.46</ele><time>2026-08-31T13:49:51Z</time></trkpt><trkpt lat="59.6495363954" lon="30.7369364798"><ele>933.10</ele><time>2026-08-31T13:49:58Z</time></trkpt><trkpt lat="59.6495223977" lon="30.7369465381"><ele>929.73</ele><time>2026-08-31T13:50:05Z</time></trkpt><trkpt lat="59.6494990122" lon="30.7369983383"><ele>925.89</ele><time>2026-08-31T13:50:12Z</time></trkpt><trkpt lat="59.6494439431" lon="30.7370541617"><ele>922.52</ele><time>2026-08-31T13:50:19Z</time></trkpt><trkpt lat="59.6494105831" lon="30.7371104881"><ele>919.16</ele><time>2026-08-31T13:50:26Z</time></trkpt><trkpt lat="59.6494095773" lon="30.7371228095"><ele>915.79</ele><time>2026-08-31T13:50:33Z</time></trkpt><trkpt lat="59.6494234912" lon="30.7371430937"><ele>912.43</ele><time>2026-08-31T13:50:40Z</time></trkpt><trkpt lat="59.6494084038" lon="30.7372690737"><ele>909.06</ele><time>2026-08-31T13:50:47Z</time></trkpt><trkpt lat="59.6494042967" lon="30.7373188622"><ele>905.70</ele><time>2026-08-31T13:50:54Z</time></trkpt><trkpt lat="59.6493944060" lon="30.7373479474"><ele>902.33</ele><time>2026-08-31T13:51:01Z</time></trkpt><trkpt lat="59.6493908856" lon="30.7373928744"><ele>898.97</ele><time>2026-08-31T13:51:10Z</time></trkpt><trkpt lat="59.6493929811" lon="30.7374195289"><ele>895.61</ele><time>2026-08-31T13:51:17Z</time></trkpt><trkpt lat="59.6493908856" lon="30.7374378014"><ele>892.24</ele><time>2026-08-31T13:51:24Z</time></trkpt><trkpt lat="59.6493892930" lon="30.7374543976"><ele>888.88</ele><time>2026-08-31T13:51:31Z</time></trkpt><trkpt lat="59.6493953280" lon="30.7374687307"><ele>885.99</ele><time>2026-08-31T13:51:38Z</time></trkpt><trkpt lat="59.6493963338" lon="30.7375048567"><ele>882.63</ele><time>2026-08-31T13:51:45Z</time></trkpt><trkpt lat="59.6493981779" lon="30.7375248894"><ele>879.26</ele><time>2026-08-31T13:51:52Z</time></trkpt><trkpt lat="59.6493993513" lon="30.7375362050"><ele>875.90</ele><time>2026-08-31T13:51:59Z</time></trkpt><trkpt lat="59.6493982617" lon="30.7375582494"><ele>873.01</ele><time>2026-08-31T13:52:06Z</time></trkpt><trkpt lat="59.6493933164" lon="30.7376061101"><ele>869.65</ele><time>2026-08-31T13:52:13Z</time></trkpt><trkpt lat="59.6493741218" lon="30.7376553118"><ele>866.29</ele><time>2026-08-31T13:52:20Z</time></trkpt><trkpt lat="59.6493531670" lon="30.7377051003"><ele>863.40</ele><time>2026-08-31T13:52:27Z</time></trkpt><trkpt lat="59.6493285242" lon="30.7377547212"><ele>860.04</ele><time>2026-08-31T13:52:34Z</time></trkpt><trkpt lat="59.6493098326" lon="30.7377908472"><ele>856.67</ele><time>2026-08-31T13:52:41Z</time></trkpt><trkpt lat="59.6492670011" lon="30.7378530409"><ele>853.79</ele><time>2026-08-31T13:52:48Z</time></trkpt><trkpt lat="59.6492188890" lon="30.7379479241"><ele>850.42</ele><time>2026-08-31T13:52:55Z</time></trkpt><trkpt lat="59.6492009517" lon="30.7380090281"><ele>847.54</ele><time>2026-08-31T13:53:02Z</time></trkpt><trkpt lat="59.6491986886" lon="30.7380240317"><ele>844.18</ele><time>2026-08-31T13:53:09Z</time></trkpt><trkpt lat="59.6491932403" lon="30.7380356826"><ele>841.29</ele><time>2026-08-31T13:53:16Z</time></trkpt><trkpt lat="59.6491715312" lon="30.7380792685"><ele>838.41</ele><time>2026-08-31T13:53:23Z</time></trkpt><trkpt lat="59.6491528396" lon="30.7381613273"><ele>835.04</ele><time>2026-08-31T13:53:30Z</time></trkpt><trkpt lat="59.6491364110" lon="30.7382091880"><ele>832.16</ele><time>2026-08-31T13:53:37Z</time></trkpt><trkpt lat="59.6491255984" lon="30.7382808533"><ele>828.79</ele><time>2026-08-31T13:53:44Z</time></trkpt><trkpt lat="59.6491207369" lon="30.7383091003"><ele>825.91</ele><time>2026-08-31T13:53:51Z</time></trkpt><trkpt lat="59.6490406059" lon="30.7384292129"><ele>823.03</ele><time>2026-08-31T13:53:58Z</time></trkpt><trkpt lat="59.6490085870" lon="30.7384493295"><ele>819.66</ele><time>2026-08-31T13:54:05Z</time></trkpt><trkpt lat="59.6489938349" lon="30.7384823542"><ele>816.78</ele><time>2026-08-31T13:54:12Z</time></trkpt><trkpt lat="59.6489837766" lon="30.7385154627"><ele>813.89</ele><time>2026-08-31T13:54:19Z</time></trkpt><trkpt lat="59.6489795856" lon="30.7385204080"><ele>811.01</ele><time>2026-08-31T13:54:26Z</time></trkpt><trkpt lat="59.6489691921" lon="30.7385346573"><ele>807.16</ele><time>2026-08-31T13:54:34Z</time></trkpt><trkpt lat="59.6489447169" lon="30.7385604735"><ele>803.80</ele><time>2026-08-31T13:54:42Z</time></trkpt><trkpt lat="59.6489002928" lon="30.7385747228"><ele>800.44</ele><time>2026-08-31T13:54:50Z</time></trkpt><trkpt lat="59.6488841996" lon="30.7385970186"><ele>797.07</ele><time>2026-08-31T13:54:58Z</time></trkpt><trkpt lat="59.6488577966" lon="30.7386352401"><ele>793.71</ele><time>2026-08-31T13:55:06Z</time></trkpt><trkpt lat="59.6488332376" lon="30.7386819273"><ele>790.34</ele><time>2026-08-31T13:55:14Z</time></trkpt><trkpt lat="59.6488221735" lon="30.7387451269"><ele>786.98</ele><time>2026-08-31T13:55:22Z</time></trkpt><trkpt lat="59.6488080919" lon="30.7387894671"><ele>783.61</ele><time>2026-08-31T13:55:30Z</time></trkpt><trkpt lat="59.6487481613" lon="30.7388726156"><ele>780.25</ele><time>2026-08-31T13:55:38Z</time></trkpt><trkpt lat="59.6487174835" lon="30.7388721965"><ele>777.36</ele><time>2026-08-31T13:55:46Z</time></trkpt><trkpt lat="59.6486863866" lon="30.7388994377"><ele>774.00</ele><time>2026-08-31T13:55:54Z</time></trkpt><trkpt lat="59.6486807708" lon="30.7388884574"><ele>770.63</ele><time>2026-08-31T13:56:02Z</time></trkpt><trkpt lat="59.6486729756" lon="30.7388882898"><ele>767.27</ele><time>2026-08-31T13:56:10Z</time></trkpt><trkpt lat="59.6486664377" lon="30.7388935704"><ele>763.90</ele><time>2026-08-31T13:56:18Z</time></trkpt><trkpt lat="59.6486639231" lon="30.7388918940"><ele>761.02</ele><time>2026-08-31T13:56:26Z</time></trkpt><trkpt lat="59.6486628335" lon="30.7388730347"><ele>757.66</ele><time>2026-08-31T13:56:34Z</time></trkpt><trkpt lat="59.6486465726" lon="30.7388359029"><ele>754.29</ele><time>2026-08-31T13:56:42Z</time></trkpt><trkpt lat="59.6486398671" lon="30.7388254255"><ele>751.41</ele><time>2026-08-31T13:56:50Z</time></trkpt><trkpt lat="59.6486359276" lon="30.7388254255"><ele>748.04</ele><time>2026-08-31T13:56:58Z</time></trkpt><trkpt lat="59.6486255340" lon="30.7388348132"><ele>745.16</ele><time>2026-08-31T13:57:06Z</time></trkpt><trkpt lat="59.6486272942" lon="30.7388114277"><ele>741.79</ele><time>2026-08-31T13:57:14Z</time></trkpt><trkpt lat="59.6485753264" lon="30.7387186401"><ele>738.43</ele><time>2026-08-31T13:57:22Z</time></trkpt><trkpt lat="59.6485573892" lon="30.7386903930"><ele>735.55</ele><time>2026-08-31T13:57:30Z</time></trkpt><trkpt lat="59.6485595684" lon="30.7386922371"><ele>732.18</ele><time>2026-08-31T13:57:38Z</time></trkpt><trkpt lat="59.6485580597" lon="30.7387373317"><ele>729.30</ele><time>2026-08-31T13:57:46Z</time></trkpt><trkpt lat="59.6485454869" lon="30.7388012018"><ele>725.93</ele><time>2026-08-31T13:57:54Z</time></trkpt><trkpt lat="59.6484930161" lon="30.7388810813"><ele>723.05</ele><time>2026-08-31T13:58:02Z</time></trkpt><trkpt lat="59.6484646853" lon="30.7388850208"><ele>720.16</ele><time>2026-08-31T13:58:10Z</time></trkpt><trkpt lat="59.6484521125" lon="30.7389153633"><ele>716.80</ele><time>2026-08-31T13:58:18Z</time></trkpt><trkpt lat="59.6484345105" lon="30.7389731985"><ele>713.92</ele><time>2026-08-31T13:58:26Z</time></trkpt><trkpt lat="59.6484304033" lon="30.7389952429"><ele>711.03</ele><time>2026-08-31T13:58:34Z</time></trkpt><trkpt lat="59.6484245360" lon="30.7390031219"><ele>708.15</ele><time>2026-08-31T13:58:42Z</time></trkpt><trkpt lat="59.6483674552" lon="30.7390358951"><ele>704.78</ele><time>2026-08-31T13:58:51Z</time></trkpt><trkpt lat="59.6483110450" lon="30.7390531618"><ele>701.42</ele><time>2026-08-31T13:59:00Z</time></trkpt><trkpt lat="59.6482809540" lon="30.7390871085"><ele>698.05</ele><time>2026-08-31T13:59:09Z</time></trkpt><trkpt lat="59.6482527070" lon="30.7391125057"><ele>694.69</ele><time>2026-08-31T13:59:18Z</time></trkpt><trkpt lat="59.6482326742" lon="30.7391108293"><ele>691.33</ele><time>2026-08-31T13:59:27Z</time></trkpt><trkpt lat="59.6482142340" lon="30.7391388249"><ele>687.96</ele><time>2026-08-31T13:59:36Z</time></trkpt><trkpt lat="59.6482052654" lon="30.7391575165"><ele>684.60</ele><time>2026-08-31T13:59:45Z</time></trkpt><trkpt lat="59.6481838077" lon="30.7390985079"><ele>681.71</ele><time>2026-08-31T13:59:54Z</time></trkpt><trkpt lat="59.6481743362" lon="30.7390934788"><ele>678.35</ele><time>2026-08-31T14:00:03Z</time></trkpt><trkpt lat="59.6481623501" lon="30.7391103264"><ele>674.98</ele><time>2026-08-31T14:00:12Z</time></trkpt><trkpt lat="59.6481389645" lon="30.7391250785"><ele>672.10</ele><time>2026-08-31T14:00:21Z</time></trkpt><trkpt lat="59.6481160820" lon="30.7391462848"><ele>668.73</ele><time>2026-08-31T14:00:30Z</time></trkpt><trkpt lat="59.6481041797" lon="30.7391938102"><ele>665.37</ele><time>2026-08-31T14:00:39Z</time></trkpt><trkpt lat="59.6480793692" lon="30.7392457779"><ele>662.49</ele><time>2026-08-31T14:00:48Z</time></trkpt><trkpt lat="59.6480683051" lon="30.7392806467"><ele>659.12</ele><time>2026-08-31T14:00:57Z</time></trkpt><trkpt lat="59.6480384655" lon="30.7393400744"><ele>656.24</ele><time>2026-08-31T14:01:06Z</time></trkpt><trkpt lat="59.6479967237" lon="30.7393880188"><ele>652.87</ele><time>2026-08-31T14:01:15Z</time></trkpt><trkpt lat="59.6478794608" lon="30.7395211235"><ele>649.51</ele><time>2026-08-31T14:01:25Z</time></trkpt><trkpt lat="59.6478371322" lon="30.7396486960"><ele>646.62</ele><time>2026-08-31T14:01:34Z</time></trkpt><trkpt lat="59.6477989107" lon="30.7397042681"><ele>643.26</ele><time>2026-08-31T14:01:43Z</time></trkpt><trkpt lat="59.6477599349" lon="30.7397047710"><ele>640.38</ele><time>2026-08-31T14:01:52Z</time></trkpt><trkpt lat="59.6477393992" lon="30.7397233788"><ele>637.49</ele><time>2026-08-31T14:02:01Z</time></trkpt><trkpt lat="59.6477038600" lon="30.7397883385"><ele>634.13</ele><time>2026-08-31T14:02:11Z</time></trkpt><trkpt lat="59.6476779599" lon="30.7399221975"><ele>630.76</ele><time>2026-08-31T14:02:21Z</time></trkpt><trkpt lat="59.6476736013" lon="30.7400243729"><ele>627.40</ele><time>2026-08-31T14:02:31Z</time></trkpt><trkpt lat="59.6476434264" lon="30.7401107065"><ele>624.03</ele><time>2026-08-31T14:02:41Z</time></trkpt><trkpt lat="59.6476405766" lon="30.7401270512"><ele>620.67</ele><time>2026-08-31T14:02:51Z</time></trkpt><trkpt lat="59.6476505511" lon="30.7402447332"><ele>617.78</ele><time>2026-08-31T14:03:01Z</time></trkpt><trkpt lat="59.6476843301" lon="30.7404065039"><ele>614.42</ele><time>2026-08-31T14:03:11Z</time></trkpt><trkpt lat="59.6476963162" lon="30.7404811028"><ele>611.06</ele><time>2026-08-31T14:03:21Z</time></trkpt><trkpt lat="59.6476738527" lon="30.7405235991"><ele>608.17</ele><time>2026-08-31T14:03:31Z</time></trkpt><trkpt lat="59.6476543229" lon="30.7406038139"><ele>604.81</ele><time>2026-08-31T14:03:41Z</time></trkpt><trkpt lat="59.6476448514" lon="30.7406906504"><ele>601.92</ele><time>2026-08-31T14:03:51Z</time></trkpt><trkpt lat="59.6476295125" lon="30.7407164667"><ele>598.56</ele><time>2026-08-31T14:04:01Z</time></trkpt><trkpt lat="59.6476186998" lon="30.7407496590"><ele>595.19</ele><time>2026-08-31T14:04:11Z</time></trkpt><trkpt lat="59.6476109885" lon="30.7407807559"><ele>592.31</ele><time>2026-08-31T14:04:21Z</time></trkpt><trkpt lat="59.6476234775" lon="30.7408603001"><ele>589.43</ele><time>2026-08-31T14:04:31Z</time></trkpt><trkpt lat="59.6476210468" lon="30.7408966776"><ele>586.06</ele><time>2026-08-31T14:04:41Z</time></trkpt><trkpt lat="59.6476155147" lon="30.7409101725"><ele>583.18</ele><time>2026-08-31T14:04:51Z</time></trkpt><trkpt lat="59.6476129163" lon="30.7409356534"><ele>579.81</ele><time>2026-08-31T14:05:01Z</time></trkpt><trkpt lat="59.6476027742" lon="30.7409866992"><ele>576.93</ele><time>2026-08-31T14:05:11Z</time></trkpt><trkpt lat="59.6476166043" lon="30.7410979271"><ele>574.04</ele><time>2026-08-31T14:05:21Z</time></trkpt><trkpt lat="59.6476247348" lon="30.7411395013"><ele>570.68</ele><time>2026-08-31T14:05:32Z</time></trkpt><trkpt lat="59.6476320270" lon="30.7411465421"><ele>567.32</ele><time>2026-08-31T14:05:43Z</time></trkpt><trkpt lat="59.6476335358" lon="30.7411586121"><ele>563.95</ele><time>2026-08-31T14:05:54Z</time></trkpt><trkpt lat="59.6476354636" lon="30.7411726099"><ele>563.95</ele><time>2026-08-31T14:05:55Z</time></trkpt><trkpt lat="59.6476255730" lon="30.7412699237"><ele>561.07</ele><time>2026-08-31T14:06:05Z</time></trkpt><trkpt lat="59.6476248186" lon="30.7412814070"><ele>557.70</ele><time>2026-08-31T14:06:16Z</time></trkpt><trkpt lat="59.6476218849" lon="30.7412852626"><ele>554.34</ele><time>2026-08-31T14:06:27Z</time></trkpt><trkpt lat="59.6476223879" lon="30.7412817422"><ele>551.45</ele><time>2026-08-31T14:06:38Z</time></trkpt><trkpt lat="59.6476216335" lon="30.7412825804"><ele>548.09</ele><time>2026-08-31T14:06:49Z</time></trkpt><trkpt lat="59.6476226393" lon="30.7412810717"><ele>545.20</ele><time>2026-08-31T14:07:00Z</time></trkpt><trkpt lat="59.6476241481" lon="30.7412828319"><ele>541.84</ele><time>2026-08-31T14:07:11Z</time></trkpt><trkpt lat="59.6476266626" lon="30.7412841730"><ele>540.40</ele><time>2026-08-31T14:07:17Z</time></trkpt><trkpt lat="59.6476212144" lon="30.7413106598"><ele>539.92</ele><time>2026-08-31T14:07:19Z</time></trkpt><trkpt lat="59.6476119943" lon="30.7414471172"><ele>537.03</ele><time>2026-08-31T14:07:29Z</time></trkpt><trkpt lat="59.6476023551" lon="30.7415615302"><ele>534.15</ele><time>2026-08-31T14:07:40Z</time></trkpt><trkpt lat="59.6476239804" lon="30.7416111510"><ele>532.71</ele><time>2026-08-31T14:07:44Z</time></trkpt><trkpt lat="59.6476496290" lon="30.7416367996"><ele>530.30</ele><time>2026-08-31T14:07:54Z</time></trkpt><trkpt lat="59.6476921253" lon="30.7417743467"><ele>526.94</ele><time>2026-08-31T14:08:05Z</time></trkpt><trkpt lat="59.6476947237" lon="30.7417966425"><ele>526.94</ele><time>2026-08-31T14:08:06Z</time></trkpt><trkpt lat="59.6477106493" lon="30.7419111393"><ele>523.09</ele><time>2026-08-31T14:08:19Z</time></trkpt><trkpt lat="59.6477176901" lon="30.7419419847"><ele>520.69</ele><time>2026-08-31T14:08:28Z</time></trkpt><trkpt lat="59.6477415785" lon="30.7420610916"><ele>518.29</ele><time>2026-08-31T14:08:37Z</time></trkpt><trkpt lat="59.6477533970" lon="30.7421088684"><ele>515.40</ele><time>2026-08-31T14:08:49Z</time></trkpt><trkpt lat="59.6477632876" lon="30.7421527896"><ele>512.04</ele><time>2026-08-31T14:09:01Z</time></trkpt><trkpt lat="59.6477780398" lon="30.7421819586"><ele>510.60</ele><time>2026-08-31T14:09:07Z</time></trkpt><trkpt lat="59.6478062868" lon="30.7422765903"><ele>509.64</ele><time>2026-08-31T14:09:11Z</time></trkpt><trkpt lat="59.6478299238" lon="30.7424986269"><ele>505.79</ele><time>2026-08-31T14:09:24Z</time></trkpt><trkpt lat="59.6478247270" lon="30.7425743993"><ele>504.83</ele><time>2026-08-31T14:09:28Z</time></trkpt><trkpt lat="59.6477937978" lon="30.7427561190"><ele>501.95</ele><time>2026-08-31T14:09:39Z</time></trkpt><trkpt lat="59.6477963962" lon="30.7427967712"><ele>499.06</ele><time>2026-08-31T14:09:50Z</time></trkpt><trkpt lat="59.6477825660" lon="30.7428526785"><ele>496.18</ele><time>2026-08-31T14:10:02Z</time></trkpt><trkpt lat="59.6477903612" lon="30.7428223360"><ele>493.29</ele><time>2026-08-31T14:10:13Z</time></trkpt><trkpt lat="59.6478388086" lon="30.7427631598"><ele>490.89</ele><time>2026-08-31T14:10:23Z</time></trkpt><trkpt lat="59.6478468552" lon="30.7427456416"><ele>488.01</ele><time>2026-08-31T14:10:35Z</time></trkpt><trkpt lat="59.6478443407" lon="30.7426567934"><ele>484.64</ele><time>2026-08-31T14:10:48Z</time></trkpt><trkpt lat="59.6478511300" lon="30.7426411193"><ele>481.28</ele><time>2026-08-31T14:11:07Z</time></trkpt><trkpt lat="59.6478542313" lon="30.7426275406"><ele>477.91</ele><time>2026-08-31T14:11:22Z</time></trkpt><trkpt lat="59.6478584222" lon="30.7426139619"><ele>475.03</ele><time>2026-08-31T14:11:35Z</time></trkpt><trkpt lat="59.6478466038" lon="30.7425443921"><ele>472.63</ele><time>2026-08-31T14:11:57Z</time></trkpt><trkpt lat="59.6478164289" lon="30.7424088567"><ele>472.14</ele><time>2026-08-31T14:12:17Z</time></trkpt><trkpt lat="59.6478388086" lon="30.7423857227"><ele>469.26</ele><time>2026-08-31T14:12:38Z</time></trkpt><trkpt lat="59.6478761081" lon="30.7424879819"><ele>466.38</ele><time>2026-08-31T14:12:51Z</time></trkpt><trkpt lat="59.6478864178" lon="30.7425210066"><ele>463.01</ele><time>2026-08-31T14:13:04Z</time></trkpt></trkseg></trk></gpx>